<?xml version="1.0" encoding="UTF-8" standalone="no" ?>
<gpx xmlns="http://www.topografix.com/GPX/1/1" xmlns:xsi="http://www.w3.org/2001/XMLSchema-instance" xsi:schemaLocation="http://www.topografix.com/GPX/1/1 http://www.topografix.com/GPX/1/1/gpx.xsd" version="1.1" creator="VisuGPX - https://www.visugpx.com">
  <metadata>
    <name>Ruhr - Day 3: Dortmund-Herne-Essen</name>
  </metadata>
  <trk>
    <name><![CDATA[Ruhrpott-Tour - Tag 3: Dortmund-Herne-Essen]]></name>
    <extensions>
      <line xmlns="http://www.topografix.com/GPX/gpx_style/0/2">
        <color>0000FF</color>
        <width>4</width>
      </line>
    </extensions>
    <trkseg>
      <trkpt lat="51.51627" lon="7.45884">
        <ele>133.872236</ele>
        <time>2023-04-29T07:38:40.581Z</time>
      </trkpt>
      <trkpt lat="51.51625" lon="7.45901">
        <ele>133.872236</ele>
        <time>2023-04-29T07:38:44.574Z</time>
      </trkpt>
      <trkpt lat="51.51619" lon="7.45886">
        <ele>133.872236</ele>
        <time>2023-04-29T07:38:59.579Z</time>
      </trkpt>
      <trkpt lat="51.51615" lon="7.45871">
        <ele>133.872236</ele>
        <time>2023-04-29T07:39:05.580Z</time>
      </trkpt>
      <trkpt lat="51.51616" lon="7.45854">
        <ele>133.872236</ele>
        <time>2023-04-29T07:39:11.569Z</time>
      </trkpt>
      <trkpt lat="51.51615" lon="7.45837">
        <ele>133.872236</ele>
        <time>2023-04-29T07:39:16.565Z</time>
      </trkpt>
      <trkpt lat="51.51614" lon="7.45822">
        <ele>133.872236</ele>
        <time>2023-04-29T07:39:21.565Z</time>
      </trkpt>
      <trkpt lat="51.51612" lon="7.45805">
        <ele>133.872236</ele>
        <time>2023-04-29T07:39:25.568Z</time>
      </trkpt>
      <trkpt lat="51.5161" lon="7.45789">
        <ele>133.872236</ele>
        <time>2023-04-29T07:39:30.585Z</time>
      </trkpt>
      <trkpt lat="51.51608" lon="7.45774">
        <ele>133.74368</ele>
        <time>2023-04-29T07:39:34.578Z</time>
      </trkpt>
      <trkpt lat="51.51605" lon="7.45756">
        <ele>133.180512</ele>
        <time>2023-04-29T07:39:38.582Z</time>
      </trkpt>
      <trkpt lat="51.51603" lon="7.45739">
        <ele>132.659962</ele>
        <time>2023-04-29T07:39:42.572Z</time>
      </trkpt>
      <trkpt lat="51.51602" lon="7.45724">
        <ele>132.207667</ele>
        <time>2023-04-29T07:39:46.582Z</time>
      </trkpt>
      <trkpt lat="51.516" lon="7.45708">
        <ele>131.715811</ele>
        <time>2023-04-29T07:39:50.583Z</time>
      </trkpt>
      <trkpt lat="51.51597" lon="7.45693">
        <ele>131.225726</ele>
        <time>2023-04-29T07:39:54.599Z</time>
      </trkpt>
      <trkpt lat="51.51596" lon="7.45677">
        <ele>130.750286</ele>
        <time>2023-04-29T07:40:00.580Z</time>
      </trkpt>
      <trkpt lat="51.51592" lon="7.45663">
        <ele>130.298094</ele>
        <time>2023-04-29T07:40:07.579Z</time>
      </trkpt>
      <trkpt lat="51.51587" lon="7.45648">
        <ele>129.772751</ele>
        <time>2023-04-29T07:40:13.569Z</time>
      </trkpt>
      <trkpt lat="51.51583" lon="7.45634">
        <ele>129.295413</ele>
        <time>2023-04-29T07:40:17.578Z</time>
      </trkpt>
      <trkpt lat="51.51584" lon="7.45619">
        <ele>128.850447</ele>
        <time>2023-04-29T07:40:21.582Z</time>
      </trkpt>
      <trkpt lat="51.51591" lon="7.45628">
        <ele>128.40489</ele>
        <time>2023-04-29T07:40:25.573Z</time>
      </trkpt>
      <trkpt lat="51.51599" lon="7.45639">
        <ele>127.91155</ele>
        <time>2023-04-29T07:40:28.592Z</time>
      </trkpt>
      <trkpt lat="51.51605" lon="7.45654">
        <ele>127.388694</ele>
        <time>2023-04-29T07:40:31.581Z</time>
      </trkpt>
      <trkpt lat="51.5161" lon="7.45668">
        <ele>126.885865</ele>
        <time>2023-04-29T07:40:35.583Z</time>
      </trkpt>
      <trkpt lat="51.51614" lon="7.45682">
        <ele>126.425315</ele>
        <time>2023-04-29T07:40:41.563Z</time>
      </trkpt>
      <trkpt lat="51.51621" lon="7.45671">
        <ele>125.953083</ele>
        <time>2023-04-29T07:40:49.571Z</time>
      </trkpt>
      <trkpt lat="51.5163" lon="7.45659">
        <ele>125.409337</ele>
        <time>2023-04-29T07:40:54.589Z</time>
      </trkpt>
      <trkpt lat="51.51636" lon="7.45647">
        <ele>125.074806</ele>
        <time>2023-04-29T07:40:58.601Z</time>
      </trkpt>
      <trkpt lat="51.51645" lon="7.45634">
        <ele>124.829053</ele>
        <time>2023-04-29T07:41:02.587Z</time>
      </trkpt>
      <trkpt lat="51.51655" lon="7.45627">
        <ele>124.579826</ele>
        <time>2023-04-29T07:41:06.586Z</time>
      </trkpt>
      <trkpt lat="51.51664" lon="7.45617">
        <ele>124.349116</ele>
        <time>2023-04-29T07:41:09.581Z</time>
      </trkpt>
      <trkpt lat="51.51669" lon="7.45603">
        <ele>124.130301</ele>
        <time>2023-04-29T07:41:12.584Z</time>
      </trkpt>
      <trkpt lat="51.51668" lon="7.45587">
        <ele>123.913944</ele>
        <time>2023-04-29T07:41:15.572Z</time>
      </trkpt>
      <trkpt lat="51.51665" lon="7.45566">
        <ele>123.625155</ele>
        <time>2023-04-29T07:41:18.587Z</time>
      </trkpt>
      <trkpt lat="51.51665" lon="7.4555">
        <ele>123.409676</ele>
        <time>2023-04-29T07:41:20.557Z</time>
      </trkpt>
      <trkpt lat="51.51664" lon="7.45533">
        <ele>123.180834</ele>
        <time>2023-04-29T07:41:22.587Z</time>
      </trkpt>
      <trkpt lat="51.51663" lon="7.45515">
        <ele>122.94198</ele>
        <time>2023-04-29T07:41:24.583Z</time>
      </trkpt>
      <trkpt lat="51.51664" lon="7.45497">
        <ele>122.692822</ele>
        <time>2023-04-29T07:41:26.581Z</time>
      </trkpt>
      <trkpt lat="51.51666" lon="7.45478">
        <ele>122.438897</ele>
        <time>2023-04-29T07:41:28.602Z</time>
      </trkpt>
      <trkpt lat="51.51666" lon="7.4546">
        <ele>122.200435</ele>
        <time>2023-04-29T07:41:30.582Z</time>
      </trkpt>
      <trkpt lat="51.51664" lon="7.45443">
        <ele>121.959868</ele>
        <time>2023-04-29T07:41:32.571Z</time>
      </trkpt>
      <trkpt lat="51.51662" lon="7.45427">
        <ele>121.73957</ele>
        <time>2023-04-29T07:41:34.569Z</time>
      </trkpt>
      <trkpt lat="51.5166" lon="7.45407">
        <ele>121.475724</ele>
        <time>2023-04-29T07:41:37.596Z</time>
      </trkpt>
      <trkpt lat="51.51666" lon="7.45392">
        <ele>121.30667</ele>
        <time>2023-04-29T07:41:40.575Z</time>
      </trkpt>
      <trkpt lat="51.51675" lon="7.45382">
        <ele>121.317122</ele>
        <time>2023-04-29T07:41:44.573Z</time>
      </trkpt>
      <trkpt lat="51.51686" lon="7.4537">
        <ele>121.328616</ele>
        <time>2023-04-29T07:41:47.585Z</time>
      </trkpt>
      <trkpt lat="51.51696" lon="7.45363">
        <ele>121.33839</ele>
        <time>2023-04-29T07:41:49.548Z</time>
      </trkpt>
      <trkpt lat="51.51709" lon="7.45366">
        <ele>121.349801</ele>
        <time>2023-04-29T07:41:51.554Z</time>
      </trkpt>
      <trkpt lat="51.51723" lon="7.45367">
        <ele>121.362587</ele>
        <time>2023-04-29T07:41:53.557Z</time>
      </trkpt>
      <trkpt lat="51.51737" lon="7.45364">
        <ele>121.375472</ele>
        <time>2023-04-29T07:41:55.541Z</time>
      </trkpt>
      <trkpt lat="51.51751" lon="7.45364">
        <ele>121.387512</ele>
        <time>2023-04-29T07:41:57.548Z</time>
      </trkpt>
      <trkpt lat="51.51762" lon="7.45354">
        <ele>121.399072</ele>
        <time>2023-04-29T07:41:59.553Z</time>
      </trkpt>
      <trkpt lat="51.51775" lon="7.45353">
        <ele>121.41023</ele>
        <time>2023-04-29T07:42:02.571Z</time>
      </trkpt>
      <trkpt lat="51.51783" lon="7.4536">
        <ele>121.418276</ele>
        <time>2023-04-29T07:42:03.568Z</time>
      </trkpt>
      <trkpt lat="51.51796" lon="7.45363">
        <ele>121.430736</ele>
        <time>2023-04-29T07:42:05.592Z</time>
      </trkpt>
      <trkpt lat="51.51808" lon="7.45358">
        <ele>121.441592</ele>
        <time>2023-04-29T07:42:07.564Z</time>
      </trkpt>
      <trkpt lat="51.51819" lon="7.45358">
        <ele>121.451494</ele>
        <time>2023-04-29T07:42:11.587Z</time>
      </trkpt>
      <trkpt lat="51.51832" lon="7.4536">
        <ele>121.462683</ele>
        <time>2023-04-29T07:42:13.586Z</time>
      </trkpt>
      <trkpt lat="51.51841" lon="7.45356">
        <ele>121.228457</ele>
        <time>2023-04-29T07:42:14.582Z</time>
      </trkpt>
      <trkpt lat="51.51853" lon="7.4536">
        <ele>120.852538</ele>
        <time>2023-04-29T07:42:16.600Z</time>
      </trkpt>
      <trkpt lat="51.51862" lon="7.45369">
        <ele>120.509329</ele>
        <time>2023-04-29T07:42:18.567Z</time>
      </trkpt>
      <trkpt lat="51.51871" lon="7.45372">
        <ele>120.223325</ele>
        <time>2023-04-29T07:42:20.578Z</time>
      </trkpt>
      <trkpt lat="51.51884" lon="7.45376">
        <ele>119.792584</ele>
        <time>2023-04-29T07:42:23.577Z</time>
      </trkpt>
      <trkpt lat="51.51893" lon="7.45374">
        <ele>119.50383</ele>
        <time>2023-04-29T07:42:25.571Z</time>
      </trkpt>
      <trkpt lat="51.51906" lon="7.45371">
        <ele>119.100031</ele>
        <time>2023-04-29T07:42:28.581Z</time>
      </trkpt>
      <trkpt lat="51.51918" lon="7.45368">
        <ele>118.717657</ele>
        <time>2023-04-29T07:42:31.594Z</time>
      </trkpt>
      <trkpt lat="51.51928" lon="7.45368">
        <ele>118.404736</ele>
        <time>2023-04-29T07:42:34.588Z</time>
      </trkpt>
      <trkpt lat="51.51937" lon="7.45366">
        <ele>118.10818</ele>
        <time>2023-04-29T07:42:37.567Z</time>
      </trkpt>
      <trkpt lat="51.51948" lon="7.45364">
        <ele>117.768453</ele>
        <time>2023-04-29T07:42:40.600Z</time>
      </trkpt>
      <trkpt lat="51.51959" lon="7.45362">
        <ele>117.420487</ele>
        <time>2023-04-29T07:42:43.607Z</time>
      </trkpt>
      <trkpt lat="51.5197" lon="7.4536">
        <ele>117.053155</ele>
        <time>2023-04-29T07:42:46.588Z</time>
      </trkpt>
      <trkpt lat="51.51979" lon="7.45359">
        <ele>116.763384</ele>
        <time>2023-04-29T07:42:48.603Z</time>
      </trkpt>
      <trkpt lat="51.5199" lon="7.45359">
        <ele>116.431609</ele>
        <time>2023-04-29T07:42:51.581Z</time>
      </trkpt>
      <trkpt lat="51.52001" lon="7.45356">
        <ele>116.081717</ele>
        <time>2023-04-29T07:42:54.602Z</time>
      </trkpt>
      <trkpt lat="51.52013" lon="7.45355">
        <ele>115.783704</ele>
        <time>2023-04-29T07:42:57.580Z</time>
      </trkpt>
      <trkpt lat="51.52023" lon="7.45352">
        <ele>115.777645</ele>
        <time>2023-04-29T07:43:00.586Z</time>
      </trkpt>
      <trkpt lat="51.52033" lon="7.45344">
        <ele>115.771498</ele>
        <time>2023-04-29T07:43:03.581Z</time>
      </trkpt>
      <trkpt lat="51.52042" lon="7.45336">
        <ele>115.766019</ele>
        <time>2023-04-29T07:43:06.587Z</time>
      </trkpt>
      <trkpt lat="51.52052" lon="7.45332">
        <ele>115.76014</ele>
        <time>2023-04-29T07:43:09.571Z</time>
      </trkpt>
      <trkpt lat="51.52063" lon="7.45331">
        <ele>115.753863</ele>
        <time>2023-04-29T07:43:12.587Z</time>
      </trkpt>
      <trkpt lat="51.52074" lon="7.45331">
        <ele>115.748259</ele>
        <time>2023-04-29T07:43:15.569Z</time>
      </trkpt>
      <trkpt lat="51.52081" lon="7.4534">
        <ele>115.74322</ele>
        <time>2023-04-29T07:43:18.579Z</time>
      </trkpt>
      <trkpt lat="51.52092" lon="7.45339">
        <ele>115.736721</ele>
        <time>2023-04-29T07:43:22.579Z</time>
      </trkpt>
      <trkpt lat="51.52102" lon="7.45337">
        <ele>115.731346</ele>
        <time>2023-04-29T07:43:25.574Z</time>
      </trkpt>
      <trkpt lat="51.52112" lon="7.45335">
        <ele>115.725543</ele>
        <time>2023-04-29T07:43:28.584Z</time>
      </trkpt>
      <trkpt lat="51.52124" lon="7.45333">
        <ele>115.719173</ele>
        <time>2023-04-29T07:43:31.584Z</time>
      </trkpt>
      <trkpt lat="51.52135" lon="7.45331">
        <ele>115.713074</ele>
        <time>2023-04-29T07:43:34.569Z</time>
      </trkpt>
      <trkpt lat="51.52145" lon="7.45327">
        <ele>115.707131</ele>
        <time>2023-04-29T07:43:37.598Z</time>
      </trkpt>
      <trkpt lat="51.52155" lon="7.45326">
        <ele>115.70171</ele>
        <time>2023-04-29T07:43:40.585Z</time>
      </trkpt>
      <trkpt lat="51.52164" lon="7.45324">
        <ele>115.696647</ele>
        <time>2023-04-29T07:43:43.585Z</time>
      </trkpt>
      <trkpt lat="51.52174" lon="7.45323">
        <ele>115.690977</ele>
        <time>2023-04-29T07:43:46.587Z</time>
      </trkpt>
      <trkpt lat="51.52185" lon="7.45321">
        <ele>115.687798</ele>
        <time>2023-04-29T07:43:49.577Z</time>
      </trkpt>
      <trkpt lat="51.52196" lon="7.45319">
        <ele>115.742422</ele>
        <time>2023-04-29T07:43:52.583Z</time>
      </trkpt>
      <trkpt lat="51.52207" lon="7.45318">
        <ele>115.798434</ele>
        <time>2023-04-29T07:43:55.596Z</time>
      </trkpt>
      <trkpt lat="51.52216" lon="7.45315">
        <ele>115.847311</ele>
        <time>2023-04-29T07:43:58.583Z</time>
      </trkpt>
      <trkpt lat="51.52227" lon="7.45312">
        <ele>115.903184</ele>
        <time>2023-04-29T07:44:01.577Z</time>
      </trkpt>
      <trkpt lat="51.52238" lon="7.45309">
        <ele>115.962722</ele>
        <time>2023-04-29T07:44:04.584Z</time>
      </trkpt>
      <trkpt lat="51.52249" lon="7.45307">
        <ele>116.019417</ele>
        <time>2023-04-29T07:44:07.573Z</time>
      </trkpt>
      <trkpt lat="51.5226" lon="7.45305">
        <ele>116.075604</ele>
        <time>2023-04-29T07:44:10.562Z</time>
      </trkpt>
      <trkpt lat="51.52271" lon="7.45303">
        <ele>116.132809</ele>
        <time>2023-04-29T07:44:13.590Z</time>
      </trkpt>
      <trkpt lat="51.52282" lon="7.45304">
        <ele>116.191301</ele>
        <time>2023-04-29T07:44:16.583Z</time>
      </trkpt>
      <trkpt lat="51.52293" lon="7.45302">
        <ele>116.244549</ele>
        <time>2023-04-29T07:44:19.572Z</time>
      </trkpt>
      <trkpt lat="51.52302" lon="7.45301">
        <ele>116.293849</ele>
        <time>2023-04-29T07:44:22.600Z</time>
      </trkpt>
      <trkpt lat="51.52312" lon="7.45298">
        <ele>116.34465</ele>
        <time>2023-04-29T07:44:25.559Z</time>
      </trkpt>
      <trkpt lat="51.52323" lon="7.45296">
        <ele>116.398326</ele>
        <time>2023-04-29T07:44:28.566Z</time>
      </trkpt>
      <trkpt lat="51.52333" lon="7.45295">
        <ele>116.452212</ele>
        <time>2023-04-29T07:44:31.582Z</time>
      </trkpt>
      <trkpt lat="51.52343" lon="7.45293">
        <ele>116.505927</ele>
        <time>2023-04-29T07:44:34.581Z</time>
      </trkpt>
      <trkpt lat="51.52353" lon="7.45291">
        <ele>116.556681</ele>
        <time>2023-04-29T07:44:37.595Z</time>
      </trkpt>
      <trkpt lat="51.52362" lon="7.45288">
        <ele>116.603785</ele>
        <time>2023-04-29T07:44:40.593Z</time>
      </trkpt>
      <trkpt lat="51.52371" lon="7.45286">
        <ele>116.651607</ele>
        <time>2023-04-29T07:44:43.582Z</time>
      </trkpt>
      <trkpt lat="51.5238" lon="7.45286">
        <ele>116.699662</ele>
        <time>2023-04-29T07:44:47.581Z</time>
      </trkpt>
      <trkpt lat="51.52396" lon="7.45281">
        <ele>116.782063</ele>
        <time>2023-04-29T07:45:12.596Z</time>
      </trkpt>
      <trkpt lat="51.52405" lon="7.45278">
        <ele>116.833171</ele>
        <time>2023-04-29T07:45:15.564Z</time>
      </trkpt>
      <trkpt lat="51.52415" lon="7.45273">
        <ele>116.885369</ele>
        <time>2023-04-29T07:45:18.595Z</time>
      </trkpt>
      <trkpt lat="51.52425" lon="7.45268">
        <ele>116.942819</ele>
        <time>2023-04-29T07:45:21.586Z</time>
      </trkpt>
      <trkpt lat="51.52434" lon="7.45264">
        <ele>116.992889</ele>
        <time>2023-04-29T07:45:24.602Z</time>
      </trkpt>
      <trkpt lat="51.52444" lon="7.45261">
        <ele>117.044913</ele>
        <time>2023-04-29T07:45:27.591Z</time>
      </trkpt>
      <trkpt lat="51.52454" lon="7.45256">
        <ele>117.099289</ele>
        <time>2023-04-29T07:45:30.586Z</time>
      </trkpt>
      <trkpt lat="51.52464" lon="7.45251">
        <ele>117.1559</ele>
        <time>2023-04-29T07:45:33.595Z</time>
      </trkpt>
      <trkpt lat="51.52478" lon="7.45251">
        <ele>117.228256</ele>
        <time>2023-04-29T07:45:36.603Z</time>
      </trkpt>
      <trkpt lat="51.52491" lon="7.45249">
        <ele>117.29816</ele>
        <time>2023-04-29T07:45:39.574Z</time>
      </trkpt>
      <trkpt lat="51.525" lon="7.45248">
        <ele>117.347964</ele>
        <time>2023-04-29T07:45:41.569Z</time>
      </trkpt>
      <trkpt lat="51.52509" lon="7.45247">
        <ele>117.396539</ele>
        <time>2023-04-29T07:45:43.580Z</time>
      </trkpt>
      <trkpt lat="51.52523" lon="7.45245">
        <ele>117.469156</ele>
        <time>2023-04-29T07:45:46.591Z</time>
      </trkpt>
      <trkpt lat="51.52533" lon="7.45245">
        <ele>117.521421</ele>
        <time>2023-04-29T07:45:48.591Z</time>
      </trkpt>
      <trkpt lat="51.52543" lon="7.45245">
        <ele>117.520186</ele>
        <time>2023-04-29T07:45:50.590Z</time>
      </trkpt>
      <trkpt lat="51.52556" lon="7.45243">
        <ele>117.356731</ele>
        <time>2023-04-29T07:45:53.586Z</time>
      </trkpt>
      <trkpt lat="51.52566" lon="7.45239">
        <ele>117.233743</ele>
        <time>2023-04-29T07:45:55.599Z</time>
      </trkpt>
      <trkpt lat="51.52576" lon="7.45237">
        <ele>117.110981</ele>
        <time>2023-04-29T07:45:57.589Z</time>
      </trkpt>
      <trkpt lat="51.52585" lon="7.45233">
        <ele>116.991171</ele>
        <time>2023-04-29T07:45:59.585Z</time>
      </trkpt>
      <trkpt lat="51.52595" lon="7.4523">
        <ele>116.870661</ele>
        <time>2023-04-29T07:46:01.597Z</time>
      </trkpt>
      <trkpt lat="51.52604" lon="7.45227">
        <ele>116.758824</ele>
        <time>2023-04-29T07:46:03.570Z</time>
      </trkpt>
      <trkpt lat="51.52616" lon="7.45225">
        <ele>116.610575</ele>
        <time>2023-04-29T07:46:06.587Z</time>
      </trkpt>
      <trkpt lat="51.52626" lon="7.45225">
        <ele>116.490955</ele>
        <time>2023-04-29T07:46:09.572Z</time>
      </trkpt>
      <trkpt lat="51.52637" lon="7.45223">
        <ele>116.359537</ele>
        <time>2023-04-29T07:46:13.578Z</time>
      </trkpt>
      <trkpt lat="51.52653" lon="7.45221">
        <ele>116.152907</ele>
        <time>2023-04-29T07:46:33.584Z</time>
      </trkpt>
      <trkpt lat="51.52665" lon="7.45219">
        <ele>116.016944</ele>
        <time>2023-04-29T07:46:37.581Z</time>
      </trkpt>
      <trkpt lat="51.52674" lon="7.4522">
        <ele>115.904498</ele>
        <time>2023-04-29T07:46:40.582Z</time>
      </trkpt>
      <trkpt lat="51.52685" lon="7.45216">
        <ele>115.764689</ele>
        <time>2023-04-29T07:46:43.575Z</time>
      </trkpt>
      <trkpt lat="51.52697" lon="7.45214">
        <ele>115.618638</ele>
        <time>2023-04-29T07:46:46.582Z</time>
      </trkpt>
      <trkpt lat="51.52709" lon="7.45212">
        <ele>115.463658</ele>
        <time>2023-04-29T07:46:49.573Z</time>
      </trkpt>
      <trkpt lat="51.52719" lon="7.4521">
        <ele>115.361103</ele>
        <time>2023-04-29T07:46:51.582Z</time>
      </trkpt>
      <trkpt lat="51.52731" lon="7.45208">
        <ele>115.346508</ele>
        <time>2023-04-29T07:46:54.586Z</time>
      </trkpt>
      <trkpt lat="51.52744" lon="7.45206">
        <ele>115.331945</ele>
        <time>2023-04-29T07:46:57.589Z</time>
      </trkpt>
      <trkpt lat="51.52756" lon="7.45204">
        <ele>115.318093</ele>
        <time>2023-04-29T07:47:00.588Z</time>
      </trkpt>
      <trkpt lat="51.5277" lon="7.45201">
        <ele>115.302752</ele>
        <time>2023-04-29T07:47:03.570Z</time>
      </trkpt>
      <trkpt lat="51.52779" lon="7.452">
        <ele>115.292552</ele>
        <time>2023-04-29T07:47:05.581Z</time>
      </trkpt>
      <trkpt lat="51.52788" lon="7.45198">
        <ele>115.28189</ele>
        <time>2023-04-29T07:47:07.567Z</time>
      </trkpt>
      <trkpt lat="51.52798" lon="7.45196">
        <ele>115.271318</ele>
        <time>2023-04-29T07:47:09.581Z</time>
      </trkpt>
      <trkpt lat="51.5281" lon="7.45193">
        <ele>115.257202</ele>
        <time>2023-04-29T07:47:12.582Z</time>
      </trkpt>
      <trkpt lat="51.52823" lon="7.45191">
        <ele>115.242518</ele>
        <time>2023-04-29T07:47:15.582Z</time>
      </trkpt>
      <trkpt lat="51.52836" lon="7.45188">
        <ele>115.227663</ele>
        <time>2023-04-29T07:47:18.591Z</time>
      </trkpt>
      <trkpt lat="51.52845" lon="7.45187">
        <ele>115.217486</ele>
        <time>2023-04-29T07:47:20.582Z</time>
      </trkpt>
      <trkpt lat="51.52858" lon="7.45186">
        <ele>115.202778</ele>
        <time>2023-04-29T07:47:23.585Z</time>
      </trkpt>
      <trkpt lat="51.52867" lon="7.45185">
        <ele>115.192128</ele>
        <time>2023-04-29T07:47:25.582Z</time>
      </trkpt>
      <trkpt lat="51.52877" lon="7.45183">
        <ele>115.181595</ele>
        <time>2023-04-29T07:47:27.576Z</time>
      </trkpt>
      <trkpt lat="51.52886" lon="7.45181">
        <ele>115.171302</ele>
        <time>2023-04-29T07:47:29.566Z</time>
      </trkpt>
      <trkpt lat="51.529" lon="7.45178">
        <ele>115.160243</ele>
        <time>2023-04-29T07:47:32.599Z</time>
      </trkpt>
      <trkpt lat="51.52909" lon="7.45175">
        <ele>115.164062</ele>
        <time>2023-04-29T07:47:34.592Z</time>
      </trkpt>
      <trkpt lat="51.52918" lon="7.45173">
        <ele>115.167878</ele>
        <time>2023-04-29T07:47:36.590Z</time>
      </trkpt>
      <trkpt lat="51.52927" lon="7.45171">
        <ele>115.171646</ele>
        <time>2023-04-29T07:47:38.580Z</time>
      </trkpt>
      <trkpt lat="51.52937" lon="7.45169">
        <ele>115.175501</ele>
        <time>2023-04-29T07:47:40.584Z</time>
      </trkpt>
      <trkpt lat="51.52946" lon="7.45168">
        <ele>115.179295</ele>
        <time>2023-04-29T07:47:42.585Z</time>
      </trkpt>
      <trkpt lat="51.52955" lon="7.45167">
        <ele>115.183036</ele>
        <time>2023-04-29T07:47:44.567Z</time>
      </trkpt>
      <trkpt lat="51.52965" lon="7.45165">
        <ele>115.186827</ele>
        <time>2023-04-29T07:47:46.576Z</time>
      </trkpt>
      <trkpt lat="51.52974" lon="7.45163">
        <ele>115.1908</ele>
        <time>2023-04-29T07:47:48.588Z</time>
      </trkpt>
      <trkpt lat="51.52984" lon="7.4516">
        <ele>115.19488</ele>
        <time>2023-04-29T07:47:50.584Z</time>
      </trkpt>
      <trkpt lat="51.52994" lon="7.45158">
        <ele>115.198896</ele>
        <time>2023-04-29T07:47:52.585Z</time>
      </trkpt>
      <trkpt lat="51.53004" lon="7.45157">
        <ele>115.202971</ele>
        <time>2023-04-29T07:47:54.557Z</time>
      </trkpt>
      <trkpt lat="51.53014" lon="7.45155">
        <ele>115.206883</ele>
        <time>2023-04-29T07:47:56.589Z</time>
      </trkpt>
      <trkpt lat="51.53023" lon="7.45154">
        <ele>115.210726</ele>
        <time>2023-04-29T07:47:58.581Z</time>
      </trkpt>
      <trkpt lat="51.53033" lon="7.45151">
        <ele>115.214863</ele>
        <time>2023-04-29T07:48:00.571Z</time>
      </trkpt>
      <trkpt lat="51.53043" lon="7.45149">
        <ele>115.218919</ele>
        <time>2023-04-29T07:48:02.580Z</time>
      </trkpt>
      <trkpt lat="51.53053" lon="7.45146">
        <ele>115.222973</ele>
        <time>2023-04-29T07:48:04.575Z</time>
      </trkpt>
      <trkpt lat="51.53063" lon="7.45143">
        <ele>115.227089</ele>
        <time>2023-04-29T07:48:06.595Z</time>
      </trkpt>
      <trkpt lat="51.53073" lon="7.45141">
        <ele>115.231102</ele>
        <time>2023-04-29T07:48:08.603Z</time>
      </trkpt>
      <trkpt lat="51.53082" lon="7.4514">
        <ele>115.113742</ele>
        <time>2023-04-29T07:48:10.581Z</time>
      </trkpt>
      <trkpt lat="51.53092" lon="7.45139">
        <ele>114.968587</ele>
        <time>2023-04-29T07:48:12.587Z</time>
      </trkpt>
      <trkpt lat="51.53101" lon="7.45137">
        <ele>114.828948</ele>
        <time>2023-04-29T07:48:14.588Z</time>
      </trkpt>
      <trkpt lat="51.53111" lon="7.45135">
        <ele>114.682972</ele>
        <time>2023-04-29T07:48:16.588Z</time>
      </trkpt>
      <trkpt lat="51.53121" lon="7.45132">
        <ele>114.534804</ele>
        <time>2023-04-29T07:48:18.592Z</time>
      </trkpt>
      <trkpt lat="51.5313" lon="7.45132">
        <ele>114.394568</ele>
        <time>2023-04-29T07:48:20.590Z</time>
      </trkpt>
      <trkpt lat="51.53139" lon="7.4513">
        <ele>114.248945</ele>
        <time>2023-04-29T07:48:22.580Z</time>
      </trkpt>
      <trkpt lat="51.53148" lon="7.45128">
        <ele>114.111489</ele>
        <time>2023-04-29T07:48:24.586Z</time>
      </trkpt>
      <trkpt lat="51.53161" lon="7.45128">
        <ele>113.920136</ele>
        <time>2023-04-29T07:48:27.616Z</time>
      </trkpt>
      <trkpt lat="51.53171" lon="7.45126">
        <ele>113.773398</ele>
        <time>2023-04-29T07:48:29.573Z</time>
      </trkpt>
      <trkpt lat="51.53181" lon="7.45124">
        <ele>113.623284</ele>
        <time>2023-04-29T07:48:31.582Z</time>
      </trkpt>
      <trkpt lat="51.53191" lon="7.45122">
        <ele>113.466966</ele>
        <time>2023-04-29T07:48:33.581Z</time>
      </trkpt>
      <trkpt lat="51.53202" lon="7.45119">
        <ele>113.301988</ele>
        <time>2023-04-29T07:48:35.582Z</time>
      </trkpt>
      <trkpt lat="51.53213" lon="7.45117">
        <ele>113.131209</ele>
        <time>2023-04-29T07:48:37.576Z</time>
      </trkpt>
      <trkpt lat="51.53224" lon="7.45114">
        <ele>112.957005</ele>
        <time>2023-04-29T07:48:39.562Z</time>
      </trkpt>
      <trkpt lat="51.53235" lon="7.45113">
        <ele>112.791003</ele>
        <time>2023-04-29T07:48:41.583Z</time>
      </trkpt>
      <trkpt lat="51.53246" lon="7.45111">
        <ele>112.63526</ele>
        <time>2023-04-29T07:48:43.595Z</time>
      </trkpt>
      <trkpt lat="51.53256" lon="7.45111">
        <ele>112.443969</ele>
        <time>2023-04-29T07:48:45.588Z</time>
      </trkpt>
      <trkpt lat="51.53267" lon="7.4511">
        <ele>112.158019</ele>
        <time>2023-04-29T07:48:47.580Z</time>
      </trkpt>
      <trkpt lat="51.53278" lon="7.45107">
        <ele>111.870408</ele>
        <time>2023-04-29T07:48:49.581Z</time>
      </trkpt>
      <trkpt lat="51.53289" lon="7.45106">
        <ele>111.581299</ele>
        <time>2023-04-29T07:48:51.585Z</time>
      </trkpt>
      <trkpt lat="51.53301" lon="7.45103">
        <ele>111.277475</ele>
        <time>2023-04-29T07:48:53.579Z</time>
      </trkpt>
      <trkpt lat="51.53311" lon="7.451">
        <ele>111.002366</ele>
        <time>2023-04-29T07:48:55.587Z</time>
      </trkpt>
      <trkpt lat="51.53322" lon="7.451">
        <ele>110.72213</ele>
        <time>2023-04-29T07:48:57.565Z</time>
      </trkpt>
      <trkpt lat="51.53333" lon="7.45098">
        <ele>110.411708</ele>
        <time>2023-04-29T07:48:59.583Z</time>
      </trkpt>
      <trkpt lat="51.53345" lon="7.45095">
        <ele>110.108722</ele>
        <time>2023-04-29T07:49:01.596Z</time>
      </trkpt>
      <trkpt lat="51.53356" lon="7.45093">
        <ele>109.821516</ele>
        <time>2023-04-29T07:49:03.581Z</time>
      </trkpt>
      <trkpt lat="51.53368" lon="7.45091">
        <ele>109.505152</ele>
        <time>2023-04-29T07:49:05.582Z</time>
      </trkpt>
      <trkpt lat="51.53379" lon="7.45087">
        <ele>109.218816</ele>
        <time>2023-04-29T07:49:07.580Z</time>
      </trkpt>
      <trkpt lat="51.53389" lon="7.45083">
        <ele>108.937048</ele>
        <time>2023-04-29T07:49:09.574Z</time>
      </trkpt>
      <trkpt lat="51.534" lon="7.45077">
        <ele>108.644128</ele>
        <time>2023-04-29T07:49:11.570Z</time>
      </trkpt>
      <trkpt lat="51.5341" lon="7.45072">
        <ele>108.358607</ele>
        <time>2023-04-29T07:49:13.592Z</time>
      </trkpt>
      <trkpt lat="51.5342" lon="7.45067">
        <ele>108.087365</ele>
        <time>2023-04-29T07:49:15.589Z</time>
      </trkpt>
      <trkpt lat="51.5343" lon="7.45062">
        <ele>107.817484</ele>
        <time>2023-04-29T07:49:17.593Z</time>
      </trkpt>
      <trkpt lat="51.53439" lon="7.45057">
        <ele>107.860198</ele>
        <time>2023-04-29T07:49:19.576Z</time>
      </trkpt>
      <trkpt lat="51.53449" lon="7.45052">
        <ele>107.904747</ele>
        <time>2023-04-29T07:49:21.587Z</time>
      </trkpt>
      <trkpt lat="51.53457" lon="7.45046">
        <ele>107.944963</ele>
        <time>2023-04-29T07:49:23.574Z</time>
      </trkpt>
      <trkpt lat="51.53468" lon="7.45041">
        <ele>107.994183</ele>
        <time>2023-04-29T07:49:26.597Z</time>
      </trkpt>
      <trkpt lat="51.53478" lon="7.45036">
        <ele>108.03949</ele>
        <time>2023-04-29T07:49:29.583Z</time>
      </trkpt>
      <trkpt lat="51.53487" lon="7.45031">
        <ele>108.081704</ele>
        <time>2023-04-29T07:49:32.590Z</time>
      </trkpt>
      <trkpt lat="51.53499" lon="7.45024">
        <ele>108.135391</ele>
        <time>2023-04-29T07:49:36.588Z</time>
      </trkpt>
      <trkpt lat="51.53508" lon="7.4502">
        <ele>108.177106</ele>
        <time>2023-04-29T07:49:39.571Z</time>
      </trkpt>
      <trkpt lat="51.53517" lon="7.45013">
        <ele>108.220494</ele>
        <time>2023-04-29T07:49:42.586Z</time>
      </trkpt>
      <trkpt lat="51.53526" lon="7.45004">
        <ele>108.268398</ele>
        <time>2023-04-29T07:49:46.583Z</time>
      </trkpt>
      <trkpt lat="51.53537" lon="7.45003">
        <ele>108.315813</ele>
        <time>2023-04-29T07:49:50.591Z</time>
      </trkpt>
      <trkpt lat="51.53546" lon="7.44998">
        <ele>108.356691</ele>
        <time>2023-04-29T07:49:53.572Z</time>
      </trkpt>
      <trkpt lat="51.53555" lon="7.44995">
        <ele>108.400309</ele>
        <time>2023-04-29T07:49:56.576Z</time>
      </trkpt>
      <trkpt lat="51.53565" lon="7.44992">
        <ele>108.443489</ele>
        <time>2023-04-29T07:49:59.569Z</time>
      </trkpt>
      <trkpt lat="51.53576" lon="7.44989">
        <ele>108.489647</ele>
        <time>2023-04-29T07:50:02.590Z</time>
      </trkpt>
      <trkpt lat="51.53586" lon="7.44985">
        <ele>108.535356</ele>
        <time>2023-04-29T07:50:05.579Z</time>
      </trkpt>
      <trkpt lat="51.53597" lon="7.44983">
        <ele>108.586099</ele>
        <time>2023-04-29T07:50:08.595Z</time>
      </trkpt>
      <trkpt lat="51.53608" lon="7.44979">
        <ele>108.760051</ele>
        <time>2023-04-29T07:50:11.586Z</time>
      </trkpt>
      <trkpt lat="51.53618" lon="7.44975">
        <ele>108.992324</ele>
        <time>2023-04-29T07:50:14.588Z</time>
      </trkpt>
      <trkpt lat="51.53626" lon="7.44967">
        <ele>109.214832</ele>
        <time>2023-04-29T07:50:17.580Z</time>
      </trkpt>
      <trkpt lat="51.53626" lon="7.44948">
        <ele>109.477963</ele>
        <time>2023-04-29T07:50:21.572Z</time>
      </trkpt>
      <trkpt lat="51.53624" lon="7.44929">
        <ele>109.754941</ele>
        <time>2023-04-29T07:50:25.588Z</time>
      </trkpt>
      <trkpt lat="51.5362" lon="7.44915">
        <ele>109.974761</ele>
        <time>2023-04-29T07:50:28.572Z</time>
      </trkpt>
      <trkpt lat="51.53618" lon="7.449">
        <ele>110.204115</ele>
        <time>2023-04-29T07:50:31.578Z</time>
      </trkpt>
      <trkpt lat="51.53616" lon="7.44883">
        <ele>110.44041</ele>
        <time>2023-04-29T07:50:34.579Z</time>
      </trkpt>
      <trkpt lat="51.53616" lon="7.44867">
        <ele>110.673583</ele>
        <time>2023-04-29T07:50:37.573Z</time>
      </trkpt>
      <trkpt lat="51.53612" lon="7.44851">
        <ele>110.916329</ele>
        <time>2023-04-29T07:50:40.558Z</time>
      </trkpt>
      <trkpt lat="51.53608" lon="7.44834">
        <ele>111.184036</ele>
        <time>2023-04-29T07:50:43.581Z</time>
      </trkpt>
      <trkpt lat="51.53603" lon="7.44815">
        <ele>111.478971</ele>
        <time>2023-04-29T07:50:46.582Z</time>
      </trkpt>
      <trkpt lat="51.53599" lon="7.44802">
        <ele>111.691096</ele>
        <time>2023-04-29T07:50:48.583Z</time>
      </trkpt>
      <trkpt lat="51.53597" lon="7.4478">
        <ele>111.998023</ele>
        <time>2023-04-29T07:50:51.587Z</time>
      </trkpt>
      <trkpt lat="51.53593" lon="7.44762">
        <ele>112.279244</ele>
        <time>2023-04-29T07:50:54.581Z</time>
      </trkpt>
      <trkpt lat="51.53587" lon="7.44744">
        <ele>112.571832</ele>
        <time>2023-04-29T07:50:57.577Z</time>
      </trkpt>
      <trkpt lat="51.53582" lon="7.44725">
        <ele>112.75907</ele>
        <time>2023-04-29T07:51:00.581Z</time>
      </trkpt>
      <trkpt lat="51.53577" lon="7.4471">
        <ele>112.764831</ele>
        <time>2023-04-29T07:51:03.582Z</time>
      </trkpt>
      <trkpt lat="51.53571" lon="7.44696">
        <ele>112.77093</ele>
        <time>2023-04-29T07:51:06.582Z</time>
      </trkpt>
      <trkpt lat="51.53569" lon="7.4468">
        <ele>112.776573</ele>
        <time>2023-04-29T07:51:09.585Z</time>
      </trkpt>
      <trkpt lat="51.53566" lon="7.44663">
        <ele>112.782661</ele>
        <time>2023-04-29T07:51:12.564Z</time>
      </trkpt>
      <trkpt lat="51.53562" lon="7.44647">
        <ele>112.788601</ele>
        <time>2023-04-29T07:51:15.566Z</time>
      </trkpt>
      <trkpt lat="51.53559" lon="7.44631">
        <ele>112.794251</ele>
        <time>2023-04-29T07:51:18.570Z</time>
      </trkpt>
      <trkpt lat="51.53557" lon="7.44616">
        <ele>112.799645</ele>
        <time>2023-04-29T07:51:21.579Z</time>
      </trkpt>
      <trkpt lat="51.53555" lon="7.44601">
        <ele>112.804985</ele>
        <time>2023-04-29T07:51:24.577Z</time>
      </trkpt>
      <trkpt lat="51.53553" lon="7.44586">
        <ele>112.810258</ele>
        <time>2023-04-29T07:51:27.567Z</time>
      </trkpt>
      <trkpt lat="51.5355" lon="7.44569">
        <ele>112.816539</ele>
        <time>2023-04-29T07:51:31.581Z</time>
      </trkpt>
      <trkpt lat="51.53549" lon="7.44554">
        <ele>112.821927</ele>
        <time>2023-04-29T07:51:34.585Z</time>
      </trkpt>
      <trkpt lat="51.53549" lon="7.44533">
        <ele>112.829214</ele>
        <time>2023-04-29T07:51:37.583Z</time>
      </trkpt>
      <trkpt lat="51.53549" lon="7.44514">
        <ele>112.835494</ele>
        <time>2023-04-29T07:51:40.584Z</time>
      </trkpt>
      <trkpt lat="51.53549" lon="7.44497">
        <ele>112.841499</ele>
        <time>2023-04-29T07:51:43.594Z</time>
      </trkpt>
      <trkpt lat="51.5355" lon="7.44479">
        <ele>112.847962</ele>
        <time>2023-04-29T07:51:47.568Z</time>
      </trkpt>
      <trkpt lat="51.53551" lon="7.44464">
        <ele>112.853039</ele>
        <time>2023-04-29T07:51:50.568Z</time>
      </trkpt>
      <trkpt lat="51.5355" lon="7.44449">
        <ele>112.82831</ele>
        <time>2023-04-29T07:51:53.582Z</time>
      </trkpt>
      <trkpt lat="51.53553" lon="7.44431">
        <ele>112.713449</ele>
        <time>2023-04-29T07:51:56.574Z</time>
      </trkpt>
      <trkpt lat="51.53555" lon="7.44412">
        <ele>112.586614</ele>
        <time>2023-04-29T07:51:59.587Z</time>
      </trkpt>
      <trkpt lat="51.53556" lon="7.44396">
        <ele>112.480307</ele>
        <time>2023-04-29T07:52:02.578Z</time>
      </trkpt>
      <trkpt lat="51.53558" lon="7.44378">
        <ele>112.364212</ele>
        <time>2023-04-29T07:52:05.581Z</time>
      </trkpt>
      <trkpt lat="51.5356" lon="7.44358">
        <ele>112.237262</ele>
        <time>2023-04-29T07:52:08.586Z</time>
      </trkpt>
      <trkpt lat="51.53562" lon="7.44339">
        <ele>112.113775</ele>
        <time>2023-04-29T07:52:11.589Z</time>
      </trkpt>
      <trkpt lat="51.53564" lon="7.44319">
        <ele>111.980043</ele>
        <time>2023-04-29T07:52:14.585Z</time>
      </trkpt>
      <trkpt lat="51.53569" lon="7.44302">
        <ele>111.860598</ele>
        <time>2023-04-29T07:52:17.578Z</time>
      </trkpt>
      <trkpt lat="51.53572" lon="7.44287">
        <ele>111.757995</ele>
        <time>2023-04-29T07:52:20.593Z</time>
      </trkpt>
      <trkpt lat="51.53576" lon="7.44268">
        <ele>111.632967</ele>
        <time>2023-04-29T07:52:23.605Z</time>
      </trkpt>
      <trkpt lat="51.53581" lon="7.4425">
        <ele>111.505317</ele>
        <time>2023-04-29T07:52:26.582Z</time>
      </trkpt>
      <trkpt lat="51.53585" lon="7.4423">
        <ele>111.371728</ele>
        <time>2023-04-29T07:52:29.625Z</time>
      </trkpt>
      <trkpt lat="51.53591" lon="7.44213">
        <ele>111.242834</ele>
        <time>2023-04-29T07:52:32.579Z</time>
      </trkpt>
      <trkpt lat="51.53596" lon="7.44193">
        <ele>111.104005</ele>
        <time>2023-04-29T07:52:35.585Z</time>
      </trkpt>
      <trkpt lat="51.53601" lon="7.44177">
        <ele>110.99437</ele>
        <time>2023-04-29T07:52:38.603Z</time>
      </trkpt>
      <trkpt lat="51.53608" lon="7.44159">
        <ele>110.955869</ele>
        <time>2023-04-29T07:52:41.579Z</time>
      </trkpt>
      <trkpt lat="51.53614" lon="7.44142">
        <ele>110.919322</ele>
        <time>2023-04-29T07:52:44.586Z</time>
      </trkpt>
      <trkpt lat="51.53621" lon="7.44127">
        <ele>110.884937</ele>
        <time>2023-04-29T07:52:47.584Z</time>
      </trkpt>
      <trkpt lat="51.53627" lon="7.44112">
        <ele>110.850751</ele>
        <time>2023-04-29T07:52:50.574Z</time>
      </trkpt>
      <trkpt lat="51.53636" lon="7.44098">
        <ele>110.813684</ele>
        <time>2023-04-29T07:52:53.580Z</time>
      </trkpt>
      <trkpt lat="51.53644" lon="7.44083">
        <ele>110.778122</ele>
        <time>2023-04-29T07:52:56.587Z</time>
      </trkpt>
      <trkpt lat="51.53645" lon="7.44062">
        <ele>110.738977</ele>
        <time>2023-04-29T07:52:59.580Z</time>
      </trkpt>
      <trkpt lat="51.53642" lon="7.44041">
        <ele>110.699869</ele>
        <time>2023-04-29T07:53:02.591Z</time>
      </trkpt>
      <trkpt lat="51.53639" lon="7.44021">
        <ele>110.661833</ele>
        <time>2023-04-29T07:53:05.585Z</time>
      </trkpt>
      <trkpt lat="51.53639" lon="7.44001">
        <ele>110.624008</ele>
        <time>2023-04-29T07:53:08.577Z</time>
      </trkpt>
      <trkpt lat="51.53641" lon="7.4398">
        <ele>110.585897</ele>
        <time>2023-04-29T07:53:11.574Z</time>
      </trkpt>
      <trkpt lat="51.53643" lon="7.43962">
        <ele>110.551056</ele>
        <time>2023-04-29T07:53:14.558Z</time>
      </trkpt>
      <trkpt lat="51.53645" lon="7.43942">
        <ele>110.515087</ele>
        <time>2023-04-29T07:53:17.593Z</time>
      </trkpt>
      <trkpt lat="51.53646" lon="7.43928">
        <ele>110.488309</ele>
        <time>2023-04-29T07:53:19.568Z</time>
      </trkpt>
      <trkpt lat="51.53648" lon="7.43912">
        <ele>110.465227</ele>
        <time>2023-04-29T07:53:21.581Z</time>
      </trkpt>
      <trkpt lat="51.53649" lon="7.43894">
        <ele>110.472893</ele>
        <time>2023-04-29T07:53:24.600Z</time>
      </trkpt>
      <trkpt lat="51.5365" lon="7.43876">
        <ele>110.480385</ele>
        <time>2023-04-29T07:53:27.594Z</time>
      </trkpt>
      <trkpt lat="51.53651" lon="7.43858">
        <ele>110.487779</ele>
        <time>2023-04-29T07:53:30.592Z</time>
      </trkpt>
      <trkpt lat="51.53654" lon="7.43842">
        <ele>110.494968</ele>
        <time>2023-04-29T07:53:33.595Z</time>
      </trkpt>
      <trkpt lat="51.53655" lon="7.43825">
        <ele>110.501798</ele>
        <time>2023-04-29T07:53:36.587Z</time>
      </trkpt>
      <trkpt lat="51.53659" lon="7.43808">
        <ele>110.509462</ele>
        <time>2023-04-29T07:53:39.579Z</time>
      </trkpt>
      <trkpt lat="51.53663" lon="7.4379">
        <ele>110.517497</ele>
        <time>2023-04-29T07:53:42.585Z</time>
      </trkpt>
      <trkpt lat="51.53666" lon="7.43773">
        <ele>110.524686</ele>
        <time>2023-04-29T07:53:45.599Z</time>
      </trkpt>
      <trkpt lat="51.53669" lon="7.43754">
        <ele>110.53294</ele>
        <time>2023-04-29T07:53:48.603Z</time>
      </trkpt>
      <trkpt lat="51.53674" lon="7.43737">
        <ele>110.540591</ele>
        <time>2023-04-29T07:53:51.605Z</time>
      </trkpt>
      <trkpt lat="51.53679" lon="7.43721">
        <ele>110.548472</ele>
        <time>2023-04-29T07:53:54.607Z</time>
      </trkpt>
      <trkpt lat="51.53686" lon="7.43703">
        <ele>110.557025</ele>
        <time>2023-04-29T07:53:57.601Z</time>
      </trkpt>
      <trkpt lat="51.53692" lon="7.43684">
        <ele>110.565953</ele>
        <time>2023-04-29T07:54:00.588Z</time>
      </trkpt>
      <trkpt lat="51.53698" lon="7.43666">
        <ele>110.574539</ele>
        <time>2023-04-29T07:54:03.577Z</time>
      </trkpt>
      <trkpt lat="51.53703" lon="7.43654">
        <ele>110.580963</ele>
        <time>2023-04-29T07:54:05.578Z</time>
      </trkpt>
      <trkpt lat="51.53713" lon="7.43638">
        <ele>110.731648</ele>
        <time>2023-04-29T07:54:08.577Z</time>
      </trkpt>
      <trkpt lat="51.5372" lon="7.43628">
        <ele>110.911592</ele>
        <time>2023-04-29T07:54:10.600Z</time>
      </trkpt>
      <trkpt lat="51.53726" lon="7.43618">
        <ele>111.084085</ele>
        <time>2023-04-29T07:54:12.579Z</time>
      </trkpt>
      <trkpt lat="51.53737" lon="7.43606">
        <ele>111.341792</ele>
        <time>2023-04-29T07:54:15.572Z</time>
      </trkpt>
      <trkpt lat="51.53745" lon="7.43598">
        <ele>111.51944</ele>
        <time>2023-04-29T07:54:17.563Z</time>
      </trkpt>
      <trkpt lat="51.53754" lon="7.43591">
        <ele>111.700549</ele>
        <time>2023-04-29T07:54:19.573Z</time>
      </trkpt>
      <trkpt lat="51.53766" lon="7.43583">
        <ele>111.949539</ele>
        <time>2023-04-29T07:54:22.585Z</time>
      </trkpt>
      <trkpt lat="51.53774" lon="7.43578">
        <ele>112.123111</ele>
        <time>2023-04-29T07:54:24.581Z</time>
      </trkpt>
      <trkpt lat="51.53786" lon="7.4357">
        <ele>112.373866</ele>
        <time>2023-04-29T07:54:27.579Z</time>
      </trkpt>
      <trkpt lat="51.53798" lon="7.43564">
        <ele>112.607075</ele>
        <time>2023-04-29T07:54:30.580Z</time>
      </trkpt>
      <trkpt lat="51.53811" lon="7.43559">
        <ele>112.860862</ele>
        <time>2023-04-29T07:54:33.589Z</time>
      </trkpt>
      <trkpt lat="51.53823" lon="7.43552">
        <ele>113.10783</ele>
        <time>2023-04-29T07:54:36.601Z</time>
      </trkpt>
      <trkpt lat="51.53834" lon="7.43547">
        <ele>113.335197</ele>
        <time>2023-04-29T07:54:39.592Z</time>
      </trkpt>
      <trkpt lat="51.53846" lon="7.43542">
        <ele>113.564736</ele>
        <time>2023-04-29T07:54:42.601Z</time>
      </trkpt>
      <trkpt lat="51.53857" lon="7.43537">
        <ele>113.776076</ele>
        <time>2023-04-29T07:54:45.583Z</time>
      </trkpt>
      <trkpt lat="51.53869" lon="7.43528">
        <ele>114.039047</ele>
        <time>2023-04-29T07:54:48.587Z</time>
      </trkpt>
      <trkpt lat="51.5388" lon="7.43526">
        <ele>114.318921</ele>
        <time>2023-04-29T07:54:51.581Z</time>
      </trkpt>
      <trkpt lat="51.53892" lon="7.43528">
        <ele>114.612117</ele>
        <time>2023-04-29T07:54:54.588Z</time>
      </trkpt>
      <trkpt lat="51.53904" lon="7.43531">
        <ele>114.9141</ele>
        <time>2023-04-29T07:54:57.573Z</time>
      </trkpt>
      <trkpt lat="51.53915" lon="7.43534">
        <ele>115.182074</ele>
        <time>2023-04-29T07:55:00.593Z</time>
      </trkpt>
      <trkpt lat="51.53927" lon="7.43538">
        <ele>115.475667</ele>
        <time>2023-04-29T07:55:03.594Z</time>
      </trkpt>
      <trkpt lat="51.5394" lon="7.43542">
        <ele>115.793258</ele>
        <time>2023-04-29T07:55:06.582Z</time>
      </trkpt>
      <trkpt lat="51.53952" lon="7.43548">
        <ele>116.098577</ele>
        <time>2023-04-29T07:55:09.576Z</time>
      </trkpt>
      <trkpt lat="51.53962" lon="7.43554">
        <ele>116.371789</ele>
        <time>2023-04-29T07:55:12.564Z</time>
      </trkpt>
      <trkpt lat="51.53972" lon="7.43562">
        <ele>116.647838</ele>
        <time>2023-04-29T07:55:15.608Z</time>
      </trkpt>
      <trkpt lat="51.53982" lon="7.43573">
        <ele>116.942725</ele>
        <time>2023-04-29T07:55:18.586Z</time>
      </trkpt>
      <trkpt lat="51.53991" lon="7.43585">
        <ele>117.227777</ele>
        <time>2023-04-29T07:55:21.566Z</time>
      </trkpt>
      <trkpt lat="51.54" lon="7.436">
        <ele>117.53331</ele>
        <time>2023-04-29T07:55:24.585Z</time>
      </trkpt>
      <trkpt lat="51.54007" lon="7.43612">
        <ele>117.788673</ele>
        <time>2023-04-29T07:55:26.585Z</time>
      </trkpt>
      <trkpt lat="51.54012" lon="7.43625">
        <ele>118.024661</ele>
        <time>2023-04-29T07:55:28.596Z</time>
      </trkpt>
      <trkpt lat="51.54018" lon="7.43635">
        <ele>118.244953</ele>
        <time>2023-04-29T07:55:30.601Z</time>
      </trkpt>
      <trkpt lat="51.54027" lon="7.43649">
        <ele>118.351859</ele>
        <time>2023-04-29T07:55:33.589Z</time>
      </trkpt>
      <trkpt lat="51.54034" lon="7.43665">
        <ele>118.141502</ele>
        <time>2023-04-29T07:55:36.595Z</time>
      </trkpt>
      <trkpt lat="51.5404" lon="7.43676">
        <ele>117.975668</ele>
        <time>2023-04-29T07:55:39.593Z</time>
      </trkpt>
      <trkpt lat="51.54046" lon="7.43687">
        <ele>117.811999</ele>
        <time>2023-04-29T07:55:42.585Z</time>
      </trkpt>
      <trkpt lat="51.54057" lon="7.43684">
        <ele>117.630479</ele>
        <time>2023-04-29T07:55:46.586Z</time>
      </trkpt>
      <trkpt lat="51.54065" lon="7.43678">
        <ele>117.460728</ele>
        <time>2023-04-29T07:55:49.578Z</time>
      </trkpt>
      <trkpt lat="51.54075" lon="7.43671">
        <ele>117.266651</ele>
        <time>2023-04-29T07:55:52.611Z</time>
      </trkpt>
      <trkpt lat="51.54083" lon="7.43662">
        <ele>117.091127</ele>
        <time>2023-04-29T07:55:55.574Z</time>
      </trkpt>
      <trkpt lat="51.54091" lon="7.43655">
        <ele>116.929867</ele>
        <time>2023-04-29T07:56:03.575Z</time>
      </trkpt>
      <trkpt lat="51.54096" lon="7.43642">
        <ele>116.768508</ele>
        <time>2023-04-29T07:56:12.569Z</time>
      </trkpt>
      <trkpt lat="51.54103" lon="7.43631">
        <ele>116.596369</ele>
        <time>2023-04-29T07:56:26.575Z</time>
      </trkpt>
      <trkpt lat="51.54109" lon="7.4362">
        <ele>116.433996</ele>
        <time>2023-04-29T07:56:31.587Z</time>
      </trkpt>
      <trkpt lat="51.54116" lon="7.4361">
        <ele>116.269124</ele>
        <time>2023-04-29T07:56:35.595Z</time>
      </trkpt>
      <trkpt lat="51.54125" lon="7.43599">
        <ele>116.066894</ele>
        <time>2023-04-29T07:56:38.580Z</time>
      </trkpt>
      <trkpt lat="51.54135" lon="7.43594">
        <ele>115.880125</ele>
        <time>2023-04-29T07:56:41.589Z</time>
      </trkpt>
      <trkpt lat="51.54144" lon="7.43597">
        <ele>115.708362</ele>
        <time>2023-04-29T07:56:44.574Z</time>
      </trkpt>
      <trkpt lat="51.54153" lon="7.43604">
        <ele>115.538612</ele>
        <time>2023-04-29T07:56:47.578Z</time>
      </trkpt>
      <trkpt lat="51.54164" lon="7.43611">
        <ele>115.325164</ele>
        <time>2023-04-29T07:56:50.575Z</time>
      </trkpt>
      <trkpt lat="51.54176" lon="7.4362">
        <ele>115.362238</ele>
        <time>2023-04-29T07:56:53.574Z</time>
      </trkpt>
      <trkpt lat="51.54184" lon="7.43625">
        <ele>115.500039</ele>
        <time>2023-04-29T07:56:55.594Z</time>
      </trkpt>
      <trkpt lat="51.54198" lon="7.43626">
        <ele>115.704651</ele>
        <time>2023-04-29T07:56:58.585Z</time>
      </trkpt>
      <trkpt lat="51.54209" lon="7.43621">
        <ele>115.883231</ele>
        <time>2023-04-29T07:57:01.580Z</time>
      </trkpt>
      <trkpt lat="51.5421" lon="7.43604">
        <ele>116.039983</ele>
        <time>2023-04-29T07:57:06.567Z</time>
      </trkpt>
      <trkpt lat="51.54205" lon="7.43589">
        <ele>116.204309</ele>
        <time>2023-04-29T07:57:11.565Z</time>
      </trkpt>
      <trkpt lat="51.54199" lon="7.43575">
        <ele>116.366793</ele>
        <time>2023-04-29T07:57:16.572Z</time>
      </trkpt>
      <trkpt lat="51.54195" lon="7.4356">
        <ele>116.518397</ele>
        <time>2023-04-29T07:57:20.585Z</time>
      </trkpt>
      <trkpt lat="51.5419" lon="7.43547">
        <ele>116.667418</ele>
        <time>2023-04-29T07:57:24.575Z</time>
      </trkpt>
      <trkpt lat="51.54186" lon="7.4353">
        <ele>116.833509</ele>
        <time>2023-04-29T07:57:28.618Z</time>
      </trkpt>
      <trkpt lat="51.54186" lon="7.43513">
        <ele>116.99619</ele>
        <time>2023-04-29T07:57:32.588Z</time>
      </trkpt>
      <trkpt lat="51.54184" lon="7.43495">
        <ele>117.165695</ele>
        <time>2023-04-29T07:57:37.557Z</time>
      </trkpt>
      <trkpt lat="51.54181" lon="7.43479">
        <ele>117.321555</ele>
        <time>2023-04-29T07:57:41.577Z</time>
      </trkpt>
      <trkpt lat="51.54179" lon="7.43463">
        <ele>117.478756</ele>
        <time>2023-04-29T07:57:45.586Z</time>
      </trkpt>
      <trkpt lat="51.54175" lon="7.43446">
        <ele>117.649692</ele>
        <time>2023-04-29T07:57:50.589Z</time>
      </trkpt>
      <trkpt lat="51.54172" lon="7.43429">
        <ele>117.815604</ele>
        <time>2023-04-29T07:57:55.584Z</time>
      </trkpt>
      <trkpt lat="51.54169" lon="7.43412">
        <ele>117.951654</ele>
        <time>2023-04-29T07:58:00.584Z</time>
      </trkpt>
      <trkpt lat="51.5417" lon="7.43397">
        <ele>117.803721</ele>
        <time>2023-04-29T07:58:06.586Z</time>
      </trkpt>
      <trkpt lat="51.54178" lon="7.43387">
        <ele>117.646436</ele>
        <time>2023-04-29T07:58:13.565Z</time>
      </trkpt>
      <trkpt lat="51.5419" lon="7.43385">
        <ele>117.457799</ele>
        <time>2023-04-29T07:58:18.595Z</time>
      </trkpt>
      <trkpt lat="51.54201" lon="7.43386">
        <ele>117.282361</ele>
        <time>2023-04-29T07:58:21.577Z</time>
      </trkpt>
      <trkpt lat="51.54213" lon="7.43386">
        <ele>117.087913</ele>
        <time>2023-04-29T07:58:24.571Z</time>
      </trkpt>
      <trkpt lat="51.54222" lon="7.43386">
        <ele>116.938081</ele>
        <time>2023-04-29T07:58:26.585Z</time>
      </trkpt>
      <trkpt lat="51.54236" lon="7.43386">
        <ele>116.719749</ele>
        <time>2023-04-29T07:58:29.590Z</time>
      </trkpt>
      <trkpt lat="51.54246" lon="7.43381">
        <ele>116.556483</ele>
        <time>2023-04-29T07:58:31.572Z</time>
      </trkpt>
      <trkpt lat="51.54255" lon="7.43374">
        <ele>116.388903</ele>
        <time>2023-04-29T07:58:33.590Z</time>
      </trkpt>
      <trkpt lat="51.54265" lon="7.43363">
        <ele>116.205188</ele>
        <time>2023-04-29T07:58:36.583Z</time>
      </trkpt>
      <trkpt lat="51.5427" lon="7.43352">
        <ele>116.058661</ele>
        <time>2023-04-29T07:58:38.593Z</time>
      </trkpt>
      <trkpt lat="51.5428" lon="7.43338">
        <ele>115.851842</ele>
        <time>2023-04-29T07:58:41.588Z</time>
      </trkpt>
      <trkpt lat="51.54287" lon="7.43327">
        <ele>115.694466</ele>
        <time>2023-04-29T07:58:43.585Z</time>
      </trkpt>
      <trkpt lat="51.54292" lon="7.43314">
        <ele>115.547085</ele>
        <time>2023-04-29T07:58:45.571Z</time>
      </trkpt>
      <trkpt lat="51.54295" lon="7.43299">
        <ele>115.388926</ele>
        <time>2023-04-29T07:58:47.572Z</time>
      </trkpt>
      <trkpt lat="51.54294" lon="7.43283">
        <ele>115.230942</ele>
        <time>2023-04-29T07:58:49.579Z</time>
      </trkpt>
      <trkpt lat="51.54293" lon="7.43268">
        <ele>115.08392</ele>
        <time>2023-04-29T07:58:51.580Z</time>
      </trkpt>
      <trkpt lat="51.54294" lon="7.43252">
        <ele>114.957099</ele>
        <time>2023-04-29T07:58:53.579Z</time>
      </trkpt>
      <trkpt lat="51.54294" lon="7.43236">
        <ele>114.831889</ele>
        <time>2023-04-29T07:58:55.594Z</time>
      </trkpt>
      <trkpt lat="51.54294" lon="7.43221">
        <ele>114.70978</ele>
        <time>2023-04-29T07:58:57.583Z</time>
      </trkpt>
      <trkpt lat="51.54293" lon="7.43206">
        <ele>114.590739</ele>
        <time>2023-04-29T07:58:59.573Z</time>
      </trkpt>
      <trkpt lat="51.54293" lon="7.43192">
        <ele>114.472302</ele>
        <time>2023-04-29T07:59:01.568Z</time>
      </trkpt>
      <trkpt lat="51.54293" lon="7.43177">
        <ele>114.355914</ele>
        <time>2023-04-29T07:59:03.584Z</time>
      </trkpt>
      <trkpt lat="51.54291" lon="7.43162">
        <ele>114.234172</ele>
        <time>2023-04-29T07:59:05.583Z</time>
      </trkpt>
      <trkpt lat="51.5429" lon="7.43141">
        <ele>114.061172</ele>
        <time>2023-04-29T07:59:08.589Z</time>
      </trkpt>
      <trkpt lat="51.54289" lon="7.43126">
        <ele>113.945529</ele>
        <time>2023-04-29T07:59:10.592Z</time>
      </trkpt>
      <trkpt lat="51.54289" lon="7.43111">
        <ele>113.824962</ele>
        <time>2023-04-29T07:59:12.592Z</time>
      </trkpt>
      <trkpt lat="51.54289" lon="7.43096">
        <ele>113.703758</ele>
        <time>2023-04-29T07:59:14.583Z</time>
      </trkpt>
      <trkpt lat="51.54288" lon="7.43081">
        <ele>113.582451</ele>
        <time>2023-04-29T07:59:16.634Z</time>
      </trkpt>
      <trkpt lat="51.54288" lon="7.43066">
        <ele>113.461083</ele>
        <time>2023-04-29T07:59:18.597Z</time>
      </trkpt>
      <trkpt lat="51.54287" lon="7.43051">
        <ele>113.339714</ele>
        <time>2023-04-29T07:59:20.594Z</time>
      </trkpt>
      <trkpt lat="51.54287" lon="7.43031">
        <ele>113.177501</ele>
        <time>2023-04-29T07:59:23.585Z</time>
      </trkpt>
      <trkpt lat="51.54287" lon="7.43011">
        <ele>113.02177</ele>
        <time>2023-04-29T07:59:26.595Z</time>
      </trkpt>
      <trkpt lat="51.54287" lon="7.42994">
        <ele>112.884466</ele>
        <time>2023-04-29T07:59:29.573Z</time>
      </trkpt>
      <trkpt lat="51.54286" lon="7.42976">
        <ele>112.775144</ele>
        <time>2023-04-29T07:59:32.577Z</time>
      </trkpt>
      <trkpt lat="51.54285" lon="7.42957">
        <ele>112.761977</ele>
        <time>2023-04-29T07:59:35.584Z</time>
      </trkpt>
      <trkpt lat="51.54286" lon="7.42937">
        <ele>112.748609</ele>
        <time>2023-04-29T07:59:38.582Z</time>
      </trkpt>
      <trkpt lat="51.54286" lon="7.42917">
        <ele>112.734626</ele>
        <time>2023-04-29T07:59:41.578Z</time>
      </trkpt>
      <trkpt lat="51.54284" lon="7.42898">
        <ele>112.72194</ele>
        <time>2023-04-29T07:59:44.573Z</time>
      </trkpt>
      <trkpt lat="51.54284" lon="7.42881">
        <ele>112.710477</ele>
        <time>2023-04-29T07:59:47.592Z</time>
      </trkpt>
      <trkpt lat="51.54286" lon="7.42865">
        <ele>112.699472</ele>
        <time>2023-04-29T07:59:51.602Z</time>
      </trkpt>
      <trkpt lat="51.54296" lon="7.4286">
        <ele>112.687968</ele>
        <time>2023-04-29T07:59:55.565Z</time>
      </trkpt>
      <trkpt lat="51.54306" lon="7.42861">
        <ele>112.676889</ele>
        <time>2023-04-29T07:59:59.582Z</time>
      </trkpt>
      <trkpt lat="51.54317" lon="7.4286">
        <ele>112.664163</ele>
        <time>2023-04-29T08:00:03.589Z</time>
      </trkpt>
      <trkpt lat="51.54328" lon="7.4286">
        <ele>112.652865</ele>
        <time>2023-04-29T08:00:06.586Z</time>
      </trkpt>
      <trkpt lat="51.54338" lon="7.42859">
        <ele>112.641567</ele>
        <time>2023-04-29T08:00:09.566Z</time>
      </trkpt>
      <trkpt lat="51.54349" lon="7.42858">
        <ele>112.629367</ele>
        <time>2023-04-29T08:00:12.587Z</time>
      </trkpt>
      <trkpt lat="51.5436" lon="7.42856">
        <ele>112.617336</ele>
        <time>2023-04-29T08:00:15.566Z</time>
      </trkpt>
      <trkpt lat="51.54371" lon="7.42855">
        <ele>112.605587</ele>
        <time>2023-04-29T08:00:18.594Z</time>
      </trkpt>
      <trkpt lat="51.54382" lon="7.42855">
        <ele>112.593414</ele>
        <time>2023-04-29T08:00:21.582Z</time>
      </trkpt>
      <trkpt lat="51.54393" lon="7.42855">
        <ele>112.584369</ele>
        <time>2023-04-29T08:00:24.606Z</time>
      </trkpt>
      <trkpt lat="51.54405" lon="7.42855">
        <ele>112.648869</ele>
        <time>2023-04-29T08:00:27.602Z</time>
      </trkpt>
      <trkpt lat="51.54417" lon="7.42854">
        <ele>112.716831</ele>
        <time>2023-04-29T08:00:30.602Z</time>
      </trkpt>
      <trkpt lat="51.54429" lon="7.42853">
        <ele>112.785834</ele>
        <time>2023-04-29T08:00:33.587Z</time>
      </trkpt>
      <trkpt lat="51.54442" lon="7.42852">
        <ele>112.856112</ele>
        <time>2023-04-29T08:00:36.604Z</time>
      </trkpt>
      <trkpt lat="51.54454" lon="7.42851">
        <ele>112.921182</ele>
        <time>2023-04-29T08:00:39.574Z</time>
      </trkpt>
      <trkpt lat="51.54466" lon="7.42851">
        <ele>112.989573</ele>
        <time>2023-04-29T08:00:42.588Z</time>
      </trkpt>
      <trkpt lat="51.54477" lon="7.42851">
        <ele>113.051896</ele>
        <time>2023-04-29T08:00:45.589Z</time>
      </trkpt>
      <trkpt lat="51.54489" lon="7.42849">
        <ele>113.115495</ele>
        <time>2023-04-29T08:00:48.583Z</time>
      </trkpt>
      <trkpt lat="51.545" lon="7.42848">
        <ele>113.177276</ele>
        <time>2023-04-29T08:00:51.585Z</time>
      </trkpt>
      <trkpt lat="51.5451" lon="7.42847">
        <ele>113.236543</ele>
        <time>2023-04-29T08:00:54.583Z</time>
      </trkpt>
      <trkpt lat="51.54522" lon="7.42845">
        <ele>113.299511</ele>
        <time>2023-04-29T08:00:57.594Z</time>
      </trkpt>
      <trkpt lat="51.54534" lon="7.42843">
        <ele>113.367811</ele>
        <time>2023-04-29T08:01:00.564Z</time>
      </trkpt>
      <trkpt lat="51.54547" lon="7.42841">
        <ele>113.44057</ele>
        <time>2023-04-29T08:01:03.571Z</time>
      </trkpt>
      <trkpt lat="51.5456" lon="7.42838">
        <ele>113.513094</ele>
        <time>2023-04-29T08:01:06.580Z</time>
      </trkpt>
      <trkpt lat="51.54568" lon="7.42834">
        <ele>113.562718</ele>
        <time>2023-04-29T08:01:08.600Z</time>
      </trkpt>
      <trkpt lat="51.54582" lon="7.42832">
        <ele>113.549894</ele>
        <time>2023-04-29T08:01:11.588Z</time>
      </trkpt>
      <trkpt lat="51.54591" lon="7.42832">
        <ele>113.519082</ele>
        <time>2023-04-29T08:01:13.570Z</time>
      </trkpt>
      <trkpt lat="51.54601" lon="7.4283">
        <ele>113.488651</ele>
        <time>2023-04-29T08:01:15.582Z</time>
      </trkpt>
      <trkpt lat="51.5461" lon="7.42829">
        <ele>113.457017</ele>
        <time>2023-04-29T08:01:17.590Z</time>
      </trkpt>
      <trkpt lat="51.5462" lon="7.42827">
        <ele>113.424382</ele>
        <time>2023-04-29T08:01:19.561Z</time>
      </trkpt>
      <trkpt lat="51.54631" lon="7.42824">
        <ele>113.390028</ele>
        <time>2023-04-29T08:01:21.599Z</time>
      </trkpt>
      <trkpt lat="51.54641" lon="7.42822">
        <ele>113.357417</ele>
        <time>2023-04-29T08:01:23.589Z</time>
      </trkpt>
      <trkpt lat="51.54651" lon="7.4282">
        <ele>113.323868</ele>
        <time>2023-04-29T08:01:25.587Z</time>
      </trkpt>
      <trkpt lat="51.54662" lon="7.42818">
        <ele>113.290276</ele>
        <time>2023-04-29T08:01:27.588Z</time>
      </trkpt>
      <trkpt lat="51.54673" lon="7.42817">
        <ele>113.255839</ele>
        <time>2023-04-29T08:01:29.576Z</time>
      </trkpt>
      <trkpt lat="51.54683" lon="7.42815">
        <ele>113.220607</ele>
        <time>2023-04-29T08:01:31.602Z</time>
      </trkpt>
      <trkpt lat="51.54693" lon="7.42813">
        <ele>113.188374</ele>
        <time>2023-04-29T08:01:33.584Z</time>
      </trkpt>
      <trkpt lat="51.54704" lon="7.42812">
        <ele>113.155217</ele>
        <time>2023-04-29T08:01:35.589Z</time>
      </trkpt>
      <trkpt lat="51.54714" lon="7.42812">
        <ele>113.122793</ele>
        <time>2023-04-29T08:01:37.592Z</time>
      </trkpt>
      <trkpt lat="51.54723" lon="7.42814">
        <ele>113.091838</ele>
        <time>2023-04-29T08:01:39.571Z</time>
      </trkpt>
      <trkpt lat="51.54733" lon="7.42815">
        <ele>113.060263</ele>
        <time>2023-04-29T08:01:41.588Z</time>
      </trkpt>
      <trkpt lat="51.54743" lon="7.42818">
        <ele>113.028735</ele>
        <time>2023-04-29T08:01:43.573Z</time>
      </trkpt>
      <trkpt lat="51.54752" lon="7.42821">
        <ele>113.000611</ele>
        <time>2023-04-29T08:01:45.566Z</time>
      </trkpt>
      <trkpt lat="51.54761" lon="7.42824">
        <ele>112.983173</ele>
        <time>2023-04-29T08:01:47.571Z</time>
      </trkpt>
      <trkpt lat="51.5477" lon="7.42827">
        <ele>112.965629</ele>
        <time>2023-04-29T08:01:49.573Z</time>
      </trkpt>
      <trkpt lat="51.54779" lon="7.4283">
        <ele>112.947813</ele>
        <time>2023-04-29T08:01:51.589Z</time>
      </trkpt>
      <trkpt lat="51.54792" lon="7.42832">
        <ele>112.921912</ele>
        <time>2023-04-29T08:01:54.562Z</time>
      </trkpt>
      <trkpt lat="51.54802" lon="7.42836">
        <ele>112.903128</ele>
        <time>2023-04-29T08:01:56.583Z</time>
      </trkpt>
      <trkpt lat="51.54815" lon="7.42841">
        <ele>112.877071</ele>
        <time>2023-04-29T08:01:59.583Z</time>
      </trkpt>
      <trkpt lat="51.54825" lon="7.42843">
        <ele>112.858433</ele>
        <time>2023-04-29T08:02:01.571Z</time>
      </trkpt>
      <trkpt lat="51.54834" lon="7.42846">
        <ele>112.839859</ele>
        <time>2023-04-29T08:02:03.581Z</time>
      </trkpt>
      <trkpt lat="51.54844" lon="7.42849">
        <ele>112.821383</ele>
        <time>2023-04-29T08:02:05.585Z</time>
      </trkpt>
      <trkpt lat="51.54853" lon="7.4285">
        <ele>112.803228</ele>
        <time>2023-04-29T08:02:07.573Z</time>
      </trkpt>
      <trkpt lat="51.54863" lon="7.42849">
        <ele>112.783737</ele>
        <time>2023-04-29T08:02:09.578Z</time>
      </trkpt>
      <trkpt lat="51.54873" lon="7.42846">
        <ele>112.764004</ele>
        <time>2023-04-29T08:02:11.574Z</time>
      </trkpt>
      <trkpt lat="51.54884" lon="7.42842">
        <ele>112.743443</ele>
        <time>2023-04-29T08:02:13.565Z</time>
      </trkpt>
      <trkpt lat="51.54893" lon="7.42837">
        <ele>112.723463</ele>
        <time>2023-04-29T08:02:15.555Z</time>
      </trkpt>
      <trkpt lat="51.54903" lon="7.42832">
        <ele>112.7037</ele>
        <time>2023-04-29T08:02:17.581Z</time>
      </trkpt>
      <trkpt lat="51.54912" lon="7.42824">
        <ele>112.684057</ele>
        <time>2023-04-29T08:02:19.577Z</time>
      </trkpt>
      <trkpt lat="51.5492" lon="7.42814">
        <ele>112.665226</ele>
        <time>2023-04-29T08:02:21.575Z</time>
      </trkpt>
      <trkpt lat="51.54928" lon="7.42804">
        <ele>112.714375</ele>
        <time>2023-04-29T08:02:23.568Z</time>
      </trkpt>
      <trkpt lat="51.54936" lon="7.42795">
        <ele>112.803443</ele>
        <time>2023-04-29T08:02:25.580Z</time>
      </trkpt>
      <trkpt lat="51.54943" lon="7.42786">
        <ele>112.889159</ele>
        <time>2023-04-29T08:02:27.585Z</time>
      </trkpt>
      <trkpt lat="51.54951" lon="7.42776">
        <ele>112.977413</ele>
        <time>2023-04-29T08:02:29.574Z</time>
      </trkpt>
      <trkpt lat="51.54959" lon="7.42767">
        <ele>113.065953</ele>
        <time>2023-04-29T08:02:31.582Z</time>
      </trkpt>
      <trkpt lat="51.54967" lon="7.42759">
        <ele>113.14965</ele>
        <time>2023-04-29T08:02:33.582Z</time>
      </trkpt>
      <trkpt lat="51.54978" lon="7.42747">
        <ele>113.270966</ele>
        <time>2023-04-29T08:02:36.579Z</time>
      </trkpt>
      <trkpt lat="51.54985" lon="7.42739">
        <ele>113.352404</ele>
        <time>2023-04-29T08:02:38.594Z</time>
      </trkpt>
      <trkpt lat="51.54994" lon="7.42733">
        <ele>113.437762</ele>
        <time>2023-04-29T08:02:40.562Z</time>
      </trkpt>
      <trkpt lat="51.55003" lon="7.42728">
        <ele>113.520985</ele>
        <time>2023-04-29T08:02:42.577Z</time>
      </trkpt>
      <trkpt lat="51.55012" lon="7.42723">
        <ele>113.603896</ele>
        <time>2023-04-29T08:02:44.598Z</time>
      </trkpt>
      <trkpt lat="51.55021" lon="7.42719">
        <ele>113.690053</ele>
        <time>2023-04-29T08:02:46.583Z</time>
      </trkpt>
      <trkpt lat="51.5503" lon="7.42713">
        <ele>113.778994</ele>
        <time>2023-04-29T08:02:48.583Z</time>
      </trkpt>
      <trkpt lat="51.5504" lon="7.42709">
        <ele>113.868267</ele>
        <time>2023-04-29T08:02:50.580Z</time>
      </trkpt>
      <trkpt lat="51.55049" lon="7.42706">
        <ele>113.952999</ele>
        <time>2023-04-29T08:02:52.581Z</time>
      </trkpt>
      <trkpt lat="51.55058" lon="7.42701">
        <ele>114.042248</ele>
        <time>2023-04-29T08:02:54.603Z</time>
      </trkpt>
      <trkpt lat="51.55067" lon="7.42695">
        <ele>114.126721</ele>
        <time>2023-04-29T08:02:56.562Z</time>
      </trkpt>
      <trkpt lat="51.55076" lon="7.4269">
        <ele>114.212927</ele>
        <time>2023-04-29T08:02:58.589Z</time>
      </trkpt>
      <trkpt lat="51.55085" lon="7.42686">
        <ele>114.26759</ele>
        <time>2023-04-29T08:03:00.593Z</time>
      </trkpt>
      <trkpt lat="51.55094" lon="7.42681">
        <ele>114.21804</ele>
        <time>2023-04-29T08:03:02.578Z</time>
      </trkpt>
      <trkpt lat="51.55104" lon="7.42675">
        <ele>114.167283</ele>
        <time>2023-04-29T08:03:04.598Z</time>
      </trkpt>
      <trkpt lat="51.55113" lon="7.4267">
        <ele>114.114621</ele>
        <time>2023-04-29T08:03:06.568Z</time>
      </trkpt>
      <trkpt lat="51.55123" lon="7.42664">
        <ele>114.063106</ele>
        <time>2023-04-29T08:03:08.578Z</time>
      </trkpt>
      <trkpt lat="51.55132" lon="7.42658">
        <ele>114.012108</ele>
        <time>2023-04-29T08:03:10.601Z</time>
      </trkpt>
      <trkpt lat="51.55141" lon="7.42654">
        <ele>113.964215</ele>
        <time>2023-04-29T08:03:12.587Z</time>
      </trkpt>
      <trkpt lat="51.55152" lon="7.42642">
        <ele>113.898357</ele>
        <time>2023-04-29T08:03:15.575Z</time>
      </trkpt>
      <trkpt lat="51.55162" lon="7.4263">
        <ele>113.834789</ele>
        <time>2023-04-29T08:03:18.584Z</time>
      </trkpt>
      <trkpt lat="51.55173" lon="7.42625">
        <ele>113.777547</ele>
        <time>2023-04-29T08:03:21.568Z</time>
      </trkpt>
      <trkpt lat="51.55184" lon="7.42622">
        <ele>113.718033</ele>
        <time>2023-04-29T08:03:24.582Z</time>
      </trkpt>
      <trkpt lat="51.55195" lon="7.42613">
        <ele>113.654495</ele>
        <time>2023-04-29T08:03:27.568Z</time>
      </trkpt>
      <trkpt lat="51.55207" lon="7.42605">
        <ele>113.588787</ele>
        <time>2023-04-29T08:03:30.578Z</time>
      </trkpt>
      <trkpt lat="51.55219" lon="7.42598">
        <ele>113.521598</ele>
        <time>2023-04-29T08:03:33.584Z</time>
      </trkpt>
      <trkpt lat="51.55231" lon="7.42593">
        <ele>113.459621</ele>
        <time>2023-04-29T08:03:36.584Z</time>
      </trkpt>
      <trkpt lat="51.55242" lon="7.42588">
        <ele>113.399785</ele>
        <time>2023-04-29T08:03:39.581Z</time>
      </trkpt>
      <trkpt lat="51.55253" lon="7.42584">
        <ele>113.273637</ele>
        <time>2023-04-29T08:03:42.599Z</time>
      </trkpt>
      <trkpt lat="51.55264" lon="7.4258">
        <ele>112.996654</ele>
        <time>2023-04-29T08:03:45.577Z</time>
      </trkpt>
      <trkpt lat="51.55277" lon="7.42576">
        <ele>112.683975</ele>
        <time>2023-04-29T08:03:48.585Z</time>
      </trkpt>
      <trkpt lat="51.55286" lon="7.42572">
        <ele>112.456209</ele>
        <time>2023-04-29T08:03:50.584Z</time>
      </trkpt>
      <trkpt lat="51.55296" lon="7.42569">
        <ele>112.216944</ele>
        <time>2023-04-29T08:03:52.581Z</time>
      </trkpt>
      <trkpt lat="51.55305" lon="7.42565">
        <ele>111.971639</ele>
        <time>2023-04-29T08:03:54.583Z</time>
      </trkpt>
      <trkpt lat="51.55316" lon="7.42562">
        <ele>111.712002</ele>
        <time>2023-04-29T08:03:56.585Z</time>
      </trkpt>
      <trkpt lat="51.55326" lon="7.42558">
        <ele>111.44966</ele>
        <time>2023-04-29T08:03:58.588Z</time>
      </trkpt>
      <trkpt lat="51.55338" lon="7.42554">
        <ele>111.166926</ele>
        <time>2023-04-29T08:04:00.582Z</time>
      </trkpt>
      <trkpt lat="51.55348" lon="7.42548">
        <ele>110.892833</ele>
        <time>2023-04-29T08:04:02.580Z</time>
      </trkpt>
      <trkpt lat="51.55359" lon="7.42537">
        <ele>110.580038</ele>
        <time>2023-04-29T08:04:04.562Z</time>
      </trkpt>
      <trkpt lat="51.55367" lon="7.42522">
        <ele>110.273368</ele>
        <time>2023-04-29T08:04:06.571Z</time>
      </trkpt>
      <trkpt lat="51.55375" lon="7.42507">
        <ele>109.975831</ele>
        <time>2023-04-29T08:04:08.569Z</time>
      </trkpt>
      <trkpt lat="51.55383" lon="7.42492">
        <ele>109.673011</ele>
        <time>2023-04-29T08:04:10.590Z</time>
      </trkpt>
      <trkpt lat="51.55392" lon="7.42478">
        <ele>109.370739</ele>
        <time>2023-04-29T08:04:12.591Z</time>
      </trkpt>
      <trkpt lat="51.554" lon="7.42465">
        <ele>109.08902</ele>
        <time>2023-04-29T08:04:14.574Z</time>
      </trkpt>
      <trkpt lat="51.55412" lon="7.42461">
        <ele>108.91942</ele>
        <time>2023-04-29T08:04:16.566Z</time>
      </trkpt>
      <trkpt lat="51.55425" lon="7.4246">
        <ele>108.828522</ele>
        <time>2023-04-29T08:04:18.570Z</time>
      </trkpt>
      <trkpt lat="51.55438" lon="7.42458">
        <ele>108.744128</ele>
        <time>2023-04-29T08:04:20.581Z</time>
      </trkpt>
      <trkpt lat="51.55451" lon="7.42457">
        <ele>108.659515</ele>
        <time>2023-04-29T08:04:22.582Z</time>
      </trkpt>
      <trkpt lat="51.55462" lon="7.4246">
        <ele>108.582803</ele>
        <time>2023-04-29T08:04:24.558Z</time>
      </trkpt>
      <trkpt lat="51.55472" lon="7.42467">
        <ele>108.506015</ele>
        <time>2023-04-29T08:04:26.572Z</time>
      </trkpt>
      <trkpt lat="51.55483" lon="7.42476">
        <ele>108.426492</ele>
        <time>2023-04-29T08:04:28.583Z</time>
      </trkpt>
      <trkpt lat="51.55493" lon="7.42487">
        <ele>108.346526</ele>
        <time>2023-04-29T08:04:30.587Z</time>
      </trkpt>
      <trkpt lat="51.55503" lon="7.42495">
        <ele>108.27194</ele>
        <time>2023-04-29T08:04:32.585Z</time>
      </trkpt>
      <trkpt lat="51.55512" lon="7.42501">
        <ele>108.205577</ele>
        <time>2023-04-29T08:04:34.589Z</time>
      </trkpt>
      <trkpt lat="51.5552" lon="7.42508">
        <ele>108.144792</ele>
        <time>2023-04-29T08:04:36.584Z</time>
      </trkpt>
      <trkpt lat="51.5553" lon="7.42514">
        <ele>108.072492</ele>
        <time>2023-04-29T08:04:39.589Z</time>
      </trkpt>
      <trkpt lat="51.5554" lon="7.42507">
        <ele>107.999748</ele>
        <time>2023-04-29T08:04:42.583Z</time>
      </trkpt>
      <trkpt lat="51.55547" lon="7.42493">
        <ele>107.923783</ele>
        <time>2023-04-29T08:04:45.579Z</time>
      </trkpt>
      <trkpt lat="51.55554" lon="7.4248">
        <ele>107.852213</ele>
        <time>2023-04-29T08:04:48.561Z</time>
      </trkpt>
      <trkpt lat="51.5556" lon="7.42466">
        <ele>107.783318</ele>
        <time>2023-04-29T08:04:51.593Z</time>
      </trkpt>
      <trkpt lat="51.55567" lon="7.42453">
        <ele>107.924591</ele>
        <time>2023-04-29T08:04:55.596Z</time>
      </trkpt>
      <trkpt lat="51.55577" lon="7.42449">
        <ele>108.143361</ele>
        <time>2023-04-29T08:04:58.565Z</time>
      </trkpt>
      <trkpt lat="51.55585" lon="7.42439">
        <ele>108.376647</ele>
        <time>2023-04-29T08:05:01.573Z</time>
      </trkpt>
      <trkpt lat="51.55593" lon="7.42425">
        <ele>108.657533</ele>
        <time>2023-04-29T08:05:04.566Z</time>
      </trkpt>
      <trkpt lat="51.556" lon="7.4241">
        <ele>108.923232</ele>
        <time>2023-04-29T08:05:07.567Z</time>
      </trkpt>
      <trkpt lat="51.55608" lon="7.42393">
        <ele>109.216143</ele>
        <time>2023-04-29T08:05:10.589Z</time>
      </trkpt>
      <trkpt lat="51.55616" lon="7.42377">
        <ele>109.504812</ele>
        <time>2023-04-29T08:05:13.582Z</time>
      </trkpt>
      <trkpt lat="51.55621" lon="7.42365">
        <ele>109.720347</ele>
        <time>2023-04-29T08:05:15.576Z</time>
      </trkpt>
      <trkpt lat="51.55627" lon="7.42352">
        <ele>109.948197</ele>
        <time>2023-04-29T08:05:17.590Z</time>
      </trkpt>
      <trkpt lat="51.55633" lon="7.42341">
        <ele>110.15853</ele>
        <time>2023-04-29T08:05:19.561Z</time>
      </trkpt>
      <trkpt lat="51.55642" lon="7.42324">
        <ele>110.471139</ele>
        <time>2023-04-29T08:05:22.601Z</time>
      </trkpt>
      <trkpt lat="51.55648" lon="7.42312">
        <ele>110.685818</ele>
        <time>2023-04-29T08:05:24.582Z</time>
      </trkpt>
      <trkpt lat="51.55654" lon="7.42299">
        <ele>110.919024</ele>
        <time>2023-04-29T08:05:26.571Z</time>
      </trkpt>
      <trkpt lat="51.5566" lon="7.42287">
        <ele>111.137654</ele>
        <time>2023-04-29T08:05:28.578Z</time>
      </trkpt>
      <trkpt lat="51.55666" lon="7.42274">
        <ele>111.359627</ele>
        <time>2023-04-29T08:05:30.588Z</time>
      </trkpt>
      <trkpt lat="51.55672" lon="7.42262">
        <ele>111.589528</ele>
        <time>2023-04-29T08:05:32.594Z</time>
      </trkpt>
      <trkpt lat="51.55678" lon="7.42249">
        <ele>111.824176</ele>
        <time>2023-04-29T08:05:34.580Z</time>
      </trkpt>
      <trkpt lat="51.55684" lon="7.42234">
        <ele>111.888166</ele>
        <time>2023-04-29T08:05:36.582Z</time>
      </trkpt>
      <trkpt lat="51.5569" lon="7.42222">
        <ele>111.913769</ele>
        <time>2023-04-29T08:05:38.575Z</time>
      </trkpt>
      <trkpt lat="51.55696" lon="7.42209">
        <ele>111.939976</ele>
        <time>2023-04-29T08:05:40.601Z</time>
      </trkpt>
      <trkpt lat="51.55701" lon="7.42196">
        <ele>111.966393</ele>
        <time>2023-04-29T08:05:42.587Z</time>
      </trkpt>
      <trkpt lat="51.55707" lon="7.42183">
        <ele>111.992152</ele>
        <time>2023-04-29T08:05:44.573Z</time>
      </trkpt>
      <trkpt lat="51.55712" lon="7.4217">
        <ele>112.01758</ele>
        <time>2023-04-29T08:05:46.573Z</time>
      </trkpt>
      <trkpt lat="51.55717" lon="7.42158">
        <ele>112.043018</ele>
        <time>2023-04-29T08:05:48.569Z</time>
      </trkpt>
      <trkpt lat="51.55723" lon="7.42145">
        <ele>112.06835</ele>
        <time>2023-04-29T08:05:50.582Z</time>
      </trkpt>
      <trkpt lat="51.5573" lon="7.42128">
        <ele>112.103666</ele>
        <time>2023-04-29T08:05:53.574Z</time>
      </trkpt>
      <trkpt lat="51.55735" lon="7.42115">
        <ele>112.128265</ele>
        <time>2023-04-29T08:05:55.587Z</time>
      </trkpt>
      <trkpt lat="51.5574" lon="7.42103">
        <ele>112.152302</ele>
        <time>2023-04-29T08:05:57.589Z</time>
      </trkpt>
      <trkpt lat="51.55746" lon="7.42091">
        <ele>112.178351</ele>
        <time>2023-04-29T08:05:59.575Z</time>
      </trkpt>
      <trkpt lat="51.55751" lon="7.42079">
        <ele>112.203412</ele>
        <time>2023-04-29T08:06:01.574Z</time>
      </trkpt>
      <trkpt lat="51.55759" lon="7.42061">
        <ele>112.239628</ele>
        <time>2023-04-29T08:06:04.559Z</time>
      </trkpt>
      <trkpt lat="51.55764" lon="7.42049">
        <ele>112.263783</ele>
        <time>2023-04-29T08:06:06.576Z</time>
      </trkpt>
      <trkpt lat="51.55771" lon="7.4203">
        <ele>112.299388</ele>
        <time>2023-04-29T08:06:09.569Z</time>
      </trkpt>
      <trkpt lat="51.55777" lon="7.42012">
        <ele>112.333855</ele>
        <time>2023-04-29T08:06:12.580Z</time>
      </trkpt>
      <trkpt lat="51.55783" lon="7.41994">
        <ele>112.346596</ele>
        <time>2023-04-29T08:06:15.574Z</time>
      </trkpt>
      <trkpt lat="51.55789" lon="7.41975">
        <ele>112.348689</ele>
        <time>2023-04-29T08:06:18.580Z</time>
      </trkpt>
      <trkpt lat="51.55794" lon="7.41956">
        <ele>112.350791</ele>
        <time>2023-04-29T08:06:21.574Z</time>
      </trkpt>
      <trkpt lat="51.558" lon="7.41937">
        <ele>112.352922</ele>
        <time>2023-04-29T08:06:24.583Z</time>
      </trkpt>
      <trkpt lat="51.55805" lon="7.41917">
        <ele>112.355038</ele>
        <time>2023-04-29T08:06:27.578Z</time>
      </trkpt>
      <trkpt lat="51.55809" lon="7.41897">
        <ele>112.357163</ele>
        <time>2023-04-29T08:06:30.585Z</time>
      </trkpt>
      <trkpt lat="51.55812" lon="7.41883">
        <ele>112.358625</ele>
        <time>2023-04-29T08:06:32.567Z</time>
      </trkpt>
      <trkpt lat="51.55816" lon="7.41862">
        <ele>112.360759</ele>
        <time>2023-04-29T08:06:35.582Z</time>
      </trkpt>
      <trkpt lat="51.55818" lon="7.41848">
        <ele>112.362243</ele>
        <time>2023-04-29T08:06:37.578Z</time>
      </trkpt>
      <trkpt lat="51.55819" lon="7.41834">
        <ele>112.363689</ele>
        <time>2023-04-29T08:06:39.572Z</time>
      </trkpt>
      <trkpt lat="51.55822" lon="7.41813">
        <ele>112.365825</ele>
        <time>2023-04-29T08:06:42.593Z</time>
      </trkpt>
      <trkpt lat="51.55823" lon="7.41798">
        <ele>112.367298</ele>
        <time>2023-04-29T08:06:44.557Z</time>
      </trkpt>
      <trkpt lat="51.55825" lon="7.41783">
        <ele>112.368789</ele>
        <time>2023-04-29T08:06:46.563Z</time>
      </trkpt>
      <trkpt lat="51.55826" lon="7.41768">
        <ele>112.370324</ele>
        <time>2023-04-29T08:06:48.609Z</time>
      </trkpt>
      <trkpt lat="51.55828" lon="7.41753">
        <ele>112.371807</ele>
        <time>2023-04-29T08:06:50.587Z</time>
      </trkpt>
      <trkpt lat="51.55829" lon="7.41738">
        <ele>112.373369</ele>
        <time>2023-04-29T08:06:52.579Z</time>
      </trkpt>
      <trkpt lat="51.55831" lon="7.41723">
        <ele>112.397452</ele>
        <time>2023-04-29T08:06:54.602Z</time>
      </trkpt>
      <trkpt lat="51.55833" lon="7.41701">
        <ele>112.461614</ele>
        <time>2023-04-29T08:06:57.585Z</time>
      </trkpt>
      <trkpt lat="51.55835" lon="7.41686">
        <ele>112.506268</ele>
        <time>2023-04-29T08:06:59.579Z</time>
      </trkpt>
      <trkpt lat="51.55837" lon="7.41665">
        <ele>112.568429</ele>
        <time>2023-04-29T08:07:02.595Z</time>
      </trkpt>
      <trkpt lat="51.55837" lon="7.4165">
        <ele>112.613115</ele>
        <time>2023-04-29T08:07:04.601Z</time>
      </trkpt>
      <trkpt lat="51.55839" lon="7.41635">
        <ele>112.658351</ele>
        <time>2023-04-29T08:07:06.591Z</time>
      </trkpt>
      <trkpt lat="51.5584" lon="7.41619">
        <ele>112.704378</ele>
        <time>2023-04-29T08:07:08.592Z</time>
      </trkpt>
      <trkpt lat="51.55842" lon="7.41605">
        <ele>112.747942</ele>
        <time>2023-04-29T08:07:10.590Z</time>
      </trkpt>
      <trkpt lat="51.55843" lon="7.41589">
        <ele>112.792479</ele>
        <time>2023-04-29T08:07:12.585Z</time>
      </trkpt>
      <trkpt lat="51.55844" lon="7.41575">
        <ele>112.836773</ele>
        <time>2023-04-29T08:07:14.583Z</time>
      </trkpt>
      <trkpt lat="51.55848" lon="7.41555">
        <ele>112.895536</ele>
        <time>2023-04-29T08:07:17.582Z</time>
      </trkpt>
      <trkpt lat="51.5585" lon="7.41541">
        <ele>112.938473</ele>
        <time>2023-04-29T08:07:19.578Z</time>
      </trkpt>
      <trkpt lat="51.55852" lon="7.41521">
        <ele>112.997671</ele>
        <time>2023-04-29T08:07:22.580Z</time>
      </trkpt>
      <trkpt lat="51.55854" lon="7.41502">
        <ele>113.053799</ele>
        <time>2023-04-29T08:07:25.590Z</time>
      </trkpt>
      <trkpt lat="51.55856" lon="7.41488">
        <ele>113.097308</ele>
        <time>2023-04-29T08:07:37.576Z</time>
      </trkpt>
      <trkpt lat="51.55858" lon="7.41471">
        <ele>113.146488</ele>
        <time>2023-04-29T08:07:42.588Z</time>
      </trkpt>
      <trkpt lat="51.5586" lon="7.41456">
        <ele>113.192244</ele>
        <time>2023-04-29T08:07:45.581Z</time>
      </trkpt>
      <trkpt lat="51.55862" lon="7.4144">
        <ele>113.228856</ele>
        <time>2023-04-29T08:07:48.587Z</time>
      </trkpt>
      <trkpt lat="51.55864" lon="7.41424">
        <ele>113.249361</ele>
        <time>2023-04-29T08:07:51.581Z</time>
      </trkpt>
      <trkpt lat="51.55866" lon="7.41408">
        <ele>113.268983</ele>
        <time>2023-04-29T08:07:54.585Z</time>
      </trkpt>
      <trkpt lat="51.55868" lon="7.41393">
        <ele>113.288126</ele>
        <time>2023-04-29T08:07:57.593Z</time>
      </trkpt>
      <trkpt lat="51.55871" lon="7.41375">
        <ele>113.310851</ele>
        <time>2023-04-29T08:08:00.581Z</time>
      </trkpt>
      <trkpt lat="51.55874" lon="7.41358">
        <ele>113.332984</ele>
        <time>2023-04-29T08:08:03.585Z</time>
      </trkpt>
      <trkpt lat="51.55877" lon="7.41344">
        <ele>113.3513</ele>
        <time>2023-04-29T08:08:05.580Z</time>
      </trkpt>
      <trkpt lat="51.55881" lon="7.41324">
        <ele>113.376839</ele>
        <time>2023-04-29T08:08:08.590Z</time>
      </trkpt>
      <trkpt lat="51.55885" lon="7.41303">
        <ele>113.403725</ele>
        <time>2023-04-29T08:08:11.577Z</time>
      </trkpt>
      <trkpt lat="51.55889" lon="7.41284">
        <ele>113.42895</ele>
        <time>2023-04-29T08:08:14.598Z</time>
      </trkpt>
      <trkpt lat="51.55896" lon="7.41267">
        <ele>113.453797</ele>
        <time>2023-04-29T08:08:17.574Z</time>
      </trkpt>
      <trkpt lat="51.55903" lon="7.41249">
        <ele>113.480107</ele>
        <time>2023-04-29T08:08:20.583Z</time>
      </trkpt>
      <trkpt lat="51.5591" lon="7.41231">
        <ele>113.505598</ele>
        <time>2023-04-29T08:08:23.577Z</time>
      </trkpt>
      <trkpt lat="51.55919" lon="7.41215">
        <ele>113.531859</ele>
        <time>2023-04-29T08:08:26.588Z</time>
      </trkpt>
      <trkpt lat="51.55926" lon="7.41205">
        <ele>113.550101</ele>
        <time>2023-04-29T08:08:28.568Z</time>
      </trkpt>
      <trkpt lat="51.55932" lon="7.41194">
        <ele>113.568217</ele>
        <time>2023-04-29T08:08:30.592Z</time>
      </trkpt>
      <trkpt lat="51.5594" lon="7.41186">
        <ele>113.508878</ele>
        <time>2023-04-29T08:08:32.571Z</time>
      </trkpt>
      <trkpt lat="51.55947" lon="7.41176">
        <ele>113.386015</ele>
        <time>2023-04-29T08:08:34.589Z</time>
      </trkpt>
      <trkpt lat="51.55955" lon="7.41167">
        <ele>113.263527</ele>
        <time>2023-04-29T08:08:36.585Z</time>
      </trkpt>
      <trkpt lat="51.55967" lon="7.41157">
        <ele>113.083328</ele>
        <time>2023-04-29T08:08:39.577Z</time>
      </trkpt>
      <trkpt lat="51.55975" lon="7.4115">
        <ele>112.958802</ele>
        <time>2023-04-29T08:08:41.602Z</time>
      </trkpt>
      <trkpt lat="51.55983" lon="7.41144">
        <ele>112.837715</ele>
        <time>2023-04-29T08:08:43.580Z</time>
      </trkpt>
      <trkpt lat="51.55992" lon="7.4114">
        <ele>112.713582</ele>
        <time>2023-04-29T08:08:45.590Z</time>
      </trkpt>
      <trkpt lat="51.56005" lon="7.41134">
        <ele>112.5388</ele>
        <time>2023-04-29T08:08:48.583Z</time>
      </trkpt>
      <trkpt lat="51.56018" lon="7.4113">
        <ele>112.35884</ele>
        <time>2023-04-29T08:08:51.608Z</time>
      </trkpt>
      <trkpt lat="51.56032" lon="7.41127">
        <ele>112.182252</ele>
        <time>2023-04-29T08:08:54.599Z</time>
      </trkpt>
      <trkpt lat="51.56045" lon="7.41125">
        <ele>112.003654</ele>
        <time>2023-04-29T08:08:57.568Z</time>
      </trkpt>
      <trkpt lat="51.56054" lon="7.41123">
        <ele>111.882395</ele>
        <time>2023-04-29T08:08:59.574Z</time>
      </trkpt>
      <trkpt lat="51.56063" lon="7.41121">
        <ele>111.761551</ele>
        <time>2023-04-29T08:09:01.594Z</time>
      </trkpt>
      <trkpt lat="51.56072" lon="7.41119">
        <ele>111.63634</ele>
        <time>2023-04-29T08:09:03.578Z</time>
      </trkpt>
      <trkpt lat="51.56082" lon="7.41118">
        <ele>111.512973</ele>
        <time>2023-04-29T08:09:05.598Z</time>
      </trkpt>
      <trkpt lat="51.56091" lon="7.41117">
        <ele>111.390106</ele>
        <time>2023-04-29T08:09:07.576Z</time>
      </trkpt>
      <trkpt lat="51.561" lon="7.41115">
        <ele>111.263297</ele>
        <time>2023-04-29T08:09:09.579Z</time>
      </trkpt>
      <trkpt lat="51.5611" lon="7.41112">
        <ele>111.192808</ele>
        <time>2023-04-29T08:09:11.580Z</time>
      </trkpt>
      <trkpt lat="51.56118" lon="7.4111">
        <ele>111.188591</ele>
        <time>2023-04-29T08:09:13.576Z</time>
      </trkpt>
      <trkpt lat="51.56132" lon="7.41107">
        <ele>111.182303</ele>
        <time>2023-04-29T08:09:16.595Z</time>
      </trkpt>
      <trkpt lat="51.56145" lon="7.41105">
        <ele>111.176065</ele>
        <time>2023-04-29T08:09:19.571Z</time>
      </trkpt>
      <trkpt lat="51.56158" lon="7.41102">
        <ele>111.169861</ele>
        <time>2023-04-29T08:09:22.598Z</time>
      </trkpt>
      <trkpt lat="51.56171" lon="7.41099">
        <ele>111.16382</ele>
        <time>2023-04-29T08:09:25.564Z</time>
      </trkpt>
      <trkpt lat="51.56183" lon="7.41096">
        <ele>111.157983</ele>
        <time>2023-04-29T08:09:28.585Z</time>
      </trkpt>
      <trkpt lat="51.56196" lon="7.41093">
        <ele>111.151683</ele>
        <time>2023-04-29T08:09:31.588Z</time>
      </trkpt>
      <trkpt lat="51.56209" lon="7.41088">
        <ele>111.145522</ele>
        <time>2023-04-29T08:09:34.589Z</time>
      </trkpt>
      <trkpt lat="51.56222" lon="7.41084">
        <ele>111.139327</ele>
        <time>2023-04-29T08:09:37.574Z</time>
      </trkpt>
      <trkpt lat="51.56231" lon="7.41081">
        <ele>111.13507</ele>
        <time>2023-04-29T08:09:39.572Z</time>
      </trkpt>
      <trkpt lat="51.56243" lon="7.41075">
        <ele>111.129367</ele>
        <time>2023-04-29T08:09:42.587Z</time>
      </trkpt>
      <trkpt lat="51.56253" lon="7.41069">
        <ele>111.124305</ele>
        <time>2023-04-29T08:09:45.579Z</time>
      </trkpt>
      <trkpt lat="51.56263" lon="7.41061">
        <ele>111.11915</ele>
        <time>2023-04-29T08:09:48.576Z</time>
      </trkpt>
      <trkpt lat="51.56272" lon="7.41054">
        <ele>111.114259</ele>
        <time>2023-04-29T08:09:51.583Z</time>
      </trkpt>
      <trkpt lat="51.5628" lon="7.41046">
        <ele>111.078313</ele>
        <time>2023-04-29T08:09:54.588Z</time>
      </trkpt>
      <trkpt lat="51.56288" lon="7.41037">
        <ele>110.821583</ele>
        <time>2023-04-29T08:09:57.572Z</time>
      </trkpt>
      <trkpt lat="51.56297" lon="7.41026">
        <ele>110.512136</ele>
        <time>2023-04-29T08:10:01.595Z</time>
      </trkpt>
      <trkpt lat="51.56307" lon="7.41028">
        <ele>110.233638</ele>
        <time>2023-04-29T08:10:06.579Z</time>
      </trkpt>
      <trkpt lat="51.56312" lon="7.41048">
        <ele>109.863481</ele>
        <time>2023-04-29T08:10:10.582Z</time>
      </trkpt>
      <trkpt lat="51.56315" lon="7.41067">
        <ele>109.524328</ele>
        <time>2023-04-29T08:10:13.590Z</time>
      </trkpt>
      <trkpt lat="51.56317" lon="7.41086">
        <ele>109.191202</ele>
        <time>2023-04-29T08:10:16.572Z</time>
      </trkpt>
      <trkpt lat="51.56321" lon="7.41105">
        <ele>108.856057</ele>
        <time>2023-04-29T08:10:19.567Z</time>
      </trkpt>
      <trkpt lat="51.56324" lon="7.41125">
        <ele>108.517624</ele>
        <time>2023-04-29T08:10:22.607Z</time>
      </trkpt>
      <trkpt lat="51.56328" lon="7.41144">
        <ele>108.17049</ele>
        <time>2023-04-29T08:10:25.583Z</time>
      </trkpt>
      <trkpt lat="51.56332" lon="7.41163">
        <ele>107.830573</ele>
        <time>2023-04-29T08:10:28.597Z</time>
      </trkpt>
      <trkpt lat="51.56336" lon="7.41181">
        <ele>107.509606</ele>
        <time>2023-04-29T08:10:31.579Z</time>
      </trkpt>
      <trkpt lat="51.56341" lon="7.41195">
        <ele>107.224759</ele>
        <time>2023-04-29T08:10:34.595Z</time>
      </trkpt>
      <trkpt lat="51.56351" lon="7.41195">
        <ele>106.95088</ele>
        <time>2023-04-29T08:10:37.589Z</time>
      </trkpt>
      <trkpt lat="51.5636" lon="7.41189">
        <ele>106.700963</ele>
        <time>2023-04-29T08:10:40.570Z</time>
      </trkpt>
      <trkpt lat="51.56368" lon="7.41182">
        <ele>106.43896</ele>
        <time>2023-04-29T08:10:43.622Z</time>
      </trkpt>
      <trkpt lat="51.56379" lon="7.41174">
        <ele>106.175425</ele>
        <time>2023-04-29T08:10:46.589Z</time>
      </trkpt>
      <trkpt lat="51.5639" lon="7.41168">
        <ele>106.139781</ele>
        <time>2023-04-29T08:10:49.567Z</time>
      </trkpt>
      <trkpt lat="51.564" lon="7.41162">
        <ele>106.107159</ele>
        <time>2023-04-29T08:10:52.563Z</time>
      </trkpt>
      <trkpt lat="51.56412" lon="7.41155">
        <ele>106.070817</ele>
        <time>2023-04-29T08:10:55.601Z</time>
      </trkpt>
      <trkpt lat="51.56423" lon="7.4115">
        <ele>106.035143</ele>
        <time>2023-04-29T08:10:58.583Z</time>
      </trkpt>
      <trkpt lat="51.56434" lon="7.41144">
        <ele>105.998739</ele>
        <time>2023-04-29T08:11:01.586Z</time>
      </trkpt>
      <trkpt lat="51.56446" lon="7.41136">
        <ele>105.960321</ele>
        <time>2023-04-29T08:11:04.564Z</time>
      </trkpt>
      <trkpt lat="51.56458" lon="7.41126">
        <ele>105.919085</ele>
        <time>2023-04-29T08:11:07.568Z</time>
      </trkpt>
      <trkpt lat="51.56467" lon="7.41119">
        <ele>105.889217</ele>
        <time>2023-04-29T08:11:09.571Z</time>
      </trkpt>
      <trkpt lat="51.56476" lon="7.41111">
        <ele>105.858166</ele>
        <time>2023-04-29T08:11:11.574Z</time>
      </trkpt>
      <trkpt lat="51.56483" lon="7.41102">
        <ele>105.829445</ele>
        <time>2023-04-29T08:11:13.560Z</time>
      </trkpt>
      <trkpt lat="51.56492" lon="7.41093">
        <ele>105.799334</ele>
        <time>2023-04-29T08:11:15.624Z</time>
      </trkpt>
      <trkpt lat="51.56503" lon="7.41082">
        <ele>105.759146</ele>
        <time>2023-04-29T08:11:18.575Z</time>
      </trkpt>
      <trkpt lat="51.56513" lon="7.41071">
        <ele>105.720081</ele>
        <time>2023-04-29T08:11:21.548Z</time>
      </trkpt>
      <trkpt lat="51.56524" lon="7.4106">
        <ele>105.682861</ele>
        <time>2023-04-29T08:11:24.584Z</time>
      </trkpt>
      <trkpt lat="51.56534" lon="7.41047">
        <ele>105.643486</ele>
        <time>2023-04-29T08:11:27.572Z</time>
      </trkpt>
      <trkpt lat="51.56543" lon="7.41034">
        <ele>105.619222</ele>
        <time>2023-04-29T08:11:30.557Z</time>
      </trkpt>
      <trkpt lat="51.56552" lon="7.41021">
        <ele>105.598143</ele>
        <time>2023-04-29T08:11:33.578Z</time>
      </trkpt>
      <trkpt lat="51.56561" lon="7.41008">
        <ele>105.57756</ele>
        <time>2023-04-29T08:11:36.584Z</time>
      </trkpt>
      <trkpt lat="51.56569" lon="7.40994">
        <ele>105.556048</ele>
        <time>2023-04-29T08:11:39.569Z</time>
      </trkpt>
      <trkpt lat="51.56579" lon="7.40978">
        <ele>105.532411</ele>
        <time>2023-04-29T08:11:42.582Z</time>
      </trkpt>
      <trkpt lat="51.56584" lon="7.40967">
        <ele>105.516492</ele>
        <time>2023-04-29T08:11:44.576Z</time>
      </trkpt>
      <trkpt lat="51.56591" lon="7.40955">
        <ele>105.499138</ele>
        <time>2023-04-29T08:11:46.554Z</time>
      </trkpt>
      <trkpt lat="51.56597" lon="7.40944">
        <ele>105.482783</ele>
        <time>2023-04-29T08:11:48.585Z</time>
      </trkpt>
      <trkpt lat="51.56603" lon="7.40933">
        <ele>105.466662</ele>
        <time>2023-04-29T08:11:50.572Z</time>
      </trkpt>
      <trkpt lat="51.56608" lon="7.4092">
        <ele>105.450027</ele>
        <time>2023-04-29T08:11:52.569Z</time>
      </trkpt>
      <trkpt lat="51.56615" lon="7.40903">
        <ele>105.427663</ele>
        <time>2023-04-29T08:11:55.575Z</time>
      </trkpt>
      <trkpt lat="51.56622" lon="7.40888">
        <ele>105.407917</ele>
        <time>2023-04-29T08:11:58.584Z</time>
      </trkpt>
      <trkpt lat="51.56628" lon="7.40876">
        <ele>105.390854</ele>
        <time>2023-04-29T08:12:01.565Z</time>
      </trkpt>
      <trkpt lat="51.56635" lon="7.40861">
        <ele>105.371003</ele>
        <time>2023-04-29T08:12:04.569Z</time>
      </trkpt>
      <trkpt lat="51.56641" lon="7.40843">
        <ele>105.347887</ele>
        <time>2023-04-29T08:12:07.569Z</time>
      </trkpt>
      <trkpt lat="51.56647" lon="7.40824">
        <ele>105.324757</ele>
        <time>2023-04-29T08:12:10.584Z</time>
      </trkpt>
      <trkpt lat="51.56654" lon="7.40807">
        <ele>105.335041</ele>
        <time>2023-04-29T08:12:13.567Z</time>
      </trkpt>
      <trkpt lat="51.5666" lon="7.40794">
        <ele>105.346661</ele>
        <time>2023-04-29T08:12:15.578Z</time>
      </trkpt>
      <trkpt lat="51.56666" lon="7.40776">
        <ele>105.362155</ele>
        <time>2023-04-29T08:12:18.588Z</time>
      </trkpt>
      <trkpt lat="51.56672" lon="7.40764">
        <ele>105.373206</ele>
        <time>2023-04-29T08:12:20.562Z</time>
      </trkpt>
      <trkpt lat="51.56679" lon="7.40746">
        <ele>105.388579</ele>
        <time>2023-04-29T08:12:23.591Z</time>
      </trkpt>
      <trkpt lat="51.56684" lon="7.40734">
        <ele>105.399211</ele>
        <time>2023-04-29T08:12:25.594Z</time>
      </trkpt>
      <trkpt lat="51.56692" lon="7.40718">
        <ele>105.41446</ele>
        <time>2023-04-29T08:12:28.595Z</time>
      </trkpt>
      <trkpt lat="51.567" lon="7.40703">
        <ele>105.429044</ele>
        <time>2023-04-29T08:12:31.576Z</time>
      </trkpt>
      <trkpt lat="51.56708" lon="7.40688">
        <ele>105.442942</ele>
        <time>2023-04-29T08:12:34.579Z</time>
      </trkpt>
      <trkpt lat="51.56715" lon="7.40673">
        <ele>105.457538</ele>
        <time>2023-04-29T08:12:37.590Z</time>
      </trkpt>
      <trkpt lat="51.56723" lon="7.40658">
        <ele>105.47174</ele>
        <time>2023-04-29T08:12:40.581Z</time>
      </trkpt>
      <trkpt lat="51.56731" lon="7.40641">
        <ele>105.487322</ele>
        <time>2023-04-29T08:12:43.578Z</time>
      </trkpt>
      <trkpt lat="51.5674" lon="7.40625">
        <ele>105.50317</ele>
        <time>2023-04-29T08:12:46.583Z</time>
      </trkpt>
      <trkpt lat="51.56748" lon="7.40609">
        <ele>105.518387</ele>
        <time>2023-04-29T08:12:49.572Z</time>
      </trkpt>
      <trkpt lat="51.56757" lon="7.40594">
        <ele>105.533936</ele>
        <time>2023-04-29T08:12:52.591Z</time>
      </trkpt>
      <trkpt lat="51.56766" lon="7.40579">
        <ele>105.360846</ele>
        <time>2023-04-29T08:12:55.574Z</time>
      </trkpt>
      <trkpt lat="51.56773" lon="7.40568">
        <ele>105.23153</ele>
        <time>2023-04-29T08:12:57.579Z</time>
      </trkpt>
      <trkpt lat="51.5678" lon="7.40552">
        <ele>105.049253</ele>
        <time>2023-04-29T08:13:00.566Z</time>
      </trkpt>
      <trkpt lat="51.5679" lon="7.40537">
        <ele>104.861317</ele>
        <time>2023-04-29T08:13:03.573Z</time>
      </trkpt>
      <trkpt lat="51.56797" lon="7.40525">
        <ele>104.713688</ele>
        <time>2023-04-29T08:13:05.568Z</time>
      </trkpt>
      <trkpt lat="51.56804" lon="7.40513">
        <ele>104.568909</ele>
        <time>2023-04-29T08:13:07.581Z</time>
      </trkpt>
      <trkpt lat="51.5681" lon="7.40502">
        <ele>104.433445</ele>
        <time>2023-04-29T08:13:09.562Z</time>
      </trkpt>
      <trkpt lat="51.56817" lon="7.4049">
        <ele>104.294233</ele>
        <time>2023-04-29T08:13:11.572Z</time>
      </trkpt>
      <trkpt lat="51.56824" lon="7.4048">
        <ele>104.157483</ele>
        <time>2023-04-29T08:13:13.564Z</time>
      </trkpt>
      <trkpt lat="51.56831" lon="7.40469">
        <ele>104.019763</ele>
        <time>2023-04-29T08:13:15.570Z</time>
      </trkpt>
      <trkpt lat="51.56841" lon="7.40455">
        <ele>103.83223</ele>
        <time>2023-04-29T08:13:18.579Z</time>
      </trkpt>
      <trkpt lat="51.56846" lon="7.40443">
        <ele>103.698363</ele>
        <time>2023-04-29T08:13:20.573Z</time>
      </trkpt>
      <trkpt lat="51.56852" lon="7.40431">
        <ele>103.567724</ele>
        <time>2023-04-29T08:13:22.593Z</time>
      </trkpt>
      <trkpt lat="51.5686" lon="7.40416">
        <ele>103.388911</ele>
        <time>2023-04-29T08:13:25.579Z</time>
      </trkpt>
      <trkpt lat="51.56868" lon="7.40402">
        <ele>103.222811</ele>
        <time>2023-04-29T08:13:28.586Z</time>
      </trkpt>
      <trkpt lat="51.56876" lon="7.40389">
        <ele>103.064136</ele>
        <time>2023-04-29T08:13:31.575Z</time>
      </trkpt>
      <trkpt lat="51.56882" lon="7.40378">
        <ele>103.000581</ele>
        <time>2023-04-29T08:13:34.588Z</time>
      </trkpt>
      <trkpt lat="51.56894" lon="7.40353">
        <ele>103.19001</ele>
        <time>2023-04-29T08:15:05.567Z</time>
      </trkpt>
      <trkpt lat="51.569" lon="7.40341">
        <ele>103.280238</ele>
        <time>2023-04-29T08:15:10.555Z</time>
      </trkpt>
      <trkpt lat="51.56908" lon="7.40328">
        <ele>103.393792</ele>
        <time>2023-04-29T08:15:15.575Z</time>
      </trkpt>
      <trkpt lat="51.56916" lon="7.40316">
        <ele>103.497363</ele>
        <time>2023-04-29T08:15:19.564Z</time>
      </trkpt>
      <trkpt lat="51.56923" lon="7.40304">
        <ele>103.593729</ele>
        <time>2023-04-29T08:15:22.580Z</time>
      </trkpt>
      <trkpt lat="51.56928" lon="7.40291">
        <ele>103.688851</ele>
        <time>2023-04-29T08:15:25.563Z</time>
      </trkpt>
      <trkpt lat="51.56934" lon="7.40275">
        <ele>103.7972</ele>
        <time>2023-04-29T08:15:28.567Z</time>
      </trkpt>
      <trkpt lat="51.56941" lon="7.40262">
        <ele>103.900798</ele>
        <time>2023-04-29T08:15:31.570Z</time>
      </trkpt>
      <trkpt lat="51.56947" lon="7.40249">
        <ele>104.000101</ele>
        <time>2023-04-29T08:15:34.596Z</time>
      </trkpt>
      <trkpt lat="51.56954" lon="7.40236">
        <ele>104.099887</ele>
        <time>2023-04-29T08:15:37.575Z</time>
      </trkpt>
      <trkpt lat="51.56961" lon="7.40221">
        <ele>104.210312</ele>
        <time>2023-04-29T08:15:40.585Z</time>
      </trkpt>
      <trkpt lat="51.56966" lon="7.40207">
        <ele>104.311051</ele>
        <time>2023-04-29T08:15:43.570Z</time>
      </trkpt>
      <trkpt lat="51.56971" lon="7.40191">
        <ele>104.416261</ele>
        <time>2023-04-29T08:15:46.565Z</time>
      </trkpt>
      <trkpt lat="51.56977" lon="7.40174">
        <ele>104.532817</ele>
        <time>2023-04-29T08:15:49.568Z</time>
      </trkpt>
      <trkpt lat="51.56982" lon="7.4016">
        <ele>104.633529</ele>
        <time>2023-04-29T08:15:52.561Z</time>
      </trkpt>
      <trkpt lat="51.56989" lon="7.40147">
        <ele>104.752391</ele>
        <time>2023-04-29T08:15:55.561Z</time>
      </trkpt>
      <trkpt lat="51.56995" lon="7.40135">
        <ele>104.889551</ele>
        <time>2023-04-29T08:15:58.571Z</time>
      </trkpt>
      <trkpt lat="51.57003" lon="7.40123">
        <ele>105.046695</ele>
        <time>2023-04-29T08:16:02.566Z</time>
      </trkpt>
      <trkpt lat="51.57012" lon="7.40113">
        <ele>105.19631</ele>
        <time>2023-04-29T08:16:06.571Z</time>
      </trkpt>
      <trkpt lat="51.5702" lon="7.40103">
        <ele>105.338152</ele>
        <time>2023-04-29T08:16:11.575Z</time>
      </trkpt>
      <trkpt lat="51.57023" lon="7.40089">
        <ele>105.47352</ele>
        <time>2023-04-29T08:16:19.569Z</time>
      </trkpt>
      <trkpt lat="51.5703" lon="7.40078">
        <ele>105.612001</ele>
        <time>2023-04-29T08:18:33.580Z</time>
      </trkpt>
      <trkpt lat="51.57036" lon="7.40065">
        <ele>105.744548</ele>
        <time>2023-04-29T08:18:39.564Z</time>
      </trkpt>
      <trkpt lat="51.57043" lon="7.40052">
        <ele>105.90075</ele>
        <time>2023-04-29T08:18:43.575Z</time>
      </trkpt>
      <trkpt lat="51.57051" lon="7.40042">
        <ele>106.052398</ele>
        <time>2023-04-29T08:18:46.568Z</time>
      </trkpt>
      <trkpt lat="51.57059" lon="7.40029">
        <ele>106.213145</ele>
        <time>2023-04-29T08:18:49.573Z</time>
      </trkpt>
      <trkpt lat="51.57068" lon="7.40016">
        <ele>106.378695</ele>
        <time>2023-04-29T08:18:52.546Z</time>
      </trkpt>
      <trkpt lat="51.57076" lon="7.40003">
        <ele>106.540555</ele>
        <time>2023-04-29T08:18:55.560Z</time>
      </trkpt>
      <trkpt lat="51.57083" lon="7.39988">
        <ele>106.711577</ele>
        <time>2023-04-29T08:18:58.599Z</time>
      </trkpt>
      <trkpt lat="51.5709" lon="7.39972">
        <ele>106.885777</ele>
        <time>2023-04-29T08:19:01.566Z</time>
      </trkpt>
      <trkpt lat="51.57097" lon="7.3996">
        <ele>107.027916</ele>
        <time>2023-04-29T08:19:04.582Z</time>
      </trkpt>
      <trkpt lat="51.57103" lon="7.39948">
        <ele>107.168959</ele>
        <time>2023-04-29T08:19:07.552Z</time>
      </trkpt>
      <trkpt lat="51.5711" lon="7.39935">
        <ele>107.320063</ele>
        <time>2023-04-29T08:19:10.583Z</time>
      </trkpt>
      <trkpt lat="51.57116" lon="7.39923">
        <ele>107.477111</ele>
        <time>2023-04-29T08:19:13.579Z</time>
      </trkpt>
      <trkpt lat="51.57122" lon="7.3991">
        <ele>107.633918</ele>
        <time>2023-04-29T08:19:16.585Z</time>
      </trkpt>
      <trkpt lat="51.5713" lon="7.39897">
        <ele>107.806145</ele>
        <time>2023-04-29T08:19:19.573Z</time>
      </trkpt>
      <trkpt lat="51.57138" lon="7.39884">
        <ele>107.978028</ele>
        <time>2023-04-29T08:19:22.600Z</time>
      </trkpt>
      <trkpt lat="51.57145" lon="7.39871">
        <ele>108.151392</ele>
        <time>2023-04-29T08:19:25.573Z</time>
      </trkpt>
      <trkpt lat="51.57151" lon="7.39858">
        <ele>108.308617</ele>
        <time>2023-04-29T08:19:28.591Z</time>
      </trkpt>
      <trkpt lat="51.57158" lon="7.39844">
        <ele>108.481299</ele>
        <time>2023-04-29T08:19:31.572Z</time>
      </trkpt>
      <trkpt lat="51.57165" lon="7.39829">
        <ele>108.661506</ele>
        <time>2023-04-29T08:19:34.592Z</time>
      </trkpt>
      <trkpt lat="51.57172" lon="7.39815">
        <ele>108.845184</ele>
        <time>2023-04-29T08:19:37.579Z</time>
      </trkpt>
      <trkpt lat="51.57179" lon="7.39798">
        <ele>109.041518</ele>
        <time>2023-04-29T08:19:40.583Z</time>
      </trkpt>
      <trkpt lat="51.57186" lon="7.39782">
        <ele>109.22804</ele>
        <time>2023-04-29T08:19:43.589Z</time>
      </trkpt>
      <trkpt lat="51.57194" lon="7.39769">
        <ele>109.410122</ele>
        <time>2023-04-29T08:19:46.581Z</time>
      </trkpt>
      <trkpt lat="51.57203" lon="7.39755">
        <ele>109.597826</ele>
        <time>2023-04-29T08:19:49.581Z</time>
      </trkpt>
      <trkpt lat="51.57211" lon="7.39741">
        <ele>109.785361</ele>
        <time>2023-04-29T08:19:52.579Z</time>
      </trkpt>
      <trkpt lat="51.57219" lon="7.39726">
        <ele>109.972023</ele>
        <time>2023-04-29T08:19:55.579Z</time>
      </trkpt>
      <trkpt lat="51.57226" lon="7.39712">
        <ele>110.014421</ele>
        <time>2023-04-29T08:19:58.577Z</time>
      </trkpt>
      <trkpt lat="51.57234" lon="7.39696">
        <ele>109.840788</ele>
        <time>2023-04-29T08:20:01.568Z</time>
      </trkpt>
      <trkpt lat="51.5724" lon="7.39684">
        <ele>109.714339</ele>
        <time>2023-04-29T08:20:03.560Z</time>
      </trkpt>
      <trkpt lat="51.5725" lon="7.39669">
        <ele>109.526516</ele>
        <time>2023-04-29T08:20:06.586Z</time>
      </trkpt>
      <trkpt lat="51.57258" lon="7.39653">
        <ele>109.35099</ele>
        <time>2023-04-29T08:20:09.574Z</time>
      </trkpt>
      <trkpt lat="51.57266" lon="7.39638">
        <ele>109.184401</ele>
        <time>2023-04-29T08:20:12.581Z</time>
      </trkpt>
      <trkpt lat="51.57272" lon="7.39623">
        <ele>109.029645</ele>
        <time>2023-04-29T08:20:15.581Z</time>
      </trkpt>
      <trkpt lat="51.57279" lon="7.39607">
        <ele>108.865008</ele>
        <time>2023-04-29T08:20:18.576Z</time>
      </trkpt>
      <trkpt lat="51.57285" lon="7.39595">
        <ele>108.740432</ele>
        <time>2023-04-29T08:20:20.589Z</time>
      </trkpt>
      <trkpt lat="51.57291" lon="7.39576">
        <ele>108.560952</ele>
        <time>2023-04-29T08:20:23.582Z</time>
      </trkpt>
      <trkpt lat="51.57298" lon="7.39562">
        <ele>108.404092</ele>
        <time>2023-04-29T08:20:26.585Z</time>
      </trkpt>
      <trkpt lat="51.57305" lon="7.3955">
        <ele>108.264955</ele>
        <time>2023-04-29T08:20:29.569Z</time>
      </trkpt>
      <trkpt lat="51.57312" lon="7.3954">
        <ele>108.135483</ele>
        <time>2023-04-29T08:20:33.565Z</time>
      </trkpt>
      <trkpt lat="51.57317" lon="7.39525">
        <ele>107.995837</ele>
        <time>2023-04-29T08:20:39.564Z</time>
      </trkpt>
      <trkpt lat="51.57324" lon="7.39512">
        <ele>107.852093</ele>
        <time>2023-04-29T08:20:44.577Z</time>
      </trkpt>
      <trkpt lat="51.57331" lon="7.39498">
        <ele>107.694513</ele>
        <time>2023-04-29T08:20:48.576Z</time>
      </trkpt>
      <trkpt lat="51.57337" lon="7.39484">
        <ele>107.573302</ele>
        <time>2023-04-29T08:20:51.578Z</time>
      </trkpt>
      <trkpt lat="51.57342" lon="7.39467">
        <ele>107.458235</ele>
        <time>2023-04-29T08:20:55.562Z</time>
      </trkpt>
      <trkpt lat="51.57352" lon="7.39458">
        <ele>107.341816</ele>
        <time>2023-04-29T08:20:59.582Z</time>
      </trkpt>
      <trkpt lat="51.5736" lon="7.39447">
        <ele>107.238564</ele>
        <time>2023-04-29T08:21:02.656Z</time>
      </trkpt>
      <trkpt lat="51.57368" lon="7.39435">
        <ele>107.129109</ele>
        <time>2023-04-29T08:21:05.560Z</time>
      </trkpt>
      <trkpt lat="51.57376" lon="7.39422">
        <ele>107.017788</ele>
        <time>2023-04-29T08:21:08.576Z</time>
      </trkpt>
      <trkpt lat="51.57384" lon="7.39406">
        <ele>106.891032</ele>
        <time>2023-04-29T08:21:11.565Z</time>
      </trkpt>
      <trkpt lat="51.57389" lon="7.39394">
        <ele>106.799643</ele>
        <time>2023-04-29T08:21:13.561Z</time>
      </trkpt>
      <trkpt lat="51.57396" lon="7.39377">
        <ele>106.672204</ele>
        <time>2023-04-29T08:21:16.572Z</time>
      </trkpt>
      <trkpt lat="51.57403" lon="7.3936">
        <ele>106.539349</ele>
        <time>2023-04-29T08:21:19.567Z</time>
      </trkpt>
      <trkpt lat="51.57409" lon="7.39346">
        <ele>106.440539</ele>
        <time>2023-04-29T08:21:21.570Z</time>
      </trkpt>
      <trkpt lat="51.57414" lon="7.39334">
        <ele>106.344773</ele>
        <time>2023-04-29T08:21:23.581Z</time>
      </trkpt>
      <trkpt lat="51.5742" lon="7.3932">
        <ele>106.244339</ele>
        <time>2023-04-29T08:21:25.568Z</time>
      </trkpt>
      <trkpt lat="51.57425" lon="7.39307">
        <ele>106.146609</ele>
        <time>2023-04-29T08:21:27.564Z</time>
      </trkpt>
      <trkpt lat="51.5743" lon="7.39294">
        <ele>106.050979</ele>
        <time>2023-04-29T08:21:29.578Z</time>
      </trkpt>
      <trkpt lat="51.57434" lon="7.3928">
        <ele>105.956247</ele>
        <time>2023-04-29T08:21:31.593Z</time>
      </trkpt>
      <trkpt lat="51.5744" lon="7.39267">
        <ele>105.854806</ele>
        <time>2023-04-29T08:21:33.580Z</time>
      </trkpt>
      <trkpt lat="51.57445" lon="7.39254">
        <ele>105.825498</ele>
        <time>2023-04-29T08:21:35.588Z</time>
      </trkpt>
      <trkpt lat="51.5745" lon="7.3924">
        <ele>105.821357</ele>
        <time>2023-04-29T08:21:37.581Z</time>
      </trkpt>
      <trkpt lat="51.57454" lon="7.39227">
        <ele>105.817545</ele>
        <time>2023-04-29T08:21:39.565Z</time>
      </trkpt>
      <trkpt lat="51.5746" lon="7.39214">
        <ele>105.813575</ele>
        <time>2023-04-29T08:21:41.578Z</time>
      </trkpt>
      <trkpt lat="51.57464" lon="7.392">
        <ele>105.809438</ele>
        <time>2023-04-29T08:21:43.579Z</time>
      </trkpt>
      <trkpt lat="51.57469" lon="7.39187">
        <ele>105.805474</ele>
        <time>2023-04-29T08:21:45.577Z</time>
      </trkpt>
      <trkpt lat="51.57475" lon="7.39173">
        <ele>105.801357</ele>
        <time>2023-04-29T08:21:47.578Z</time>
      </trkpt>
      <trkpt lat="51.5748" lon="7.39158">
        <ele>105.796961</ele>
        <time>2023-04-29T08:21:49.563Z</time>
      </trkpt>
      <trkpt lat="51.57484" lon="7.39144">
        <ele>105.792759</ele>
        <time>2023-04-29T08:21:51.578Z</time>
      </trkpt>
      <trkpt lat="51.57489" lon="7.39129">
        <ele>105.788458</ele>
        <time>2023-04-29T08:21:53.583Z</time>
      </trkpt>
      <trkpt lat="51.57493" lon="7.39114">
        <ele>105.784257</ele>
        <time>2023-04-29T08:21:55.593Z</time>
      </trkpt>
      <trkpt lat="51.57496" lon="7.39099">
        <ele>105.780241</ele>
        <time>2023-04-29T08:21:57.574Z</time>
      </trkpt>
      <trkpt lat="51.575" lon="7.39086">
        <ele>105.776422</ele>
        <time>2023-04-29T08:21:59.557Z</time>
      </trkpt>
      <trkpt lat="51.57504" lon="7.39072">
        <ele>105.772339</ele>
        <time>2023-04-29T08:22:01.595Z</time>
      </trkpt>
      <trkpt lat="51.57509" lon="7.39058">
        <ele>105.768515</ele>
        <time>2023-04-29T08:22:03.561Z</time>
      </trkpt>
      <trkpt lat="51.57508" lon="7.39044">
        <ele>105.764776</ele>
        <time>2023-04-29T08:22:05.581Z</time>
      </trkpt>
      <trkpt lat="51.57501" lon="7.39032">
        <ele>105.760478</ele>
        <time>2023-04-29T08:22:07.575Z</time>
      </trkpt>
      <trkpt lat="51.57492" lon="7.39025">
        <ele>105.756371</ele>
        <time>2023-04-29T08:22:09.574Z</time>
      </trkpt>
      <trkpt lat="51.57479" lon="7.39018">
        <ele>105.689905</ele>
        <time>2023-04-29T08:22:12.581Z</time>
      </trkpt>
      <trkpt lat="51.5747" lon="7.39015">
        <ele>105.60501</ele>
        <time>2023-04-29T08:22:14.580Z</time>
      </trkpt>
      <trkpt lat="51.57459" lon="7.39006">
        <ele>105.489296</ele>
        <time>2023-04-29T08:22:17.588Z</time>
      </trkpt>
      <trkpt lat="51.57448" lon="7.38993">
        <ele>105.371063</ele>
        <time>2023-04-29T08:22:20.559Z</time>
      </trkpt>
      <trkpt lat="51.57445" lon="7.38974">
        <ele>105.257416</ele>
        <time>2023-04-29T08:22:23.576Z</time>
      </trkpt>
      <trkpt lat="51.57445" lon="7.38959">
        <ele>105.173774</ele>
        <time>2023-04-29T08:22:25.578Z</time>
      </trkpt>
      <trkpt lat="51.57446" lon="7.38944">
        <ele>105.091977</ele>
        <time>2023-04-29T08:22:27.567Z</time>
      </trkpt>
      <trkpt lat="51.57448" lon="7.38929">
        <ele>105.006598</ele>
        <time>2023-04-29T08:22:29.579Z</time>
      </trkpt>
      <trkpt lat="51.5745" lon="7.38915">
        <ele>104.923025</ele>
        <time>2023-04-29T08:22:31.582Z</time>
      </trkpt>
      <trkpt lat="51.57452" lon="7.38901">
        <ele>104.841198</ele>
        <time>2023-04-29T08:22:33.562Z</time>
      </trkpt>
      <trkpt lat="51.57455" lon="7.3888">
        <ele>104.720793</ele>
        <time>2023-04-29T08:22:36.584Z</time>
      </trkpt>
      <trkpt lat="51.57456" lon="7.38865">
        <ele>104.638127</ele>
        <time>2023-04-29T08:22:38.576Z</time>
      </trkpt>
      <trkpt lat="51.57457" lon="7.38846">
        <ele>104.526925</ele>
        <time>2023-04-29T08:22:41.588Z</time>
      </trkpt>
      <trkpt lat="51.57462" lon="7.38827">
        <ele>104.414201</ele>
        <time>2023-04-29T08:22:44.583Z</time>
      </trkpt>
      <trkpt lat="51.57475" lon="7.38824">
        <ele>104.298267</ele>
        <time>2023-04-29T08:22:47.567Z</time>
      </trkpt>
      <trkpt lat="51.57486" lon="7.38832">
        <ele>104.189829</ele>
        <time>2023-04-29T08:22:50.562Z</time>
      </trkpt>
      <trkpt lat="51.57497" lon="7.3884">
        <ele>104.14363</ele>
        <time>2023-04-29T08:22:53.585Z</time>
      </trkpt>
      <trkpt lat="51.57509" lon="7.38848">
        <ele>104.17947</ele>
        <time>2023-04-29T08:22:56.603Z</time>
      </trkpt>
      <trkpt lat="51.57517" lon="7.38852">
        <ele>104.204534</ele>
        <time>2023-04-29T08:22:58.577Z</time>
      </trkpt>
      <trkpt lat="51.5753" lon="7.38859">
        <ele>104.240905</ele>
        <time>2023-04-29T08:23:01.577Z</time>
      </trkpt>
      <trkpt lat="51.57542" lon="7.38862">
        <ele>104.27587</ele>
        <time>2023-04-29T08:23:04.578Z</time>
      </trkpt>
      <trkpt lat="51.57554" lon="7.38853">
        <ele>104.312539</ele>
        <time>2023-04-29T08:23:07.574Z</time>
      </trkpt>
      <trkpt lat="51.5756" lon="7.38842">
        <ele>104.338719</ele>
        <time>2023-04-29T08:23:09.570Z</time>
      </trkpt>
      <trkpt lat="51.57566" lon="7.3883">
        <ele>104.365873</ele>
        <time>2023-04-29T08:23:11.569Z</time>
      </trkpt>
      <trkpt lat="51.57571" lon="7.38817">
        <ele>104.391754</ele>
        <time>2023-04-29T08:23:13.564Z</time>
      </trkpt>
      <trkpt lat="51.57575" lon="7.38797">
        <ele>104.428203</ele>
        <time>2023-04-29T08:23:16.578Z</time>
      </trkpt>
      <trkpt lat="51.57579" lon="7.38777">
        <ele>104.464688</ele>
        <time>2023-04-29T08:23:19.564Z</time>
      </trkpt>
      <trkpt lat="51.57582" lon="7.38758">
        <ele>104.498585</ele>
        <time>2023-04-29T08:23:22.597Z</time>
      </trkpt>
      <trkpt lat="51.57584" lon="7.38739">
        <ele>104.531744</ele>
        <time>2023-04-29T08:23:25.586Z</time>
      </trkpt>
      <trkpt lat="51.57588" lon="7.38722">
        <ele>104.563188</ele>
        <time>2023-04-29T08:23:28.593Z</time>
      </trkpt>
      <trkpt lat="51.57591" lon="7.38708">
        <ele>104.590088</ele>
        <time>2023-04-29T08:23:31.571Z</time>
      </trkpt>
      <trkpt lat="51.57596" lon="7.38693">
        <ele>104.620133</ele>
        <time>2023-04-29T08:23:35.569Z</time>
      </trkpt>
      <trkpt lat="51.576" lon="7.38676">
        <ele>104.650566</ele>
        <time>2023-04-29T08:23:40.587Z</time>
      </trkpt>
      <trkpt lat="51.5759" lon="7.38671">
        <ele>104.678383</ele>
        <time>2023-04-29T08:23:46.604Z</time>
      </trkpt>
      <trkpt lat="51.57591" lon="7.38654">
        <ele>104.707551</ele>
        <time>2023-04-29T08:23:59.563Z</time>
      </trkpt>
      <trkpt lat="51.57594" lon="7.3864">
        <ele>104.732764</ele>
        <time>2023-04-29T08:24:02.573Z</time>
      </trkpt>
      <trkpt lat="51.57595" lon="7.38625">
        <ele>104.759458</ele>
        <time>2023-04-29T08:24:04.587Z</time>
      </trkpt>
      <trkpt lat="51.57597" lon="7.38609">
        <ele>104.78775</ele>
        <time>2023-04-29T08:24:06.579Z</time>
      </trkpt>
      <trkpt lat="51.576" lon="7.38589">
        <ele>104.824967</ele>
        <time>2023-04-29T08:24:09.568Z</time>
      </trkpt>
      <trkpt lat="51.57604" lon="7.38567">
        <ele>104.86391</ele>
        <time>2023-04-29T08:24:12.587Z</time>
      </trkpt>
      <trkpt lat="51.57608" lon="7.38548">
        <ele>104.899949</ele>
        <time>2023-04-29T08:24:14.582Z</time>
      </trkpt>
      <trkpt lat="51.57612" lon="7.38529">
        <ele>104.933657</ele>
        <time>2023-04-29T08:24:16.577Z</time>
      </trkpt>
      <trkpt lat="51.57615" lon="7.3851">
        <ele>104.968541</ele>
        <time>2023-04-29T08:24:18.587Z</time>
      </trkpt>
      <trkpt lat="51.57618" lon="7.3849">
        <ele>105.003651</ele>
        <time>2023-04-29T08:24:20.582Z</time>
      </trkpt>
      <trkpt lat="51.57621" lon="7.38473">
        <ele>105.034468</ele>
        <time>2023-04-29T08:24:22.577Z</time>
      </trkpt>
      <trkpt lat="51.57623" lon="7.38457">
        <ele>105.063829</ele>
        <time>2023-04-29T08:24:24.576Z</time>
      </trkpt>
      <trkpt lat="51.57625" lon="7.38439">
        <ele>105.094441</ele>
        <time>2023-04-29T08:24:26.637Z</time>
      </trkpt>
      <trkpt lat="51.57626" lon="7.3842">
        <ele>105.128965</ele>
        <time>2023-04-29T08:24:28.570Z</time>
      </trkpt>
      <trkpt lat="51.57628" lon="7.38401">
        <ele>105.017673</ele>
        <time>2023-04-29T08:24:30.593Z</time>
      </trkpt>
      <trkpt lat="51.5763" lon="7.38382">
        <ele>104.870693</ele>
        <time>2023-04-29T08:24:32.578Z</time>
      </trkpt>
      <trkpt lat="51.57631" lon="7.38363">
        <ele>104.720017</ele>
        <time>2023-04-29T08:24:34.578Z</time>
      </trkpt>
      <trkpt lat="51.57632" lon="7.38345">
        <ele>104.578283</ele>
        <time>2023-04-29T08:24:36.589Z</time>
      </trkpt>
      <trkpt lat="51.57633" lon="7.38327">
        <ele>104.439481</ele>
        <time>2023-04-29T08:24:38.589Z</time>
      </trkpt>
      <trkpt lat="51.57632" lon="7.38309">
        <ele>104.303022</ele>
        <time>2023-04-29T08:24:40.573Z</time>
      </trkpt>
      <trkpt lat="51.57631" lon="7.38292">
        <ele>104.166391</ele>
        <time>2023-04-29T08:24:42.569Z</time>
      </trkpt>
      <trkpt lat="51.5763" lon="7.38276">
        <ele>104.040274</ele>
        <time>2023-04-29T08:24:44.588Z</time>
      </trkpt>
      <trkpt lat="51.57628" lon="7.3826">
        <ele>103.914282</ele>
        <time>2023-04-29T08:24:46.609Z</time>
      </trkpt>
      <trkpt lat="51.57628" lon="7.38245">
        <ele>103.800262</ele>
        <time>2023-04-29T08:24:48.590Z</time>
      </trkpt>
      <trkpt lat="51.57627" lon="7.38225">
        <ele>103.644352</ele>
        <time>2023-04-29T08:24:51.568Z</time>
      </trkpt>
      <trkpt lat="51.57628" lon="7.3821">
        <ele>103.523651</ele>
        <time>2023-04-29T08:24:54.573Z</time>
      </trkpt>
      <trkpt lat="51.57629" lon="7.38195">
        <ele>103.407436</ele>
        <time>2023-04-29T08:24:59.567Z</time>
      </trkpt>
      <trkpt lat="51.57639" lon="7.38187">
        <ele>103.275979</ele>
        <time>2023-04-29T08:25:05.582Z</time>
      </trkpt>
      <trkpt lat="51.57645" lon="7.38173">
        <ele>103.140378</ele>
        <time>2023-04-29T08:25:11.578Z</time>
      </trkpt>
      <trkpt lat="51.57639" lon="7.38161">
        <ele>103.02001</ele>
        <time>2023-04-29T08:25:15.569Z</time>
      </trkpt>
      <trkpt lat="51.57634" lon="7.38143">
        <ele>102.883816</ele>
        <time>2023-04-29T08:25:19.575Z</time>
      </trkpt>
      <trkpt lat="51.57631" lon="7.38127">
        <ele>102.898312</ele>
        <time>2023-04-29T08:25:23.589Z</time>
      </trkpt>
      <trkpt lat="51.57629" lon="7.3811">
        <ele>102.913002</ele>
        <time>2023-04-29T08:25:28.575Z</time>
      </trkpt>
      <trkpt lat="51.57626" lon="7.38094">
        <ele>102.927253</ele>
        <time>2023-04-29T08:25:34.569Z</time>
      </trkpt>
      <trkpt lat="51.57624" lon="7.38078">
        <ele>102.940643</ele>
        <time>2023-04-29T08:25:42.554Z</time>
      </trkpt>
      <trkpt lat="51.5762" lon="7.38063">
        <ele>102.954668</ele>
        <time>2023-04-29T08:25:49.566Z</time>
      </trkpt>
      <trkpt lat="51.57616" lon="7.38049">
        <ele>102.968208</ele>
        <time>2023-04-29T08:25:55.564Z</time>
      </trkpt>
      <trkpt lat="51.57611" lon="7.38034">
        <ele>102.981808</ele>
        <time>2023-04-29T08:26:00.584Z</time>
      </trkpt>
      <trkpt lat="51.57608" lon="7.38019">
        <ele>102.995753</ele>
        <time>2023-04-29T08:26:04.573Z</time>
      </trkpt>
      <trkpt lat="51.57604" lon="7.38005">
        <ele>103.008493</ele>
        <time>2023-04-29T08:26:07.561Z</time>
      </trkpt>
      <trkpt lat="51.57601" lon="7.3799">
        <ele>103.021484</ele>
        <time>2023-04-29T08:26:10.580Z</time>
      </trkpt>
      <trkpt lat="51.57598" lon="7.37975">
        <ele>103.034926</ele>
        <time>2023-04-29T08:26:13.599Z</time>
      </trkpt>
      <trkpt lat="51.57593" lon="7.37959">
        <ele>103.050229</ele>
        <time>2023-04-29T08:26:17.567Z</time>
      </trkpt>
      <trkpt lat="51.57588" lon="7.37947">
        <ele>103.062767</ele>
        <time>2023-04-29T08:26:20.581Z</time>
      </trkpt>
      <trkpt lat="51.57583" lon="7.37933">
        <ele>103.075941</ele>
        <time>2023-04-29T08:26:23.579Z</time>
      </trkpt>
      <trkpt lat="51.57578" lon="7.3792">
        <ele>103.08913</ele>
        <time>2023-04-29T08:26:26.599Z</time>
      </trkpt>
      <trkpt lat="51.57573" lon="7.37906">
        <ele>103.102816</ele>
        <time>2023-04-29T08:26:29.562Z</time>
      </trkpt>
      <trkpt lat="51.57568" lon="7.37892">
        <ele>103.116071</ele>
        <time>2023-04-29T08:26:32.588Z</time>
      </trkpt>
      <trkpt lat="51.57563" lon="7.37879">
        <ele>103.122775</ele>
        <time>2023-04-29T08:26:35.577Z</time>
      </trkpt>
      <trkpt lat="51.57558" lon="7.37865">
        <ele>103.085001</ele>
        <time>2023-04-29T08:26:38.579Z</time>
      </trkpt>
      <trkpt lat="51.57553" lon="7.37851">
        <ele>103.046142</ele>
        <time>2023-04-29T08:26:41.576Z</time>
      </trkpt>
      <trkpt lat="51.57548" lon="7.37837">
        <ele>103.005842</ele>
        <time>2023-04-29T08:26:44.579Z</time>
      </trkpt>
      <trkpt lat="51.57543" lon="7.37823">
        <ele>102.96677</ele>
        <time>2023-04-29T08:26:47.568Z</time>
      </trkpt>
      <trkpt lat="51.57538" lon="7.37809">
        <ele>102.926912</ele>
        <time>2023-04-29T08:26:50.584Z</time>
      </trkpt>
      <trkpt lat="51.57533" lon="7.37794">
        <ele>102.887036</ele>
        <time>2023-04-29T08:26:53.594Z</time>
      </trkpt>
      <trkpt lat="51.57528" lon="7.37779">
        <ele>102.845482</ele>
        <time>2023-04-29T08:26:56.585Z</time>
      </trkpt>
      <trkpt lat="51.57522" lon="7.37765">
        <ele>102.804199</ele>
        <time>2023-04-29T08:26:59.582Z</time>
      </trkpt>
      <trkpt lat="51.57516" lon="7.37751">
        <ele>102.763467</ele>
        <time>2023-04-29T08:27:02.588Z</time>
      </trkpt>
      <trkpt lat="51.5751" lon="7.37737">
        <ele>102.720092</ele>
        <time>2023-04-29T08:27:05.567Z</time>
      </trkpt>
      <trkpt lat="51.57503" lon="7.37724">
        <ele>102.679107</ele>
        <time>2023-04-29T08:27:08.587Z</time>
      </trkpt>
      <trkpt lat="51.57496" lon="7.37709">
        <ele>102.633165</ele>
        <time>2023-04-29T08:27:11.572Z</time>
      </trkpt>
      <trkpt lat="51.57491" lon="7.37695">
        <ele>102.592706</ele>
        <time>2023-04-29T08:27:14.568Z</time>
      </trkpt>
      <trkpt lat="51.57485" lon="7.3768">
        <ele>102.550797</ele>
        <time>2023-04-29T08:27:17.578Z</time>
      </trkpt>
      <trkpt lat="51.57475" lon="7.37682">
        <ele>102.509838</ele>
        <time>2023-04-29T08:27:20.574Z</time>
      </trkpt>
      <trkpt lat="51.57467" lon="7.37697">
        <ele>102.461665</ele>
        <time>2023-04-29T08:27:24.592Z</time>
      </trkpt>
      <trkpt lat="51.5746" lon="7.37711">
        <ele>102.423251</ele>
        <time>2023-04-29T08:27:27.602Z</time>
      </trkpt>
      <trkpt lat="51.57455" lon="7.37723">
        <ele>102.414862</ele>
        <time>2023-04-29T08:27:29.594Z</time>
      </trkpt>
      <trkpt lat="51.57447" lon="7.37738">
        <ele>102.40433</ele>
        <time>2023-04-29T08:27:32.587Z</time>
      </trkpt>
      <trkpt lat="51.5744" lon="7.3775">
        <ele>102.394967</ele>
        <time>2023-04-29T08:27:35.581Z</time>
      </trkpt>
      <trkpt lat="51.57434" lon="7.37764">
        <ele>102.385453</ele>
        <time>2023-04-29T08:27:38.589Z</time>
      </trkpt>
      <trkpt lat="51.57426" lon="7.37781">
        <ele>102.373915</ele>
        <time>2023-04-29T08:27:41.584Z</time>
      </trkpt>
      <trkpt lat="51.57419" lon="7.37797">
        <ele>102.362556</ele>
        <time>2023-04-29T08:27:44.591Z</time>
      </trkpt>
      <trkpt lat="51.57411" lon="7.37811">
        <ele>102.352386</ele>
        <time>2023-04-29T08:27:47.577Z</time>
      </trkpt>
      <trkpt lat="51.57402" lon="7.37813">
        <ele>102.344012</ele>
        <time>2023-04-29T08:27:50.586Z</time>
      </trkpt>
      <trkpt lat="51.57393" lon="7.37804">
        <ele>102.334712</ele>
        <time>2023-04-29T08:27:54.588Z</time>
      </trkpt>
      <trkpt lat="51.57394" lon="7.37786">
        <ele>102.325022</ele>
        <time>2023-04-29T08:27:58.582Z</time>
      </trkpt>
      <trkpt lat="51.574" lon="7.37774">
        <ele>102.316437</ele>
        <time>2023-04-29T08:28:01.577Z</time>
      </trkpt>
      <trkpt lat="51.57405" lon="7.37762">
        <ele>102.308102</ele>
        <time>2023-04-29T08:28:04.589Z</time>
      </trkpt>
      <trkpt lat="51.57412" lon="7.37747">
        <ele>102.297552</ele>
        <time>2023-04-29T08:28:08.591Z</time>
      </trkpt>
      <trkpt lat="51.57419" lon="7.37733">
        <ele>102.287902</ele>
        <time>2023-04-29T08:28:11.573Z</time>
      </trkpt>
      <trkpt lat="51.57425" lon="7.37719">
        <ele>102.278212</ele>
        <time>2023-04-29T08:28:14.589Z</time>
      </trkpt>
      <trkpt lat="51.57431" lon="7.37704">
        <ele>102.268244</ele>
        <time>2023-04-29T08:28:17.574Z</time>
      </trkpt>
      <trkpt lat="51.57438" lon="7.3769">
        <ele>102.316595</ele>
        <time>2023-04-29T08:28:20.586Z</time>
      </trkpt>
      <trkpt lat="51.57444" lon="7.37674">
        <ele>102.420201</ele>
        <time>2023-04-29T08:28:23.580Z</time>
      </trkpt>
      <trkpt lat="51.57452" lon="7.37661">
        <ele>102.519374</ele>
        <time>2023-04-29T08:28:26.600Z</time>
      </trkpt>
      <trkpt lat="51.57458" lon="7.37646">
        <ele>102.621145</ele>
        <time>2023-04-29T08:28:29.576Z</time>
      </trkpt>
      <trkpt lat="51.57464" lon="7.37628">
        <ele>102.733493</ele>
        <time>2023-04-29T08:28:32.582Z</time>
      </trkpt>
      <trkpt lat="51.57467" lon="7.37611">
        <ele>102.835063</ele>
        <time>2023-04-29T08:28:35.581Z</time>
      </trkpt>
      <trkpt lat="51.57463" lon="7.37595">
        <ele>102.927992</ele>
        <time>2023-04-29T08:28:38.580Z</time>
      </trkpt>
      <trkpt lat="51.57457" lon="7.3758">
        <ele>103.029627</ele>
        <time>2023-04-29T08:28:41.569Z</time>
      </trkpt>
      <trkpt lat="51.57452" lon="7.37564">
        <ele>103.129446</ele>
        <time>2023-04-29T08:28:44.587Z</time>
      </trkpt>
      <trkpt lat="51.57447" lon="7.37548">
        <ele>103.228219</ele>
        <time>2023-04-29T08:28:47.593Z</time>
      </trkpt>
      <trkpt lat="51.57442" lon="7.3753">
        <ele>103.336427</ele>
        <time>2023-04-29T08:28:50.579Z</time>
      </trkpt>
      <trkpt lat="51.57436" lon="7.37513">
        <ele>103.44548</ele>
        <time>2023-04-29T08:28:53.582Z</time>
      </trkpt>
      <trkpt lat="51.57431" lon="7.37496">
        <ele>103.550657</ele>
        <time>2023-04-29T08:28:56.583Z</time>
      </trkpt>
      <trkpt lat="51.57425" lon="7.3748">
        <ele>103.656075</ele>
        <time>2023-04-29T08:28:59.584Z</time>
      </trkpt>
      <trkpt lat="51.57419" lon="7.37463">
        <ele>103.763471</ele>
        <time>2023-04-29T08:29:02.566Z</time>
      </trkpt>
      <trkpt lat="51.57413" lon="7.37444">
        <ele>103.87594</ele>
        <time>2023-04-29T08:29:05.583Z</time>
      </trkpt>
      <trkpt lat="51.57406" lon="7.37427">
        <ele>103.899937</ele>
        <time>2023-04-29T08:29:08.574Z</time>
      </trkpt>
      <trkpt lat="51.574" lon="7.37411">
        <ele>103.923022</ele>
        <time>2023-04-29T08:29:11.559Z</time>
      </trkpt>
      <trkpt lat="51.57394" lon="7.37396">
        <ele>103.943375</ele>
        <time>2023-04-29T08:29:14.573Z</time>
      </trkpt>
      <trkpt lat="51.57387" lon="7.37381">
        <ele>103.965546</ele>
        <time>2023-04-29T08:29:17.582Z</time>
      </trkpt>
      <trkpt lat="51.57381" lon="7.37365">
        <ele>103.988029</ele>
        <time>2023-04-29T08:29:20.574Z</time>
      </trkpt>
      <trkpt lat="51.57377" lon="7.37348">
        <ele>104.010304</ele>
        <time>2023-04-29T08:29:23.574Z</time>
      </trkpt>
      <trkpt lat="51.57374" lon="7.3733">
        <ele>104.032456</ele>
        <time>2023-04-29T08:29:26.585Z</time>
      </trkpt>
      <trkpt lat="51.57371" lon="7.37311">
        <ele>104.056319</ele>
        <time>2023-04-29T08:29:29.576Z</time>
      </trkpt>
      <trkpt lat="51.57367" lon="7.37291">
        <ele>104.080853</ele>
        <time>2023-04-29T08:29:32.580Z</time>
      </trkpt>
      <trkpt lat="51.57363" lon="7.37277">
        <ele>104.098401</ele>
        <time>2023-04-29T08:29:34.587Z</time>
      </trkpt>
      <trkpt lat="51.5736" lon="7.37264">
        <ele>104.115656</ele>
        <time>2023-04-29T08:29:36.577Z</time>
      </trkpt>
      <trkpt lat="51.57353" lon="7.37246">
        <ele>104.140361</ele>
        <time>2023-04-29T08:29:39.576Z</time>
      </trkpt>
      <trkpt lat="51.57343" lon="7.37234">
        <ele>104.163977</ele>
        <time>2023-04-29T08:29:42.585Z</time>
      </trkpt>
      <trkpt lat="51.57333" lon="7.37226">
        <ele>104.186748</ele>
        <time>2023-04-29T08:29:45.565Z</time>
      </trkpt>
      <trkpt lat="51.57325" lon="7.37216">
        <ele>104.205974</ele>
        <time>2023-04-29T08:29:48.577Z</time>
      </trkpt>
      <trkpt lat="51.57316" lon="7.3721">
        <ele>104.243874</ele>
        <time>2023-04-29T08:29:52.572Z</time>
      </trkpt>
      <trkpt lat="51.57308" lon="7.37197">
        <ele>104.334312</ele>
        <time>2023-04-29T08:29:56.593Z</time>
      </trkpt>
      <trkpt lat="51.57307" lon="7.37179">
        <ele>104.429452</ele>
        <time>2023-04-29T08:30:00.573Z</time>
      </trkpt>
      <trkpt lat="51.57317" lon="7.37169">
        <ele>104.523036</ele>
        <time>2023-04-29T08:30:04.567Z</time>
      </trkpt>
      <trkpt lat="51.57326" lon="7.37173">
        <ele>104.605166</ele>
        <time>2023-04-29T08:30:07.568Z</time>
      </trkpt>
      <trkpt lat="51.57335" lon="7.37185">
        <ele>104.700136</ele>
        <time>2023-04-29T08:30:10.594Z</time>
      </trkpt>
      <trkpt lat="51.57345" lon="7.37194">
        <ele>104.797715</ele>
        <time>2023-04-29T08:30:13.565Z</time>
      </trkpt>
      <trkpt lat="51.57354" lon="7.37201">
        <ele>104.88104</ele>
        <time>2023-04-29T08:30:16.596Z</time>
      </trkpt>
      <trkpt lat="51.57363" lon="7.37193">
        <ele>104.967191</ele>
        <time>2023-04-29T08:30:19.576Z</time>
      </trkpt>
      <trkpt lat="51.57373" lon="7.37183">
        <ele>105.065425</ele>
        <time>2023-04-29T08:30:22.592Z</time>
      </trkpt>
      <trkpt lat="51.57382" lon="7.37172">
        <ele>105.161796</ele>
        <time>2023-04-29T08:30:25.572Z</time>
      </trkpt>
      <trkpt lat="51.57389" lon="7.37159">
        <ele>105.25187</ele>
        <time>2023-04-29T08:30:28.591Z</time>
      </trkpt>
      <trkpt lat="51.57391" lon="7.3714">
        <ele>105.350921</ele>
        <time>2023-04-29T08:30:31.576Z</time>
      </trkpt>
      <trkpt lat="51.57392" lon="7.37125">
        <ele>105.428761</ele>
        <time>2023-04-29T08:30:33.575Z</time>
      </trkpt>
      <trkpt lat="51.57394" lon="7.37108">
        <ele>105.52294</ele>
        <time>2023-04-29T08:30:36.588Z</time>
      </trkpt>
      <trkpt lat="51.57396" lon="7.37091">
        <ele>105.60991</ele>
        <time>2023-04-29T08:30:40.579Z</time>
      </trkpt>
      <trkpt lat="51.57396" lon="7.37106">
        <ele>105.688315</ele>
        <time>2023-04-29T08:33:15.576Z</time>
      </trkpt>
      <trkpt lat="51.57393" lon="7.37122">
        <ele>105.801932</ele>
        <time>2023-04-29T08:33:18.563Z</time>
      </trkpt>
      <trkpt lat="51.57391" lon="7.37137">
        <ele>105.942272</ele>
        <time>2023-04-29T08:33:21.579Z</time>
      </trkpt>
      <trkpt lat="51.57388" lon="7.37154">
        <ele>106.099082</ele>
        <time>2023-04-29T08:33:24.584Z</time>
      </trkpt>
      <trkpt lat="51.57383" lon="7.37168">
        <ele>106.252007</ele>
        <time>2023-04-29T08:33:27.571Z</time>
      </trkpt>
      <trkpt lat="51.57374" lon="7.37181">
        <ele>106.431133</ele>
        <time>2023-04-29T08:33:30.578Z</time>
      </trkpt>
      <trkpt lat="51.57366" lon="7.3719">
        <ele>106.564896</ele>
        <time>2023-04-29T08:33:32.574Z</time>
      </trkpt>
      <trkpt lat="51.57355" lon="7.37198">
        <ele>106.738921</ele>
        <time>2023-04-29T08:33:35.593Z</time>
      </trkpt>
      <trkpt lat="51.57343" lon="7.37194">
        <ele>106.9155</ele>
        <time>2023-04-29T08:33:38.560Z</time>
      </trkpt>
      <trkpt lat="51.57333" lon="7.37184">
        <ele>107.086991</ele>
        <time>2023-04-29T08:33:41.572Z</time>
      </trkpt>
      <trkpt lat="51.57325" lon="7.37173">
        <ele>107.24</ele>
        <time>2023-04-29T08:33:44.570Z</time>
      </trkpt>
      <trkpt lat="51.57315" lon="7.37168">
        <ele>107.399175</ele>
        <time>2023-04-29T08:33:48.587Z</time>
      </trkpt>
      <trkpt lat="51.57306" lon="7.37166">
        <ele>107.534907</ele>
        <time>2023-04-29T08:33:54.565Z</time>
      </trkpt>
      <trkpt lat="51.57308" lon="7.3715">
        <ele>107.684526</ele>
        <time>2023-04-29T08:33:58.575Z</time>
      </trkpt>
      <trkpt lat="51.57311" lon="7.37133">
        <ele>107.843834</ele>
        <time>2023-04-29T08:34:02.585Z</time>
      </trkpt>
      <trkpt lat="51.57315" lon="7.37118">
        <ele>107.990513</ele>
        <time>2023-04-29T08:34:05.579Z</time>
      </trkpt>
      <trkpt lat="51.57317" lon="7.371">
        <ele>108.161893</ele>
        <time>2023-04-29T08:34:09.573Z</time>
      </trkpt>
      <trkpt lat="51.57319" lon="7.37085">
        <ele>108.295897</ele>
        <time>2023-04-29T08:34:12.598Z</time>
      </trkpt>
      <trkpt lat="51.57323" lon="7.37068">
        <ele>108.396963</ele>
        <time>2023-04-29T08:34:16.568Z</time>
      </trkpt>
      <trkpt lat="51.57327" lon="7.37051">
        <ele>108.465811</ele>
        <time>2023-04-29T08:34:20.590Z</time>
      </trkpt>
      <trkpt lat="51.5733" lon="7.37034">
        <ele>108.533354</ele>
        <time>2023-04-29T08:34:24.579Z</time>
      </trkpt>
      <trkpt lat="51.57333" lon="7.37017">
        <ele>108.599257</ele>
        <time>2023-04-29T08:34:28.573Z</time>
      </trkpt>
      <trkpt lat="51.57335" lon="7.36999">
        <ele>108.668673</ele>
        <time>2023-04-29T08:34:32.586Z</time>
      </trkpt>
      <trkpt lat="51.57336" lon="7.36983">
        <ele>108.731081</ele>
        <time>2023-04-29T08:34:35.572Z</time>
      </trkpt>
      <trkpt lat="51.57339" lon="7.36967">
        <ele>108.793737</ele>
        <time>2023-04-29T08:34:38.679Z</time>
      </trkpt>
      <trkpt lat="51.57341" lon="7.36953">
        <ele>108.84993</ele>
        <time>2023-04-29T08:34:41.575Z</time>
      </trkpt>
      <trkpt lat="51.57344" lon="7.36936">
        <ele>108.918309</ele>
        <time>2023-04-29T08:34:45.578Z</time>
      </trkpt>
      <trkpt lat="51.57346" lon="7.36921">
        <ele>108.977686</ele>
        <time>2023-04-29T08:34:48.565Z</time>
      </trkpt>
      <trkpt lat="51.57349" lon="7.36905">
        <ele>109.042274</ele>
        <time>2023-04-29T08:34:51.585Z</time>
      </trkpt>
      <trkpt lat="51.57351" lon="7.36888">
        <ele>109.108841</ele>
        <time>2023-04-29T08:34:54.583Z</time>
      </trkpt>
      <trkpt lat="51.57353" lon="7.36869">
        <ele>109.180722</ele>
        <time>2023-04-29T08:34:57.586Z</time>
      </trkpt>
      <trkpt lat="51.57355" lon="7.36852">
        <ele>109.24769</ele>
        <time>2023-04-29T08:35:00.584Z</time>
      </trkpt>
      <trkpt lat="51.57357" lon="7.36834">
        <ele>109.319296</ele>
        <time>2023-04-29T08:35:03.573Z</time>
      </trkpt>
      <trkpt lat="51.57359" lon="7.36816">
        <ele>109.389525</ele>
        <time>2023-04-29T08:35:06.589Z</time>
      </trkpt>
      <trkpt lat="51.57361" lon="7.36799">
        <ele>109.455259</ele>
        <time>2023-04-29T08:35:09.593Z</time>
      </trkpt>
      <trkpt lat="51.57361" lon="7.36781">
        <ele>109.397429</ele>
        <time>2023-04-29T08:35:12.579Z</time>
      </trkpt>
      <trkpt lat="51.57362" lon="7.36765">
        <ele>109.343758</ele>
        <time>2023-04-29T08:35:15.585Z</time>
      </trkpt>
      <trkpt lat="51.57362" lon="7.36748">
        <ele>109.287354</ele>
        <time>2023-04-29T08:35:19.564Z</time>
      </trkpt>
      <trkpt lat="51.57362" lon="7.36734">
        <ele>109.238932</ele>
        <time>2023-04-29T08:35:22.586Z</time>
      </trkpt>
      <trkpt lat="51.57362" lon="7.36717">
        <ele>109.181857</ele>
        <time>2023-04-29T08:35:25.577Z</time>
      </trkpt>
      <trkpt lat="51.57362" lon="7.36699">
        <ele>109.122112</ele>
        <time>2023-04-29T08:35:28.588Z</time>
      </trkpt>
      <trkpt lat="51.57364" lon="7.36682">
        <ele>109.065717</ele>
        <time>2023-04-29T08:35:31.567Z</time>
      </trkpt>
      <trkpt lat="51.57363" lon="7.36665">
        <ele>109.007011</ele>
        <time>2023-04-29T08:35:34.579Z</time>
      </trkpt>
      <trkpt lat="51.57362" lon="7.36646">
        <ele>108.94541</ele>
        <time>2023-04-29T08:35:37.585Z</time>
      </trkpt>
      <trkpt lat="51.57361" lon="7.36628">
        <ele>108.884048</ele>
        <time>2023-04-29T08:35:40.592Z</time>
      </trkpt>
      <trkpt lat="51.57359" lon="7.3661">
        <ele>108.824623</ele>
        <time>2023-04-29T08:35:43.573Z</time>
      </trkpt>
      <trkpt lat="51.57358" lon="7.36593">
        <ele>108.765137</ele>
        <time>2023-04-29T08:35:46.581Z</time>
      </trkpt>
      <trkpt lat="51.57357" lon="7.36575">
        <ele>108.704641</ele>
        <time>2023-04-29T08:35:49.564Z</time>
      </trkpt>
      <trkpt lat="51.57357" lon="7.36557">
        <ele>108.647407</ele>
        <time>2023-04-29T08:35:52.589Z</time>
      </trkpt>
      <trkpt lat="51.57356" lon="7.36539">
        <ele>108.585806</ele>
        <time>2023-04-29T08:35:55.573Z</time>
      </trkpt>
      <trkpt lat="51.57356" lon="7.36521">
        <ele>108.524051</ele>
        <time>2023-04-29T08:35:58.548Z</time>
      </trkpt>
      <trkpt lat="51.57356" lon="7.36503">
        <ele>108.482867</ele>
        <time>2023-04-29T08:36:01.598Z</time>
      </trkpt>
      <trkpt lat="51.57356" lon="7.36483">
        <ele>108.464909</ele>
        <time>2023-04-29T08:36:04.582Z</time>
      </trkpt>
      <trkpt lat="51.57357" lon="7.36464">
        <ele>108.447437</ele>
        <time>2023-04-29T08:36:07.568Z</time>
      </trkpt>
      <trkpt lat="51.57358" lon="7.36446">
        <ele>108.43075</ele>
        <time>2023-04-29T08:36:10.576Z</time>
      </trkpt>
      <trkpt lat="51.57359" lon="7.36429">
        <ele>108.415536</ele>
        <time>2023-04-29T08:36:13.583Z</time>
      </trkpt>
      <trkpt lat="51.57361" lon="7.3641">
        <ele>108.398129</ele>
        <time>2023-04-29T08:36:16.589Z</time>
      </trkpt>
      <trkpt lat="51.57362" lon="7.36395">
        <ele>108.384453</ele>
        <time>2023-04-29T08:36:19.583Z</time>
      </trkpt>
      <trkpt lat="51.57366" lon="7.3638">
        <ele>108.369556</ele>
        <time>2023-04-29T08:36:22.564Z</time>
      </trkpt>
      <trkpt lat="51.57372" lon="7.36364">
        <ele>108.352458</ele>
        <time>2023-04-29T08:36:25.570Z</time>
      </trkpt>
      <trkpt lat="51.57376" lon="7.36348">
        <ele>108.337148</ele>
        <time>2023-04-29T08:36:28.595Z</time>
      </trkpt>
      <trkpt lat="51.57379" lon="7.36329">
        <ele>108.319151</ele>
        <time>2023-04-29T08:36:31.562Z</time>
      </trkpt>
      <trkpt lat="51.5738" lon="7.36314">
        <ele>108.305847</ele>
        <time>2023-04-29T08:36:33.570Z</time>
      </trkpt>
      <trkpt lat="51.57384" lon="7.36296">
        <ele>108.288476</ele>
        <time>2023-04-29T08:36:36.603Z</time>
      </trkpt>
      <trkpt lat="51.57389" lon="7.36278">
        <ele>108.270573</ele>
        <time>2023-04-29T08:36:39.575Z</time>
      </trkpt>
      <trkpt lat="51.57395" lon="7.3626">
        <ele>108.251945</ele>
        <time>2023-04-29T08:36:42.595Z</time>
      </trkpt>
      <trkpt lat="51.57402" lon="7.36243">
        <ele>108.233612</ele>
        <time>2023-04-29T08:36:45.579Z</time>
      </trkpt>
      <trkpt lat="51.57408" lon="7.3623">
        <ele>108.174675</ele>
        <time>2023-04-29T08:36:48.558Z</time>
      </trkpt>
      <trkpt lat="51.57416" lon="7.36215">
        <ele>108.064233</ele>
        <time>2023-04-29T08:36:51.580Z</time>
      </trkpt>
      <trkpt lat="51.57422" lon="7.36199">
        <ele>107.960219</ele>
        <time>2023-04-29T08:36:54.576Z</time>
      </trkpt>
      <trkpt lat="51.57428" lon="7.36184">
        <ele>107.861335</ele>
        <time>2023-04-29T08:36:57.577Z</time>
      </trkpt>
      <trkpt lat="51.57434" lon="7.3617">
        <ele>107.768104</ele>
        <time>2023-04-29T08:37:00.582Z</time>
      </trkpt>
      <trkpt lat="51.5744" lon="7.36158">
        <ele>107.680829</ele>
        <time>2023-04-29T08:37:03.579Z</time>
      </trkpt>
      <trkpt lat="51.57445" lon="7.36143">
        <ele>107.588402</ele>
        <time>2023-04-29T08:37:06.600Z</time>
      </trkpt>
      <trkpt lat="51.57449" lon="7.36128">
        <ele>107.495445</ele>
        <time>2023-04-29T08:37:09.596Z</time>
      </trkpt>
      <trkpt lat="51.57452" lon="7.36112">
        <ele>107.402424</ele>
        <time>2023-04-29T08:37:12.586Z</time>
      </trkpt>
      <trkpt lat="51.57455" lon="7.36095">
        <ele>107.304646</ele>
        <time>2023-04-29T08:37:15.596Z</time>
      </trkpt>
      <trkpt lat="51.57458" lon="7.36078">
        <ele>107.20443</ele>
        <time>2023-04-29T08:37:18.575Z</time>
      </trkpt>
      <trkpt lat="51.57459" lon="7.36056">
        <ele>107.086004</ele>
        <time>2023-04-29T08:37:21.562Z</time>
      </trkpt>
      <trkpt lat="51.57461" lon="7.36042">
        <ele>107.005135</ele>
        <time>2023-04-29T08:37:23.563Z</time>
      </trkpt>
      <trkpt lat="51.57463" lon="7.36027">
        <ele>106.919893</ele>
        <time>2023-04-29T08:37:25.593Z</time>
      </trkpt>
      <trkpt lat="51.57465" lon="7.36012">
        <ele>106.835395</ele>
        <time>2023-04-29T08:37:27.573Z</time>
      </trkpt>
      <trkpt lat="51.57467" lon="7.35997">
        <ele>106.750135</ele>
        <time>2023-04-29T08:37:29.564Z</time>
      </trkpt>
      <trkpt lat="51.57469" lon="7.35983">
        <ele>106.665761</ele>
        <time>2023-04-29T08:37:31.574Z</time>
      </trkpt>
      <trkpt lat="51.57471" lon="7.35968">
        <ele>106.548046</ele>
        <time>2023-04-29T08:37:33.587Z</time>
      </trkpt>
      <trkpt lat="51.57474" lon="7.35953">
        <ele>106.379897</ele>
        <time>2023-04-29T08:37:35.606Z</time>
      </trkpt>
      <trkpt lat="51.57477" lon="7.35939">
        <ele>106.221185</ele>
        <time>2023-04-29T08:37:37.594Z</time>
      </trkpt>
      <trkpt lat="51.5748" lon="7.35926">
        <ele>106.061918</ele>
        <time>2023-04-29T08:37:39.586Z</time>
      </trkpt>
      <trkpt lat="51.57483" lon="7.35912">
        <ele>105.897585</ele>
        <time>2023-04-29T08:37:41.576Z</time>
      </trkpt>
      <trkpt lat="51.57486" lon="7.35897">
        <ele>105.729171</ele>
        <time>2023-04-29T08:37:43.579Z</time>
      </trkpt>
      <trkpt lat="51.5749" lon="7.35882">
        <ele>105.558293</ele>
        <time>2023-04-29T08:37:45.586Z</time>
      </trkpt>
      <trkpt lat="51.57494" lon="7.35869">
        <ele>105.392806</ele>
        <time>2023-04-29T08:37:47.588Z</time>
      </trkpt>
      <trkpt lat="51.57498" lon="7.35855">
        <ele>105.227928</ele>
        <time>2023-04-29T08:37:49.573Z</time>
      </trkpt>
      <trkpt lat="51.57502" lon="7.35842">
        <ele>105.062236</ele>
        <time>2023-04-29T08:37:51.592Z</time>
      </trkpt>
      <trkpt lat="51.57507" lon="7.35828">
        <ele>104.893637</ele>
        <time>2023-04-29T08:37:53.567Z</time>
      </trkpt>
      <trkpt lat="51.57512" lon="7.35815">
        <ele>104.72463</ele>
        <time>2023-04-29T08:37:55.576Z</time>
      </trkpt>
      <trkpt lat="51.57516" lon="7.35802">
        <ele>104.56385</ele>
        <time>2023-04-29T08:37:57.581Z</time>
      </trkpt>
      <trkpt lat="51.57522" lon="7.3579">
        <ele>104.403015</ele>
        <time>2023-04-29T08:37:59.581Z</time>
      </trkpt>
      <trkpt lat="51.57527" lon="7.35777">
        <ele>104.235872</ele>
        <time>2023-04-29T08:38:01.578Z</time>
      </trkpt>
      <trkpt lat="51.57532" lon="7.35765">
        <ele>104.067727</ele>
        <time>2023-04-29T08:38:03.591Z</time>
      </trkpt>
      <trkpt lat="51.57538" lon="7.35753">
        <ele>103.897858</ele>
        <time>2023-04-29T08:38:05.586Z</time>
      </trkpt>
      <trkpt lat="51.57544" lon="7.35739">
        <ele>103.720408</ele>
        <time>2023-04-29T08:38:07.591Z</time>
      </trkpt>
      <trkpt lat="51.5755" lon="7.35727">
        <ele>103.548356</ele>
        <time>2023-04-29T08:38:09.566Z</time>
      </trkpt>
      <trkpt lat="51.57556" lon="7.35716">
        <ele>103.423245</ele>
        <time>2023-04-29T08:38:11.586Z</time>
      </trkpt>
      <trkpt lat="51.57563" lon="7.35704">
        <ele>103.34725</ele>
        <time>2023-04-29T08:38:13.582Z</time>
      </trkpt>
      <trkpt lat="51.5757" lon="7.35694">
        <ele>103.271112</ele>
        <time>2023-04-29T08:38:15.560Z</time>
      </trkpt>
      <trkpt lat="51.57577" lon="7.35683">
        <ele>103.19509</ele>
        <time>2023-04-29T08:38:17.588Z</time>
      </trkpt>
      <trkpt lat="51.57585" lon="7.35673">
        <ele>103.116218</ele>
        <time>2023-04-29T08:38:19.563Z</time>
      </trkpt>
      <trkpt lat="51.57593" lon="7.35662">
        <ele>103.035495</ele>
        <time>2023-04-29T08:38:21.577Z</time>
      </trkpt>
      <trkpt lat="51.57602" lon="7.35651">
        <ele>102.954851</ele>
        <time>2023-04-29T08:38:23.577Z</time>
      </trkpt>
      <trkpt lat="51.5761" lon="7.35642">
        <ele>102.875979</ele>
        <time>2023-04-29T08:38:25.574Z</time>
      </trkpt>
      <trkpt lat="51.57618" lon="7.35633">
        <ele>102.801828</ele>
        <time>2023-04-29T08:38:27.578Z</time>
      </trkpt>
      <trkpt lat="51.57625" lon="7.35623">
        <ele>102.726324</ele>
        <time>2023-04-29T08:38:29.573Z</time>
      </trkpt>
      <trkpt lat="51.57633" lon="7.35614">
        <ele>102.654428</ele>
        <time>2023-04-29T08:38:31.594Z</time>
      </trkpt>
      <trkpt lat="51.5764" lon="7.35604">
        <ele>102.577719</ele>
        <time>2023-04-29T08:38:33.592Z</time>
      </trkpt>
      <trkpt lat="51.57648" lon="7.35595">
        <ele>102.506119</ele>
        <time>2023-04-29T08:38:35.576Z</time>
      </trkpt>
      <trkpt lat="51.57654" lon="7.35584">
        <ele>102.434508</ele>
        <time>2023-04-29T08:38:37.584Z</time>
      </trkpt>
      <trkpt lat="51.57659" lon="7.35572">
        <ele>102.365203</ele>
        <time>2023-04-29T08:38:39.570Z</time>
      </trkpt>
      <trkpt lat="51.57665" lon="7.3556">
        <ele>102.292284</ele>
        <time>2023-04-29T08:38:41.569Z</time>
      </trkpt>
      <trkpt lat="51.57673" lon="7.35553">
        <ele>102.221457</ele>
        <time>2023-04-29T08:38:43.579Z</time>
      </trkpt>
      <trkpt lat="51.57683" lon="7.35542">
        <ele>102.126139</ele>
        <time>2023-04-29T08:38:46.585Z</time>
      </trkpt>
      <trkpt lat="51.57693" lon="7.35531">
        <ele>102.101221</ele>
        <time>2023-04-29T08:38:49.571Z</time>
      </trkpt>
      <trkpt lat="51.57702" lon="7.35519">
        <ele>102.225759</ele>
        <time>2023-04-29T08:38:52.585Z</time>
      </trkpt>
      <trkpt lat="51.57712" lon="7.35508">
        <ele>102.350953</ele>
        <time>2023-04-29T08:38:55.579Z</time>
      </trkpt>
      <trkpt lat="51.57721" lon="7.35497">
        <ele>102.472635</ele>
        <time>2023-04-29T08:38:58.581Z</time>
      </trkpt>
      <trkpt lat="51.57731" lon="7.35487">
        <ele>102.594765</ele>
        <time>2023-04-29T08:39:01.593Z</time>
      </trkpt>
      <trkpt lat="51.5774" lon="7.35478">
        <ele>102.702408</ele>
        <time>2023-04-29T08:39:04.580Z</time>
      </trkpt>
      <trkpt lat="51.57748" lon="7.35467">
        <ele>102.814638</ele>
        <time>2023-04-29T08:39:07.594Z</time>
      </trkpt>
      <trkpt lat="51.57757" lon="7.35457">
        <ele>102.929316</ele>
        <time>2023-04-29T08:39:10.586Z</time>
      </trkpt>
      <trkpt lat="51.57766" lon="7.35447">
        <ele>103.047072</ele>
        <time>2023-04-29T08:39:13.587Z</time>
      </trkpt>
      <trkpt lat="51.57775" lon="7.35437">
        <ele>103.16448</ele>
        <time>2023-04-29T08:39:16.590Z</time>
      </trkpt>
      <trkpt lat="51.57784" lon="7.35426">
        <ele>103.284846</ele>
        <time>2023-04-29T08:39:19.564Z</time>
      </trkpt>
      <trkpt lat="51.57793" lon="7.35414">
        <ele>103.403579</ele>
        <time>2023-04-29T08:39:22.592Z</time>
      </trkpt>
      <trkpt lat="51.57803" lon="7.35404">
        <ele>103.529779</ele>
        <time>2023-04-29T08:39:25.592Z</time>
      </trkpt>
      <trkpt lat="51.57812" lon="7.35392">
        <ele>103.648911</ele>
        <time>2023-04-29T08:39:28.583Z</time>
      </trkpt>
      <trkpt lat="51.57821" lon="7.35382">
        <ele>103.764883</ele>
        <time>2023-04-29T08:39:31.579Z</time>
      </trkpt>
      <trkpt lat="51.57831" lon="7.35372">
        <ele>103.88683</ele>
        <time>2023-04-29T08:39:34.605Z</time>
      </trkpt>
      <trkpt lat="51.5784" lon="7.35362">
        <ele>103.995598</ele>
        <time>2023-04-29T08:39:37.591Z</time>
      </trkpt>
      <trkpt lat="51.57848" lon="7.35353">
        <ele>104.088527</ele>
        <time>2023-04-29T08:39:40.586Z</time>
      </trkpt>
      <trkpt lat="51.57855" lon="7.35343">
        <ele>104.18151</ele>
        <time>2023-04-29T08:39:43.579Z</time>
      </trkpt>
      <trkpt lat="51.57864" lon="7.35333">
        <ele>104.284917</ele>
        <time>2023-04-29T08:39:46.576Z</time>
      </trkpt>
      <trkpt lat="51.57873" lon="7.35324">
        <ele>104.383122</ele>
        <time>2023-04-29T08:39:49.561Z</time>
      </trkpt>
      <trkpt lat="51.57881" lon="7.35314">
        <ele>104.481286</ele>
        <time>2023-04-29T08:39:52.587Z</time>
      </trkpt>
      <trkpt lat="51.57889" lon="7.35303">
        <ele>104.579852</ele>
        <time>2023-04-29T08:39:55.579Z</time>
      </trkpt>
      <trkpt lat="51.57896" lon="7.35294">
        <ele>104.669883</ele>
        <time>2023-04-29T08:39:58.568Z</time>
      </trkpt>
      <trkpt lat="51.57906" lon="7.35283">
        <ele>104.779469</ele>
        <time>2023-04-29T08:40:01.600Z</time>
      </trkpt>
      <trkpt lat="51.57915" lon="7.35273">
        <ele>104.884378</ele>
        <time>2023-04-29T08:40:04.585Z</time>
      </trkpt>
      <trkpt lat="51.57925" lon="7.35264">
        <ele>104.991669</ele>
        <time>2023-04-29T08:40:07.570Z</time>
      </trkpt>
      <trkpt lat="51.57934" lon="7.35254">
        <ele>105.100137</ele>
        <time>2023-04-29T08:40:10.596Z</time>
      </trkpt>
      <trkpt lat="51.57944" lon="7.35242">
        <ele>105.214288</ele>
        <time>2023-04-29T08:40:13.593Z</time>
      </trkpt>
      <trkpt lat="51.57954" lon="7.35231">
        <ele>105.331371</ele>
        <time>2023-04-29T08:40:16.578Z</time>
      </trkpt>
      <trkpt lat="51.57963" lon="7.35218">
        <ele>105.445661</ele>
        <time>2023-04-29T08:40:19.577Z</time>
      </trkpt>
      <trkpt lat="51.57973" lon="7.35205">
        <ele>105.567218</ele>
        <time>2023-04-29T08:40:22.583Z</time>
      </trkpt>
      <trkpt lat="51.57983" lon="7.3519">
        <ele>105.645433</ele>
        <time>2023-04-29T08:40:25.587Z</time>
      </trkpt>
      <trkpt lat="51.57992" lon="7.35175">
        <ele>105.574755</ele>
        <time>2023-04-29T08:40:28.585Z</time>
      </trkpt>
      <trkpt lat="51.58001" lon="7.3516">
        <ele>105.506121</ele>
        <time>2023-04-29T08:40:31.573Z</time>
      </trkpt>
      <trkpt lat="51.5801" lon="7.35145">
        <ele>105.437824</ele>
        <time>2023-04-29T08:40:34.585Z</time>
      </trkpt>
      <trkpt lat="51.5802" lon="7.3513">
        <ele>105.367106</ele>
        <time>2023-04-29T08:40:37.591Z</time>
      </trkpt>
      <trkpt lat="51.58028" lon="7.35115">
        <ele>105.302079</ele>
        <time>2023-04-29T08:40:40.589Z</time>
      </trkpt>
      <trkpt lat="51.58037" lon="7.35101">
        <ele>105.237051</ele>
        <time>2023-04-29T08:40:43.579Z</time>
      </trkpt>
      <trkpt lat="51.58046" lon="7.35088">
        <ele>105.174318</ele>
        <time>2023-04-29T08:40:46.571Z</time>
      </trkpt>
      <trkpt lat="51.58054" lon="7.35074">
        <ele>105.111928</ele>
        <time>2023-04-29T08:40:49.574Z</time>
      </trkpt>
      <trkpt lat="51.58062" lon="7.35059">
        <ele>105.04664</ele>
        <time>2023-04-29T08:40:52.578Z</time>
      </trkpt>
      <trkpt lat="51.58071" lon="7.35046">
        <ele>104.980409</ele>
        <time>2023-04-29T08:40:55.584Z</time>
      </trkpt>
      <trkpt lat="51.58079" lon="7.3503">
        <ele>104.915238</ele>
        <time>2023-04-29T08:40:58.581Z</time>
      </trkpt>
      <trkpt lat="51.58087" lon="7.35018">
        <ele>104.85389</ele>
        <time>2023-04-29T08:41:01.612Z</time>
      </trkpt>
      <trkpt lat="51.58096" lon="7.35005">
        <ele>104.793205</ele>
        <time>2023-04-29T08:41:04.572Z</time>
      </trkpt>
      <trkpt lat="51.58103" lon="7.34994">
        <ele>104.739355</ele>
        <time>2023-04-29T08:41:07.563Z</time>
      </trkpt>
      <trkpt lat="51.58111" lon="7.34981">
        <ele>104.858093</ele>
        <time>2023-04-29T08:41:11.588Z</time>
      </trkpt>
      <trkpt lat="51.58119" lon="7.34972">
        <ele>105.06161</ele>
        <time>2023-04-29T08:41:15.580Z</time>
      </trkpt>
      <trkpt lat="51.58132" lon="7.34969">
        <ele>105.35755</ele>
        <time>2023-04-29T08:43:29.591Z</time>
      </trkpt>
      <trkpt lat="51.5814" lon="7.34959">
        <ele>105.570237</ele>
        <time>2023-04-29T08:43:32.585Z</time>
      </trkpt>
      <trkpt lat="51.58148" lon="7.34949">
        <ele>105.794878</ele>
        <time>2023-04-29T08:43:35.580Z</time>
      </trkpt>
      <trkpt lat="51.58156" lon="7.34939">
        <ele>106.022082</ele>
        <time>2023-04-29T08:43:38.587Z</time>
      </trkpt>
      <trkpt lat="51.58164" lon="7.34928">
        <ele>106.261268</ele>
        <time>2023-04-29T08:43:41.593Z</time>
      </trkpt>
      <trkpt lat="51.58172" lon="7.34916">
        <ele>106.497379</ele>
        <time>2023-04-29T08:43:44.573Z</time>
      </trkpt>
      <trkpt lat="51.58181" lon="7.34905">
        <ele>106.742608</ele>
        <time>2023-04-29T08:43:47.584Z</time>
      </trkpt>
      <trkpt lat="51.5819" lon="7.34894">
        <ele>106.993801</ele>
        <time>2023-04-29T08:43:50.586Z</time>
      </trkpt>
      <trkpt lat="51.58199" lon="7.34883">
        <ele>107.23896</ele>
        <time>2023-04-29T08:43:53.581Z</time>
      </trkpt>
      <trkpt lat="51.58208" lon="7.34872">
        <ele>107.480682</ele>
        <time>2023-04-29T08:43:56.574Z</time>
      </trkpt>
      <trkpt lat="51.58216" lon="7.34861">
        <ele>107.713179</ele>
        <time>2023-04-29T08:43:59.572Z</time>
      </trkpt>
      <trkpt lat="51.58224" lon="7.3485">
        <ele>107.937835</ele>
        <time>2023-04-29T08:44:02.588Z</time>
      </trkpt>
      <trkpt lat="51.58232" lon="7.3484">
        <ele>108.162511</ele>
        <time>2023-04-29T08:44:05.580Z</time>
      </trkpt>
      <trkpt lat="51.58239" lon="7.34828">
        <ele>108.398845</ele>
        <time>2023-04-29T08:44:08.580Z</time>
      </trkpt>
      <trkpt lat="51.58248" lon="7.34817">
        <ele>108.648299</ele>
        <time>2023-04-29T08:44:11.581Z</time>
      </trkpt>
      <trkpt lat="51.58257" lon="7.34805">
        <ele>108.761703</ele>
        <time>2023-04-29T08:44:14.579Z</time>
      </trkpt>
      <trkpt lat="51.58266" lon="7.34794">
        <ele>108.867186</ele>
        <time>2023-04-29T08:44:17.582Z</time>
      </trkpt>
      <trkpt lat="51.58274" lon="7.34782">
        <ele>108.970953</ele>
        <time>2023-04-29T08:44:20.583Z</time>
      </trkpt>
      <trkpt lat="51.58282" lon="7.34767">
        <ele>109.082573</ele>
        <time>2023-04-29T08:44:23.576Z</time>
      </trkpt>
      <trkpt lat="51.58291" lon="7.34752">
        <ele>109.200262</ele>
        <time>2023-04-29T08:44:26.597Z</time>
      </trkpt>
      <trkpt lat="51.583" lon="7.34737">
        <ele>109.323277</ele>
        <time>2023-04-29T08:44:29.563Z</time>
      </trkpt>
      <trkpt lat="51.58308" lon="7.34722">
        <ele>109.440519</ele>
        <time>2023-04-29T08:44:32.591Z</time>
      </trkpt>
      <trkpt lat="51.58317" lon="7.34707">
        <ele>109.556684</ele>
        <time>2023-04-29T08:44:35.602Z</time>
      </trkpt>
      <trkpt lat="51.58324" lon="7.34693">
        <ele>109.661621</ele>
        <time>2023-04-29T08:44:38.597Z</time>
      </trkpt>
      <trkpt lat="51.58331" lon="7.34676">
        <ele>109.778359</ele>
        <time>2023-04-29T08:44:41.568Z</time>
      </trkpt>
      <trkpt lat="51.58338" lon="7.34658">
        <ele>109.901029</ele>
        <time>2023-04-29T08:44:44.580Z</time>
      </trkpt>
      <trkpt lat="51.58346" lon="7.34643">
        <ele>110.015528</ele>
        <time>2023-04-29T08:44:47.578Z</time>
      </trkpt>
      <trkpt lat="51.58352" lon="7.34632">
        <ele>110.099441</ele>
        <time>2023-04-29T08:44:49.578Z</time>
      </trkpt>
      <trkpt lat="51.58358" lon="7.34621">
        <ele>110.187728</ele>
        <time>2023-04-29T08:44:51.583Z</time>
      </trkpt>
      <trkpt lat="51.58367" lon="7.34605">
        <ele>110.306668</ele>
        <time>2023-04-29T08:44:54.585Z</time>
      </trkpt>
      <trkpt lat="51.58375" lon="7.3459">
        <ele>110.313691</ele>
        <time>2023-04-29T08:44:57.600Z</time>
      </trkpt>
      <trkpt lat="51.58381" lon="7.34578">
        <ele>110.299845</ele>
        <time>2023-04-29T08:44:59.592Z</time>
      </trkpt>
      <trkpt lat="51.58388" lon="7.34562">
        <ele>110.281499</ele>
        <time>2023-04-29T08:45:02.595Z</time>
      </trkpt>
      <trkpt lat="51.58395" lon="7.34547">
        <ele>110.263604</ele>
        <time>2023-04-29T08:45:05.574Z</time>
      </trkpt>
      <trkpt lat="51.58403" lon="7.34532">
        <ele>110.245242</ele>
        <time>2023-04-29T08:45:08.591Z</time>
      </trkpt>
      <trkpt lat="51.58411" lon="7.34516">
        <ele>110.226266</ele>
        <time>2023-04-29T08:45:11.593Z</time>
      </trkpt>
      <trkpt lat="51.58418" lon="7.34501">
        <ele>110.20821</ele>
        <time>2023-04-29T08:45:14.581Z</time>
      </trkpt>
      <trkpt lat="51.58427" lon="7.34486">
        <ele>110.188483</ele>
        <time>2023-04-29T08:45:17.581Z</time>
      </trkpt>
      <trkpt lat="51.58432" lon="7.34473">
        <ele>110.174638</ele>
        <time>2023-04-29T08:45:19.571Z</time>
      </trkpt>
      <trkpt lat="51.5844" lon="7.34457">
        <ele>110.15569</ele>
        <time>2023-04-29T08:45:22.583Z</time>
      </trkpt>
      <trkpt lat="51.58447" lon="7.34441">
        <ele>110.136829</ele>
        <time>2023-04-29T08:45:25.569Z</time>
      </trkpt>
      <trkpt lat="51.58455" lon="7.34425">
        <ele>110.118213</ele>
        <time>2023-04-29T08:45:28.582Z</time>
      </trkpt>
      <trkpt lat="51.58462" lon="7.3441">
        <ele>110.100212</ele>
        <time>2023-04-29T08:45:31.579Z</time>
      </trkpt>
      <trkpt lat="51.5847" lon="7.34394">
        <ele>110.081627</ele>
        <time>2023-04-29T08:45:34.580Z</time>
      </trkpt>
      <trkpt lat="51.58476" lon="7.34378">
        <ele>110.064041</ele>
        <time>2023-04-29T08:45:37.572Z</time>
      </trkpt>
      <trkpt lat="51.58484" lon="7.34363">
        <ele>109.769872</ele>
        <time>2023-04-29T08:45:40.590Z</time>
      </trkpt>
      <trkpt lat="51.58492" lon="7.34348">
        <ele>109.337143</ele>
        <time>2023-04-29T08:45:43.579Z</time>
      </trkpt>
      <trkpt lat="51.58499" lon="7.34332">
        <ele>108.937194</ele>
        <time>2023-04-29T08:45:46.581Z</time>
      </trkpt>
      <trkpt lat="51.58507" lon="7.34314">
        <ele>108.478919</ele>
        <time>2023-04-29T08:45:49.578Z</time>
      </trkpt>
      <trkpt lat="51.58512" lon="7.34301">
        <ele>108.160346</ele>
        <time>2023-04-29T08:45:51.578Z</time>
      </trkpt>
      <trkpt lat="51.58516" lon="7.34287">
        <ele>107.831613</ele>
        <time>2023-04-29T08:45:53.566Z</time>
      </trkpt>
      <trkpt lat="51.58521" lon="7.34267">
        <ele>107.37393</ele>
        <time>2023-04-29T08:45:56.579Z</time>
      </trkpt>
      <trkpt lat="51.58525" lon="7.34253">
        <ele>107.051103</ele>
        <time>2023-04-29T08:45:58.581Z</time>
      </trkpt>
      <trkpt lat="51.5853" lon="7.34239">
        <ele>106.708978</ele>
        <time>2023-04-29T08:46:00.582Z</time>
      </trkpt>
      <trkpt lat="51.58533" lon="7.34224">
        <ele>106.37639</ele>
        <time>2023-04-29T08:46:02.606Z</time>
      </trkpt>
      <trkpt lat="51.58537" lon="7.34209">
        <ele>106.0231</ele>
        <time>2023-04-29T08:46:04.573Z</time>
      </trkpt>
      <trkpt lat="51.58542" lon="7.34194">
        <ele>105.673811</ele>
        <time>2023-04-29T08:46:06.586Z</time>
      </trkpt>
      <trkpt lat="51.58547" lon="7.34179">
        <ele>105.315226</ele>
        <time>2023-04-29T08:46:08.574Z</time>
      </trkpt>
      <trkpt lat="51.58552" lon="7.34163">
        <ele>104.946038</ele>
        <time>2023-04-29T08:46:10.594Z</time>
      </trkpt>
      <trkpt lat="51.58556" lon="7.34147">
        <ele>104.577159</ele>
        <time>2023-04-29T08:46:12.597Z</time>
      </trkpt>
      <trkpt lat="51.58561" lon="7.3413">
        <ele>104.194563</ele>
        <time>2023-04-29T08:46:14.586Z</time>
      </trkpt>
      <trkpt lat="51.58566" lon="7.34114">
        <ele>103.892642</ele>
        <time>2023-04-29T08:46:16.582Z</time>
      </trkpt>
      <trkpt lat="51.58571" lon="7.34096">
        <ele>103.697392</ele>
        <time>2023-04-29T08:46:18.587Z</time>
      </trkpt>
      <trkpt lat="51.58577" lon="7.34078">
        <ele>103.499232</ele>
        <time>2023-04-29T08:46:20.578Z</time>
      </trkpt>
      <trkpt lat="51.58582" lon="7.3406">
        <ele>103.309863</ele>
        <time>2023-04-29T08:46:22.587Z</time>
      </trkpt>
      <trkpt lat="51.58586" lon="7.34042">
        <ele>103.120494</ele>
        <time>2023-04-29T08:46:24.578Z</time>
      </trkpt>
      <trkpt lat="51.58592" lon="7.34024">
        <ele>102.923693</ele>
        <time>2023-04-29T08:46:26.581Z</time>
      </trkpt>
      <trkpt lat="51.58596" lon="7.34007">
        <ele>102.739434</ele>
        <time>2023-04-29T08:46:28.579Z</time>
      </trkpt>
      <trkpt lat="51.586" lon="7.3399">
        <ele>102.559397</ele>
        <time>2023-04-29T08:46:30.604Z</time>
      </trkpt>
      <trkpt lat="51.58605" lon="7.33973">
        <ele>102.381898</ele>
        <time>2023-04-29T08:46:32.588Z</time>
      </trkpt>
      <trkpt lat="51.5861" lon="7.33956">
        <ele>102.199067</ele>
        <time>2023-04-29T08:46:34.588Z</time>
      </trkpt>
      <trkpt lat="51.58616" lon="7.3394">
        <ele>102.014408</ele>
        <time>2023-04-29T08:46:36.588Z</time>
      </trkpt>
      <trkpt lat="51.58621" lon="7.33923">
        <ele>101.827467</ele>
        <time>2023-04-29T08:46:38.604Z</time>
      </trkpt>
      <trkpt lat="51.58626" lon="7.33906">
        <ele>101.645528</ele>
        <time>2023-04-29T08:46:40.576Z</time>
      </trkpt>
      <trkpt lat="51.58631" lon="7.3389">
        <ele>101.466469</ele>
        <time>2023-04-29T08:46:42.578Z</time>
      </trkpt>
      <trkpt lat="51.58635" lon="7.33874">
        <ele>101.297834</ele>
        <time>2023-04-29T08:46:44.574Z</time>
      </trkpt>
      <trkpt lat="51.58639" lon="7.33858">
        <ele>101.131114</ele>
        <time>2023-04-29T08:46:46.580Z</time>
      </trkpt>
      <trkpt lat="51.58645" lon="7.3384">
        <ele>101.181316</ele>
        <time>2023-04-29T08:46:48.595Z</time>
      </trkpt>
      <trkpt lat="51.5865" lon="7.33824">
        <ele>101.226742</ele>
        <time>2023-04-29T08:46:50.584Z</time>
      </trkpt>
      <trkpt lat="51.58654" lon="7.33808">
        <ele>101.269786</ele>
        <time>2023-04-29T08:46:52.660Z</time>
      </trkpt>
      <trkpt lat="51.58661" lon="7.33792">
        <ele>101.319725</ele>
        <time>2023-04-29T08:46:55.603Z</time>
      </trkpt>
      <trkpt lat="51.58664" lon="7.33774">
        <ele>101.366236</ele>
        <time>2023-04-29T08:46:58.585Z</time>
      </trkpt>
      <trkpt lat="51.58667" lon="7.33756">
        <ele>101.413178</ele>
        <time>2023-04-29T08:47:01.578Z</time>
      </trkpt>
      <trkpt lat="51.58668" lon="7.3374">
        <ele>101.453772</ele>
        <time>2023-04-29T08:47:04.569Z</time>
      </trkpt>
      <trkpt lat="51.58671" lon="7.33724">
        <ele>101.494026</ele>
        <time>2023-04-29T08:47:07.560Z</time>
      </trkpt>
      <trkpt lat="51.58677" lon="7.33711">
        <ele>101.535227</ele>
        <time>2023-04-29T08:47:10.578Z</time>
      </trkpt>
      <trkpt lat="51.58683" lon="7.33697">
        <ele>101.579677</ele>
        <time>2023-04-29T08:47:14.591Z</time>
      </trkpt>
      <trkpt lat="51.58688" lon="7.33681">
        <ele>101.622045</ele>
        <time>2023-04-29T08:47:18.582Z</time>
      </trkpt>
      <trkpt lat="51.58685" lon="7.33667">
        <ele>101.660278</ele>
        <time>2023-04-29T08:47:23.591Z</time>
      </trkpt>
      <trkpt lat="51.58678" lon="7.33658">
        <ele>101.697553</ele>
        <time>2023-04-29T08:47:27.574Z</time>
      </trkpt>
      <trkpt lat="51.58669" lon="7.33651">
        <ele>101.737697</ele>
        <time>2023-04-29T08:47:31.567Z</time>
      </trkpt>
      <trkpt lat="51.58665" lon="7.33637">
        <ele>101.776582</ele>
        <time>2023-04-29T08:47:34.567Z</time>
      </trkpt>
      <trkpt lat="51.5866" lon="7.33621">
        <ele>101.819805</ele>
        <time>2023-04-29T08:47:37.578Z</time>
      </trkpt>
      <trkpt lat="51.58655" lon="7.33603">
        <ele>101.902909</ele>
        <time>2023-04-29T08:47:40.592Z</time>
      </trkpt>
      <trkpt lat="51.58651" lon="7.33585">
        <ele>102.072097</ele>
        <time>2023-04-29T08:47:43.578Z</time>
      </trkpt>
      <trkpt lat="51.58647" lon="7.33566">
        <ele>102.245243</ele>
        <time>2023-04-29T08:47:46.560Z</time>
      </trkpt>
      <trkpt lat="51.58643" lon="7.33547">
        <ele>102.416688</ele>
        <time>2023-04-29T08:47:49.578Z</time>
      </trkpt>
      <trkpt lat="51.58641" lon="7.33528">
        <ele>102.579867</ele>
        <time>2023-04-29T08:47:52.598Z</time>
      </trkpt>
      <trkpt lat="51.58638" lon="7.33509">
        <ele>102.746365</ele>
        <time>2023-04-29T08:47:55.585Z</time>
      </trkpt>
      <trkpt lat="51.58635" lon="7.33491">
        <ele>102.911626</ele>
        <time>2023-04-29T08:47:58.582Z</time>
      </trkpt>
      <trkpt lat="51.58632" lon="7.33473">
        <ele>103.069977</ele>
        <time>2023-04-29T08:48:01.577Z</time>
      </trkpt>
      <trkpt lat="51.58631" lon="7.33456">
        <ele>103.21736</ele>
        <time>2023-04-29T08:48:04.580Z</time>
      </trkpt>
      <trkpt lat="51.58628" lon="7.33439">
        <ele>103.37166</ele>
        <time>2023-04-29T08:48:07.563Z</time>
      </trkpt>
      <trkpt lat="51.58621" lon="7.33422">
        <ele>103.544816</ele>
        <time>2023-04-29T08:48:10.592Z</time>
      </trkpt>
      <trkpt lat="51.58617" lon="7.33403">
        <ele>103.717146</ele>
        <time>2023-04-29T08:48:13.572Z</time>
      </trkpt>
      <trkpt lat="51.58614" lon="7.33383">
        <ele>103.898912</ele>
        <time>2023-04-29T08:48:16.577Z</time>
      </trkpt>
      <trkpt lat="51.58609" lon="7.33363">
        <ele>104.085574</ele>
        <time>2023-04-29T08:48:19.573Z</time>
      </trkpt>
      <trkpt lat="51.58605" lon="7.33348">
        <ele>104.220346</ele>
        <time>2023-04-29T08:48:21.567Z</time>
      </trkpt>
      <trkpt lat="51.58602" lon="7.33334">
        <ele>104.349098</ele>
        <time>2023-04-29T08:48:23.567Z</time>
      </trkpt>
      <trkpt lat="51.58599" lon="7.3332">
        <ele>104.284084</ele>
        <time>2023-04-29T08:48:25.583Z</time>
      </trkpt>
      <trkpt lat="51.58597" lon="7.33305">
        <ele>104.212168</ele>
        <time>2023-04-29T08:48:27.591Z</time>
      </trkpt>
      <trkpt lat="51.58594" lon="7.33291">
        <ele>104.136528</ele>
        <time>2023-04-29T08:48:29.587Z</time>
      </trkpt>
      <trkpt lat="51.58591" lon="7.33276">
        <ele>104.05956</ele>
        <time>2023-04-29T08:48:31.591Z</time>
      </trkpt>
      <trkpt lat="51.58589" lon="7.3326">
        <ele>103.981026</ele>
        <time>2023-04-29T08:48:33.601Z</time>
      </trkpt>
      <trkpt lat="51.58586" lon="7.33245">
        <ele>103.905232</ele>
        <time>2023-04-29T08:48:35.591Z</time>
      </trkpt>
      <trkpt lat="51.58582" lon="7.3323">
        <ele>103.8273</ele>
        <time>2023-04-29T08:48:37.575Z</time>
      </trkpt>
      <trkpt lat="51.58579" lon="7.33215">
        <ele>103.750533</ele>
        <time>2023-04-29T08:48:39.577Z</time>
      </trkpt>
      <trkpt lat="51.58575" lon="7.33201">
        <ele>103.676442</ele>
        <time>2023-04-29T08:48:41.576Z</time>
      </trkpt>
      <trkpt lat="51.58572" lon="7.33186">
        <ele>103.600148</ele>
        <time>2023-04-29T08:48:43.579Z</time>
      </trkpt>
      <trkpt lat="51.58569" lon="7.33172">
        <ele>103.524313</ele>
        <time>2023-04-29T08:48:45.578Z</time>
      </trkpt>
      <trkpt lat="51.58566" lon="7.33156">
        <ele>103.446665</ele>
        <time>2023-04-29T08:48:47.578Z</time>
      </trkpt>
      <trkpt lat="51.58563" lon="7.33142">
        <ele>103.371784</ele>
        <time>2023-04-29T08:48:49.583Z</time>
      </trkpt>
      <trkpt lat="51.5856" lon="7.33127">
        <ele>103.296204</ele>
        <time>2023-04-29T08:48:51.588Z</time>
      </trkpt>
      <trkpt lat="51.58557" lon="7.33113">
        <ele>103.221986</ele>
        <time>2023-04-29T08:48:53.577Z</time>
      </trkpt>
      <trkpt lat="51.58553" lon="7.33099">
        <ele>103.145634</ele>
        <time>2023-04-29T08:48:55.580Z</time>
      </trkpt>
      <trkpt lat="51.5855" lon="7.33084">
        <ele>103.071007</ele>
        <time>2023-04-29T08:48:57.576Z</time>
      </trkpt>
      <trkpt lat="51.58547" lon="7.3307">
        <ele>102.997269</ele>
        <time>2023-04-29T08:48:59.584Z</time>
      </trkpt>
      <trkpt lat="51.58544" lon="7.33055">
        <ele>102.947781</ele>
        <time>2023-04-29T08:49:01.574Z</time>
      </trkpt>
      <trkpt lat="51.58541" lon="7.33041">
        <ele>102.953414</ele>
        <time>2023-04-29T08:49:03.570Z</time>
      </trkpt>
      <trkpt lat="51.58538" lon="7.33026">
        <ele>102.959192</ele>
        <time>2023-04-29T08:49:05.593Z</time>
      </trkpt>
      <trkpt lat="51.58535" lon="7.33011">
        <ele>102.964684</ele>
        <time>2023-04-29T08:49:07.576Z</time>
      </trkpt>
      <trkpt lat="51.58532" lon="7.32996">
        <ele>102.970747</ele>
        <time>2023-04-29T08:49:09.569Z</time>
      </trkpt>
      <trkpt lat="51.58528" lon="7.32981">
        <ele>102.976631</ele>
        <time>2023-04-29T08:49:11.589Z</time>
      </trkpt>
      <trkpt lat="51.58525" lon="7.32966">
        <ele>102.982599</ele>
        <time>2023-04-29T08:49:13.582Z</time>
      </trkpt>
      <trkpt lat="51.58523" lon="7.3295">
        <ele>102.988568</ele>
        <time>2023-04-29T08:49:15.585Z</time>
      </trkpt>
      <trkpt lat="51.5852" lon="7.32936">
        <ele>102.994218</ele>
        <time>2023-04-29T08:49:17.573Z</time>
      </trkpt>
      <trkpt lat="51.58517" lon="7.32921">
        <ele>102.999886</ele>
        <time>2023-04-29T08:49:19.586Z</time>
      </trkpt>
      <trkpt lat="51.58514" lon="7.32906">
        <ele>103.005541</ele>
        <time>2023-04-29T08:49:21.576Z</time>
      </trkpt>
      <trkpt lat="51.58511" lon="7.32892">
        <ele>103.011176</ele>
        <time>2023-04-29T08:49:23.584Z</time>
      </trkpt>
      <trkpt lat="51.58508" lon="7.32877">
        <ele>103.017006</ele>
        <time>2023-04-29T08:49:25.599Z</time>
      </trkpt>
      <trkpt lat="51.58505" lon="7.32863">
        <ele>103.022555</ele>
        <time>2023-04-29T08:49:27.586Z</time>
      </trkpt>
      <trkpt lat="51.58502" lon="7.32848">
        <ele>103.028365</ele>
        <time>2023-04-29T08:49:29.568Z</time>
      </trkpt>
      <trkpt lat="51.58499" lon="7.32833">
        <ele>103.034157</ele>
        <time>2023-04-29T08:49:31.584Z</time>
      </trkpt>
      <trkpt lat="51.58496" lon="7.32818">
        <ele>103.040054</ele>
        <time>2023-04-29T08:49:33.590Z</time>
      </trkpt>
      <trkpt lat="51.58494" lon="7.32803">
        <ele>103.045757</ele>
        <time>2023-04-29T08:49:35.595Z</time>
      </trkpt>
      <trkpt lat="51.58491" lon="7.32788">
        <ele>103.051514</ele>
        <time>2023-04-29T08:49:37.574Z</time>
      </trkpt>
      <trkpt lat="51.58488" lon="7.32773">
        <ele>103.016615</ele>
        <time>2023-04-29T08:49:39.577Z</time>
      </trkpt>
      <trkpt lat="51.58484" lon="7.32758">
        <ele>102.968311</ele>
        <time>2023-04-29T08:49:41.580Z</time>
      </trkpt>
      <trkpt lat="51.58482" lon="7.32744">
        <ele>102.921687</ele>
        <time>2023-04-29T08:49:43.575Z</time>
      </trkpt>
      <trkpt lat="51.58479" lon="7.32729">
        <ele>102.873729</ele>
        <time>2023-04-29T08:49:45.571Z</time>
      </trkpt>
      <trkpt lat="51.58476" lon="7.32714">
        <ele>102.825917</ele>
        <time>2023-04-29T08:49:47.578Z</time>
      </trkpt>
      <trkpt lat="51.58473" lon="7.327">
        <ele>102.779245</ele>
        <time>2023-04-29T08:49:49.554Z</time>
      </trkpt>
      <trkpt lat="51.5847" lon="7.32686">
        <ele>102.732318</ele>
        <time>2023-04-29T08:49:51.564Z</time>
      </trkpt>
      <trkpt lat="51.58467" lon="7.32672">
        <ele>102.68613</ele>
        <time>2023-04-29T08:49:53.566Z</time>
      </trkpt>
      <trkpt lat="51.58464" lon="7.32658">
        <ele>102.639334</ele>
        <time>2023-04-29T08:49:55.597Z</time>
      </trkpt>
      <trkpt lat="51.58461" lon="7.32644">
        <ele>102.593124</ele>
        <time>2023-04-29T08:49:57.583Z</time>
      </trkpt>
      <trkpt lat="51.58458" lon="7.3263">
        <ele>102.546569</ele>
        <time>2023-04-29T08:49:59.583Z</time>
      </trkpt>
      <trkpt lat="51.58455" lon="7.32615">
        <ele>102.501114</ele>
        <time>2023-04-29T08:50:01.589Z</time>
      </trkpt>
      <trkpt lat="51.58451" lon="7.32595">
        <ele>102.432662</ele>
        <time>2023-04-29T08:50:04.581Z</time>
      </trkpt>
      <trkpt lat="51.58448" lon="7.3258">
        <ele>102.386324</ele>
        <time>2023-04-29T08:50:06.580Z</time>
      </trkpt>
      <trkpt lat="51.58446" lon="7.32565">
        <ele>102.338037</ele>
        <time>2023-04-29T08:50:08.593Z</time>
      </trkpt>
      <trkpt lat="51.58442" lon="7.32551">
        <ele>102.290928</ele>
        <time>2023-04-29T08:50:10.586Z</time>
      </trkpt>
      <trkpt lat="51.58439" lon="7.32538">
        <ele>102.245648</ele>
        <time>2023-04-29T08:50:12.581Z</time>
      </trkpt>
      <trkpt lat="51.58435" lon="7.32517">
        <ele>102.177786</ele>
        <time>2023-04-29T08:50:15.589Z</time>
      </trkpt>
      <trkpt lat="51.58431" lon="7.32496">
        <ele>102.203523</ele>
        <time>2023-04-29T08:50:18.595Z</time>
      </trkpt>
      <trkpt lat="51.58428" lon="7.32482">
        <ele>102.256521</ele>
        <time>2023-04-29T08:50:20.589Z</time>
      </trkpt>
      <trkpt lat="51.58423" lon="7.32462">
        <ele>102.333873</ele>
        <time>2023-04-29T08:50:23.581Z</time>
      </trkpt>
      <trkpt lat="51.58418" lon="7.32443">
        <ele>102.409852</ele>
        <time>2023-04-29T08:50:26.586Z</time>
      </trkpt>
      <trkpt lat="51.58413" lon="7.3243">
        <ele>102.462488</ele>
        <time>2023-04-29T08:50:28.583Z</time>
      </trkpt>
      <trkpt lat="51.58408" lon="7.32418">
        <ele>102.514827</ele>
        <time>2023-04-29T08:50:30.566Z</time>
      </trkpt>
      <trkpt lat="51.58399" lon="7.32403">
        <ele>102.59166</ele>
        <time>2023-04-29T08:50:33.578Z</time>
      </trkpt>
      <trkpt lat="51.58388" lon="7.3239">
        <ele>102.669129</ele>
        <time>2023-04-29T08:50:36.579Z</time>
      </trkpt>
      <trkpt lat="51.58379" lon="7.32376">
        <ele>102.745048</ele>
        <time>2023-04-29T08:50:39.575Z</time>
      </trkpt>
      <trkpt lat="51.58368" lon="7.32365">
        <ele>102.819245</ele>
        <time>2023-04-29T08:50:42.587Z</time>
      </trkpt>
      <trkpt lat="51.58357" lon="7.32354">
        <ele>102.894402</ele>
        <time>2023-04-29T08:50:45.581Z</time>
      </trkpt>
      <trkpt lat="51.58346" lon="7.32343">
        <ele>102.970085</ele>
        <time>2023-04-29T08:50:48.584Z</time>
      </trkpt>
      <trkpt lat="51.58335" lon="7.32332">
        <ele>103.045536</ele>
        <time>2023-04-29T08:50:51.597Z</time>
      </trkpt>
      <trkpt lat="51.58326" lon="7.32325">
        <ele>103.100368</ele>
        <time>2023-04-29T08:50:53.572Z</time>
      </trkpt>
      <trkpt lat="51.58318" lon="7.32315">
        <ele>103.155957</ele>
        <time>2023-04-29T08:50:55.598Z</time>
      </trkpt>
      <trkpt lat="51.58308" lon="7.323">
        <ele>103.081635</ele>
        <time>2023-04-29T08:50:58.573Z</time>
      </trkpt>
      <trkpt lat="51.58301" lon="7.32281">
        <ele>102.857027</ele>
        <time>2023-04-29T08:51:01.570Z</time>
      </trkpt>
      <trkpt lat="51.58298" lon="7.32268">
        <ele>102.705502</ele>
        <time>2023-04-29T08:51:03.572Z</time>
      </trkpt>
      <trkpt lat="51.58295" lon="7.32254">
        <ele>102.552426</ele>
        <time>2023-04-29T08:51:05.580Z</time>
      </trkpt>
      <trkpt lat="51.58292" lon="7.32239">
        <ele>102.401793</ele>
        <time>2023-04-29T08:51:07.573Z</time>
      </trkpt>
      <trkpt lat="51.58291" lon="7.32219">
        <ele>102.19112</ele>
        <time>2023-04-29T08:51:10.584Z</time>
      </trkpt>
      <trkpt lat="51.58288" lon="7.32199">
        <ele>101.989233</ele>
        <time>2023-04-29T08:51:13.584Z</time>
      </trkpt>
      <trkpt lat="51.58286" lon="7.32183">
        <ele>101.813947</ele>
        <time>2023-04-29T08:51:16.598Z</time>
      </trkpt>
      <trkpt lat="51.58285" lon="7.32168">
        <ele>101.666673</ele>
        <time>2023-04-29T08:51:19.590Z</time>
      </trkpt>
      <trkpt lat="51.58284" lon="7.32152">
        <ele>101.503288</ele>
        <time>2023-04-29T08:51:23.586Z</time>
      </trkpt>
      <trkpt lat="51.58282" lon="7.32138">
        <ele>101.352982</ele>
        <time>2023-04-29T08:51:28.591Z</time>
      </trkpt>
      <trkpt lat="51.58272" lon="7.32136">
        <ele>101.179315</ele>
        <time>2023-04-29T08:51:36.595Z</time>
      </trkpt>
      <trkpt lat="51.58263" lon="7.32132">
        <ele>101.031399</ele>
        <time>2023-04-29T08:51:40.592Z</time>
      </trkpt>
      <trkpt lat="51.58257" lon="7.3212">
        <ele>100.876235</ele>
        <time>2023-04-29T08:51:43.595Z</time>
      </trkpt>
      <trkpt lat="51.58249" lon="7.32111">
        <ele>100.714914</ele>
        <time>2023-04-29T08:51:45.565Z</time>
      </trkpt>
      <trkpt lat="51.5824" lon="7.32105">
        <ele>100.550279</ele>
        <time>2023-04-29T08:51:49.561Z</time>
      </trkpt>
      <trkpt lat="51.58235" lon="7.3209">
        <ele>100.376463</ele>
        <time>2023-04-29T08:51:53.586Z</time>
      </trkpt>
      <trkpt lat="51.58232" lon="7.32073">
        <ele>100.210984</ele>
        <time>2023-04-29T08:51:57.584Z</time>
      </trkpt>
      <trkpt lat="51.58226" lon="7.32058">
        <ele>100.075732</ele>
        <time>2023-04-29T08:52:01.565Z</time>
      </trkpt>
      <trkpt lat="51.58221" lon="7.32045">
        <ele>99.956072</ele>
        <time>2023-04-29T08:52:04.597Z</time>
      </trkpt>
      <trkpt lat="51.58215" lon="7.32033">
        <ele>99.836191</ele>
        <time>2023-04-29T08:52:07.571Z</time>
      </trkpt>
      <trkpt lat="51.58209" lon="7.32021">
        <ele>99.717089</ele>
        <time>2023-04-29T08:52:10.569Z</time>
      </trkpt>
      <trkpt lat="51.58202" lon="7.32009">
        <ele>99.593253</ele>
        <time>2023-04-29T08:52:13.600Z</time>
      </trkpt>
      <trkpt lat="51.58195" lon="7.31998">
        <ele>99.470764</ele>
        <time>2023-04-29T08:52:16.566Z</time>
      </trkpt>
      <trkpt lat="51.58188" lon="7.31985">
        <ele>99.339716</ele>
        <time>2023-04-29T08:52:19.584Z</time>
      </trkpt>
      <trkpt lat="51.58179" lon="7.31973">
        <ele>99.19998</ele>
        <time>2023-04-29T08:52:22.598Z</time>
      </trkpt>
      <trkpt lat="51.58171" lon="7.31961">
        <ele>99.061351</ele>
        <time>2023-04-29T08:52:25.574Z</time>
      </trkpt>
      <trkpt lat="51.58162" lon="7.31948">
        <ele>98.912354</ele>
        <time>2023-04-29T08:52:28.610Z</time>
      </trkpt>
      <trkpt lat="51.58154" lon="7.31936">
        <ele>98.777338</ele>
        <time>2023-04-29T08:52:31.584Z</time>
      </trkpt>
      <trkpt lat="51.58146" lon="7.31925">
        <ele>98.648433</ele>
        <time>2023-04-29T08:52:34.593Z</time>
      </trkpt>
      <trkpt lat="51.58139" lon="7.31915">
        <ele>98.533688</ele>
        <time>2023-04-29T08:52:38.602Z</time>
      </trkpt>
      <trkpt lat="51.58136" lon="7.31901">
        <ele>98.420732</ele>
        <time>2023-04-29T08:52:42.585Z</time>
      </trkpt>
      <trkpt lat="51.58137" lon="7.31883">
        <ele>98.282658</ele>
        <time>2023-04-29T08:52:46.568Z</time>
      </trkpt>
      <trkpt lat="51.58139" lon="7.31866">
        <ele>98.153857</ele>
        <time>2023-04-29T08:52:51.572Z</time>
      </trkpt>
      <trkpt lat="51.58144" lon="7.31853">
        <ele>98.030957</ele>
        <time>2023-04-29T08:52:54.571Z</time>
      </trkpt>
      <trkpt lat="51.58145" lon="7.31837">
        <ele>98.218543</ele>
        <time>2023-04-29T08:52:57.577Z</time>
      </trkpt>
      <trkpt lat="51.58143" lon="7.3182">
        <ele>98.428932</ele>
        <time>2023-04-29T08:53:00.589Z</time>
      </trkpt>
      <trkpt lat="51.58142" lon="7.31805">
        <ele>98.629601</ele>
        <time>2023-04-29T08:53:03.577Z</time>
      </trkpt>
      <trkpt lat="51.58141" lon="7.31788">
        <ele>98.834509</ele>
        <time>2023-04-29T08:53:06.592Z</time>
      </trkpt>
      <trkpt lat="51.58147" lon="7.31776">
        <ele>99.031588</ele>
        <time>2023-04-29T08:53:09.574Z</time>
      </trkpt>
      <trkpt lat="51.58149" lon="7.31759">
        <ele>99.25427</ele>
        <time>2023-04-29T08:53:12.577Z</time>
      </trkpt>
      <trkpt lat="51.58153" lon="7.31737">
        <ele>99.535762</ele>
        <time>2023-04-29T08:53:15.609Z</time>
      </trkpt>
      <trkpt lat="51.58155" lon="7.31722">
        <ele>99.736336</ele>
        <time>2023-04-29T08:53:17.563Z</time>
      </trkpt>
      <trkpt lat="51.58158" lon="7.31705">
        <ele>99.949885</ele>
        <time>2023-04-29T08:53:19.573Z</time>
      </trkpt>
      <trkpt lat="51.58161" lon="7.3169">
        <ele>100.16046</ele>
        <time>2023-04-29T08:53:21.583Z</time>
      </trkpt>
      <trkpt lat="51.58164" lon="7.31675">
        <ele>100.358406</ele>
        <time>2023-04-29T08:53:23.576Z</time>
      </trkpt>
      <trkpt lat="51.58166" lon="7.3166">
        <ele>100.553584</ele>
        <time>2023-04-29T08:53:25.567Z</time>
      </trkpt>
      <trkpt lat="51.58169" lon="7.31645">
        <ele>100.747818</ele>
        <time>2023-04-29T08:53:27.578Z</time>
      </trkpt>
      <trkpt lat="51.58172" lon="7.3163">
        <ele>100.939134</ele>
        <time>2023-04-29T08:53:29.573Z</time>
      </trkpt>
      <trkpt lat="51.58173" lon="7.31615">
        <ele>101.13005</ele>
        <time>2023-04-29T08:53:31.598Z</time>
      </trkpt>
      <trkpt lat="51.58176" lon="7.31601">
        <ele>101.317132</ele>
        <time>2023-04-29T08:53:33.603Z</time>
      </trkpt>
      <trkpt lat="51.5818" lon="7.31581">
        <ele>101.583269</ele>
        <time>2023-04-29T08:53:36.607Z</time>
      </trkpt>
      <trkpt lat="51.58183" lon="7.31561">
        <ele>101.631703</ele>
        <time>2023-04-29T08:53:39.571Z</time>
      </trkpt>
      <trkpt lat="51.58184" lon="7.31542">
        <ele>101.558066</ele>
        <time>2023-04-29T08:53:42.599Z</time>
      </trkpt>
      <trkpt lat="51.58179" lon="7.31525">
        <ele>101.482059</ele>
        <time>2023-04-29T08:53:45.580Z</time>
      </trkpt>
      <trkpt lat="51.58171" lon="7.31514">
        <ele>101.417629</ele>
        <time>2023-04-29T08:53:48.577Z</time>
      </trkpt>
      <trkpt lat="51.58172" lon="7.31496">
        <ele>101.345033</ele>
        <time>2023-04-29T08:53:51.578Z</time>
      </trkpt>
      <trkpt lat="51.58177" lon="7.31483">
        <ele>101.285466</ele>
        <time>2023-04-29T08:53:54.581Z</time>
      </trkpt>
      <trkpt lat="51.58184" lon="7.31471">
        <ele>101.2208</ele>
        <time>2023-04-29T08:53:57.580Z</time>
      </trkpt>
      <trkpt lat="51.58185" lon="7.31454">
        <ele>101.151966</ele>
        <time>2023-04-29T08:54:00.579Z</time>
      </trkpt>
      <trkpt lat="51.58183" lon="7.31434">
        <ele>101.075137</ele>
        <time>2023-04-29T08:54:03.594Z</time>
      </trkpt>
      <trkpt lat="51.58182" lon="7.31419">
        <ele>101.016826</ele>
        <time>2023-04-29T08:54:05.597Z</time>
      </trkpt>
      <trkpt lat="51.5818" lon="7.31397">
        <ele>100.929911</ele>
        <time>2023-04-29T08:54:08.581Z</time>
      </trkpt>
      <trkpt lat="51.58179" lon="7.31382">
        <ele>100.871062</ele>
        <time>2023-04-29T08:54:10.597Z</time>
      </trkpt>
      <trkpt lat="51.58177" lon="7.31368">
        <ele>100.812222</ele>
        <time>2023-04-29T08:54:12.612Z</time>
      </trkpt>
      <trkpt lat="51.58176" lon="7.31352">
        <ele>100.751493</ele>
        <time>2023-04-29T08:54:14.588Z</time>
      </trkpt>
      <trkpt lat="51.58173" lon="7.31338">
        <ele>100.694551</ele>
        <time>2023-04-29T08:54:16.588Z</time>
      </trkpt>
      <trkpt lat="51.5817" lon="7.31325">
        <ele>100.638025</ele>
        <time>2023-04-29T08:54:18.584Z</time>
      </trkpt>
      <trkpt lat="51.58167" lon="7.31305">
        <ele>100.556091</ele>
        <time>2023-04-29T08:54:21.584Z</time>
      </trkpt>
      <trkpt lat="51.58163" lon="7.31285">
        <ele>100.443168</ele>
        <time>2023-04-29T08:54:24.589Z</time>
      </trkpt>
      <trkpt lat="51.5816" lon="7.31264">
        <ele>100.322019</ele>
        <time>2023-04-29T08:54:27.591Z</time>
      </trkpt>
      <trkpt lat="51.58156" lon="7.3125">
        <ele>100.236765</ele>
        <time>2023-04-29T08:54:29.590Z</time>
      </trkpt>
      <trkpt lat="51.58152" lon="7.31237">
        <ele>100.15321</ele>
        <time>2023-04-29T08:54:31.572Z</time>
      </trkpt>
      <trkpt lat="51.58148" lon="7.31223">
        <ele>100.067956</ele>
        <time>2023-04-29T08:54:33.600Z</time>
      </trkpt>
      <trkpt lat="51.58143" lon="7.31203">
        <ele>99.94884</ele>
        <time>2023-04-29T08:54:36.674Z</time>
      </trkpt>
      <trkpt lat="51.58139" lon="7.31184">
        <ele>99.831459</ele>
        <time>2023-04-29T08:54:39.579Z</time>
      </trkpt>
      <trkpt lat="51.58137" lon="7.31165">
        <ele>99.723806</ele>
        <time>2023-04-29T08:54:42.587Z</time>
      </trkpt>
      <trkpt lat="51.58133" lon="7.31151">
        <ele>99.635906</ele>
        <time>2023-04-29T08:54:46.576Z</time>
      </trkpt>
      <trkpt lat="51.58136" lon="7.31135">
        <ele>99.541683</ele>
        <time>2023-04-29T08:54:53.577Z</time>
      </trkpt>
      <trkpt lat="51.58142" lon="7.31123">
        <ele>99.455249</ele>
        <time>2023-04-29T08:54:57.573Z</time>
      </trkpt>
      <trkpt lat="51.58152" lon="7.31123">
        <ele>99.366336</ele>
        <time>2023-04-29T08:55:01.595Z</time>
      </trkpt>
      <trkpt lat="51.58162" lon="7.31123">
        <ele>99.276513</ele>
        <time>2023-04-29T08:55:05.577Z</time>
      </trkpt>
      <trkpt lat="51.58168" lon="7.31109">
        <ele>99.178669</ele>
        <time>2023-04-29T08:55:10.587Z</time>
      </trkpt>
      <trkpt lat="51.58179" lon="7.311">
        <ele>99.068838</ele>
        <time>2023-04-29T08:55:14.597Z</time>
      </trkpt>
      <trkpt lat="51.58189" lon="7.31096">
        <ele>98.971549</ele>
        <time>2023-04-29T08:55:17.585Z</time>
      </trkpt>
      <trkpt lat="51.58199" lon="7.31091">
        <ele>98.928068</ele>
        <time>2023-04-29T08:55:20.586Z</time>
      </trkpt>
      <trkpt lat="51.58208" lon="7.31088">
        <ele>98.954104</ele>
        <time>2023-04-29T08:55:23.573Z</time>
      </trkpt>
      <trkpt lat="51.58219" lon="7.31084">
        <ele>98.987839</ele>
        <time>2023-04-29T08:55:27.577Z</time>
      </trkpt>
      <trkpt lat="51.58229" lon="7.31081">
        <ele>99.015352</ele>
        <time>2023-04-29T08:55:30.593Z</time>
      </trkpt>
      <trkpt lat="51.58238" lon="7.31076">
        <ele>99.044753</ele>
        <time>2023-04-29T08:55:33.567Z</time>
      </trkpt>
      <trkpt lat="51.58249" lon="7.31073">
        <ele>99.074493</ele>
        <time>2023-04-29T08:55:36.599Z</time>
      </trkpt>
      <trkpt lat="51.5826" lon="7.31073">
        <ele>99.107211</ele>
        <time>2023-04-29T08:55:40.595Z</time>
      </trkpt>
      <trkpt lat="51.58269" lon="7.31068">
        <ele>99.13481</ele>
        <time>2023-04-29T08:55:44.580Z</time>
      </trkpt>
      <trkpt lat="51.58277" lon="7.31061">
        <ele>99.161355</ele>
        <time>2023-04-29T08:55:49.578Z</time>
      </trkpt>
      <trkpt lat="51.58274" lon="7.31045">
        <ele>99.191215</ele>
        <time>2023-04-29T08:57:02.594Z</time>
      </trkpt>
      <trkpt lat="51.58264" lon="7.31036">
        <ele>99.224491</ele>
        <time>2023-04-29T08:57:07.564Z</time>
      </trkpt>
      <trkpt lat="51.58259" lon="7.31023">
        <ele>99.251433</ele>
        <time>2023-04-29T08:57:11.603Z</time>
      </trkpt>
      <trkpt lat="51.58251" lon="7.31029">
        <ele>99.278239</ele>
        <time>2023-04-29T08:57:22.579Z</time>
      </trkpt>
      <trkpt lat="51.58239" lon="7.31026">
        <ele>99.310794</ele>
        <time>2023-04-29T08:57:27.580Z</time>
      </trkpt>
      <trkpt lat="51.58228" lon="7.3103">
        <ele>99.342972</ele>
        <time>2023-04-29T08:57:31.581Z</time>
      </trkpt>
      <trkpt lat="51.58218" lon="7.31033">
        <ele>99.372923</ele>
        <time>2023-04-29T08:57:35.591Z</time>
      </trkpt>
      <trkpt lat="51.58207" lon="7.31036">
        <ele>99.406327</ele>
        <time>2023-04-29T08:57:39.585Z</time>
      </trkpt>
      <trkpt lat="51.58197" lon="7.31038">
        <ele>99.445478</ele>
        <time>2023-04-29T08:57:43.582Z</time>
      </trkpt>
      <trkpt lat="51.58185" lon="7.31037">
        <ele>99.643436</ele>
        <time>2023-04-29T08:57:48.582Z</time>
      </trkpt>
      <trkpt lat="51.5818" lon="7.31023">
        <ele>99.815909</ele>
        <time>2023-04-29T08:57:53.591Z</time>
      </trkpt>
      <trkpt lat="51.58189" lon="7.31012">
        <ele>100.00146</ele>
        <time>2023-04-29T08:57:58.597Z</time>
      </trkpt>
      <trkpt lat="51.58199" lon="7.31007">
        <ele>100.183457</ele>
        <time>2023-04-29T08:58:04.570Z</time>
      </trkpt>
      <trkpt lat="51.58197" lon="7.31016">
        <ele>100.286999</ele>
        <time>2023-04-29T08:58:48.319Z</time>
      </trkpt>
      <trkpt lat="51.58205" lon="7.31008">
        <ele>100.447777</ele>
        <time>2023-04-29T09:27:41.591Z</time>
      </trkpt>
      <trkpt lat="51.58214" lon="7.31001">
        <ele>100.619596</ele>
        <time>2023-04-29T09:27:45.587Z</time>
      </trkpt>
      <trkpt lat="51.58225" lon="7.30991">
        <ele>100.830689</ele>
        <time>2023-04-29T09:27:49.589Z</time>
      </trkpt>
      <trkpt lat="51.58234" lon="7.30994">
        <ele>100.987326</ele>
        <time>2023-04-29T09:27:52.590Z</time>
      </trkpt>
      <trkpt lat="51.58242" lon="7.31001">
        <ele>101.142264</ele>
        <time>2023-04-29T09:27:56.589Z</time>
      </trkpt>
      <trkpt lat="51.58252" lon="7.31006">
        <ele>101.318803</ele>
        <time>2023-04-29T09:28:20.600Z</time>
      </trkpt>
      <trkpt lat="51.58258" lon="7.31019">
        <ele>101.492373</ele>
        <time>2023-04-29T09:28:25.605Z</time>
      </trkpt>
      <trkpt lat="51.58267" lon="7.31021">
        <ele>101.655201</ele>
        <time>2023-04-29T09:28:30.593Z</time>
      </trkpt>
      <trkpt lat="51.58271" lon="7.31035">
        <ele>101.812794</ele>
        <time>2023-04-29T09:28:35.596Z</time>
      </trkpt>
      <trkpt lat="51.58273" lon="7.31053">
        <ele>102.006468</ele>
        <time>2023-04-29T09:29:41.597Z</time>
      </trkpt>
      <trkpt lat="51.5828" lon="7.31062">
        <ele>102.168028</ele>
        <time>2023-04-29T09:29:45.600Z</time>
      </trkpt>
      <trkpt lat="51.58292" lon="7.31058">
        <ele>102.376772</ele>
        <time>2023-04-29T09:29:49.583Z</time>
      </trkpt>
      <trkpt lat="51.58303" lon="7.31052">
        <ele>102.563221</ele>
        <time>2023-04-29T09:29:52.578Z</time>
      </trkpt>
      <trkpt lat="51.58313" lon="7.31047">
        <ele>102.749503</ele>
        <time>2023-04-29T09:29:55.581Z</time>
      </trkpt>
      <trkpt lat="51.58324" lon="7.31041">
        <ele>102.937699</ele>
        <time>2023-04-29T09:29:58.597Z</time>
      </trkpt>
      <trkpt lat="51.58334" lon="7.31029">
        <ele>103.140745</ele>
        <time>2023-04-29T09:30:01.586Z</time>
      </trkpt>
      <trkpt lat="51.58347" lon="7.31024">
        <ele>103.364272</ele>
        <time>2023-04-29T09:30:04.585Z</time>
      </trkpt>
      <trkpt lat="51.58357" lon="7.31021">
        <ele>103.520308</ele>
        <time>2023-04-29T09:30:06.582Z</time>
      </trkpt>
      <trkpt lat="51.58366" lon="7.31018">
        <ele>103.672915</ele>
        <time>2023-04-29T09:30:08.598Z</time>
      </trkpt>
      <trkpt lat="51.58375" lon="7.31014">
        <ele>103.828031</ele>
        <time>2023-04-29T09:30:10.582Z</time>
      </trkpt>
      <trkpt lat="51.58388" lon="7.3101">
        <ele>104.043841</ele>
        <time>2023-04-29T09:30:13.608Z</time>
      </trkpt>
      <trkpt lat="51.58398" lon="7.31006">
        <ele>104.212855</ele>
        <time>2023-04-29T09:30:16.603Z</time>
      </trkpt>
      <trkpt lat="51.58408" lon="7.31001">
        <ele>104.385645</ele>
        <time>2023-04-29T09:30:20.589Z</time>
      </trkpt>
      <trkpt lat="51.58416" lon="7.30993">
        <ele>104.538561</ele>
        <time>2023-04-29T09:30:29.566Z</time>
      </trkpt>
      <trkpt lat="51.58414" lon="7.30978">
        <ele>104.697931</ele>
        <time>2023-04-29T09:30:33.586Z</time>
      </trkpt>
      <trkpt lat="51.5841" lon="7.30963">
        <ele>104.867044</ele>
        <time>2023-04-29T09:30:36.582Z</time>
      </trkpt>
      <trkpt lat="51.58409" lon="7.30946">
        <ele>105.034189</ele>
        <time>2023-04-29T09:30:39.571Z</time>
      </trkpt>
      <trkpt lat="51.58407" lon="7.30928">
        <ele>105.22232</ele>
        <time>2023-04-29T09:30:42.598Z</time>
      </trkpt>
      <trkpt lat="51.58404" lon="7.30912">
        <ele>105.396542</ele>
        <time>2023-04-29T09:30:45.596Z</time>
      </trkpt>
      <trkpt lat="51.58402" lon="7.30894">
        <ele>105.482309</ele>
        <time>2023-04-29T09:30:48.597Z</time>
      </trkpt>
      <trkpt lat="51.58399" lon="7.30874">
        <ele>105.473733</ele>
        <time>2023-04-29T09:30:51.575Z</time>
      </trkpt>
      <trkpt lat="51.58396" lon="7.30855">
        <ele>105.465396</ele>
        <time>2023-04-29T09:30:54.576Z</time>
      </trkpt>
      <trkpt lat="51.58393" lon="7.30836">
        <ele>105.456638</ele>
        <time>2023-04-29T09:30:57.580Z</time>
      </trkpt>
      <trkpt lat="51.58391" lon="7.30817">
        <ele>105.448642</ele>
        <time>2023-04-29T09:31:00.597Z</time>
      </trkpt>
      <trkpt lat="51.58387" lon="7.30799">
        <ele>105.440378</ele>
        <time>2023-04-29T09:31:03.576Z</time>
      </trkpt>
      <trkpt lat="51.58385" lon="7.30781">
        <ele>105.432455</ele>
        <time>2023-04-29T09:31:06.581Z</time>
      </trkpt>
      <trkpt lat="51.58382" lon="7.30762">
        <ele>105.424156</ele>
        <time>2023-04-29T09:31:09.581Z</time>
      </trkpt>
      <trkpt lat="51.5838" lon="7.30745">
        <ele>105.416408</ele>
        <time>2023-04-29T09:31:12.594Z</time>
      </trkpt>
      <trkpt lat="51.58378" lon="7.30727">
        <ele>105.408539</ele>
        <time>2023-04-29T09:31:15.586Z</time>
      </trkpt>
      <trkpt lat="51.58376" lon="7.30709">
        <ele>105.400651</ele>
        <time>2023-04-29T09:31:18.598Z</time>
      </trkpt>
      <trkpt lat="51.58374" lon="7.3069">
        <ele>105.392608</ele>
        <time>2023-04-29T09:31:21.584Z</time>
      </trkpt>
      <trkpt lat="51.58373" lon="7.30673">
        <ele>105.385161</ele>
        <time>2023-04-29T09:31:24.583Z</time>
      </trkpt>
      <trkpt lat="51.58371" lon="7.30656">
        <ele>105.377712</ele>
        <time>2023-04-29T09:31:27.581Z</time>
      </trkpt>
      <trkpt lat="51.58368" lon="7.30637">
        <ele>105.369446</ele>
        <time>2023-04-29T09:31:30.600Z</time>
      </trkpt>
      <trkpt lat="51.58364" lon="7.30619">
        <ele>105.376137</ele>
        <time>2023-04-29T09:31:33.583Z</time>
      </trkpt>
      <trkpt lat="51.58362" lon="7.306">
        <ele>105.486289</ele>
        <time>2023-04-29T09:31:36.581Z</time>
      </trkpt>
      <trkpt lat="51.58359" lon="7.30582">
        <ele>105.595516</ele>
        <time>2023-04-29T09:31:39.587Z</time>
      </trkpt>
      <trkpt lat="51.58357" lon="7.30564">
        <ele>105.703753</ele>
        <time>2023-04-29T09:31:42.588Z</time>
      </trkpt>
      <trkpt lat="51.58354" lon="7.30546">
        <ele>105.813997</ele>
        <time>2023-04-29T09:31:45.565Z</time>
      </trkpt>
      <trkpt lat="51.58352" lon="7.30528">
        <ele>105.920512</ele>
        <time>2023-04-29T09:31:48.589Z</time>
      </trkpt>
      <trkpt lat="51.58351" lon="7.30511">
        <ele>106.019527</ele>
        <time>2023-04-29T09:31:51.579Z</time>
      </trkpt>
      <trkpt lat="51.58352" lon="7.30495">
        <ele>106.10982</ele>
        <time>2023-04-29T09:31:54.672Z</time>
      </trkpt>
      <trkpt lat="51.58351" lon="7.30481">
        <ele>106.196296</ele>
        <time>2023-04-29T09:31:57.579Z</time>
      </trkpt>
      <trkpt lat="51.58352" lon="7.30465">
        <ele>106.290354</ele>
        <time>2023-04-29T09:32:01.596Z</time>
      </trkpt>
      <trkpt lat="51.58357" lon="7.30453">
        <ele>106.377959</ele>
        <time>2023-04-29T09:32:08.588Z</time>
      </trkpt>
      <trkpt lat="51.58353" lon="7.30435">
        <ele>106.488079</ele>
        <time>2023-04-29T09:32:32.603Z</time>
      </trkpt>
      <trkpt lat="51.58347" lon="7.30423">
        <ele>106.577084</ele>
        <time>2023-04-29T09:32:37.556Z</time>
      </trkpt>
      <trkpt lat="51.58347" lon="7.30408">
        <ele>106.66206</ele>
        <time>2023-04-29T09:32:41.587Z</time>
      </trkpt>
      <trkpt lat="51.58346" lon="7.30389">
        <ele>106.772488</ele>
        <time>2023-04-29T09:32:45.576Z</time>
      </trkpt>
      <trkpt lat="51.58345" lon="7.30372">
        <ele>106.874338</ele>
        <time>2023-04-29T09:32:48.585Z</time>
      </trkpt>
      <trkpt lat="51.58345" lon="7.30354">
        <ele>106.977729</ele>
        <time>2023-04-29T09:32:51.567Z</time>
      </trkpt>
      <trkpt lat="51.58347" lon="7.30337">
        <ele>107.078296</ele>
        <time>2023-04-29T09:32:54.586Z</time>
      </trkpt>
      <trkpt lat="51.58347" lon="7.30319">
        <ele>107.180998</ele>
        <time>2023-04-29T09:32:57.599Z</time>
      </trkpt>
      <trkpt lat="51.58348" lon="7.30305">
        <ele>107.266415</ele>
        <time>2023-04-29T09:32:59.579Z</time>
      </trkpt>
      <trkpt lat="51.58348" lon="7.30284">
        <ele>107.386689</ele>
        <time>2023-04-29T09:33:02.573Z</time>
      </trkpt>
      <trkpt lat="51.58348" lon="7.30269">
        <ele>107.473606</ele>
        <time>2023-04-29T09:33:04.594Z</time>
      </trkpt>
      <trkpt lat="51.58348" lon="7.30253">
        <ele>107.561083</ele>
        <time>2023-04-29T09:33:06.597Z</time>
      </trkpt>
      <trkpt lat="51.58348" lon="7.30239">
        <ele>107.644527</ele>
        <time>2023-04-29T09:33:08.593Z</time>
      </trkpt>
      <trkpt lat="51.5835" lon="7.30218">
        <ele>107.764257</ele>
        <time>2023-04-29T09:33:11.579Z</time>
      </trkpt>
      <trkpt lat="51.5835" lon="7.30198">
        <ele>107.883611</ele>
        <time>2023-04-29T09:33:14.584Z</time>
      </trkpt>
      <trkpt lat="51.58351" lon="7.30183">
        <ele>107.970111</ele>
        <time>2023-04-29T09:33:16.598Z</time>
      </trkpt>
      <trkpt lat="51.58352" lon="7.30168">
        <ele>108.05503</ele>
        <time>2023-04-29T09:33:18.564Z</time>
      </trkpt>
      <trkpt lat="51.58352" lon="7.30146">
        <ele>108.179911</ele>
        <time>2023-04-29T09:33:21.595Z</time>
      </trkpt>
      <trkpt lat="51.58352" lon="7.30131">
        <ele>108.268655</ele>
        <time>2023-04-29T09:33:23.578Z</time>
      </trkpt>
      <trkpt lat="51.58352" lon="7.30115">
        <ele>108.357322</ele>
        <time>2023-04-29T09:33:25.586Z</time>
      </trkpt>
      <trkpt lat="51.58352" lon="7.301">
        <ele>108.445491</ele>
        <time>2023-04-29T09:33:27.598Z</time>
      </trkpt>
      <trkpt lat="51.58353" lon="7.30085">
        <ele>108.533661</ele>
        <time>2023-04-29T09:33:29.587Z</time>
      </trkpt>
      <trkpt lat="51.58352" lon="7.3007">
        <ele>108.617233</ele>
        <time>2023-04-29T09:33:31.597Z</time>
      </trkpt>
      <trkpt lat="51.58351" lon="7.30056">
        <ele>108.702333</ele>
        <time>2023-04-29T09:33:33.577Z</time>
      </trkpt>
      <trkpt lat="51.58351" lon="7.30034">
        <ele>108.715414</ele>
        <time>2023-04-29T09:33:36.588Z</time>
      </trkpt>
      <trkpt lat="51.58351" lon="7.30018">
        <ele>108.713588</ele>
        <time>2023-04-29T09:33:38.597Z</time>
      </trkpt>
      <trkpt lat="51.58352" lon="7.30002">
        <ele>108.711736</ele>
        <time>2023-04-29T09:33:40.577Z</time>
      </trkpt>
      <trkpt lat="51.58352" lon="7.29987">
        <ele>108.709921</ele>
        <time>2023-04-29T09:33:42.575Z</time>
      </trkpt>
      <trkpt lat="51.58352" lon="7.29971">
        <ele>108.708071</ele>
        <time>2023-04-29T09:33:44.581Z</time>
      </trkpt>
      <trkpt lat="51.58352" lon="7.29956">
        <ele>108.706293</ele>
        <time>2023-04-29T09:33:46.590Z</time>
      </trkpt>
      <trkpt lat="51.58352" lon="7.2994">
        <ele>108.704479</ele>
        <time>2023-04-29T09:33:48.596Z</time>
      </trkpt>
      <trkpt lat="51.58353" lon="7.29925">
        <ele>108.702664</ele>
        <time>2023-04-29T09:33:50.577Z</time>
      </trkpt>
      <trkpt lat="51.58353" lon="7.29909">
        <ele>108.700844</ele>
        <time>2023-04-29T09:33:52.591Z</time>
      </trkpt>
      <trkpt lat="51.58353" lon="7.29894">
        <ele>108.699101</ele>
        <time>2023-04-29T09:33:54.589Z</time>
      </trkpt>
      <trkpt lat="51.58353" lon="7.29879">
        <ele>108.697275</ele>
        <time>2023-04-29T09:33:56.579Z</time>
      </trkpt>
      <trkpt lat="51.58353" lon="7.29864">
        <ele>108.69552</ele>
        <time>2023-04-29T09:33:58.582Z</time>
      </trkpt>
      <trkpt lat="51.58353" lon="7.29848">
        <ele>108.693706</ele>
        <time>2023-04-29T09:34:00.579Z</time>
      </trkpt>
      <trkpt lat="51.58353" lon="7.29833">
        <ele>108.691951</ele>
        <time>2023-04-29T09:34:02.580Z</time>
      </trkpt>
      <trkpt lat="51.58353" lon="7.29818">
        <ele>108.690182</ele>
        <time>2023-04-29T09:34:04.590Z</time>
      </trkpt>
      <trkpt lat="51.58353" lon="7.29803">
        <ele>108.68845</ele>
        <time>2023-04-29T09:34:06.587Z</time>
      </trkpt>
      <trkpt lat="51.58354" lon="7.29781">
        <ele>108.68588</ele>
        <time>2023-04-29T09:34:09.591Z</time>
      </trkpt>
      <trkpt lat="51.58355" lon="7.29766">
        <ele>108.684081</ele>
        <time>2023-04-29T09:34:11.593Z</time>
      </trkpt>
      <trkpt lat="51.58356" lon="7.29751">
        <ele>108.681436</ele>
        <time>2023-04-29T09:34:13.577Z</time>
      </trkpt>
      <trkpt lat="51.58356" lon="7.29736">
        <ele>108.678584</ele>
        <time>2023-04-29T09:34:15.580Z</time>
      </trkpt>
      <trkpt lat="51.58355" lon="7.2972">
        <ele>108.675765</ele>
        <time>2023-04-29T09:34:17.598Z</time>
      </trkpt>
      <trkpt lat="51.58355" lon="7.29704">
        <ele>108.672821</ele>
        <time>2023-04-29T09:34:19.565Z</time>
      </trkpt>
      <trkpt lat="51.58355" lon="7.29689">
        <ele>108.670044</ele>
        <time>2023-04-29T09:34:21.582Z</time>
      </trkpt>
      <trkpt lat="51.58355" lon="7.29674">
        <ele>108.667155</ele>
        <time>2023-04-29T09:34:23.582Z</time>
      </trkpt>
      <trkpt lat="51.58355" lon="7.29658">
        <ele>108.664169</ele>
        <time>2023-04-29T09:34:25.584Z</time>
      </trkpt>
      <trkpt lat="51.58354" lon="7.29642">
        <ele>108.661177</ele>
        <time>2023-04-29T09:34:27.596Z</time>
      </trkpt>
      <trkpt lat="51.58353" lon="7.29626">
        <ele>108.658363</ele>
        <time>2023-04-29T09:34:29.566Z</time>
      </trkpt>
      <trkpt lat="51.58352" lon="7.2961">
        <ele>108.655299</ele>
        <time>2023-04-29T09:34:31.580Z</time>
      </trkpt>
      <trkpt lat="51.5835" lon="7.29596">
        <ele>108.652592</ele>
        <time>2023-04-29T09:34:33.569Z</time>
      </trkpt>
      <trkpt lat="51.58349" lon="7.2958">
        <ele>108.649594</ele>
        <time>2023-04-29T09:34:35.657Z</time>
      </trkpt>
      <trkpt lat="51.58348" lon="7.29564">
        <ele>108.646666</ele>
        <time>2023-04-29T09:34:37.590Z</time>
      </trkpt>
      <trkpt lat="51.58346" lon="7.29549">
        <ele>108.643772</ele>
        <time>2023-04-29T09:34:39.576Z</time>
      </trkpt>
      <trkpt lat="51.58345" lon="7.29534">
        <ele>108.641005</ele>
        <time>2023-04-29T09:34:41.585Z</time>
      </trkpt>
      <trkpt lat="51.58342" lon="7.29519">
        <ele>108.638242</ele>
        <time>2023-04-29T09:34:43.579Z</time>
      </trkpt>
      <trkpt lat="51.5834" lon="7.29499">
        <ele>108.634381</ele>
        <time>2023-04-29T09:34:46.585Z</time>
      </trkpt>
      <trkpt lat="51.58338" lon="7.29484">
        <ele>108.631517</ele>
        <time>2023-04-29T09:34:48.580Z</time>
      </trkpt>
      <trkpt lat="51.58335" lon="7.29469">
        <ele>108.619785</ele>
        <time>2023-04-29T09:34:50.587Z</time>
      </trkpt>
      <trkpt lat="51.58333" lon="7.29454">
        <ele>108.598964</ele>
        <time>2023-04-29T09:34:52.590Z</time>
      </trkpt>
      <trkpt lat="51.5833" lon="7.29438">
        <ele>108.577901</ele>
        <time>2023-04-29T09:34:54.596Z</time>
      </trkpt>
      <trkpt lat="51.58326" lon="7.29423">
        <ele>108.557003</ele>
        <time>2023-04-29T09:34:56.585Z</time>
      </trkpt>
      <trkpt lat="51.58322" lon="7.29409">
        <ele>108.536982</ele>
        <time>2023-04-29T09:34:58.586Z</time>
      </trkpt>
      <trkpt lat="51.58318" lon="7.29394">
        <ele>108.515421</ele>
        <time>2023-04-29T09:35:00.587Z</time>
      </trkpt>
      <trkpt lat="51.58314" lon="7.29375">
        <ele>108.48916</ele>
        <time>2023-04-29T09:35:03.577Z</time>
      </trkpt>
      <trkpt lat="51.58316" lon="7.2936">
        <ele>108.468816</ele>
        <time>2023-04-29T09:35:14.574Z</time>
      </trkpt>
      <trkpt lat="51.58321" lon="7.29346">
        <ele>108.448567</ele>
        <time>2023-04-29T09:35:20.568Z</time>
      </trkpt>
      <trkpt lat="51.58315" lon="7.29333">
        <ele>108.428436</ele>
        <time>2023-04-29T09:35:24.582Z</time>
      </trkpt>
      <trkpt lat="51.58308" lon="7.29319">
        <ele>108.404256</ele>
        <time>2023-04-29T09:35:28.580Z</time>
      </trkpt>
      <trkpt lat="51.58304" lon="7.29304">
        <ele>108.383336</ele>
        <time>2023-04-29T09:35:31.593Z</time>
      </trkpt>
      <trkpt lat="51.58298" lon="7.2929">
        <ele>108.360997</ele>
        <time>2023-04-29T09:35:34.570Z</time>
      </trkpt>
      <trkpt lat="51.58294" lon="7.29275">
        <ele>108.339738</ele>
        <time>2023-04-29T09:35:37.599Z</time>
      </trkpt>
      <trkpt lat="51.5829" lon="7.29259">
        <ele>108.318298</ele>
        <time>2023-04-29T09:35:40.591Z</time>
      </trkpt>
      <trkpt lat="51.58288" lon="7.29242">
        <ele>108.294979</ele>
        <time>2023-04-29T09:35:43.569Z</time>
      </trkpt>
      <trkpt lat="51.58285" lon="7.29225">
        <ele>108.272022</ele>
        <time>2023-04-29T09:35:46.590Z</time>
      </trkpt>
      <trkpt lat="51.58284" lon="7.29207">
        <ele>108.311302</ele>
        <time>2023-04-29T09:35:49.590Z</time>
      </trkpt>
      <trkpt lat="51.58283" lon="7.29189">
        <ele>108.582617</ele>
        <time>2023-04-29T09:35:52.578Z</time>
      </trkpt>
      <trkpt lat="51.58284" lon="7.29171">
        <ele>108.845221</ele>
        <time>2023-04-29T09:35:55.573Z</time>
      </trkpt>
      <trkpt lat="51.58284" lon="7.29153">
        <ele>109.120771</ele>
        <time>2023-04-29T09:35:58.583Z</time>
      </trkpt>
      <trkpt lat="51.58284" lon="7.29134">
        <ele>109.400813</ele>
        <time>2023-04-29T09:36:01.581Z</time>
      </trkpt>
      <trkpt lat="51.58284" lon="7.29116">
        <ele>109.670534</ele>
        <time>2023-04-29T09:36:04.596Z</time>
      </trkpt>
      <trkpt lat="51.58284" lon="7.29098">
        <ele>109.938597</ele>
        <time>2023-04-29T09:36:07.568Z</time>
      </trkpt>
      <trkpt lat="51.58285" lon="7.29081">
        <ele>110.201555</ele>
        <time>2023-04-29T09:36:10.586Z</time>
      </trkpt>
      <trkpt lat="51.58286" lon="7.29064">
        <ele>110.457808</ele>
        <time>2023-04-29T09:36:13.581Z</time>
      </trkpt>
      <trkpt lat="51.58286" lon="7.29047">
        <ele>110.705</ele>
        <time>2023-04-29T09:36:16.585Z</time>
      </trkpt>
      <trkpt lat="51.58286" lon="7.29031">
        <ele>110.94914</ele>
        <time>2023-04-29T09:36:19.587Z</time>
      </trkpt>
      <trkpt lat="51.58287" lon="7.29015">
        <ele>111.190429</ele>
        <time>2023-04-29T09:36:22.587Z</time>
      </trkpt>
      <trkpt lat="51.58287" lon="7.28998">
        <ele>111.44828</ele>
        <time>2023-04-29T09:36:25.572Z</time>
      </trkpt>
      <trkpt lat="51.58288" lon="7.28982">
        <ele>111.686108</ele>
        <time>2023-04-29T09:36:28.582Z</time>
      </trkpt>
      <trkpt lat="51.58289" lon="7.28967">
        <ele>111.907306</ele>
        <time>2023-04-29T09:36:31.579Z</time>
      </trkpt>
      <trkpt lat="51.5829" lon="7.28952">
        <ele>112.138536</ele>
        <time>2023-04-29T09:36:35.561Z</time>
      </trkpt>
      <trkpt lat="51.58291" lon="7.28935">
        <ele>112.396235</ele>
        <time>2023-04-29T09:36:39.587Z</time>
      </trkpt>
      <trkpt lat="51.58291" lon="7.28919">
        <ele>112.556074</ele>
        <time>2023-04-29T09:36:43.595Z</time>
      </trkpt>
      <trkpt lat="51.58292" lon="7.28902">
        <ele>112.352726</ele>
        <time>2023-04-29T09:36:47.597Z</time>
      </trkpt>
      <trkpt lat="51.58292" lon="7.28885">
        <ele>112.151321</ele>
        <time>2023-04-29T09:37:06.594Z</time>
      </trkpt>
      <trkpt lat="51.58293" lon="7.28869">
        <ele>111.956333</ele>
        <time>2023-04-29T09:37:10.573Z</time>
      </trkpt>
      <trkpt lat="51.58293" lon="7.28851">
        <ele>111.738007</ele>
        <time>2023-04-29T09:37:14.610Z</time>
      </trkpt>
      <trkpt lat="51.58294" lon="7.28834">
        <ele>111.534816</ele>
        <time>2023-04-29T09:37:17.594Z</time>
      </trkpt>
      <trkpt lat="51.58294" lon="7.28816">
        <ele>111.311623</ele>
        <time>2023-04-29T09:37:20.588Z</time>
      </trkpt>
      <trkpt lat="51.58291" lon="7.28798">
        <ele>111.101873</ele>
        <time>2023-04-29T09:37:23.583Z</time>
      </trkpt>
      <trkpt lat="51.58288" lon="7.28782">
        <ele>110.896256</ele>
        <time>2023-04-29T09:37:26.589Z</time>
      </trkpt>
      <trkpt lat="51.58283" lon="7.28763">
        <ele>110.64703</ele>
        <time>2023-04-29T09:37:29.577Z</time>
      </trkpt>
      <trkpt lat="51.58278" lon="7.2875">
        <ele>110.466531</ele>
        <time>2023-04-29T09:37:31.585Z</time>
      </trkpt>
      <trkpt lat="51.58273" lon="7.28735">
        <ele>110.260776</ele>
        <time>2023-04-29T09:37:33.585Z</time>
      </trkpt>
      <trkpt lat="51.58267" lon="7.28722">
        <ele>110.067288</ele>
        <time>2023-04-29T09:37:35.569Z</time>
      </trkpt>
      <trkpt lat="51.58261" lon="7.28709">
        <ele>109.874336</ele>
        <time>2023-04-29T09:37:37.587Z</time>
      </trkpt>
      <trkpt lat="51.58254" lon="7.28696">
        <ele>109.674008</ele>
        <time>2023-04-29T09:37:39.578Z</time>
      </trkpt>
      <trkpt lat="51.58247" lon="7.28683">
        <ele>109.460874</ele>
        <time>2023-04-29T09:37:41.576Z</time>
      </trkpt>
      <trkpt lat="51.5824" lon="7.28671">
        <ele>109.270541</ele>
        <time>2023-04-29T09:37:43.572Z</time>
      </trkpt>
      <trkpt lat="51.58234" lon="7.2866">
        <ele>109.087701</ele>
        <time>2023-04-29T09:37:45.584Z</time>
      </trkpt>
      <trkpt lat="51.58227" lon="7.28646">
        <ele>108.881679</ele>
        <time>2023-04-29T09:37:48.599Z</time>
      </trkpt>
      <trkpt lat="51.5822" lon="7.28635">
        <ele>108.697497</ele>
        <time>2023-04-29T09:37:51.581Z</time>
      </trkpt>
      <trkpt lat="51.58211" lon="7.28626">
        <ele>108.506937</ele>
        <time>2023-04-29T09:37:55.581Z</time>
      </trkpt>
      <trkpt lat="51.58201" lon="7.28637">
        <ele>108.289757</ele>
        <time>2023-04-29T09:38:35.587Z</time>
      </trkpt>
      <trkpt lat="51.58195" lon="7.2865">
        <ele>108.099301</ele>
        <time>2023-04-29T09:38:38.596Z</time>
      </trkpt>
      <trkpt lat="51.58189" lon="7.28662">
        <ele>107.927034</ele>
        <time>2023-04-29T09:38:40.586Z</time>
      </trkpt>
      <trkpt lat="51.58181" lon="7.28679">
        <ele>107.686242</ele>
        <time>2023-04-29T09:38:43.588Z</time>
      </trkpt>
      <trkpt lat="51.58173" lon="7.28694">
        <ele>107.449968</ele>
        <time>2023-04-29T09:38:46.589Z</time>
      </trkpt>
      <trkpt lat="51.58165" lon="7.28709">
        <ele>107.234242</ele>
        <time>2023-04-29T09:38:50.588Z</time>
      </trkpt>
      <trkpt lat="51.5816" lon="7.28726">
        <ele>107.011694</ele>
        <time>2023-04-29T09:38:54.587Z</time>
      </trkpt>
      <trkpt lat="51.58154" lon="7.28742">
        <ele>106.801708</ele>
        <time>2023-04-29T09:38:58.584Z</time>
      </trkpt>
      <trkpt lat="51.58148" lon="7.28754">
        <ele>106.626818</ele>
        <time>2023-04-29T09:39:02.578Z</time>
      </trkpt>
      <trkpt lat="51.58139" lon="7.28743">
        <ele>106.410722</ele>
        <time>2023-04-29T09:39:47.590Z</time>
      </trkpt>
      <trkpt lat="51.58131" lon="7.28736">
        <ele>106.242132</ele>
        <time>2023-04-29T09:39:51.577Z</time>
      </trkpt>
      <trkpt lat="51.58122" lon="7.28728">
        <ele>106.058273</ele>
        <time>2023-04-29T09:39:55.598Z</time>
      </trkpt>
      <trkpt lat="51.58112" lon="7.28719">
        <ele>105.852177</ele>
        <time>2023-04-29T09:39:59.578Z</time>
      </trkpt>
      <trkpt lat="51.58104" lon="7.28711">
        <ele>105.849944</ele>
        <time>2023-04-29T09:40:02.586Z</time>
      </trkpt>
      <trkpt lat="51.58096" lon="7.28704">
        <ele>105.899738</ele>
        <time>2023-04-29T09:40:05.585Z</time>
      </trkpt>
      <trkpt lat="51.58086" lon="7.28695">
        <ele>105.960367</ele>
        <time>2023-04-29T09:40:08.586Z</time>
      </trkpt>
      <trkpt lat="51.58078" lon="7.28687">
        <ele>106.014991</ele>
        <time>2023-04-29T09:40:11.578Z</time>
      </trkpt>
      <trkpt lat="51.58068" lon="7.2868">
        <ele>106.073004</ele>
        <time>2023-04-29T09:40:14.587Z</time>
      </trkpt>
      <trkpt lat="51.58058" lon="7.28672">
        <ele>106.131851</ele>
        <time>2023-04-29T09:40:17.583Z</time>
      </trkpt>
      <trkpt lat="51.58048" lon="7.28662">
        <ele>106.198699</ele>
        <time>2023-04-29T09:40:20.587Z</time>
      </trkpt>
      <trkpt lat="51.58038" lon="7.28653">
        <ele>106.26267</ele>
        <time>2023-04-29T09:40:23.589Z</time>
      </trkpt>
      <trkpt lat="51.58027" lon="7.28644">
        <ele>106.327723</ele>
        <time>2023-04-29T09:40:26.583Z</time>
      </trkpt>
      <trkpt lat="51.58017" lon="7.28635">
        <ele>106.39069</ele>
        <time>2023-04-29T09:40:29.587Z</time>
      </trkpt>
      <trkpt lat="51.58006" lon="7.28626">
        <ele>106.457189</ele>
        <time>2023-04-29T09:40:32.582Z</time>
      </trkpt>
      <trkpt lat="51.57996" lon="7.28616">
        <ele>106.52275</ele>
        <time>2023-04-29T09:40:35.574Z</time>
      </trkpt>
      <trkpt lat="51.57986" lon="7.28607">
        <ele>106.587333</ele>
        <time>2023-04-29T09:40:38.584Z</time>
      </trkpt>
      <trkpt lat="51.57975" lon="7.28598">
        <ele>106.655941</ele>
        <time>2023-04-29T09:40:41.587Z</time>
      </trkpt>
      <trkpt lat="51.57965" lon="7.28589">
        <ele>106.716396</ele>
        <time>2023-04-29T09:40:44.581Z</time>
      </trkpt>
      <trkpt lat="51.57955" lon="7.28578">
        <ele>106.781928</ele>
        <time>2023-04-29T09:40:47.590Z</time>
      </trkpt>
      <trkpt lat="51.57944" lon="7.28569">
        <ele>106.882688</ele>
        <time>2023-04-29T09:40:50.594Z</time>
      </trkpt>
      <trkpt lat="51.57932" lon="7.28559">
        <ele>107.003404</ele>
        <time>2023-04-29T09:40:53.585Z</time>
      </trkpt>
      <trkpt lat="51.57922" lon="7.28548">
        <ele>107.118526</ele>
        <time>2023-04-29T09:40:56.588Z</time>
      </trkpt>
      <trkpt lat="51.5791" lon="7.28538">
        <ele>107.237137</ele>
        <time>2023-04-29T09:40:59.572Z</time>
      </trkpt>
      <trkpt lat="51.57899" lon="7.28529">
        <ele>107.34443</ele>
        <time>2023-04-29T09:41:02.600Z</time>
      </trkpt>
      <trkpt lat="51.57888" lon="7.2852">
        <ele>107.45563</ele>
        <time>2023-04-29T09:41:05.586Z</time>
      </trkpt>
      <trkpt lat="51.57881" lon="7.28512">
        <ele>107.536296</ele>
        <time>2023-04-29T09:41:07.576Z</time>
      </trkpt>
      <trkpt lat="51.57869" lon="7.28503">
        <ele>107.652628</ele>
        <time>2023-04-29T09:41:10.598Z</time>
      </trkpt>
      <trkpt lat="51.57858" lon="7.28494">
        <ele>107.76805</ele>
        <time>2023-04-29T09:41:13.602Z</time>
      </trkpt>
      <trkpt lat="51.57847" lon="7.28484">
        <ele>107.878986</ele>
        <time>2023-04-29T09:41:16.579Z</time>
      </trkpt>
      <trkpt lat="51.57836" lon="7.28475">
        <ele>107.98943</ele>
        <time>2023-04-29T09:41:19.569Z</time>
      </trkpt>
      <trkpt lat="51.57826" lon="7.28465">
        <ele>108.096771</ele>
        <time>2023-04-29T09:41:22.599Z</time>
      </trkpt>
      <trkpt lat="51.57814" lon="7.28457">
        <ele>108.207152</ele>
        <time>2023-04-29T09:41:25.586Z</time>
      </trkpt>
      <trkpt lat="51.57806" lon="7.2845">
        <ele>108.288576</ele>
        <time>2023-04-29T09:41:27.594Z</time>
      </trkpt>
      <trkpt lat="51.57795" lon="7.2844">
        <ele>108.405085</ele>
        <time>2023-04-29T09:41:30.588Z</time>
      </trkpt>
      <trkpt lat="51.57784" lon="7.2843">
        <ele>108.318681</ele>
        <time>2023-04-29T09:41:33.581Z</time>
      </trkpt>
      <trkpt lat="51.57773" lon="7.2842">
        <ele>108.228973</ele>
        <time>2023-04-29T09:41:36.596Z</time>
      </trkpt>
      <trkpt lat="51.57765" lon="7.28413">
        <ele>108.165296</ele>
        <time>2023-04-29T09:41:38.581Z</time>
      </trkpt>
      <trkpt lat="51.57754" lon="7.28404">
        <ele>108.076632</ele>
        <time>2023-04-29T09:41:41.591Z</time>
      </trkpt>
      <trkpt lat="51.57742" lon="7.28395">
        <ele>107.988562</ele>
        <time>2023-04-29T09:41:44.578Z</time>
      </trkpt>
      <trkpt lat="51.57731" lon="7.28385">
        <ele>107.900935</ele>
        <time>2023-04-29T09:41:47.583Z</time>
      </trkpt>
      <trkpt lat="51.57722" lon="7.28373">
        <ele>107.815683</ele>
        <time>2023-04-29T09:41:50.578Z</time>
      </trkpt>
      <trkpt lat="51.57712" lon="7.28361">
        <ele>107.726733</ele>
        <time>2023-04-29T09:41:53.580Z</time>
      </trkpt>
      <trkpt lat="51.57701" lon="7.2835">
        <ele>107.638696</ele>
        <time>2023-04-29T09:41:56.596Z</time>
      </trkpt>
      <trkpt lat="51.57691" lon="7.28338">
        <ele>107.551543</ele>
        <time>2023-04-29T09:41:59.572Z</time>
      </trkpt>
      <trkpt lat="51.57681" lon="7.28326">
        <ele>107.460686</ele>
        <time>2023-04-29T09:42:02.586Z</time>
      </trkpt>
      <trkpt lat="51.5767" lon="7.28313">
        <ele>107.365949</ele>
        <time>2023-04-29T09:42:05.587Z</time>
      </trkpt>
      <trkpt lat="51.5766" lon="7.283">
        <ele>107.274657</ele>
        <time>2023-04-29T09:42:08.579Z</time>
      </trkpt>
      <trkpt lat="51.5765" lon="7.28288">
        <ele>107.185507</ele>
        <time>2023-04-29T09:42:11.594Z</time>
      </trkpt>
      <trkpt lat="51.5764" lon="7.28274">
        <ele>107.127994</ele>
        <time>2023-04-29T09:42:14.580Z</time>
      </trkpt>
      <trkpt lat="51.5763" lon="7.2826">
        <ele>107.102994</ele>
        <time>2023-04-29T09:42:17.594Z</time>
      </trkpt>
      <trkpt lat="51.57621" lon="7.28245">
        <ele>107.077528</ele>
        <time>2023-04-29T09:42:20.600Z</time>
      </trkpt>
      <trkpt lat="51.57612" lon="7.2823">
        <ele>107.052352</ele>
        <time>2023-04-29T09:42:23.594Z</time>
      </trkpt>
      <trkpt lat="51.57605" lon="7.28214">
        <ele>107.028273</ele>
        <time>2023-04-29T09:42:26.584Z</time>
      </trkpt>
      <trkpt lat="51.57598" lon="7.28197">
        <ele>107.003206</ele>
        <time>2023-04-29T09:42:29.570Z</time>
      </trkpt>
      <trkpt lat="51.57592" lon="7.28179">
        <ele>106.978635</ele>
        <time>2023-04-29T09:42:32.595Z</time>
      </trkpt>
      <trkpt lat="51.57586" lon="7.28161">
        <ele>106.95388</ele>
        <time>2023-04-29T09:42:35.580Z</time>
      </trkpt>
      <trkpt lat="51.57579" lon="7.28144">
        <ele>106.929852</ele>
        <time>2023-04-29T09:42:38.599Z</time>
      </trkpt>
      <trkpt lat="51.57572" lon="7.28127">
        <ele>106.904987</ele>
        <time>2023-04-29T09:42:41.581Z</time>
      </trkpt>
      <trkpt lat="51.57566" lon="7.28111">
        <ele>106.881579</ele>
        <time>2023-04-29T09:42:44.578Z</time>
      </trkpt>
      <trkpt lat="51.57559" lon="7.28093">
        <ele>106.856212</ele>
        <time>2023-04-29T09:42:47.578Z</time>
      </trkpt>
      <trkpt lat="51.57552" lon="7.28075">
        <ele>106.830004</ele>
        <time>2023-04-29T09:42:50.588Z</time>
      </trkpt>
      <trkpt lat="51.57544" lon="7.28059">
        <ele>106.80544</ele>
        <time>2023-04-29T09:42:53.591Z</time>
      </trkpt>
      <trkpt lat="51.57538" lon="7.28041">
        <ele>106.724739</ele>
        <time>2023-04-29T09:42:56.580Z</time>
      </trkpt>
      <trkpt lat="51.57532" lon="7.28024">
        <ele>106.54766</ele>
        <time>2023-04-29T09:42:59.572Z</time>
      </trkpt>
      <trkpt lat="51.57525" lon="7.28008">
        <ele>106.374911</ele>
        <time>2023-04-29T09:43:02.580Z</time>
      </trkpt>
      <trkpt lat="51.57519" lon="7.27991">
        <ele>106.2001</ele>
        <time>2023-04-29T09:43:05.583Z</time>
      </trkpt>
      <trkpt lat="51.57511" lon="7.27974">
        <ele>106.014504</ele>
        <time>2023-04-29T09:43:08.596Z</time>
      </trkpt>
      <trkpt lat="51.57506" lon="7.27961">
        <ele>105.884679</ele>
        <time>2023-04-29T09:43:10.588Z</time>
      </trkpt>
      <trkpt lat="51.57499" lon="7.27944">
        <ele>105.700871</ele>
        <time>2023-04-29T09:43:13.589Z</time>
      </trkpt>
      <trkpt lat="51.57493" lon="7.27926">
        <ele>105.52063</ele>
        <time>2023-04-29T09:43:16.593Z</time>
      </trkpt>
      <trkpt lat="51.57487" lon="7.27909">
        <ele>105.347325</ele>
        <time>2023-04-29T09:43:19.590Z</time>
      </trkpt>
      <trkpt lat="51.5748" lon="7.27892">
        <ele>105.171758</ele>
        <time>2023-04-29T09:43:22.584Z</time>
      </trkpt>
      <trkpt lat="51.57474" lon="7.27876">
        <ele>104.997612</ele>
        <time>2023-04-29T09:43:25.588Z</time>
      </trkpt>
      <trkpt lat="51.57467" lon="7.2786">
        <ele>104.830976</ele>
        <time>2023-04-29T09:43:28.584Z</time>
      </trkpt>
      <trkpt lat="51.5746" lon="7.27843">
        <ele>104.651668</ele>
        <time>2023-04-29T09:43:31.582Z</time>
      </trkpt>
      <trkpt lat="51.57454" lon="7.27827">
        <ele>104.481363</ele>
        <time>2023-04-29T09:43:34.583Z</time>
      </trkpt>
      <trkpt lat="51.57448" lon="7.2781">
        <ele>104.307304</ele>
        <time>2023-04-29T09:43:37.568Z</time>
      </trkpt>
      <trkpt lat="51.57441" lon="7.27792">
        <ele>104.271244</ele>
        <time>2023-04-29T09:43:40.580Z</time>
      </trkpt>
      <trkpt lat="51.57434" lon="7.27775">
        <ele>104.334088</ele>
        <time>2023-04-29T09:43:43.586Z</time>
      </trkpt>
      <trkpt lat="51.57428" lon="7.27758">
        <ele>104.397148</ele>
        <time>2023-04-29T09:43:46.587Z</time>
      </trkpt>
      <trkpt lat="51.57421" lon="7.2774">
        <ele>104.460475</ele>
        <time>2023-04-29T09:43:49.588Z</time>
      </trkpt>
      <trkpt lat="51.57414" lon="7.27723">
        <ele>104.52459</ele>
        <time>2023-04-29T09:43:52.586Z</time>
      </trkpt>
      <trkpt lat="51.57407" lon="7.27706">
        <ele>104.584781</ele>
        <time>2023-04-29T09:43:55.584Z</time>
      </trkpt>
      <trkpt lat="51.57401" lon="7.2769">
        <ele>104.644742</ele>
        <time>2023-04-29T09:43:58.585Z</time>
      </trkpt>
      <trkpt lat="51.57395" lon="7.27673">
        <ele>104.704927</ele>
        <time>2023-04-29T09:44:01.589Z</time>
      </trkpt>
      <trkpt lat="51.57388" lon="7.27657">
        <ele>104.764062</ele>
        <time>2023-04-29T09:44:04.586Z</time>
      </trkpt>
      <trkpt lat="51.57382" lon="7.27639">
        <ele>104.825853</ele>
        <time>2023-04-29T09:44:07.572Z</time>
      </trkpt>
      <trkpt lat="51.57376" lon="7.27623">
        <ele>104.884741</ele>
        <time>2023-04-29T09:44:10.582Z</time>
      </trkpt>
      <trkpt lat="51.57369" lon="7.27608">
        <ele>104.941027</ele>
        <time>2023-04-29T09:44:13.582Z</time>
      </trkpt>
      <trkpt lat="51.57363" lon="7.27591">
        <ele>105.002783</ele>
        <time>2023-04-29T09:44:16.588Z</time>
      </trkpt>
      <trkpt lat="51.57355" lon="7.27575">
        <ele>105.063733</ele>
        <time>2023-04-29T09:44:19.581Z</time>
      </trkpt>
      <trkpt lat="51.57348" lon="7.27558">
        <ele>105.129838</ele>
        <time>2023-04-29T09:44:22.583Z</time>
      </trkpt>
      <trkpt lat="51.5734" lon="7.2754">
        <ele>105.247196</ele>
        <time>2023-04-29T09:44:25.590Z</time>
      </trkpt>
      <trkpt lat="51.57335" lon="7.27528">
        <ele>105.329328</ele>
        <time>2023-04-29T09:44:27.579Z</time>
      </trkpt>
      <trkpt lat="51.57329" lon="7.27514">
        <ele>105.424688</ele>
        <time>2023-04-29T09:44:29.583Z</time>
      </trkpt>
      <trkpt lat="51.57323" lon="7.27499">
        <ele>105.51791</ele>
        <time>2023-04-29T09:44:31.577Z</time>
      </trkpt>
      <trkpt lat="51.57319" lon="7.27481">
        <ele>105.619119</ele>
        <time>2023-04-29T09:44:33.582Z</time>
      </trkpt>
      <trkpt lat="51.57315" lon="7.27467">
        <ele>105.703946</ele>
        <time>2023-04-29T09:44:35.587Z</time>
      </trkpt>
      <trkpt lat="51.57308" lon="7.2745">
        <ele>105.814271</ele>
        <time>2023-04-29T09:44:38.583Z</time>
      </trkpt>
      <trkpt lat="51.57303" lon="7.27435">
        <ele>105.911156</ele>
        <time>2023-04-29T09:44:41.583Z</time>
      </trkpt>
      <trkpt lat="51.57297" lon="7.27419">
        <ele>106.010429</ele>
        <time>2023-04-29T09:44:44.584Z</time>
      </trkpt>
      <trkpt lat="51.57292" lon="7.27404">
        <ele>106.104201</ele>
        <time>2023-04-29T09:44:47.581Z</time>
      </trkpt>
      <trkpt lat="51.57285" lon="7.27388">
        <ele>106.205814</ele>
        <time>2023-04-29T09:44:50.591Z</time>
      </trkpt>
      <trkpt lat="51.57279" lon="7.27373">
        <ele>106.305928</ele>
        <time>2023-04-29T09:44:53.582Z</time>
      </trkpt>
      <trkpt lat="51.57273" lon="7.27359">
        <ele>106.397953</ele>
        <time>2023-04-29T09:44:56.596Z</time>
      </trkpt>
      <trkpt lat="51.57268" lon="7.27345">
        <ele>106.482781</ele>
        <time>2023-04-29T09:44:59.571Z</time>
      </trkpt>
      <trkpt lat="51.57262" lon="7.2733">
        <ele>106.581525</ele>
        <time>2023-04-29T09:45:03.590Z</time>
      </trkpt>
      <trkpt lat="51.57258" lon="7.27317">
        <ele>106.66413</ele>
        <time>2023-04-29T09:45:07.589Z</time>
      </trkpt>
      <trkpt lat="51.57252" lon="7.27299">
        <ele>106.637817</ele>
        <time>2023-04-29T09:45:11.586Z</time>
      </trkpt>
      <trkpt lat="51.57246" lon="7.27285">
        <ele>106.565399</ele>
        <time>2023-04-29T09:45:14.580Z</time>
      </trkpt>
      <trkpt lat="51.5724" lon="7.27271">
        <ele>106.489569</ele>
        <time>2023-04-29T09:45:17.593Z</time>
      </trkpt>
      <trkpt lat="51.57234" lon="7.27255">
        <ele>106.408612</ele>
        <time>2023-04-29T09:45:20.597Z</time>
      </trkpt>
      <trkpt lat="51.57228" lon="7.27241">
        <ele>106.333098</ele>
        <time>2023-04-29T09:45:23.594Z</time>
      </trkpt>
      <trkpt lat="51.57222" lon="7.27226">
        <ele>106.253947</ele>
        <time>2023-04-29T09:45:26.595Z</time>
      </trkpt>
      <trkpt lat="51.57215" lon="7.27211">
        <ele>106.174038</ele>
        <time>2023-04-29T09:45:29.585Z</time>
      </trkpt>
      <trkpt lat="51.57209" lon="7.27195">
        <ele>106.091583</ele>
        <time>2023-04-29T09:45:32.585Z</time>
      </trkpt>
      <trkpt lat="51.57203" lon="7.27181">
        <ele>106.015828</ele>
        <time>2023-04-29T09:45:35.582Z</time>
      </trkpt>
      <trkpt lat="51.57198" lon="7.27167">
        <ele>105.94488</ele>
        <time>2023-04-29T09:45:38.581Z</time>
      </trkpt>
      <trkpt lat="51.57192" lon="7.27151">
        <ele>105.866889</ele>
        <time>2023-04-29T09:45:41.581Z</time>
      </trkpt>
      <trkpt lat="51.57187" lon="7.27136">
        <ele>105.789582</ele>
        <time>2023-04-29T09:45:44.580Z</time>
      </trkpt>
      <trkpt lat="51.57181" lon="7.27121">
        <ele>105.709634</ele>
        <time>2023-04-29T09:45:47.581Z</time>
      </trkpt>
      <trkpt lat="51.57174" lon="7.27107">
        <ele>105.63371</ele>
        <time>2023-04-29T09:45:50.580Z</time>
      </trkpt>
      <trkpt lat="51.57169" lon="7.27092">
        <ele>105.557587</ele>
        <time>2023-04-29T09:45:53.583Z</time>
      </trkpt>
      <trkpt lat="51.57163" lon="7.27077">
        <ele>105.481066</ele>
        <time>2023-04-29T09:45:56.569Z</time>
      </trkpt>
      <trkpt lat="51.57158" lon="7.27062">
        <ele>105.450699</ele>
        <time>2023-04-29T09:45:59.579Z</time>
      </trkpt>
      <trkpt lat="51.57151" lon="7.27047">
        <ele>105.504324</ele>
        <time>2023-04-29T09:46:02.586Z</time>
      </trkpt>
      <trkpt lat="51.57146" lon="7.27032">
        <ele>105.555858</ele>
        <time>2023-04-29T09:46:05.579Z</time>
      </trkpt>
      <trkpt lat="51.57138" lon="7.27017">
        <ele>105.614912</ele>
        <time>2023-04-29T09:46:08.587Z</time>
      </trkpt>
      <trkpt lat="51.57133" lon="7.27002">
        <ele>105.665666</ele>
        <time>2023-04-29T09:46:11.581Z</time>
      </trkpt>
      <trkpt lat="51.57127" lon="7.26986">
        <ele>105.719837</ele>
        <time>2023-04-29T09:46:14.574Z</time>
      </trkpt>
      <trkpt lat="51.57121" lon="7.26971">
        <ele>105.776036</ele>
        <time>2023-04-29T09:46:17.563Z</time>
      </trkpt>
      <trkpt lat="51.57115" lon="7.26955">
        <ele>105.831657</ele>
        <time>2023-04-29T09:46:20.581Z</time>
      </trkpt>
      <trkpt lat="51.57109" lon="7.26938">
        <ele>105.889338</ele>
        <time>2023-04-29T09:46:23.580Z</time>
      </trkpt>
      <trkpt lat="51.57103" lon="7.26921">
        <ele>105.946002</ele>
        <time>2023-04-29T09:46:26.579Z</time>
      </trkpt>
      <trkpt lat="51.57097" lon="7.26905">
        <ele>106.00313</ele>
        <time>2023-04-29T09:46:29.578Z</time>
      </trkpt>
      <trkpt lat="51.5709" lon="7.2689">
        <ele>106.058844</ele>
        <time>2023-04-29T09:46:32.585Z</time>
      </trkpt>
      <trkpt lat="51.57084" lon="7.26874">
        <ele>106.11519</ele>
        <time>2023-04-29T09:46:35.597Z</time>
      </trkpt>
      <trkpt lat="51.57079" lon="7.26858">
        <ele>106.169852</ele>
        <time>2023-04-29T09:46:38.596Z</time>
      </trkpt>
      <trkpt lat="51.57072" lon="7.26844">
        <ele>106.22198</ele>
        <time>2023-04-29T09:46:41.589Z</time>
      </trkpt>
      <trkpt lat="51.57067" lon="7.26829">
        <ele>106.27248</ele>
        <time>2023-04-29T09:46:44.600Z</time>
      </trkpt>
      <trkpt lat="51.57061" lon="7.26814">
        <ele>106.220683</ele>
        <time>2023-04-29T09:46:47.576Z</time>
      </trkpt>
      <trkpt lat="51.57056" lon="7.268">
        <ele>106.094537</ele>
        <time>2023-04-29T09:46:50.580Z</time>
      </trkpt>
      <trkpt lat="51.57051" lon="7.26786">
        <ele>105.971624</ele>
        <time>2023-04-29T09:46:53.582Z</time>
      </trkpt>
      <trkpt lat="51.57047" lon="7.26771">
        <ele>105.848686</ele>
        <time>2023-04-29T09:46:56.595Z</time>
      </trkpt>
      <trkpt lat="51.57043" lon="7.26758">
        <ele>105.731437</ele>
        <time>2023-04-29T09:46:59.587Z</time>
      </trkpt>
      <trkpt lat="51.57039" lon="7.26744">
        <ele>105.618324</ele>
        <time>2023-04-29T09:47:02.572Z</time>
      </trkpt>
      <trkpt lat="51.57033" lon="7.26728">
        <ele>105.472635</ele>
        <time>2023-04-29T09:47:06.592Z</time>
      </trkpt>
      <trkpt lat="51.57028" lon="7.26715">
        <ele>105.35765</ele>
        <time>2023-04-29T09:47:09.573Z</time>
      </trkpt>
      <trkpt lat="51.57023" lon="7.26701">
        <ele>105.230216</ele>
        <time>2023-04-29T09:47:12.587Z</time>
      </trkpt>
      <trkpt lat="51.57017" lon="7.26686">
        <ele>105.094986</ele>
        <time>2023-04-29T09:47:15.589Z</time>
      </trkpt>
      <trkpt lat="51.57011" lon="7.26672">
        <ele>104.961</ele>
        <time>2023-04-29T09:47:18.582Z</time>
      </trkpt>
      <trkpt lat="51.57004" lon="7.26657">
        <ele>104.81795</ele>
        <time>2023-04-29T09:47:21.586Z</time>
      </trkpt>
      <trkpt lat="51.56997" lon="7.26641">
        <ele>104.673275</ele>
        <time>2023-04-29T09:47:24.601Z</time>
      </trkpt>
      <trkpt lat="51.56991" lon="7.26625">
        <ele>104.524852</ele>
        <time>2023-04-29T09:47:27.594Z</time>
      </trkpt>
      <trkpt lat="51.56985" lon="7.26607">
        <ele>104.369297</ele>
        <time>2023-04-29T09:47:30.574Z</time>
      </trkpt>
      <trkpt lat="51.56978" lon="7.2659">
        <ele>104.210429</ele>
        <time>2023-04-29T09:47:33.586Z</time>
      </trkpt>
      <trkpt lat="51.56972" lon="7.26572">
        <ele>104.055186</ele>
        <time>2023-04-29T09:47:36.583Z</time>
      </trkpt>
      <trkpt lat="51.56965" lon="7.26554">
        <ele>103.90652</ele>
        <time>2023-04-29T09:47:39.596Z</time>
      </trkpt>
      <trkpt lat="51.56959" lon="7.26537">
        <ele>103.761555</ele>
        <time>2023-04-29T09:47:42.587Z</time>
      </trkpt>
      <trkpt lat="51.56952" lon="7.26519">
        <ele>103.615964</ele>
        <time>2023-04-29T09:47:45.588Z</time>
      </trkpt>
      <trkpt lat="51.56945" lon="7.26502">
        <ele>103.470386</ele>
        <time>2023-04-29T09:47:48.594Z</time>
      </trkpt>
      <trkpt lat="51.56938" lon="7.26484">
        <ele>103.316955</ele>
        <time>2023-04-29T09:47:51.582Z</time>
      </trkpt>
      <trkpt lat="51.5693" lon="7.26466">
        <ele>103.162837</ele>
        <time>2023-04-29T09:47:54.598Z</time>
      </trkpt>
      <trkpt lat="51.56925" lon="7.26454">
        <ele>103.058721</ele>
        <time>2023-04-29T09:47:56.597Z</time>
      </trkpt>
      <trkpt lat="51.5692" lon="7.26442">
        <ele>102.955334</ele>
        <time>2023-04-29T09:47:58.578Z</time>
      </trkpt>
      <trkpt lat="51.56915" lon="7.2643">
        <ele>102.85188</ele>
        <time>2023-04-29T09:48:00.588Z</time>
      </trkpt>
      <trkpt lat="51.5691" lon="7.26417">
        <ele>102.744346</ele>
        <time>2023-04-29T09:48:02.579Z</time>
      </trkpt>
      <trkpt lat="51.56903" lon="7.264">
        <ele>102.596359</ele>
        <time>2023-04-29T09:48:05.558Z</time>
      </trkpt>
      <trkpt lat="51.56896" lon="7.26381">
        <ele>102.445271</ele>
        <time>2023-04-29T09:48:08.577Z</time>
      </trkpt>
      <trkpt lat="51.56889" lon="7.26364">
        <ele>102.299679</ele>
        <time>2023-04-29T09:48:11.588Z</time>
      </trkpt>
      <trkpt lat="51.56882" lon="7.26347">
        <ele>102.152656</ele>
        <time>2023-04-29T09:48:14.580Z</time>
      </trkpt>
      <trkpt lat="51.56875" lon="7.26329">
        <ele>102.016111</ele>
        <time>2023-04-29T09:48:17.576Z</time>
      </trkpt>
      <trkpt lat="51.56869" lon="7.26312">
        <ele>102.062187</ele>
        <time>2023-04-29T09:48:20.602Z</time>
      </trkpt>
      <trkpt lat="51.56862" lon="7.26294">
        <ele>102.109034</ele>
        <time>2023-04-29T09:48:23.595Z</time>
      </trkpt>
      <trkpt lat="51.56855" lon="7.26277">
        <ele>102.154741</ele>
        <time>2023-04-29T09:48:26.596Z</time>
      </trkpt>
      <trkpt lat="51.56848" lon="7.26261">
        <ele>102.200462</ele>
        <time>2023-04-29T09:48:29.580Z</time>
      </trkpt>
      <trkpt lat="51.56842" lon="7.26243">
        <ele>102.245807</ele>
        <time>2023-04-29T09:48:32.600Z</time>
      </trkpt>
      <trkpt lat="51.56835" lon="7.26226">
        <ele>102.291695</ele>
        <time>2023-04-29T09:48:35.576Z</time>
      </trkpt>
      <trkpt lat="51.56828" lon="7.2621">
        <ele>102.335852</ele>
        <time>2023-04-29T09:48:38.588Z</time>
      </trkpt>
      <trkpt lat="51.56822" lon="7.26195">
        <ele>102.377337</ele>
        <time>2023-04-29T09:48:41.577Z</time>
      </trkpt>
      <trkpt lat="51.56817" lon="7.26178">
        <ele>102.420549</ele>
        <time>2023-04-29T09:48:44.588Z</time>
      </trkpt>
      <trkpt lat="51.56812" lon="7.26161">
        <ele>102.463856</ele>
        <time>2023-04-29T09:48:47.589Z</time>
      </trkpt>
      <trkpt lat="51.56808" lon="7.26143">
        <ele>102.505541</ele>
        <time>2023-04-29T09:48:50.576Z</time>
      </trkpt>
      <trkpt lat="51.56802" lon="7.26128">
        <ele>102.547194</ele>
        <time>2023-04-29T09:48:53.586Z</time>
      </trkpt>
      <trkpt lat="51.56796" lon="7.26114">
        <ele>102.584348</ele>
        <time>2023-04-29T09:48:56.586Z</time>
      </trkpt>
      <trkpt lat="51.56792" lon="7.26099">
        <ele>102.620929</ele>
        <time>2023-04-29T09:48:59.563Z</time>
      </trkpt>
      <trkpt lat="51.56791" lon="7.26083">
        <ele>102.658372</ele>
        <time>2023-04-29T09:49:02.581Z</time>
      </trkpt>
      <trkpt lat="51.56788" lon="7.26066">
        <ele>102.791287</ele>
        <time>2023-04-29T09:49:05.576Z</time>
      </trkpt>
      <trkpt lat="51.56784" lon="7.26046">
        <ele>102.972496</ele>
        <time>2023-04-29T09:49:08.567Z</time>
      </trkpt>
      <trkpt lat="51.56782" lon="7.26032">
        <ele>103.10688</ele>
        <time>2023-04-29T09:49:10.588Z</time>
      </trkpt>
      <trkpt lat="51.56779" lon="7.26017">
        <ele>103.250348</ele>
        <time>2023-04-29T09:49:12.585Z</time>
      </trkpt>
      <trkpt lat="51.56778" lon="7.26001">
        <ele>103.391953</ele>
        <time>2023-04-29T09:49:14.586Z</time>
      </trkpt>
      <trkpt lat="51.5678" lon="7.25985">
        <ele>103.540345</ele>
        <time>2023-04-29T09:49:16.587Z</time>
      </trkpt>
      <trkpt lat="51.56782" lon="7.25969">
        <ele>103.68573</ele>
        <time>2023-04-29T09:49:18.584Z</time>
      </trkpt>
      <trkpt lat="51.56783" lon="7.25955">
        <ele>103.819601</ele>
        <time>2023-04-29T09:49:20.588Z</time>
      </trkpt>
      <trkpt lat="51.56783" lon="7.2594">
        <ele>103.951291</ele>
        <time>2023-04-29T09:49:22.581Z</time>
      </trkpt>
      <trkpt lat="51.56781" lon="7.25926">
        <ele>104.08183</ele>
        <time>2023-04-29T09:49:24.589Z</time>
      </trkpt>
      <trkpt lat="51.5678" lon="7.25905">
        <ele>104.274501</ele>
        <time>2023-04-29T09:49:27.576Z</time>
      </trkpt>
      <trkpt lat="51.56784" lon="7.25884">
        <ele>104.471909</ele>
        <time>2023-04-29T09:49:30.591Z</time>
      </trkpt>
      <trkpt lat="51.56793" lon="7.25871">
        <ele>104.650381</ele>
        <time>2023-04-29T09:49:33.577Z</time>
      </trkpt>
      <trkpt lat="51.56801" lon="7.2586">
        <ele>104.814275</ele>
        <time>2023-04-29T09:49:36.587Z</time>
      </trkpt>
      <trkpt lat="51.5681" lon="7.25848">
        <ele>104.974802</ele>
        <time>2023-04-29T09:49:39.577Z</time>
      </trkpt>
      <trkpt lat="51.56809" lon="7.25831">
        <ele>105.127033</ele>
        <time>2023-04-29T09:49:42.597Z</time>
      </trkpt>
      <trkpt lat="51.56801" lon="7.25816">
        <ele>105.282474</ele>
        <time>2023-04-29T09:49:45.571Z</time>
      </trkpt>
      <trkpt lat="51.56793" lon="7.25802">
        <ele>105.242652</ele>
        <time>2023-04-29T09:49:48.588Z</time>
      </trkpt>
      <trkpt lat="51.56786" lon="7.2579">
        <ele>105.210969</ele>
        <time>2023-04-29T09:49:51.589Z</time>
      </trkpt>
      <trkpt lat="51.56779" lon="7.25775">
        <ele>105.172696</ele>
        <time>2023-04-29T09:49:55.567Z</time>
      </trkpt>
      <trkpt lat="51.56775" lon="7.25762">
        <ele>105.143133</ele>
        <time>2023-04-29T09:49:58.583Z</time>
      </trkpt>
      <trkpt lat="51.5677" lon="7.25748">
        <ele>105.111492</ele>
        <time>2023-04-29T09:50:01.569Z</time>
      </trkpt>
      <trkpt lat="51.56765" lon="7.25734">
        <ele>105.07759</ele>
        <time>2023-04-29T09:50:04.609Z</time>
      </trkpt>
      <trkpt lat="51.5676" lon="7.25719">
        <ele>105.043155</ele>
        <time>2023-04-29T09:50:07.566Z</time>
      </trkpt>
      <trkpt lat="51.56754" lon="7.25705">
        <ele>105.008917</ele>
        <time>2023-04-29T09:50:10.585Z</time>
      </trkpt>
      <trkpt lat="51.56749" lon="7.25691">
        <ele>104.977289</ele>
        <time>2023-04-29T09:50:13.592Z</time>
      </trkpt>
      <trkpt lat="51.56743" lon="7.25674">
        <ele>104.937914</ele>
        <time>2023-04-29T09:50:17.582Z</time>
      </trkpt>
      <trkpt lat="51.56739" lon="7.2566">
        <ele>104.905125</ele>
        <time>2023-04-29T09:50:20.581Z</time>
      </trkpt>
      <trkpt lat="51.56732" lon="7.25645">
        <ele>104.868316</ele>
        <time>2023-04-29T09:50:23.588Z</time>
      </trkpt>
      <trkpt lat="51.56725" lon="7.25629">
        <ele>104.828517</ele>
        <time>2023-04-29T09:50:26.578Z</time>
      </trkpt>
      <trkpt lat="51.56719" lon="7.25612">
        <ele>104.788479</ele>
        <time>2023-04-29T09:50:29.581Z</time>
      </trkpt>
      <trkpt lat="51.56712" lon="7.25595">
        <ele>104.747728</ele>
        <time>2023-04-29T09:50:32.593Z</time>
      </trkpt>
      <trkpt lat="51.56706" lon="7.25579">
        <ele>104.708528</ele>
        <time>2023-04-29T09:50:35.580Z</time>
      </trkpt>
      <trkpt lat="51.56699" lon="7.25562">
        <ele>104.649465</ele>
        <time>2023-04-29T09:50:38.591Z</time>
      </trkpt>
      <trkpt lat="51.56693" lon="7.25544">
        <ele>104.584985</ele>
        <time>2023-04-29T09:50:41.583Z</time>
      </trkpt>
      <trkpt lat="51.56688" lon="7.25531">
        <ele>104.539413</ele>
        <time>2023-04-29T09:50:43.580Z</time>
      </trkpt>
      <trkpt lat="51.56683" lon="7.25519">
        <ele>104.492528</ele>
        <time>2023-04-29T09:50:45.579Z</time>
      </trkpt>
      <trkpt lat="51.56676" lon="7.25501">
        <ele>104.42644</ele>
        <time>2023-04-29T09:50:48.601Z</time>
      </trkpt>
      <trkpt lat="51.56669" lon="7.25482">
        <ele>104.359313</ele>
        <time>2023-04-29T09:50:51.582Z</time>
      </trkpt>
      <trkpt lat="51.56662" lon="7.25464">
        <ele>104.291645</ele>
        <time>2023-04-29T09:50:54.589Z</time>
      </trkpt>
      <trkpt lat="51.56657" lon="7.25452">
        <ele>104.244629</ele>
        <time>2023-04-29T09:50:56.593Z</time>
      </trkpt>
      <trkpt lat="51.56652" lon="7.25439">
        <ele>104.197135</ele>
        <time>2023-04-29T09:50:58.569Z</time>
      </trkpt>
      <trkpt lat="51.56646" lon="7.2542">
        <ele>104.128928</ele>
        <time>2023-04-29T09:51:01.568Z</time>
      </trkpt>
      <trkpt lat="51.56641" lon="7.25407">
        <ele>104.083366</ele>
        <time>2023-04-29T09:51:03.566Z</time>
      </trkpt>
      <trkpt lat="51.56636" lon="7.25395">
        <ele>104.035908</ele>
        <time>2023-04-29T09:51:05.593Z</time>
      </trkpt>
      <trkpt lat="51.5663" lon="7.25383">
        <ele>103.990027</ele>
        <time>2023-04-29T09:51:07.584Z</time>
      </trkpt>
      <trkpt lat="51.56625" lon="7.25371">
        <ele>103.944404</ele>
        <time>2023-04-29T09:51:09.563Z</time>
      </trkpt>
      <trkpt lat="51.56618" lon="7.25352">
        <ele>103.876466</ele>
        <time>2023-04-29T09:51:12.608Z</time>
      </trkpt>
      <trkpt lat="51.56612" lon="7.25334">
        <ele>103.811096</ele>
        <time>2023-04-29T09:51:15.580Z</time>
      </trkpt>
      <trkpt lat="51.5661" lon="7.25314">
        <ele>103.908068</ele>
        <time>2023-04-29T09:51:18.583Z</time>
      </trkpt>
      <trkpt lat="51.56608" lon="7.25296">
        <ele>104.047551</ele>
        <time>2023-04-29T09:51:21.580Z</time>
      </trkpt>
      <trkpt lat="51.56606" lon="7.25279">
        <ele>104.17797</ele>
        <time>2023-04-29T09:51:24.605Z</time>
      </trkpt>
      <trkpt lat="51.56602" lon="7.25264">
        <ele>104.300268</ele>
        <time>2023-04-29T09:51:27.578Z</time>
      </trkpt>
      <trkpt lat="51.56597" lon="7.25249">
        <ele>104.428907</ele>
        <time>2023-04-29T09:51:30.596Z</time>
      </trkpt>
      <trkpt lat="51.56592" lon="7.25235">
        <ele>104.549236</ele>
        <time>2023-04-29T09:51:33.581Z</time>
      </trkpt>
      <trkpt lat="51.56587" lon="7.25222">
        <ele>104.666566</ele>
        <time>2023-04-29T09:51:36.585Z</time>
      </trkpt>
      <trkpt lat="51.56583" lon="7.25204">
        <ele>104.80696</ele>
        <time>2023-04-29T09:51:40.577Z</time>
      </trkpt>
      <trkpt lat="51.5658" lon="7.2519">
        <ele>104.924442</ele>
        <time>2023-04-29T09:51:44.590Z</time>
      </trkpt>
      <trkpt lat="51.56578" lon="7.25174">
        <ele>105.043636</ele>
        <time>2023-04-29T09:51:48.587Z</time>
      </trkpt>
      <trkpt lat="51.56577" lon="7.25156">
        <ele>105.184553</ele>
        <time>2023-04-29T09:51:52.600Z</time>
      </trkpt>
      <trkpt lat="51.56576" lon="7.25141">
        <ele>105.298857</ele>
        <time>2023-04-29T09:51:55.583Z</time>
      </trkpt>
      <trkpt lat="51.56575" lon="7.25124">
        <ele>105.424651</ele>
        <time>2023-04-29T09:51:58.592Z</time>
      </trkpt>
      <trkpt lat="51.56574" lon="7.25107">
        <ele>105.554399</ele>
        <time>2023-04-29T09:52:01.579Z</time>
      </trkpt>
      <trkpt lat="51.56573" lon="7.2509">
        <ele>105.682027</ele>
        <time>2023-04-29T09:52:04.586Z</time>
      </trkpt>
      <trkpt lat="51.56573" lon="7.25073">
        <ele>105.811085</ele>
        <time>2023-04-29T09:52:07.566Z</time>
      </trkpt>
      <trkpt lat="51.56572" lon="7.25056">
        <ele>105.935794</ele>
        <time>2023-04-29T09:52:10.581Z</time>
      </trkpt>
      <trkpt lat="51.56569" lon="7.25041">
        <ele>105.945836</ele>
        <time>2023-04-29T09:52:13.560Z</time>
      </trkpt>
      <trkpt lat="51.56563" lon="7.25024">
        <ele>105.89853</ele>
        <time>2023-04-29T09:52:16.579Z</time>
      </trkpt>
      <trkpt lat="51.56558" lon="7.25008">
        <ele>105.853836</ele>
        <time>2023-04-29T09:52:19.572Z</time>
      </trkpt>
      <trkpt lat="51.56557" lon="7.24991">
        <ele>105.809283</ele>
        <time>2023-04-29T09:52:22.585Z</time>
      </trkpt>
      <trkpt lat="51.56556" lon="7.24974">
        <ele>105.766456</ele>
        <time>2023-04-29T09:52:25.576Z</time>
      </trkpt>
      <trkpt lat="51.56556" lon="7.24957">
        <ele>105.72477</ele>
        <time>2023-04-29T09:52:28.584Z</time>
      </trkpt>
      <trkpt lat="51.56555" lon="7.24939">
        <ele>105.679638</ele>
        <time>2023-04-29T09:52:31.583Z</time>
      </trkpt>
      <trkpt lat="51.56553" lon="7.24919">
        <ele>105.627095</ele>
        <time>2023-04-29T09:52:34.582Z</time>
      </trkpt>
      <trkpt lat="51.56551" lon="7.24902">
        <ele>105.583953</ele>
        <time>2023-04-29T09:52:37.582Z</time>
      </trkpt>
      <trkpt lat="51.56551" lon="7.24884">
        <ele>105.539755</ele>
        <time>2023-04-29T09:52:40.582Z</time>
      </trkpt>
      <trkpt lat="51.5655" lon="7.24866">
        <ele>105.493868</ele>
        <time>2023-04-29T09:52:43.578Z</time>
      </trkpt>
      <trkpt lat="51.56548" lon="7.24846">
        <ele>105.443522</ele>
        <time>2023-04-29T09:52:46.587Z</time>
      </trkpt>
      <trkpt lat="51.56548" lon="7.24831">
        <ele>105.405601</ele>
        <time>2023-04-29T09:52:48.591Z</time>
      </trkpt>
      <trkpt lat="51.56548" lon="7.24816">
        <ele>105.367817</ele>
        <time>2023-04-29T09:52:50.589Z</time>
      </trkpt>
      <trkpt lat="51.56547" lon="7.24797">
        <ele>105.31887</ele>
        <time>2023-04-29T09:52:53.584Z</time>
      </trkpt>
      <trkpt lat="51.56546" lon="7.24777">
        <ele>105.270089</ele>
        <time>2023-04-29T09:52:56.606Z</time>
      </trkpt>
      <trkpt lat="51.56545" lon="7.24757">
        <ele>105.224181</ele>
        <time>2023-04-29T09:52:59.588Z</time>
      </trkpt>
      <trkpt lat="51.56544" lon="7.24742">
        <ele>105.196107</ele>
        <time>2023-04-29T09:53:01.581Z</time>
      </trkpt>
      <trkpt lat="51.56544" lon="7.24721">
        <ele>105.156032</ele>
        <time>2023-04-29T09:53:04.580Z</time>
      </trkpt>
      <trkpt lat="51.56543" lon="7.24706">
        <ele>105.126607</ele>
        <time>2023-04-29T09:53:06.586Z</time>
      </trkpt>
      <trkpt lat="51.56541" lon="7.24685">
        <ele>105.08501</ele>
        <time>2023-04-29T09:53:09.574Z</time>
      </trkpt>
      <trkpt lat="51.5654" lon="7.24665">
        <ele>105.045334</ele>
        <time>2023-04-29T09:53:12.585Z</time>
      </trkpt>
      <trkpt lat="51.56538" lon="7.24642">
        <ele>105.001863</ele>
        <time>2023-04-29T09:53:15.595Z</time>
      </trkpt>
      <trkpt lat="51.56538" lon="7.24627">
        <ele>104.973251</ele>
        <time>2023-04-29T09:53:17.593Z</time>
      </trkpt>
      <trkpt lat="51.56537" lon="7.24612">
        <ele>104.942457</ele>
        <time>2023-04-29T09:53:19.583Z</time>
      </trkpt>
      <trkpt lat="51.56537" lon="7.24595">
        <ele>104.911295</ele>
        <time>2023-04-29T09:53:21.582Z</time>
      </trkpt>
      <trkpt lat="51.56535" lon="7.24574">
        <ele>104.869697</ele>
        <time>2023-04-29T09:53:24.596Z</time>
      </trkpt>
      <trkpt lat="51.56535" lon="7.24559">
        <ele>104.840287</ele>
        <time>2023-04-29T09:53:26.583Z</time>
      </trkpt>
      <trkpt lat="51.56534" lon="7.24544">
        <ele>104.810823</ele>
        <time>2023-04-29T09:53:28.582Z</time>
      </trkpt>
      <trkpt lat="51.56533" lon="7.24528">
        <ele>104.779836</ele>
        <time>2023-04-29T09:53:30.588Z</time>
      </trkpt>
      <trkpt lat="51.56533" lon="7.24513">
        <ele>104.750565</ele>
        <time>2023-04-29T09:53:32.583Z</time>
      </trkpt>
      <trkpt lat="51.56531" lon="7.24498">
        <ele>104.721434</ele>
        <time>2023-04-29T09:53:34.582Z</time>
      </trkpt>
      <trkpt lat="51.56529" lon="7.24483">
        <ele>104.692879</ele>
        <time>2023-04-29T09:53:36.589Z</time>
      </trkpt>
      <trkpt lat="51.56527" lon="7.24467">
        <ele>104.65869</ele>
        <time>2023-04-29T09:53:38.579Z</time>
      </trkpt>
      <trkpt lat="51.56525" lon="7.24451">
        <ele>104.62305</ele>
        <time>2023-04-29T09:53:40.573Z</time>
      </trkpt>
      <trkpt lat="51.56526" lon="7.24434">
        <ele>104.588642</ele>
        <time>2023-04-29T09:53:42.590Z</time>
      </trkpt>
      <trkpt lat="51.56528" lon="7.24418">
        <ele>104.55364</ele>
        <time>2023-04-29T09:53:44.575Z</time>
      </trkpt>
      <trkpt lat="51.56529" lon="7.24401">
        <ele>104.518631</ele>
        <time>2023-04-29T09:53:46.589Z</time>
      </trkpt>
      <trkpt lat="51.5653" lon="7.24386">
        <ele>104.486283</ele>
        <time>2023-04-29T09:53:48.599Z</time>
      </trkpt>
      <trkpt lat="51.5653" lon="7.24371">
        <ele>104.455358</ele>
        <time>2023-04-29T09:53:50.566Z</time>
      </trkpt>
      <trkpt lat="51.56531" lon="7.24353">
        <ele>104.416364</ele>
        <time>2023-04-29T09:53:53.583Z</time>
      </trkpt>
      <trkpt lat="51.56529" lon="7.24336">
        <ele>104.380667</ele>
        <time>2023-04-29T09:53:56.576Z</time>
      </trkpt>
      <trkpt lat="51.56529" lon="7.24319">
        <ele>104.344915</ele>
        <time>2023-04-29T09:53:59.586Z</time>
      </trkpt>
      <trkpt lat="51.56529" lon="7.24302">
        <ele>104.308538</ele>
        <time>2023-04-29T09:54:02.581Z</time>
      </trkpt>
      <trkpt lat="51.56529" lon="7.24286">
        <ele>104.27425</ele>
        <time>2023-04-29T09:54:05.600Z</time>
      </trkpt>
      <trkpt lat="51.56531" lon="7.24271">
        <ele>104.243635</ele>
        <time>2023-04-29T09:54:08.588Z</time>
      </trkpt>
      <trkpt lat="51.56532" lon="7.24255">
        <ele>104.209046</ele>
        <time>2023-04-29T09:54:12.588Z</time>
      </trkpt>
      <trkpt lat="51.56533" lon="7.24237">
        <ele>104.171311</ele>
        <time>2023-04-29T09:54:16.587Z</time>
      </trkpt>
      <trkpt lat="51.56534" lon="7.2422">
        <ele>104.135068</ele>
        <time>2023-04-29T09:54:19.577Z</time>
      </trkpt>
      <trkpt lat="51.56533" lon="7.24202">
        <ele>104.09848</ele>
        <time>2023-04-29T09:54:22.583Z</time>
      </trkpt>
      <trkpt lat="51.56534" lon="7.24186">
        <ele>104.071304</ele>
        <time>2023-04-29T09:54:25.589Z</time>
      </trkpt>
      <trkpt lat="51.56534" lon="7.24171">
        <ele>104.057282</ele>
        <time>2023-04-29T09:54:28.581Z</time>
      </trkpt>
      <trkpt lat="51.56534" lon="7.24156">
        <ele>104.04268</ele>
        <time>2023-04-29T09:54:31.578Z</time>
      </trkpt>
      <trkpt lat="51.56533" lon="7.2414">
        <ele>104.026891</ele>
        <time>2023-04-29T09:54:34.591Z</time>
      </trkpt>
      <trkpt lat="51.56533" lon="7.24121">
        <ele>104.008996</ele>
        <time>2023-04-29T09:54:38.665Z</time>
      </trkpt>
      <trkpt lat="51.56531" lon="7.24103">
        <ele>103.991486</ele>
        <time>2023-04-29T09:54:42.592Z</time>
      </trkpt>
      <trkpt lat="51.5653" lon="7.24086">
        <ele>103.974882</ele>
        <time>2023-04-29T09:54:46.599Z</time>
      </trkpt>
      <trkpt lat="51.56525" lon="7.24074">
        <ele>103.960673</ele>
        <time>2023-04-29T09:54:49.574Z</time>
      </trkpt>
      <trkpt lat="51.56513" lon="7.24072">
        <ele>103.94177</ele>
        <time>2023-04-29T09:54:52.580Z</time>
      </trkpt>
      <trkpt lat="51.56502" lon="7.24074">
        <ele>103.924859</ele>
        <time>2023-04-29T09:54:55.586Z</time>
      </trkpt>
      <trkpt lat="51.56492" lon="7.24075">
        <ele>103.909604</ele>
        <time>2023-04-29T09:54:58.590Z</time>
      </trkpt>
      <trkpt lat="51.56482" lon="7.24077">
        <ele>103.894379</ele>
        <time>2023-04-29T09:55:01.587Z</time>
      </trkpt>
      <trkpt lat="51.56473" lon="7.24077">
        <ele>103.879741</ele>
        <time>2023-04-29T09:55:04.588Z</time>
      </trkpt>
      <trkpt lat="51.56464" lon="7.24078">
        <ele>103.865724</ele>
        <time>2023-04-29T09:55:07.571Z</time>
      </trkpt>
      <trkpt lat="51.56453" lon="7.24078">
        <ele>103.848919</ele>
        <time>2023-04-29T09:55:11.590Z</time>
      </trkpt>
      <trkpt lat="51.56444" lon="7.2408">
        <ele>103.83407</ele>
        <time>2023-04-29T09:55:15.576Z</time>
      </trkpt>
      <trkpt lat="51.56433" lon="7.24081">
        <ele>103.816906</ele>
        <time>2023-04-29T09:55:20.594Z</time>
      </trkpt>
      <trkpt lat="51.56422" lon="7.24083">
        <ele>103.800613</ele>
        <time>2023-04-29T09:55:25.594Z</time>
      </trkpt>
      <trkpt lat="51.56412" lon="7.24085">
        <ele>103.431555</ele>
        <time>2023-04-29T09:55:30.594Z</time>
      </trkpt>
      <trkpt lat="51.56403" lon="7.24087">
        <ele>103.045375</ele>
        <time>2023-04-29T09:55:35.665Z</time>
      </trkpt>
      <trkpt lat="51.56392" lon="7.24088">
        <ele>102.589407</ele>
        <time>2023-04-29T09:55:41.571Z</time>
      </trkpt>
      <trkpt lat="51.56381" lon="7.2409">
        <ele>102.14087</ele>
        <time>2023-04-29T09:55:46.573Z</time>
      </trkpt>
      <trkpt lat="51.56372" lon="7.24083">
        <ele>101.737419</ele>
        <time>2023-04-29T09:55:53.579Z</time>
      </trkpt>
      <trkpt lat="51.5637" lon="7.24067">
        <ele>101.302322</ele>
        <time>2023-04-29T09:55:58.589Z</time>
      </trkpt>
      <trkpt lat="51.56367" lon="7.24051">
        <ele>100.895192</ele>
        <time>2023-04-29T09:56:01.583Z</time>
      </trkpt>
      <trkpt lat="51.56363" lon="7.24032">
        <ele>100.367838</ele>
        <time>2023-04-29T09:56:04.579Z</time>
      </trkpt>
      <trkpt lat="51.56359" lon="7.24012">
        <ele>99.853064</ele>
        <time>2023-04-29T09:56:07.588Z</time>
      </trkpt>
      <trkpt lat="51.56357" lon="7.23997">
        <ele>99.450397</ele>
        <time>2023-04-29T09:56:09.576Z</time>
      </trkpt>
      <trkpt lat="51.56355" lon="7.2398">
        <ele>99.011917</ele>
        <time>2023-04-29T09:56:11.588Z</time>
      </trkpt>
      <trkpt lat="51.56353" lon="7.23962">
        <ele>98.56164</ele>
        <time>2023-04-29T09:56:13.581Z</time>
      </trkpt>
      <trkpt lat="51.56351" lon="7.23944">
        <ele>98.088753</ele>
        <time>2023-04-29T09:56:15.579Z</time>
      </trkpt>
      <trkpt lat="51.56351" lon="7.23925">
        <ele>97.588923</ele>
        <time>2023-04-29T09:56:17.584Z</time>
      </trkpt>
      <trkpt lat="51.56351" lon="7.23904">
        <ele>97.071455</ele>
        <time>2023-04-29T09:56:19.567Z</time>
      </trkpt>
      <trkpt lat="51.56351" lon="7.23885">
        <ele>96.592214</ele>
        <time>2023-04-29T09:56:21.586Z</time>
      </trkpt>
      <trkpt lat="51.56351" lon="7.23868">
        <ele>96.150771</ele>
        <time>2023-04-29T09:56:23.595Z</time>
      </trkpt>
      <trkpt lat="51.56351" lon="7.23849">
        <ele>95.68554</ele>
        <time>2023-04-29T09:56:25.602Z</time>
      </trkpt>
      <trkpt lat="51.56351" lon="7.23829">
        <ele>95.202688</ele>
        <time>2023-04-29T09:56:27.575Z</time>
      </trkpt>
      <trkpt lat="51.5635" lon="7.23808">
        <ele>94.688001</ele>
        <time>2023-04-29T09:56:29.567Z</time>
      </trkpt>
      <trkpt lat="51.5635" lon="7.23786">
        <ele>94.148811</ele>
        <time>2023-04-29T09:56:31.580Z</time>
      </trkpt>
      <trkpt lat="51.56349" lon="7.23764">
        <ele>93.594078</ele>
        <time>2023-04-29T09:56:33.582Z</time>
      </trkpt>
      <trkpt lat="51.56348" lon="7.23741">
        <ele>93.018254</ele>
        <time>2023-04-29T09:56:35.586Z</time>
      </trkpt>
      <trkpt lat="51.56346" lon="7.23718">
        <ele>92.448585</ele>
        <time>2023-04-29T09:56:37.579Z</time>
      </trkpt>
      <trkpt lat="51.56345" lon="7.23696">
        <ele>91.924941</ele>
        <time>2023-04-29T09:56:39.585Z</time>
      </trkpt>
      <trkpt lat="51.56344" lon="7.23675">
        <ele>91.406808</ele>
        <time>2023-04-29T09:56:41.585Z</time>
      </trkpt>
      <trkpt lat="51.56343" lon="7.23655">
        <ele>90.896281</ele>
        <time>2023-04-29T09:56:43.566Z</time>
      </trkpt>
      <trkpt lat="51.56342" lon="7.23635">
        <ele>90.410792</ele>
        <time>2023-04-29T09:56:45.599Z</time>
      </trkpt>
      <trkpt lat="51.56341" lon="7.23615">
        <ele>89.917212</ele>
        <time>2023-04-29T09:56:47.576Z</time>
      </trkpt>
      <trkpt lat="51.56341" lon="7.23596">
        <ele>89.446656</ele>
        <time>2023-04-29T09:56:49.574Z</time>
      </trkpt>
      <trkpt lat="51.5634" lon="7.23577">
        <ele>89.390887</ele>
        <time>2023-04-29T09:56:51.592Z</time>
      </trkpt>
      <trkpt lat="51.5634" lon="7.23557">
        <ele>89.520999</ele>
        <time>2023-04-29T09:56:53.585Z</time>
      </trkpt>
      <trkpt lat="51.5634" lon="7.23539">
        <ele>89.645117</ele>
        <time>2023-04-29T09:56:55.592Z</time>
      </trkpt>
      <trkpt lat="51.56339" lon="7.2352">
        <ele>89.769922</ele>
        <time>2023-04-29T09:56:57.584Z</time>
      </trkpt>
      <trkpt lat="51.56338" lon="7.23502">
        <ele>89.890514</ele>
        <time>2023-04-29T09:56:59.567Z</time>
      </trkpt>
      <trkpt lat="51.56338" lon="7.23482">
        <ele>90.020204</ele>
        <time>2023-04-29T09:57:01.577Z</time>
      </trkpt>
      <trkpt lat="51.56337" lon="7.23463">
        <ele>90.144469</ele>
        <time>2023-04-29T09:57:03.591Z</time>
      </trkpt>
      <trkpt lat="51.56336" lon="7.23446">
        <ele>90.261858</ele>
        <time>2023-04-29T09:57:05.594Z</time>
      </trkpt>
      <trkpt lat="51.56334" lon="7.23428">
        <ele>90.385356</ele>
        <time>2023-04-29T09:57:07.580Z</time>
      </trkpt>
      <trkpt lat="51.56333" lon="7.2341">
        <ele>90.504224</ele>
        <time>2023-04-29T09:57:09.571Z</time>
      </trkpt>
      <trkpt lat="51.56332" lon="7.23393">
        <ele>90.617545</ele>
        <time>2023-04-29T09:57:11.584Z</time>
      </trkpt>
      <trkpt lat="51.56331" lon="7.23377">
        <ele>90.725849</ele>
        <time>2023-04-29T09:57:13.588Z</time>
      </trkpt>
      <trkpt lat="51.5633" lon="7.23361">
        <ele>90.83096</ele>
        <time>2023-04-29T09:57:15.573Z</time>
      </trkpt>
      <trkpt lat="51.56329" lon="7.23346">
        <ele>90.933057</ele>
        <time>2023-04-29T09:57:17.577Z</time>
      </trkpt>
      <trkpt lat="51.56328" lon="7.23331">
        <ele>91.033423</ele>
        <time>2023-04-29T09:57:19.579Z</time>
      </trkpt>
      <trkpt lat="51.56325" lon="7.23316">
        <ele>91.131335</ele>
        <time>2023-04-29T09:57:21.570Z</time>
      </trkpt>
      <trkpt lat="51.56323" lon="7.23302">
        <ele>91.225522</ele>
        <time>2023-04-29T09:57:23.577Z</time>
      </trkpt>
      <trkpt lat="51.5632" lon="7.23282">
        <ele>91.303534</ele>
        <time>2023-04-29T09:57:26.558Z</time>
      </trkpt>
      <trkpt lat="51.56318" lon="7.23262">
        <ele>91.379448</ele>
        <time>2023-04-29T09:57:29.566Z</time>
      </trkpt>
      <trkpt lat="51.56316" lon="7.23247">
        <ele>91.436292</ele>
        <time>2023-04-29T09:57:31.570Z</time>
      </trkpt>
      <trkpt lat="51.56313" lon="7.23231">
        <ele>91.49995</ele>
        <time>2023-04-29T09:57:34.582Z</time>
      </trkpt>
      <trkpt lat="51.56308" lon="7.23212">
        <ele>91.574267</ele>
        <time>2023-04-29T09:57:38.576Z</time>
      </trkpt>
      <trkpt lat="51.56305" lon="7.23198">
        <ele>91.633437</ele>
        <time>2023-04-29T09:57:41.577Z</time>
      </trkpt>
      <trkpt lat="51.56302" lon="7.2318">
        <ele>91.701778</ele>
        <time>2023-04-29T09:57:45.574Z</time>
      </trkpt>
      <trkpt lat="51.56299" lon="7.23166">
        <ele>91.756315</ele>
        <time>2023-04-29T09:57:48.580Z</time>
      </trkpt>
      <trkpt lat="51.56296" lon="7.23147">
        <ele>91.828951</ele>
        <time>2023-04-29T09:57:51.567Z</time>
      </trkpt>
      <trkpt lat="51.56294" lon="7.23129">
        <ele>91.899753</ele>
        <time>2023-04-29T09:57:54.586Z</time>
      </trkpt>
      <trkpt lat="51.56291" lon="7.23111">
        <ele>91.968515</ele>
        <time>2023-04-29T09:57:57.581Z</time>
      </trkpt>
      <trkpt lat="51.56288" lon="7.23092">
        <ele>92.041008</ele>
        <time>2023-04-29T09:58:00.573Z</time>
      </trkpt>
      <trkpt lat="51.56283" lon="7.23075">
        <ele>92.112887</ele>
        <time>2023-04-29T09:58:03.579Z</time>
      </trkpt>
      <trkpt lat="51.56279" lon="7.23056">
        <ele>92.188207</ele>
        <time>2023-04-29T09:58:06.580Z</time>
      </trkpt>
      <trkpt lat="51.56275" lon="7.23037">
        <ele>92.260656</ele>
        <time>2023-04-29T09:58:09.585Z</time>
      </trkpt>
      <trkpt lat="51.56272" lon="7.23018">
        <ele>92.302173</ele>
        <time>2023-04-29T09:58:12.588Z</time>
      </trkpt>
      <trkpt lat="51.56268" lon="7.22999">
        <ele>92.29368</ele>
        <time>2023-04-29T09:58:15.575Z</time>
      </trkpt>
      <trkpt lat="51.56264" lon="7.2298">
        <ele>92.285067</ele>
        <time>2023-04-29T09:58:18.568Z</time>
      </trkpt>
      <trkpt lat="51.56261" lon="7.2296">
        <ele>92.276189</ele>
        <time>2023-04-29T09:58:21.583Z</time>
      </trkpt>
      <trkpt lat="51.56256" lon="7.22939">
        <ele>92.266913</ele>
        <time>2023-04-29T09:58:24.583Z</time>
      </trkpt>
      <trkpt lat="51.56252" lon="7.22919">
        <ele>92.258096</ele>
        <time>2023-04-29T09:58:27.576Z</time>
      </trkpt>
      <trkpt lat="51.56249" lon="7.229">
        <ele>92.249442</ele>
        <time>2023-04-29T09:58:30.585Z</time>
      </trkpt>
      <trkpt lat="51.56245" lon="7.22879">
        <ele>92.240135</ele>
        <time>2023-04-29T09:58:33.580Z</time>
      </trkpt>
      <trkpt lat="51.56241" lon="7.22859">
        <ele>92.23117</ele>
        <time>2023-04-29T09:58:36.592Z</time>
      </trkpt>
      <trkpt lat="51.56236" lon="7.2284">
        <ele>92.222451</ele>
        <time>2023-04-29T09:58:39.585Z</time>
      </trkpt>
      <trkpt lat="51.56233" lon="7.2282">
        <ele>92.213348</ele>
        <time>2023-04-29T09:58:42.580Z</time>
      </trkpt>
      <trkpt lat="51.5623" lon="7.228">
        <ele>92.204809</ele>
        <time>2023-04-29T09:58:45.577Z</time>
      </trkpt>
      <trkpt lat="51.56226" lon="7.22782">
        <ele>92.196494</ele>
        <time>2023-04-29T09:58:48.574Z</time>
      </trkpt>
      <trkpt lat="51.56222" lon="7.22762">
        <ele>92.187799</ele>
        <time>2023-04-29T09:58:51.578Z</time>
      </trkpt>
      <trkpt lat="51.56218" lon="7.22743">
        <ele>92.144469</ele>
        <time>2023-04-29T09:58:54.583Z</time>
      </trkpt>
      <trkpt lat="51.56213" lon="7.22723">
        <ele>92.042594</ele>
        <time>2023-04-29T09:58:57.575Z</time>
      </trkpt>
      <trkpt lat="51.56211" lon="7.22709">
        <ele>91.971124</ele>
        <time>2023-04-29T09:58:59.558Z</time>
      </trkpt>
      <trkpt lat="51.56206" lon="7.22689">
        <ele>91.867732</ele>
        <time>2023-04-29T09:59:02.582Z</time>
      </trkpt>
      <trkpt lat="51.56204" lon="7.22674">
        <ele>91.794958</ele>
        <time>2023-04-29T09:59:04.577Z</time>
      </trkpt>
      <trkpt lat="51.562" lon="7.22654">
        <ele>91.69136</ele>
        <time>2023-04-29T09:59:07.580Z</time>
      </trkpt>
      <trkpt lat="51.56197" lon="7.22633">
        <ele>91.585655</ele>
        <time>2023-04-29T09:59:10.578Z</time>
      </trkpt>
      <trkpt lat="51.56192" lon="7.22614">
        <ele>91.485492</ele>
        <time>2023-04-29T09:59:13.580Z</time>
      </trkpt>
      <trkpt lat="51.56188" lon="7.22594">
        <ele>91.38515</ele>
        <time>2023-04-29T09:59:16.577Z</time>
      </trkpt>
      <trkpt lat="51.56184" lon="7.22575">
        <ele>91.286291</ele>
        <time>2023-04-29T09:59:19.570Z</time>
      </trkpt>
      <trkpt lat="51.5618" lon="7.22556">
        <ele>91.188944</ele>
        <time>2023-04-29T09:59:22.578Z</time>
      </trkpt>
      <trkpt lat="51.56177" lon="7.22537">
        <ele>91.090196</ele>
        <time>2023-04-29T09:59:25.579Z</time>
      </trkpt>
      <trkpt lat="51.56173" lon="7.22518">
        <ele>90.992171</ele>
        <time>2023-04-29T09:59:28.576Z</time>
      </trkpt>
      <trkpt lat="51.56171" lon="7.22504">
        <ele>90.921831</ele>
        <time>2023-04-29T09:59:30.581Z</time>
      </trkpt>
      <trkpt lat="51.56167" lon="7.22484">
        <ele>90.820285</ele>
        <time>2023-04-29T09:59:33.584Z</time>
      </trkpt>
      <trkpt lat="51.56164" lon="7.2247">
        <ele>90.89242</ele>
        <time>2023-04-29T09:59:35.592Z</time>
      </trkpt>
      <trkpt lat="51.56161" lon="7.22456">
        <ele>91.255677</ele>
        <time>2023-04-29T09:59:37.580Z</time>
      </trkpt>
      <trkpt lat="51.56157" lon="7.22435">
        <ele>91.790878</ele>
        <time>2023-04-29T09:59:40.597Z</time>
      </trkpt>
      <trkpt lat="51.56154" lon="7.22421">
        <ele>92.155754</ele>
        <time>2023-04-29T09:59:42.580Z</time>
      </trkpt>
      <trkpt lat="51.56151" lon="7.22407">
        <ele>92.521593</ele>
        <time>2023-04-29T09:59:44.576Z</time>
      </trkpt>
      <trkpt lat="51.56148" lon="7.22393">
        <ele>92.887432</ele>
        <time>2023-04-29T09:59:46.578Z</time>
      </trkpt>
      <trkpt lat="51.56145" lon="7.22379">
        <ele>93.250001</ele>
        <time>2023-04-29T09:59:48.582Z</time>
      </trkpt>
      <trkpt lat="51.56141" lon="7.22365">
        <ele>93.627052</ele>
        <time>2023-04-29T09:59:50.596Z</time>
      </trkpt>
      <trkpt lat="51.56137" lon="7.22351">
        <ele>93.99964</ele>
        <time>2023-04-29T09:59:52.580Z</time>
      </trkpt>
      <trkpt lat="51.56131" lon="7.22334">
        <ele>94.471778</ele>
        <time>2023-04-29T09:59:55.591Z</time>
      </trkpt>
      <trkpt lat="51.56127" lon="7.2232">
        <ele>94.868522</ele>
        <time>2023-04-29T09:59:59.567Z</time>
      </trkpt>
      <trkpt lat="51.56121" lon="7.22308">
        <ele>95.240655</ele>
        <time>2023-04-29T10:00:04.565Z</time>
      </trkpt>
      <trkpt lat="51.56115" lon="7.22293">
        <ele>95.669479</ele>
        <time>2023-04-29T10:00:10.586Z</time>
      </trkpt>
      <trkpt lat="51.56109" lon="7.2228">
        <ele>96.077184</ele>
        <time>2023-04-29T10:00:15.579Z</time>
      </trkpt>
      <trkpt lat="51.56104" lon="7.22268">
        <ele>96.460471</ele>
        <time>2023-04-29T10:00:20.593Z</time>
      </trkpt>
      <trkpt lat="51.56098" lon="7.22256">
        <ele>96.826922</ele>
        <time>2023-04-29T10:00:24.584Z</time>
      </trkpt>
      <trkpt lat="51.56089" lon="7.22244">
        <ele>97.278007</ele>
        <time>2023-04-29T10:00:28.571Z</time>
      </trkpt>
      <trkpt lat="51.5608" lon="7.22234">
        <ele>97.713583</ele>
        <time>2023-04-29T10:00:32.572Z</time>
      </trkpt>
      <trkpt lat="51.56072" lon="7.22222">
        <ele>97.817626</ele>
        <time>2023-04-29T10:00:36.582Z</time>
      </trkpt>
      <trkpt lat="51.56066" lon="7.22211">
        <ele>97.700005</ele>
        <time>2023-04-29T10:00:40.588Z</time>
      </trkpt>
      <trkpt lat="51.56058" lon="7.22198">
        <ele>97.56201</ele>
        <time>2023-04-29T10:00:44.579Z</time>
      </trkpt>
      <trkpt lat="51.56051" lon="7.22187">
        <ele>97.439707</ele>
        <time>2023-04-29T10:00:47.574Z</time>
      </trkpt>
      <trkpt lat="51.56042" lon="7.22177">
        <ele>97.310228</ele>
        <time>2023-04-29T10:00:50.596Z</time>
      </trkpt>
      <trkpt lat="51.56036" lon="7.22167">
        <ele>97.197224</ele>
        <time>2023-04-29T10:00:53.589Z</time>
      </trkpt>
      <trkpt lat="51.56029" lon="7.22153">
        <ele>97.060835</ele>
        <time>2023-04-29T10:00:57.582Z</time>
      </trkpt>
      <trkpt lat="51.56021" lon="7.22141">
        <ele>96.926216</ele>
        <time>2023-04-29T10:01:01.564Z</time>
      </trkpt>
      <trkpt lat="51.56014" lon="7.22126">
        <ele>96.785414</ele>
        <time>2023-04-29T10:01:05.572Z</time>
      </trkpt>
      <trkpt lat="51.56009" lon="7.22113">
        <ele>96.667157</ele>
        <time>2023-04-29T10:01:08.579Z</time>
      </trkpt>
      <trkpt lat="51.56004" lon="7.22098">
        <ele>96.537273</ele>
        <time>2023-04-29T10:01:11.562Z</time>
      </trkpt>
      <trkpt lat="51.56" lon="7.22081">
        <ele>96.39827</ele>
        <time>2023-04-29T10:01:14.588Z</time>
      </trkpt>
      <trkpt lat="51.55997" lon="7.22066">
        <ele>96.278056</ele>
        <time>2023-04-29T10:01:16.594Z</time>
      </trkpt>
      <trkpt lat="51.55993" lon="7.2205">
        <ele>96.151579</ele>
        <time>2023-04-29T10:01:18.581Z</time>
      </trkpt>
      <trkpt lat="51.5599" lon="7.22035">
        <ele>96.024441</ele>
        <time>2023-04-29T10:01:20.581Z</time>
      </trkpt>
      <trkpt lat="51.55988" lon="7.22018">
        <ele>95.89495</ele>
        <time>2023-04-29T10:01:22.582Z</time>
      </trkpt>
      <trkpt lat="51.55986" lon="7.22001">
        <ele>95.764591</ele>
        <time>2023-04-29T10:01:24.591Z</time>
      </trkpt>
      <trkpt lat="51.55983" lon="7.21986">
        <ele>95.640988</ele>
        <time>2023-04-29T10:01:26.576Z</time>
      </trkpt>
      <trkpt lat="51.55979" lon="7.21971">
        <ele>95.510998</ele>
        <time>2023-04-29T10:01:28.580Z</time>
      </trkpt>
      <trkpt lat="51.55976" lon="7.21956">
        <ele>95.380336</ele>
        <time>2023-04-29T10:01:30.585Z</time>
      </trkpt>
      <trkpt lat="51.55974" lon="7.2194">
        <ele>95.250235</ele>
        <time>2023-04-29T10:01:32.583Z</time>
      </trkpt>
      <trkpt lat="51.55971" lon="7.21925">
        <ele>95.123437</ele>
        <time>2023-04-29T10:01:34.583Z</time>
      </trkpt>
      <trkpt lat="51.55968" lon="7.2191">
        <ele>94.999939</ele>
        <time>2023-04-29T10:01:36.576Z</time>
      </trkpt>
      <trkpt lat="51.55965" lon="7.21895">
        <ele>94.871527</ele>
        <time>2023-04-29T10:01:38.604Z</time>
      </trkpt>
      <trkpt lat="51.55962" lon="7.21878">
        <ele>94.725448</ele>
        <time>2023-04-29T10:01:40.584Z</time>
      </trkpt>
      <trkpt lat="51.55959" lon="7.2186">
        <ele>94.579444</ele>
        <time>2023-04-29T10:01:42.596Z</time>
      </trkpt>
      <trkpt lat="51.55956" lon="7.21843">
        <ele>94.438015</ele>
        <time>2023-04-29T10:01:44.594Z</time>
      </trkpt>
      <trkpt lat="51.55952" lon="7.21827">
        <ele>94.295019</ele>
        <time>2023-04-29T10:01:46.596Z</time>
      </trkpt>
      <trkpt lat="51.55949" lon="7.21811">
        <ele>94.159366</ele>
        <time>2023-04-29T10:01:48.583Z</time>
      </trkpt>
      <trkpt lat="51.55945" lon="7.21796">
        <ele>94.029979</ele>
        <time>2023-04-29T10:01:50.596Z</time>
      </trkpt>
      <trkpt lat="51.55942" lon="7.2178">
        <ele>93.899345</ele>
        <time>2023-04-29T10:01:52.581Z</time>
      </trkpt>
      <trkpt lat="51.55938" lon="7.21765">
        <ele>93.768455</ele>
        <time>2023-04-29T10:01:54.584Z</time>
      </trkpt>
      <trkpt lat="51.55934" lon="7.2175">
        <ele>93.639329</ele>
        <time>2023-04-29T10:01:56.584Z</time>
      </trkpt>
      <trkpt lat="51.55929" lon="7.2173">
        <ele>93.466609</ele>
        <time>2023-04-29T10:01:59.581Z</time>
      </trkpt>
      <trkpt lat="51.55924" lon="7.21713">
        <ele>93.320263</ele>
        <time>2023-04-29T10:02:02.593Z</time>
      </trkpt>
      <trkpt lat="51.55919" lon="7.21699">
        <ele>93.205233</ele>
        <time>2023-04-29T10:02:05.590Z</time>
      </trkpt>
      <trkpt lat="51.55912" lon="7.21689">
        <ele>93.098452</ele>
        <time>2023-04-29T10:02:08.576Z</time>
      </trkpt>
      <trkpt lat="51.55909" lon="7.21674">
        <ele>92.980721</ele>
        <time>2023-04-29T10:02:11.579Z</time>
      </trkpt>
      <trkpt lat="51.55905" lon="7.21658">
        <ele>92.859514</ele>
        <time>2023-04-29T10:02:14.580Z</time>
      </trkpt>
      <trkpt lat="51.55902" lon="7.21641">
        <ele>92.73383</ele>
        <time>2023-04-29T10:02:17.583Z</time>
      </trkpt>
      <trkpt lat="51.55899" lon="7.21624">
        <ele>92.611249</ele>
        <time>2023-04-29T10:02:20.581Z</time>
      </trkpt>
      <trkpt lat="51.55897" lon="7.21606">
        <ele>92.482543</ele>
        <time>2023-04-29T10:02:23.593Z</time>
      </trkpt>
      <trkpt lat="51.55893" lon="7.21589">
        <ele>92.349666</ele>
        <time>2023-04-29T10:02:26.591Z</time>
      </trkpt>
      <trkpt lat="51.5589" lon="7.21571">
        <ele>92.215916</ele>
        <time>2023-04-29T10:02:29.584Z</time>
      </trkpt>
      <trkpt lat="51.55887" lon="7.21553">
        <ele>92.086685</ele>
        <time>2023-04-29T10:02:32.580Z</time>
      </trkpt>
      <trkpt lat="51.55884" lon="7.21538">
        <ele>91.973926</ele>
        <time>2023-04-29T10:02:35.570Z</time>
      </trkpt>
      <trkpt lat="51.55881" lon="7.2152">
        <ele>91.841536</ele>
        <time>2023-04-29T10:02:38.591Z</time>
      </trkpt>
      <trkpt lat="51.55877" lon="7.21503">
        <ele>91.716202</ele>
        <time>2023-04-29T10:02:41.672Z</time>
      </trkpt>
      <trkpt lat="51.55874" lon="7.21487">
        <ele>91.594318</ele>
        <time>2023-04-29T10:02:44.585Z</time>
      </trkpt>
      <trkpt lat="51.55869" lon="7.21473">
        <ele>91.484604</ele>
        <time>2023-04-29T10:02:47.586Z</time>
      </trkpt>
      <trkpt lat="51.55863" lon="7.21462">
        <ele>91.378292</ele>
        <time>2023-04-29T10:02:51.564Z</time>
      </trkpt>
      <trkpt lat="51.55857" lon="7.21448">
        <ele>91.316812</ele>
        <time>2023-04-29T10:02:55.582Z</time>
      </trkpt>
      <trkpt lat="51.55856" lon="7.21434">
        <ele>91.357454</ele>
        <time>2023-04-29T10:02:58.585Z</time>
      </trkpt>
      <trkpt lat="51.55854" lon="7.21415">
        <ele>91.409103</ele>
        <time>2023-04-29T10:03:02.595Z</time>
      </trkpt>
      <trkpt lat="51.55852" lon="7.214">
        <ele>91.453694</ele>
        <time>2023-04-29T10:03:05.607Z</time>
      </trkpt>
      <trkpt lat="51.5585" lon="7.21384">
        <ele>91.498263</ele>
        <time>2023-04-29T10:03:08.580Z</time>
      </trkpt>
      <trkpt lat="51.55849" lon="7.21368">
        <ele>91.543136</ele>
        <time>2023-04-29T10:03:11.566Z</time>
      </trkpt>
      <trkpt lat="51.55847" lon="7.21352">
        <ele>91.588831</ele>
        <time>2023-04-29T10:03:14.586Z</time>
      </trkpt>
      <trkpt lat="51.55846" lon="7.21335">
        <ele>91.635542</ele>
        <time>2023-04-29T10:03:17.592Z</time>
      </trkpt>
      <trkpt lat="51.55845" lon="7.21319">
        <ele>91.681888</ele>
        <time>2023-04-29T10:03:20.586Z</time>
      </trkpt>
      <trkpt lat="51.55845" lon="7.21302">
        <ele>91.727813</ele>
        <time>2023-04-29T10:03:23.578Z</time>
      </trkpt>
      <trkpt lat="51.5585" lon="7.21287">
        <ele>91.775564</ele>
        <time>2023-04-29T10:03:26.589Z</time>
      </trkpt>
      <trkpt lat="51.55856" lon="7.21273">
        <ele>91.824535</ele>
        <time>2023-04-29T10:03:29.586Z</time>
      </trkpt>
      <trkpt lat="51.55861" lon="7.21257">
        <ele>91.8729</ele>
        <time>2023-04-29T10:03:32.565Z</time>
      </trkpt>
      <trkpt lat="51.55864" lon="7.21241">
        <ele>91.920212</ele>
        <time>2023-04-29T10:03:35.597Z</time>
      </trkpt>
      <trkpt lat="51.55864" lon="7.21226">
        <ele>91.962743</ele>
        <time>2023-04-29T10:03:38.576Z</time>
      </trkpt>
      <trkpt lat="51.55862" lon="7.21211">
        <ele>92.006354</ele>
        <time>2023-04-29T10:03:42.586Z</time>
      </trkpt>
      <trkpt lat="51.55858" lon="7.21195">
        <ele>92.054017</ele>
        <time>2023-04-29T10:03:46.576Z</time>
      </trkpt>
      <trkpt lat="51.55856" lon="7.21178">
        <ele>92.102152</ele>
        <time>2023-04-29T10:03:50.584Z</time>
      </trkpt>
      <trkpt lat="51.55855" lon="7.21162">
        <ele>91.977002</ele>
        <time>2023-04-29T10:03:53.582Z</time>
      </trkpt>
      <trkpt lat="51.55853" lon="7.21147">
        <ele>91.82563</ele>
        <time>2023-04-29T10:03:55.571Z</time>
      </trkpt>
      <trkpt lat="51.55854" lon="7.2113">
        <ele>91.654507</ele>
        <time>2023-04-29T10:03:57.586Z</time>
      </trkpt>
      <trkpt lat="51.55853" lon="7.21111">
        <ele>91.466845</ele>
        <time>2023-04-29T10:03:59.570Z</time>
      </trkpt>
      <trkpt lat="51.55853" lon="7.21091">
        <ele>91.270522</ele>
        <time>2023-04-29T10:04:01.581Z</time>
      </trkpt>
      <trkpt lat="51.55853" lon="7.21071">
        <ele>91.075879</ele>
        <time>2023-04-29T10:04:03.593Z</time>
      </trkpt>
      <trkpt lat="51.55852" lon="7.21053">
        <ele>90.895783</ele>
        <time>2023-04-29T10:04:05.584Z</time>
      </trkpt>
      <trkpt lat="51.5585" lon="7.21035">
        <ele>90.718594</ele>
        <time>2023-04-29T10:04:07.565Z</time>
      </trkpt>
      <trkpt lat="51.55849" lon="7.2102">
        <ele>90.572073</ele>
        <time>2023-04-29T10:04:09.578Z</time>
      </trkpt>
      <trkpt lat="51.55849" lon="7.21004">
        <ele>90.410229</ele>
        <time>2023-04-29T10:04:12.579Z</time>
      </trkpt>
      <trkpt lat="51.55851" lon="7.2099">
        <ele>90.264209</ele>
        <time>2023-04-29T10:04:15.576Z</time>
      </trkpt>
      <trkpt lat="51.55855" lon="7.20968">
        <ele>90.042654</ele>
        <time>2023-04-29T10:04:18.591Z</time>
      </trkpt>
      <trkpt lat="51.55854" lon="7.20953">
        <ele>89.892307</ele>
        <time>2023-04-29T10:04:20.573Z</time>
      </trkpt>
      <trkpt lat="51.55855" lon="7.20935">
        <ele>89.720597</ele>
        <time>2023-04-29T10:04:22.567Z</time>
      </trkpt>
      <trkpt lat="51.55856" lon="7.20919">
        <ele>89.557644</ele>
        <time>2023-04-29T10:04:24.576Z</time>
      </trkpt>
      <trkpt lat="51.55852" lon="7.20905">
        <ele>89.407451</ele>
        <time>2023-04-29T10:04:26.587Z</time>
      </trkpt>
      <trkpt lat="51.55846" lon="7.20892">
        <ele>89.261064</ele>
        <time>2023-04-29T10:04:28.570Z</time>
      </trkpt>
      <trkpt lat="51.55842" lon="7.20874">
        <ele>89.346021</ele>
        <time>2023-04-29T10:04:31.572Z</time>
      </trkpt>
      <trkpt lat="51.55838" lon="7.20857">
        <ele>89.427483</ele>
        <time>2023-04-29T10:04:34.581Z</time>
      </trkpt>
      <trkpt lat="51.55836" lon="7.20841">
        <ele>89.502839</ele>
        <time>2023-04-29T10:04:37.575Z</time>
      </trkpt>
      <trkpt lat="51.55832" lon="7.20827">
        <ele>89.573001</ele>
        <time>2023-04-29T10:04:40.582Z</time>
      </trkpt>
      <trkpt lat="51.5583" lon="7.2081">
        <ele>89.650752</ele>
        <time>2023-04-29T10:04:43.590Z</time>
      </trkpt>
      <trkpt lat="51.55827" lon="7.20796">
        <ele>89.717224</ele>
        <time>2023-04-29T10:04:45.577Z</time>
      </trkpt>
      <trkpt lat="51.55823" lon="7.20776">
        <ele>89.814826</ele>
        <time>2023-04-29T10:04:48.596Z</time>
      </trkpt>
      <trkpt lat="51.55818" lon="7.20757">
        <ele>89.909371</ele>
        <time>2023-04-29T10:04:51.584Z</time>
      </trkpt>
      <trkpt lat="51.55813" lon="7.20737">
        <ele>90.005931</ele>
        <time>2023-04-29T10:04:54.581Z</time>
      </trkpt>
      <trkpt lat="51.55808" lon="7.2072">
        <ele>90.092571</ele>
        <time>2023-04-29T10:04:57.598Z</time>
      </trkpt>
      <trkpt lat="51.55805" lon="7.207">
        <ele>90.186628</ele>
        <time>2023-04-29T10:05:00.599Z</time>
      </trkpt>
      <trkpt lat="51.558" lon="7.2068">
        <ele>90.281476</ele>
        <time>2023-04-29T10:05:03.590Z</time>
      </trkpt>
      <trkpt lat="51.55797" lon="7.20667">
        <ele>90.348049</ele>
        <time>2023-04-29T10:05:05.592Z</time>
      </trkpt>
      <trkpt lat="51.55794" lon="7.20653">
        <ele>90.414785</ele>
        <time>2023-04-29T10:05:07.567Z</time>
      </trkpt>
      <trkpt lat="51.5579" lon="7.2064">
        <ele>90.482776</ele>
        <time>2023-04-29T10:05:09.574Z</time>
      </trkpt>
      <trkpt lat="51.55785" lon="7.20618">
        <ele>90.580661</ele>
        <time>2023-04-29T10:05:12.588Z</time>
      </trkpt>
      <trkpt lat="51.55781" lon="7.20604">
        <ele>90.618072</ele>
        <time>2023-04-29T10:05:14.586Z</time>
      </trkpt>
      <trkpt lat="51.55778" lon="7.20589">
        <ele>90.656546</ele>
        <time>2023-04-29T10:05:16.584Z</time>
      </trkpt>
      <trkpt lat="51.55774" lon="7.20575">
        <ele>90.692538</ele>
        <time>2023-04-29T10:05:18.586Z</time>
      </trkpt>
      <trkpt lat="51.5577" lon="7.20559">
        <ele>90.732043</ele>
        <time>2023-04-29T10:05:20.578Z</time>
      </trkpt>
      <trkpt lat="51.55766" lon="7.20545">
        <ele>90.768863</ele>
        <time>2023-04-29T10:05:22.585Z</time>
      </trkpt>
      <trkpt lat="51.55762" lon="7.20531">
        <ele>90.805579</ele>
        <time>2023-04-29T10:05:24.584Z</time>
      </trkpt>
      <trkpt lat="51.55758" lon="7.20516">
        <ele>90.844879</ele>
        <time>2023-04-29T10:05:26.576Z</time>
      </trkpt>
      <trkpt lat="51.55754" lon="7.20502">
        <ele>90.880365</ele>
        <time>2023-04-29T10:05:28.586Z</time>
      </trkpt>
      <trkpt lat="51.55751" lon="7.20489">
        <ele>90.916139</ele>
        <time>2023-04-29T10:05:30.585Z</time>
      </trkpt>
      <trkpt lat="51.55746" lon="7.20469">
        <ele>90.965226</ele>
        <time>2023-04-29T10:05:33.579Z</time>
      </trkpt>
      <trkpt lat="51.55741" lon="7.20452">
        <ele>91.010437</ele>
        <time>2023-04-29T10:05:36.581Z</time>
      </trkpt>
      <trkpt lat="51.55738" lon="7.20437">
        <ele>91.048462</ele>
        <time>2023-04-29T10:05:40.586Z</time>
      </trkpt>
      <trkpt lat="51.55732" lon="7.20424">
        <ele>91.086777</ele>
        <time>2023-04-29T10:05:45.581Z</time>
      </trkpt>
      <trkpt lat="51.55728" lon="7.20408">
        <ele>91.127649</ele>
        <time>2023-04-29T10:06:12.590Z</time>
      </trkpt>
      <trkpt lat="51.55726" lon="7.20394">
        <ele>91.162927</ele>
        <time>2023-04-29T10:06:16.575Z</time>
      </trkpt>
      <trkpt lat="51.55721" lon="7.20379">
        <ele>91.201738</ele>
        <time>2023-04-29T10:06:20.598Z</time>
      </trkpt>
      <trkpt lat="51.55718" lon="7.20361">
        <ele>91.245914</ele>
        <time>2023-04-29T10:06:24.580Z</time>
      </trkpt>
      <trkpt lat="51.55715" lon="7.20346">
        <ele>91.33477</ele>
        <time>2023-04-29T10:06:27.575Z</time>
      </trkpt>
      <trkpt lat="51.55711" lon="7.20329">
        <ele>91.474579</ele>
        <time>2023-04-29T10:06:30.583Z</time>
      </trkpt>
      <trkpt lat="51.55708" lon="7.20313">
        <ele>91.613246</ele>
        <time>2023-04-29T10:06:33.581Z</time>
      </trkpt>
      <trkpt lat="51.55705" lon="7.20297">
        <ele>91.742395</ele>
        <time>2023-04-29T10:06:36.578Z</time>
      </trkpt>
      <trkpt lat="51.557" lon="7.20276">
        <ele>91.924799</ele>
        <time>2023-04-29T10:06:39.574Z</time>
      </trkpt>
      <trkpt lat="51.55695" lon="7.20257">
        <ele>92.089657</ele>
        <time>2023-04-29T10:06:42.582Z</time>
      </trkpt>
      <trkpt lat="51.55691" lon="7.20242">
        <ele>92.213976</ele>
        <time>2023-04-29T10:06:44.589Z</time>
      </trkpt>
      <trkpt lat="51.55686" lon="7.20224">
        <ele>92.376132</ele>
        <time>2023-04-29T10:06:47.579Z</time>
      </trkpt>
      <trkpt lat="51.55682" lon="7.20205">
        <ele>92.538817</ele>
        <time>2023-04-29T10:06:50.581Z</time>
      </trkpt>
      <trkpt lat="51.55677" lon="7.20186">
        <ele>92.701014</ele>
        <time>2023-04-29T10:06:53.595Z</time>
      </trkpt>
      <trkpt lat="51.55672" lon="7.20165">
        <ele>92.876316</ele>
        <time>2023-04-29T10:06:56.575Z</time>
      </trkpt>
      <trkpt lat="51.55668" lon="7.20152">
        <ele>92.993479</ele>
        <time>2023-04-29T10:06:58.593Z</time>
      </trkpt>
      <trkpt lat="51.55664" lon="7.20132">
        <ele>93.163082</ele>
        <time>2023-04-29T10:07:01.562Z</time>
      </trkpt>
      <trkpt lat="51.55658" lon="7.20113">
        <ele>93.328317</ele>
        <time>2023-04-29T10:07:04.585Z</time>
      </trkpt>
      <trkpt lat="51.55654" lon="7.20094">
        <ele>93.493528</ele>
        <time>2023-04-29T10:07:07.576Z</time>
      </trkpt>
      <trkpt lat="51.5565" lon="7.20074">
        <ele>93.55223</ele>
        <time>2023-04-29T10:07:10.596Z</time>
      </trkpt>
      <trkpt lat="51.55645" lon="7.20055">
        <ele>93.51675</ele>
        <time>2023-04-29T10:07:13.570Z</time>
      </trkpt>
      <trkpt lat="51.55637" lon="7.20041">
        <ele>93.484137</ele>
        <time>2023-04-29T10:07:16.568Z</time>
      </trkpt>
      <trkpt lat="51.55629" lon="7.20036">
        <ele>93.459162</ele>
        <time>2023-04-29T10:07:18.575Z</time>
      </trkpt>
      <trkpt lat="51.55615" lon="7.20036">
        <ele>93.422481</ele>
        <time>2023-04-29T10:07:21.568Z</time>
      </trkpt>
      <trkpt lat="51.55606" lon="7.20037">
        <ele>93.39686</ele>
        <time>2023-04-29T10:07:23.582Z</time>
      </trkpt>
      <trkpt lat="51.55597" lon="7.20038">
        <ele>93.371903</ele>
        <time>2023-04-29T10:07:25.572Z</time>
      </trkpt>
      <trkpt lat="51.55587" lon="7.2004">
        <ele>93.346241</ele>
        <time>2023-04-29T10:07:27.600Z</time>
      </trkpt>
      <trkpt lat="51.55574" lon="7.20043">
        <ele>93.309274</ele>
        <time>2023-04-29T10:07:30.579Z</time>
      </trkpt>
      <trkpt lat="51.55562" lon="7.20046">
        <ele>93.27487</ele>
        <time>2023-04-29T10:07:33.584Z</time>
      </trkpt>
      <trkpt lat="51.55552" lon="7.20044">
        <ele>93.248178</ele>
        <time>2023-04-29T10:07:36.574Z</time>
      </trkpt>
      <trkpt lat="51.55551" lon="7.20022">
        <ele>93.209766</ele>
        <time>2023-04-29T10:07:40.580Z</time>
      </trkpt>
      <trkpt lat="51.55551" lon="7.20008">
        <ele>93.185252</ele>
        <time>2023-04-29T10:07:42.576Z</time>
      </trkpt>
      <trkpt lat="51.5555" lon="7.19986">
        <ele>93.148513</ele>
        <time>2023-04-29T10:07:45.573Z</time>
      </trkpt>
      <trkpt lat="51.55548" lon="7.19965">
        <ele>93.111682</ele>
        <time>2023-04-29T10:07:48.576Z</time>
      </trkpt>
      <trkpt lat="51.55546" lon="7.1995">
        <ele>93.086832</ele>
        <time>2023-04-29T10:07:50.590Z</time>
      </trkpt>
      <trkpt lat="51.55545" lon="7.19936">
        <ele>92.985044</ele>
        <time>2023-04-29T10:07:52.578Z</time>
      </trkpt>
      <trkpt lat="51.55545" lon="7.19921">
        <ele>92.846184</ele>
        <time>2023-04-29T10:07:54.597Z</time>
      </trkpt>
      <trkpt lat="51.55545" lon="7.19906">
        <ele>92.709946</ele>
        <time>2023-04-29T10:07:56.589Z</time>
      </trkpt>
      <trkpt lat="51.55547" lon="7.19891">
        <ele>92.569141</ele>
        <time>2023-04-29T10:07:58.577Z</time>
      </trkpt>
      <trkpt lat="51.5555" lon="7.1987">
        <ele>92.360635</ele>
        <time>2023-04-29T10:08:01.581Z</time>
      </trkpt>
      <trkpt lat="51.55553" lon="7.19854">
        <ele>92.210902</ele>
        <time>2023-04-29T10:08:03.565Z</time>
      </trkpt>
      <trkpt lat="51.55557" lon="7.19838">
        <ele>92.051848</ele>
        <time>2023-04-29T10:08:05.578Z</time>
      </trkpt>
      <trkpt lat="51.55559" lon="7.19822">
        <ele>91.894287</ele>
        <time>2023-04-29T10:08:07.556Z</time>
      </trkpt>
      <trkpt lat="51.55562" lon="7.19805">
        <ele>91.734243</ele>
        <time>2023-04-29T10:08:09.566Z</time>
      </trkpt>
      <trkpt lat="51.55564" lon="7.19788">
        <ele>91.568758</ele>
        <time>2023-04-29T10:08:11.577Z</time>
      </trkpt>
      <trkpt lat="51.55566" lon="7.19771">
        <ele>91.408743</ele>
        <time>2023-04-29T10:08:13.571Z</time>
      </trkpt>
      <trkpt lat="51.55567" lon="7.19754">
        <ele>91.249642</ele>
        <time>2023-04-29T10:08:15.578Z</time>
      </trkpt>
      <trkpt lat="51.55565" lon="7.1974">
        <ele>91.112922</ele>
        <time>2023-04-29T10:08:17.578Z</time>
      </trkpt>
      <trkpt lat="51.55562" lon="7.19725">
        <ele>90.97142</ele>
        <time>2023-04-29T10:08:19.574Z</time>
      </trkpt>
      <trkpt lat="51.55559" lon="7.1971">
        <ele>90.822782</ele>
        <time>2023-04-29T10:08:21.572Z</time>
      </trkpt>
      <trkpt lat="51.55555" lon="7.19694">
        <ele>90.666987</ele>
        <time>2023-04-29T10:08:23.600Z</time>
      </trkpt>
      <trkpt lat="51.55551" lon="7.1968">
        <ele>90.520827</ele>
        <time>2023-04-29T10:08:25.587Z</time>
      </trkpt>
      <trkpt lat="51.55547" lon="7.19664">
        <ele>90.391872</ele>
        <time>2023-04-29T10:08:27.581Z</time>
      </trkpt>
      <trkpt lat="51.55542" lon="7.19647">
        <ele>90.458411</ele>
        <time>2023-04-29T10:08:30.578Z</time>
      </trkpt>
      <trkpt lat="51.55539" lon="7.19631">
        <ele>90.516492</ele>
        <time>2023-04-29T10:08:34.570Z</time>
      </trkpt>
      <trkpt lat="51.55537" lon="7.19614">
        <ele>90.57799</ele>
        <time>2023-04-29T10:08:42.572Z</time>
      </trkpt>
      <trkpt lat="51.55535" lon="7.19596">
        <ele>90.640742</ele>
        <time>2023-04-29T10:08:45.575Z</time>
      </trkpt>
      <trkpt lat="51.55528" lon="7.19576">
        <ele>90.720999</ele>
        <time>2023-04-29T10:08:49.576Z</time>
      </trkpt>
      <trkpt lat="51.55523" lon="7.19558">
        <ele>90.790113</ele>
        <time>2023-04-29T10:08:52.576Z</time>
      </trkpt>
      <trkpt lat="51.55518" lon="7.1954">
        <ele>90.856564</ele>
        <time>2023-04-29T10:08:55.575Z</time>
      </trkpt>
      <trkpt lat="51.55515" lon="7.19523">
        <ele>90.920184</ele>
        <time>2023-04-29T10:08:58.586Z</time>
      </trkpt>
      <trkpt lat="51.55511" lon="7.19507">
        <ele>90.980979</ele>
        <time>2023-04-29T10:09:01.572Z</time>
      </trkpt>
      <trkpt lat="51.55508" lon="7.1949">
        <ele>91.042261</ele>
        <time>2023-04-29T10:09:04.574Z</time>
      </trkpt>
      <trkpt lat="51.55505" lon="7.19475">
        <ele>91.095859</ele>
        <time>2023-04-29T10:09:07.580Z</time>
      </trkpt>
      <trkpt lat="51.55502" lon="7.19461">
        <ele>91.149702</ele>
        <time>2023-04-29T10:09:10.601Z</time>
      </trkpt>
      <trkpt lat="51.55498" lon="7.19444">
        <ele>91.21337</ele>
        <time>2023-04-29T10:09:14.583Z</time>
      </trkpt>
      <trkpt lat="51.55496" lon="7.19426">
        <ele>91.275813</ele>
        <time>2023-04-29T10:09:18.577Z</time>
      </trkpt>
      <trkpt lat="51.55489" lon="7.19411">
        <ele>91.340475</ele>
        <time>2023-04-29T10:09:21.578Z</time>
      </trkpt>
      <trkpt lat="51.55484" lon="7.19393">
        <ele>91.45135</ele>
        <time>2023-04-29T10:09:24.581Z</time>
      </trkpt>
      <trkpt lat="51.55477" lon="7.19375">
        <ele>91.700328</ele>
        <time>2023-04-29T10:09:27.574Z</time>
      </trkpt>
      <trkpt lat="51.55472" lon="7.19357">
        <ele>91.92596</ele>
        <time>2023-04-29T10:09:30.584Z</time>
      </trkpt>
      <trkpt lat="51.55467" lon="7.19341">
        <ele>92.133604</ele>
        <time>2023-04-29T10:09:33.575Z</time>
      </trkpt>
      <trkpt lat="51.55463" lon="7.19325">
        <ele>92.338107</ele>
        <time>2023-04-29T10:09:36.579Z</time>
      </trkpt>
      <trkpt lat="51.55457" lon="7.19307">
        <ele>92.574483</ele>
        <time>2023-04-29T10:09:39.576Z</time>
      </trkpt>
      <trkpt lat="51.55453" lon="7.19289">
        <ele>92.792226</ele>
        <time>2023-04-29T10:09:42.577Z</time>
      </trkpt>
      <trkpt lat="51.55448" lon="7.19272">
        <ele>93.015727</ele>
        <time>2023-04-29T10:09:45.587Z</time>
      </trkpt>
      <trkpt lat="51.55443" lon="7.19257">
        <ele>93.213986</ele>
        <time>2023-04-29T10:09:48.579Z</time>
      </trkpt>
      <trkpt lat="51.55437" lon="7.19238">
        <ele>93.460306</ele>
        <time>2023-04-29T10:09:51.575Z</time>
      </trkpt>
      <trkpt lat="51.55431" lon="7.19219">
        <ele>93.704372</ele>
        <time>2023-04-29T10:09:54.576Z</time>
      </trkpt>
      <trkpt lat="51.55425" lon="7.192">
        <ele>93.955525</ele>
        <time>2023-04-29T10:09:57.561Z</time>
      </trkpt>
      <trkpt lat="51.5542" lon="7.19187">
        <ele>94.125406</ele>
        <time>2023-04-29T10:09:59.561Z</time>
      </trkpt>
      <trkpt lat="51.55416" lon="7.19174">
        <ele>94.305595</ele>
        <time>2023-04-29T10:10:01.580Z</time>
      </trkpt>
      <trkpt lat="51.55408" lon="7.19155">
        <ele>94.562394</ele>
        <time>2023-04-29T10:10:04.574Z</time>
      </trkpt>
      <trkpt lat="51.55403" lon="7.19142">
        <ele>94.74118</ele>
        <time>2023-04-29T10:10:06.582Z</time>
      </trkpt>
      <trkpt lat="51.55399" lon="7.19128">
        <ele>94.714943</ele>
        <time>2023-04-29T10:10:08.579Z</time>
      </trkpt>
      <trkpt lat="51.55395" lon="7.19114">
        <ele>94.670254</ele>
        <time>2023-04-29T10:10:10.578Z</time>
      </trkpt>
      <trkpt lat="51.5539" lon="7.191">
        <ele>94.621861</ele>
        <time>2023-04-29T10:10:12.597Z</time>
      </trkpt>
      <trkpt lat="51.55385" lon="7.19086">
        <ele>94.572457</ele>
        <time>2023-04-29T10:10:14.594Z</time>
      </trkpt>
      <trkpt lat="51.5538" lon="7.19071">
        <ele>94.519717</ele>
        <time>2023-04-29T10:10:16.574Z</time>
      </trkpt>
      <trkpt lat="51.55374" lon="7.19058">
        <ele>94.47154</ele>
        <time>2023-04-29T10:10:18.581Z</time>
      </trkpt>
      <trkpt lat="51.55369" lon="7.19044">
        <ele>94.42312</ele>
        <time>2023-04-29T10:10:20.577Z</time>
      </trkpt>
      <trkpt lat="51.55363" lon="7.19032">
        <ele>94.375437</ele>
        <time>2023-04-29T10:10:22.575Z</time>
      </trkpt>
      <trkpt lat="51.55359" lon="7.19019">
        <ele>94.329645</ele>
        <time>2023-04-29T10:10:24.587Z</time>
      </trkpt>
      <trkpt lat="51.55352" lon="7.19001">
        <ele>94.267142</ele>
        <time>2023-04-29T10:10:27.582Z</time>
      </trkpt>
      <trkpt lat="51.55345" lon="7.18984">
        <ele>94.205156</ele>
        <time>2023-04-29T10:10:30.577Z</time>
      </trkpt>
      <trkpt lat="51.55339" lon="7.18966">
        <ele>94.144922</ele>
        <time>2023-04-29T10:10:33.582Z</time>
      </trkpt>
      <trkpt lat="51.55332" lon="7.1895">
        <ele>94.083095</ele>
        <time>2023-04-29T10:10:36.590Z</time>
      </trkpt>
      <trkpt lat="51.55325" lon="7.18936">
        <ele>94.029691</ele>
        <time>2023-04-29T10:10:39.577Z</time>
      </trkpt>
      <trkpt lat="51.55321" lon="7.18922">
        <ele>93.984257</ele>
        <time>2023-04-29T10:10:42.578Z</time>
      </trkpt>
      <trkpt lat="51.55317" lon="7.18908">
        <ele>93.936256</ele>
        <time>2023-04-29T10:10:45.587Z</time>
      </trkpt>
      <trkpt lat="51.55311" lon="7.18893">
        <ele>93.883515</ele>
        <time>2023-04-29T10:10:48.575Z</time>
      </trkpt>
      <trkpt lat="51.55306" lon="7.18877">
        <ele>93.738948</ele>
        <time>2023-04-29T10:10:51.575Z</time>
      </trkpt>
      <trkpt lat="51.55302" lon="7.18863">
        <ele>93.614992</ele>
        <time>2023-04-29T10:10:53.576Z</time>
      </trkpt>
      <trkpt lat="51.55298" lon="7.18849">
        <ele>93.490589</ele>
        <time>2023-04-29T10:10:55.598Z</time>
      </trkpt>
      <trkpt lat="51.55292" lon="7.18835">
        <ele>93.353281</ele>
        <time>2023-04-29T10:10:58.572Z</time>
      </trkpt>
      <trkpt lat="51.55286" lon="7.18822">
        <ele>93.225065</ele>
        <time>2023-04-29T10:11:01.566Z</time>
      </trkpt>
      <trkpt lat="51.5528" lon="7.18804">
        <ele>93.054135</ele>
        <time>2023-04-29T10:11:04.563Z</time>
      </trkpt>
      <trkpt lat="51.55273" lon="7.18787">
        <ele>92.896323</ele>
        <time>2023-04-29T10:11:07.559Z</time>
      </trkpt>
      <trkpt lat="51.55267" lon="7.18772">
        <ele>92.741063</ele>
        <time>2023-04-29T10:11:10.562Z</time>
      </trkpt>
      <trkpt lat="51.55259" lon="7.18754">
        <ele>92.570061</ele>
        <time>2023-04-29T10:11:13.577Z</time>
      </trkpt>
      <trkpt lat="51.55254" lon="7.18742">
        <ele>92.447382</ele>
        <time>2023-04-29T10:11:15.574Z</time>
      </trkpt>
      <trkpt lat="51.55247" lon="7.18726">
        <ele>92.28777</ele>
        <time>2023-04-29T10:11:18.558Z</time>
      </trkpt>
      <trkpt lat="51.55238" lon="7.18711">
        <ele>92.118938</ele>
        <time>2023-04-29T10:11:21.591Z</time>
      </trkpt>
      <trkpt lat="51.55233" lon="7.18693">
        <ele>91.959522</ele>
        <time>2023-04-29T10:11:24.593Z</time>
      </trkpt>
      <trkpt lat="51.55227" lon="7.1868">
        <ele>91.834674</ele>
        <time>2023-04-29T10:11:27.581Z</time>
      </trkpt>
      <trkpt lat="51.55221" lon="7.18662">
        <ele>91.665005</ele>
        <time>2023-04-29T10:11:30.577Z</time>
      </trkpt>
      <trkpt lat="51.55214" lon="7.18643">
        <ele>91.427756</ele>
        <time>2023-04-29T10:11:33.577Z</time>
      </trkpt>
      <trkpt lat="51.55206" lon="7.18627">
        <ele>91.078024</ele>
        <time>2023-04-29T10:11:36.571Z</time>
      </trkpt>
      <trkpt lat="51.552" lon="7.18613">
        <ele>90.796939</ele>
        <time>2023-04-29T10:11:39.571Z</time>
      </trkpt>
      <trkpt lat="51.55195" lon="7.186">
        <ele>90.515093</ele>
        <time>2023-04-29T10:11:42.589Z</time>
      </trkpt>
      <trkpt lat="51.55189" lon="7.18586">
        <ele>90.224536</ele>
        <time>2023-04-29T10:11:45.578Z</time>
      </trkpt>
      <trkpt lat="51.55184" lon="7.18571">
        <ele>89.934982</ele>
        <time>2023-04-29T10:11:48.590Z</time>
      </trkpt>
      <trkpt lat="51.55179" lon="7.18558">
        <ele>89.680538</ele>
        <time>2023-04-29T10:11:50.569Z</time>
      </trkpt>
      <trkpt lat="51.55174" lon="7.18544">
        <ele>89.394399</ele>
        <time>2023-04-29T10:11:53.582Z</time>
      </trkpt>
      <trkpt lat="51.55168" lon="7.18529">
        <ele>89.09926</ele>
        <time>2023-04-29T10:11:56.587Z</time>
      </trkpt>
      <trkpt lat="51.55161" lon="7.18512">
        <ele>88.738282</ele>
        <time>2023-04-29T10:11:59.573Z</time>
      </trkpt>
      <trkpt lat="51.55157" lon="7.18497">
        <ele>88.456123</ele>
        <time>2023-04-29T10:12:01.569Z</time>
      </trkpt>
      <trkpt lat="51.55151" lon="7.18484">
        <ele>88.17857</ele>
        <time>2023-04-29T10:12:03.569Z</time>
      </trkpt>
      <trkpt lat="51.55145" lon="7.18465">
        <ele>87.811432</ele>
        <time>2023-04-29T10:12:06.576Z</time>
      </trkpt>
      <trkpt lat="51.5514" lon="7.18452">
        <ele>87.552801</ele>
        <time>2023-04-29T10:12:08.580Z</time>
      </trkpt>
      <trkpt lat="51.55135" lon="7.18439">
        <ele>87.294345</ele>
        <time>2023-04-29T10:12:10.581Z</time>
      </trkpt>
      <trkpt lat="51.5513" lon="7.18427">
        <ele>87.035888</ele>
        <time>2023-04-29T10:12:12.591Z</time>
      </trkpt>
      <trkpt lat="51.55122" lon="7.1841">
        <ele>86.675452</ele>
        <time>2023-04-29T10:12:15.574Z</time>
      </trkpt>
      <trkpt lat="51.55115" lon="7.18393">
        <ele>86.41867</ele>
        <time>2023-04-29T10:12:18.581Z</time>
      </trkpt>
      <trkpt lat="51.5511" lon="7.1838">
        <ele>86.263362</ele>
        <time>2023-04-29T10:12:20.574Z</time>
      </trkpt>
      <trkpt lat="51.55103" lon="7.18367">
        <ele>86.094809</ele>
        <time>2023-04-29T10:12:22.591Z</time>
      </trkpt>
      <trkpt lat="51.55098" lon="7.18353">
        <ele>85.92821</ele>
        <time>2023-04-29T10:12:24.591Z</time>
      </trkpt>
      <trkpt lat="51.55093" lon="7.18341">
        <ele>85.774666</ele>
        <time>2023-04-29T10:12:26.597Z</time>
      </trkpt>
      <trkpt lat="51.55086" lon="7.18323">
        <ele>85.558674</ele>
        <time>2023-04-29T10:12:29.572Z</time>
      </trkpt>
      <trkpt lat="51.55081" lon="7.1831">
        <ele>85.409181</ele>
        <time>2023-04-29T10:12:31.562Z</time>
      </trkpt>
      <trkpt lat="51.55077" lon="7.18296">
        <ele>85.254408</ele>
        <time>2023-04-29T10:12:33.575Z</time>
      </trkpt>
      <trkpt lat="51.55072" lon="7.18284">
        <ele>85.100015</ele>
        <time>2023-04-29T10:12:35.561Z</time>
      </trkpt>
      <trkpt lat="51.55068" lon="7.18271">
        <ele>84.947244</ele>
        <time>2023-04-29T10:12:37.574Z</time>
      </trkpt>
      <trkpt lat="51.55062" lon="7.18257">
        <ele>84.781495</ele>
        <time>2023-04-29T10:12:39.578Z</time>
      </trkpt>
      <trkpt lat="51.55057" lon="7.18243">
        <ele>84.616416</ele>
        <time>2023-04-29T10:12:41.574Z</time>
      </trkpt>
      <trkpt lat="51.55053" lon="7.18228">
        <ele>84.449982</ele>
        <time>2023-04-29T10:12:43.582Z</time>
      </trkpt>
      <trkpt lat="51.55047" lon="7.18214">
        <ele>84.282545</ele>
        <time>2023-04-29T10:12:45.557Z</time>
      </trkpt>
      <trkpt lat="51.55043" lon="7.182">
        <ele>84.117195</ele>
        <time>2023-04-29T10:12:47.579Z</time>
      </trkpt>
      <trkpt lat="51.55038" lon="7.18186">
        <ele>83.955321</ele>
        <time>2023-04-29T10:12:49.578Z</time>
      </trkpt>
      <trkpt lat="51.55034" lon="7.18171">
        <ele>83.791433</ele>
        <time>2023-04-29T10:12:51.575Z</time>
      </trkpt>
      <trkpt lat="51.5503" lon="7.18156">
        <ele>83.624583</ele>
        <time>2023-04-29T10:12:53.587Z</time>
      </trkpt>
      <trkpt lat="51.55026" lon="7.18141">
        <ele>83.775782</ele>
        <time>2023-04-29T10:12:55.581Z</time>
      </trkpt>
      <trkpt lat="51.55022" lon="7.18128">
        <ele>83.947825</ele>
        <time>2023-04-29T10:12:57.575Z</time>
      </trkpt>
      <trkpt lat="51.55018" lon="7.18112">
        <ele>84.140783</ele>
        <time>2023-04-29T10:12:59.585Z</time>
      </trkpt>
      <trkpt lat="51.55014" lon="7.18098">
        <ele>84.32582</ele>
        <time>2023-04-29T10:13:01.581Z</time>
      </trkpt>
      <trkpt lat="51.5501" lon="7.18084">
        <ele>84.496073</ele>
        <time>2023-04-29T10:13:03.573Z</time>
      </trkpt>
      <trkpt lat="51.55006" lon="7.18063">
        <ele>84.749603</ele>
        <time>2023-04-29T10:13:06.578Z</time>
      </trkpt>
      <trkpt lat="51.55004" lon="7.18049">
        <ele>84.924488</ele>
        <time>2023-04-29T10:13:08.593Z</time>
      </trkpt>
      <trkpt lat="51.55" lon="7.1803">
        <ele>85.146122</ele>
        <time>2023-04-29T10:13:11.580Z</time>
      </trkpt>
      <trkpt lat="51.54996" lon="7.18013">
        <ele>85.361962</ele>
        <time>2023-04-29T10:13:14.578Z</time>
      </trkpt>
      <trkpt lat="51.54992" lon="7.17993">
        <ele>85.596244</ele>
        <time>2023-04-29T10:13:17.582Z</time>
      </trkpt>
      <trkpt lat="51.54988" lon="7.17973">
        <ele>85.83881</ele>
        <time>2023-04-29T10:13:20.583Z</time>
      </trkpt>
      <trkpt lat="51.54986" lon="7.17959">
        <ele>86.00821</ele>
        <time>2023-04-29T10:13:22.581Z</time>
      </trkpt>
      <trkpt lat="51.54983" lon="7.17944">
        <ele>86.186947</ele>
        <time>2023-04-29T10:13:24.596Z</time>
      </trkpt>
      <trkpt lat="51.54978" lon="7.1793">
        <ele>86.369991</ele>
        <time>2023-04-29T10:13:26.577Z</time>
      </trkpt>
      <trkpt lat="51.54969" lon="7.17924">
        <ele>86.552019</ele>
        <time>2023-04-29T10:13:28.572Z</time>
      </trkpt>
      <trkpt lat="51.54959" lon="7.17925">
        <ele>86.737686</ele>
        <time>2023-04-29T10:13:31.574Z</time>
      </trkpt>
      <trkpt lat="51.54949" lon="7.17931">
        <ele>86.923773</ele>
        <time>2023-04-29T10:13:35.596Z</time>
      </trkpt>
      <trkpt lat="51.5494" lon="7.17932">
        <ele>86.940316</ele>
        <time>2023-04-29T10:13:40.575Z</time>
      </trkpt>
      <trkpt lat="51.54943" lon="7.17917">
        <ele>86.940866</ele>
        <time>2023-04-29T10:13:45.572Z</time>
      </trkpt>
      <trkpt lat="51.54951" lon="7.17908">
        <ele>86.941408</ele>
        <time>2023-04-29T10:13:50.578Z</time>
      </trkpt>
      <trkpt lat="51.54961" lon="7.17904">
        <ele>86.941945</ele>
        <time>2023-04-29T10:13:55.576Z</time>
      </trkpt>
      <trkpt lat="51.5497" lon="7.17899">
        <ele>86.942461</ele>
        <time>2023-04-29T10:14:00.585Z</time>
      </trkpt>
      <trkpt lat="51.54979" lon="7.17892">
        <ele>86.943045</ele>
        <time>2023-04-29T10:14:06.571Z</time>
      </trkpt>
      <trkpt lat="51.54989" lon="7.17886">
        <ele>86.943597</ele>
        <time>2023-04-29T10:14:10.609Z</time>
      </trkpt>
      <trkpt lat="51.54999" lon="7.17879">
        <ele>86.944237</ele>
        <time>2023-04-29T10:14:15.579Z</time>
      </trkpt>
      <trkpt lat="51.5501" lon="7.17874">
        <ele>86.944848</ele>
        <time>2023-04-29T10:14:19.575Z</time>
      </trkpt>
      <trkpt lat="51.5502" lon="7.17868">
        <ele>86.945436</ele>
        <time>2023-04-29T10:14:23.580Z</time>
      </trkpt>
      <trkpt lat="51.55029" lon="7.17862">
        <ele>86.945972</ele>
        <time>2023-04-29T10:14:26.568Z</time>
      </trkpt>
      <trkpt lat="51.55038" lon="7.17856">
        <ele>86.946526</ele>
        <time>2023-04-29T10:14:29.587Z</time>
      </trkpt>
      <trkpt lat="51.55048" lon="7.1785">
        <ele>86.947087</ele>
        <time>2023-04-29T10:14:32.591Z</time>
      </trkpt>
      <trkpt lat="51.55057" lon="7.17846">
        <ele>86.947593</ele>
        <time>2023-04-29T10:14:36.571Z</time>
      </trkpt>
      <trkpt lat="51.55054" lon="7.17861">
        <ele>86.948099</ele>
        <time>2023-04-29T10:14:45.584Z</time>
      </trkpt>
      <trkpt lat="51.55046" lon="7.17868">
        <ele>86.948612</ele>
        <time>2023-04-29T10:14:50.583Z</time>
      </trkpt>
      <trkpt lat="51.55038" lon="7.17873">
        <ele>86.949108</ele>
        <time>2023-04-29T10:14:54.587Z</time>
      </trkpt>
      <trkpt lat="51.55029" lon="7.17879">
        <ele>86.949623</ele>
        <time>2023-04-29T10:14:59.567Z</time>
      </trkpt>
      <trkpt lat="51.55019" lon="7.17878">
        <ele>87.042538</ele>
        <time>2023-04-29T10:15:04.566Z</time>
      </trkpt>
      <trkpt lat="51.55015" lon="7.17864">
        <ele>87.152934</ele>
        <time>2023-04-29T10:15:11.582Z</time>
      </trkpt>
      <trkpt lat="51.55014" lon="7.17848">
        <ele>87.271712</ele>
        <time>2023-04-29T10:15:16.573Z</time>
      </trkpt>
      <trkpt lat="51.55014" lon="7.1784">
        <ele>87.330603</ele>
        <time>2023-04-29T10:15:27.244Z</time>
      </trkpt>
      <trkpt lat="51.55015" lon="7.17824">
        <ele>87.452051</ele>
        <time>2023-04-29T10:20:22.574Z</time>
      </trkpt>
      <trkpt lat="51.5501" lon="7.17807">
        <ele>87.591013</ele>
        <time>2023-04-29T10:20:26.586Z</time>
      </trkpt>
      <trkpt lat="51.55006" lon="7.17792">
        <ele>87.709017</ele>
        <time>2023-04-29T10:20:29.579Z</time>
      </trkpt>
      <trkpt lat="51.55003" lon="7.17773">
        <ele>87.849352</ele>
        <time>2023-04-29T10:20:32.579Z</time>
      </trkpt>
      <trkpt lat="51.54999" lon="7.17754">
        <ele>88.000565</ele>
        <time>2023-04-29T10:20:35.562Z</time>
      </trkpt>
      <trkpt lat="51.54995" lon="7.17736">
        <ele>88.138947</ele>
        <time>2023-04-29T10:20:38.593Z</time>
      </trkpt>
      <trkpt lat="51.5499" lon="7.17718">
        <ele>88.285822</ele>
        <time>2023-04-29T10:20:41.576Z</time>
      </trkpt>
      <trkpt lat="51.54984" lon="7.17696">
        <ele>88.458916</ele>
        <time>2023-04-29T10:20:44.681Z</time>
      </trkpt>
      <trkpt lat="51.5498" lon="7.17681">
        <ele>88.57682</ele>
        <time>2023-04-29T10:20:46.598Z</time>
      </trkpt>
      <trkpt lat="51.54976" lon="7.17668">
        <ele>88.685039</ele>
        <time>2023-04-29T10:20:48.583Z</time>
      </trkpt>
      <trkpt lat="51.54972" lon="7.17653">
        <ele>88.802752</ele>
        <time>2023-04-29T10:20:50.584Z</time>
      </trkpt>
      <trkpt lat="51.5497" lon="7.17638">
        <ele>88.920558</ele>
        <time>2023-04-29T10:20:52.609Z</time>
      </trkpt>
      <trkpt lat="51.54968" lon="7.17623">
        <ele>89.035792</ele>
        <time>2023-04-29T10:20:54.587Z</time>
      </trkpt>
      <trkpt lat="51.54967" lon="7.17608">
        <ele>88.977535</ele>
        <time>2023-04-29T10:20:56.577Z</time>
      </trkpt>
      <trkpt lat="51.54965" lon="7.17593">
        <ele>88.818681</ele>
        <time>2023-04-29T10:20:58.591Z</time>
      </trkpt>
      <trkpt lat="51.54963" lon="7.17572">
        <ele>88.592038</ele>
        <time>2023-04-29T10:21:01.594Z</time>
      </trkpt>
      <trkpt lat="51.5496" lon="7.17556">
        <ele>88.426438</ele>
        <time>2023-04-29T10:21:03.565Z</time>
      </trkpt>
      <trkpt lat="51.54958" lon="7.17541">
        <ele>88.265296</ele>
        <time>2023-04-29T10:21:05.587Z</time>
      </trkpt>
      <trkpt lat="51.54956" lon="7.17526">
        <ele>88.100728</ele>
        <time>2023-04-29T10:21:07.560Z</time>
      </trkpt>
      <trkpt lat="51.54955" lon="7.17511">
        <ele>87.947473</ele>
        <time>2023-04-29T10:21:09.561Z</time>
      </trkpt>
      <trkpt lat="51.54952" lon="7.1749">
        <ele>87.716719</ele>
        <time>2023-04-29T10:21:12.585Z</time>
      </trkpt>
      <trkpt lat="51.5495" lon="7.17468">
        <ele>87.490449</ele>
        <time>2023-04-29T10:21:15.572Z</time>
      </trkpt>
      <trkpt lat="51.54949" lon="7.17453">
        <ele>87.328227</ele>
        <time>2023-04-29T10:21:17.572Z</time>
      </trkpt>
      <trkpt lat="51.54947" lon="7.17437">
        <ele>87.163659</ele>
        <time>2023-04-29T10:21:19.572Z</time>
      </trkpt>
      <trkpt lat="51.54945" lon="7.17423">
        <ele>87.008615</ele>
        <time>2023-04-29T10:21:21.593Z</time>
      </trkpt>
      <trkpt lat="51.54943" lon="7.17409">
        <ele>86.854921</ele>
        <time>2023-04-29T10:21:23.582Z</time>
      </trkpt>
      <trkpt lat="51.54942" lon="7.17394">
        <ele>86.697601</ele>
        <time>2023-04-29T10:21:25.575Z</time>
      </trkpt>
      <trkpt lat="51.5494" lon="7.17379">
        <ele>86.538747</ele>
        <time>2023-04-29T10:21:27.579Z</time>
      </trkpt>
      <trkpt lat="51.54939" lon="7.17364">
        <ele>86.38402</ele>
        <time>2023-04-29T10:21:29.565Z</time>
      </trkpt>
      <trkpt lat="51.54937" lon="7.17349">
        <ele>86.223616</ele>
        <time>2023-04-29T10:21:31.568Z</time>
      </trkpt>
      <trkpt lat="51.54935" lon="7.17334">
        <ele>86.059775</ele>
        <time>2023-04-29T10:21:33.587Z</time>
      </trkpt>
      <trkpt lat="51.54933" lon="7.17318">
        <ele>85.987168</ele>
        <time>2023-04-29T10:21:35.593Z</time>
      </trkpt>
      <trkpt lat="51.54931" lon="7.17303">
        <ele>85.921107</ele>
        <time>2023-04-29T10:21:37.575Z</time>
      </trkpt>
      <trkpt lat="51.54929" lon="7.17288">
        <ele>85.852938</ele>
        <time>2023-04-29T10:21:39.579Z</time>
      </trkpt>
      <trkpt lat="51.54928" lon="7.17272">
        <ele>85.782992</ele>
        <time>2023-04-29T10:21:41.589Z</time>
      </trkpt>
      <trkpt lat="51.54926" lon="7.17256">
        <ele>85.716333</ele>
        <time>2023-04-29T10:21:43.579Z</time>
      </trkpt>
      <trkpt lat="51.54924" lon="7.17241">
        <ele>85.650824</ele>
        <time>2023-04-29T10:21:45.577Z</time>
      </trkpt>
      <trkpt lat="51.54922" lon="7.17225">
        <ele>85.578726</ele>
        <time>2023-04-29T10:21:47.584Z</time>
      </trkpt>
      <trkpt lat="51.54921" lon="7.17209">
        <ele>85.510256</ele>
        <time>2023-04-29T10:21:49.571Z</time>
      </trkpt>
      <trkpt lat="51.54918" lon="7.17193">
        <ele>85.440209</ele>
        <time>2023-04-29T10:21:51.580Z</time>
      </trkpt>
      <trkpt lat="51.54916" lon="7.17177">
        <ele>85.368657</ele>
        <time>2023-04-29T10:21:53.586Z</time>
      </trkpt>
      <trkpt lat="51.54914" lon="7.17161">
        <ele>85.297681</ele>
        <time>2023-04-29T10:21:55.582Z</time>
      </trkpt>
      <trkpt lat="51.54914" lon="7.17145">
        <ele>85.229783</ele>
        <time>2023-04-29T10:21:57.567Z</time>
      </trkpt>
      <trkpt lat="51.54914" lon="7.17129">
        <ele>85.161342</ele>
        <time>2023-04-29T10:21:59.564Z</time>
      </trkpt>
      <trkpt lat="51.54916" lon="7.17114">
        <ele>85.093887</ele>
        <time>2023-04-29T10:22:01.582Z</time>
      </trkpt>
      <trkpt lat="51.54917" lon="7.17098">
        <ele>85.027712</ele>
        <time>2023-04-29T10:22:03.592Z</time>
      </trkpt>
      <trkpt lat="51.54918" lon="7.17083">
        <ele>84.960887</ele>
        <time>2023-04-29T10:22:05.586Z</time>
      </trkpt>
      <trkpt lat="51.54918" lon="7.17067">
        <ele>84.892915</ele>
        <time>2023-04-29T10:22:07.579Z</time>
      </trkpt>
      <trkpt lat="51.54917" lon="7.17052">
        <ele>84.827146</ele>
        <time>2023-04-29T10:22:09.575Z</time>
      </trkpt>
      <trkpt lat="51.54918" lon="7.17036">
        <ele>84.817096</ele>
        <time>2023-04-29T10:22:11.598Z</time>
      </trkpt>
      <trkpt lat="51.54918" lon="7.1702">
        <ele>84.829485</ele>
        <time>2023-04-29T10:22:13.584Z</time>
      </trkpt>
      <trkpt lat="51.54918" lon="7.17005">
        <ele>84.841625</ele>
        <time>2023-04-29T10:22:15.602Z</time>
      </trkpt>
      <trkpt lat="51.54918" lon="7.16989">
        <ele>84.854156</ele>
        <time>2023-04-29T10:22:17.566Z</time>
      </trkpt>
      <trkpt lat="51.54918" lon="7.16974">
        <ele>84.866299</ele>
        <time>2023-04-29T10:22:19.569Z</time>
      </trkpt>
      <trkpt lat="51.54918" lon="7.16958">
        <ele>84.878281</ele>
        <time>2023-04-29T10:22:21.581Z</time>
      </trkpt>
      <trkpt lat="51.54918" lon="7.16942">
        <ele>84.890892</ele>
        <time>2023-04-29T10:22:23.583Z</time>
      </trkpt>
      <trkpt lat="51.54918" lon="7.16926">
        <ele>84.904133</ele>
        <time>2023-04-29T10:22:25.579Z</time>
      </trkpt>
      <trkpt lat="51.54918" lon="7.16909">
        <ele>84.917142</ele>
        <time>2023-04-29T10:22:27.608Z</time>
      </trkpt>
      <trkpt lat="51.54917" lon="7.16893">
        <ele>84.929768</ele>
        <time>2023-04-29T10:22:29.580Z</time>
      </trkpt>
      <trkpt lat="51.54916" lon="7.16877">
        <ele>84.94225</ele>
        <time>2023-04-29T10:22:31.582Z</time>
      </trkpt>
      <trkpt lat="51.54914" lon="7.16861">
        <ele>84.95519</ele>
        <time>2023-04-29T10:22:33.574Z</time>
      </trkpt>
      <trkpt lat="51.54911" lon="7.16847">
        <ele>84.9668</ele>
        <time>2023-04-29T10:22:35.585Z</time>
      </trkpt>
      <trkpt lat="51.54909" lon="7.16827">
        <ele>84.982807</ele>
        <time>2023-04-29T10:22:38.592Z</time>
      </trkpt>
      <trkpt lat="51.54907" lon="7.16808">
        <ele>84.998129</ele>
        <time>2023-04-29T10:22:41.596Z</time>
      </trkpt>
      <trkpt lat="51.54906" lon="7.1679">
        <ele>85.01207</ele>
        <time>2023-04-29T10:22:44.585Z</time>
      </trkpt>
      <trkpt lat="51.54906" lon="7.16772">
        <ele>85.026441</ele>
        <time>2023-04-29T10:22:47.581Z</time>
      </trkpt>
      <trkpt lat="51.54903" lon="7.16753">
        <ele>84.993421</ele>
        <time>2023-04-29T10:22:50.582Z</time>
      </trkpt>
      <trkpt lat="51.54902" lon="7.16733">
        <ele>84.885353</ele>
        <time>2023-04-29T10:22:53.571Z</time>
      </trkpt>
      <trkpt lat="51.54899" lon="7.16716">
        <ele>84.787002</ele>
        <time>2023-04-29T10:22:56.589Z</time>
      </trkpt>
      <trkpt lat="51.54897" lon="7.16697">
        <ele>84.685412</ele>
        <time>2023-04-29T10:22:59.568Z</time>
      </trkpt>
      <trkpt lat="51.54893" lon="7.16678">
        <ele>84.577522</ele>
        <time>2023-04-29T10:23:02.586Z</time>
      </trkpt>
      <trkpt lat="51.54891" lon="7.16663">
        <ele>84.494218</ele>
        <time>2023-04-29T10:23:04.579Z</time>
      </trkpt>
      <trkpt lat="51.54888" lon="7.16647">
        <ele>84.40366</ele>
        <time>2023-04-29T10:23:06.593Z</time>
      </trkpt>
      <trkpt lat="51.54887" lon="7.16629">
        <ele>84.307442</ele>
        <time>2023-04-29T10:23:08.583Z</time>
      </trkpt>
      <trkpt lat="51.54886" lon="7.16611">
        <ele>84.207546</ele>
        <time>2023-04-29T10:23:10.576Z</time>
      </trkpt>
      <trkpt lat="51.54885" lon="7.16592">
        <ele>84.104423</ele>
        <time>2023-04-29T10:23:12.600Z</time>
      </trkpt>
      <trkpt lat="51.54883" lon="7.16573">
        <ele>84.001079</ele>
        <time>2023-04-29T10:23:14.587Z</time>
      </trkpt>
      <trkpt lat="51.54881" lon="7.16555">
        <ele>83.898688</ele>
        <time>2023-04-29T10:23:16.592Z</time>
      </trkpt>
      <trkpt lat="51.54878" lon="7.16537">
        <ele>83.79929</ele>
        <time>2023-04-29T10:23:18.575Z</time>
      </trkpt>
      <trkpt lat="51.54876" lon="7.16519">
        <ele>83.701049</ele>
        <time>2023-04-29T10:23:20.573Z</time>
      </trkpt>
      <trkpt lat="51.54875" lon="7.165">
        <ele>83.599101</ele>
        <time>2023-04-29T10:23:22.581Z</time>
      </trkpt>
      <trkpt lat="51.54873" lon="7.16483">
        <ele>83.504133</ele>
        <time>2023-04-29T10:23:24.593Z</time>
      </trkpt>
      <trkpt lat="51.54871" lon="7.16465">
        <ele>83.359921</ele>
        <time>2023-04-29T10:23:26.587Z</time>
      </trkpt>
      <trkpt lat="51.54869" lon="7.16449">
        <ele>83.198664</ele>
        <time>2023-04-29T10:23:28.579Z</time>
      </trkpt>
      <trkpt lat="51.54866" lon="7.16433">
        <ele>83.037769</ele>
        <time>2023-04-29T10:23:30.565Z</time>
      </trkpt>
      <trkpt lat="51.54864" lon="7.16417">
        <ele>82.882557</ele>
        <time>2023-04-29T10:23:32.582Z</time>
      </trkpt>
      <trkpt lat="51.54862" lon="7.16402">
        <ele>82.735709</ele>
        <time>2023-04-29T10:23:34.578Z</time>
      </trkpt>
      <trkpt lat="51.54862" lon="7.16387">
        <ele>82.588355</ele>
        <time>2023-04-29T10:23:36.585Z</time>
      </trkpt>
      <trkpt lat="51.54861" lon="7.16372">
        <ele>82.442567</ele>
        <time>2023-04-29T10:23:38.577Z</time>
      </trkpt>
      <trkpt lat="51.54861" lon="7.16357">
        <ele>82.299063</ele>
        <time>2023-04-29T10:23:40.600Z</time>
      </trkpt>
      <trkpt lat="51.54862" lon="7.16342">
        <ele>82.152815</ele>
        <time>2023-04-29T10:23:42.586Z</time>
      </trkpt>
      <trkpt lat="51.54863" lon="7.16327">
        <ele>82.005503</ele>
        <time>2023-04-29T10:23:44.598Z</time>
      </trkpt>
      <trkpt lat="51.54861" lon="7.16305">
        <ele>81.793054</ele>
        <time>2023-04-29T10:23:47.583Z</time>
      </trkpt>
      <trkpt lat="51.54859" lon="7.16284">
        <ele>81.593304</ele>
        <time>2023-04-29T10:23:50.580Z</time>
      </trkpt>
      <trkpt lat="51.54856" lon="7.16266">
        <ele>81.414482</ele>
        <time>2023-04-29T10:23:53.599Z</time>
      </trkpt>
      <trkpt lat="51.54854" lon="7.16249">
        <ele>81.247935</ele>
        <time>2023-04-29T10:23:56.585Z</time>
      </trkpt>
      <trkpt lat="51.54852" lon="7.16233">
        <ele>81.087696</ele>
        <time>2023-04-29T10:23:59.597Z</time>
      </trkpt>
      <trkpt lat="51.54852" lon="7.16218">
        <ele>80.941304</ele>
        <time>2023-04-29T10:24:02.583Z</time>
      </trkpt>
      <trkpt lat="51.5485" lon="7.16198">
        <ele>80.753645</ele>
        <time>2023-04-29T10:24:06.582Z</time>
      </trkpt>
      <trkpt lat="51.54847" lon="7.16183">
        <ele>80.65542</ele>
        <time>2023-04-29T10:24:09.579Z</time>
      </trkpt>
      <trkpt lat="51.54845" lon="7.16166">
        <ele>80.600983</ele>
        <time>2023-04-29T10:24:12.593Z</time>
      </trkpt>
      <trkpt lat="51.54842" lon="7.16147">
        <ele>80.539444</ele>
        <time>2023-04-29T10:24:15.578Z</time>
      </trkpt>
      <trkpt lat="51.54838" lon="7.16128">
        <ele>80.474983</ele>
        <time>2023-04-29T10:24:18.583Z</time>
      </trkpt>
      <trkpt lat="51.54836" lon="7.16112">
        <ele>80.420961</ele>
        <time>2023-04-29T10:24:21.582Z</time>
      </trkpt>
      <trkpt lat="51.54834" lon="7.16095">
        <ele>80.364438</ele>
        <time>2023-04-29T10:24:25.574Z</time>
      </trkpt>
      <trkpt lat="51.54833" lon="7.1608">
        <ele>80.316971</ele>
        <time>2023-04-29T10:24:29.590Z</time>
      </trkpt>
      <trkpt lat="51.54833" lon="7.16096">
        <ele>80.264862</ele>
        <time>2023-04-29T10:24:39.575Z</time>
      </trkpt>
      <trkpt lat="51.54833" lon="7.16112">
        <ele>80.214071</ele>
        <time>2023-04-29T10:24:43.575Z</time>
      </trkpt>
      <trkpt lat="51.54835" lon="7.16128">
        <ele>80.161638</ele>
        <time>2023-04-29T10:24:47.600Z</time>
      </trkpt>
      <trkpt lat="51.54838" lon="7.16146">
        <ele>80.100829</ele>
        <time>2023-04-29T10:24:51.587Z</time>
      </trkpt>
      <trkpt lat="51.5484" lon="7.16162">
        <ele>80.050276</ele>
        <time>2023-04-29T10:24:54.582Z</time>
      </trkpt>
      <trkpt lat="51.54843" lon="7.16178">
        <ele>79.996691</ele>
        <time>2023-04-29T10:24:57.568Z</time>
      </trkpt>
      <trkpt lat="51.54844" lon="7.16193">
        <ele>79.947976</ele>
        <time>2023-04-29T10:25:00.584Z</time>
      </trkpt>
      <trkpt lat="51.54847" lon="7.16211">
        <ele>79.888098</ele>
        <time>2023-04-29T10:25:04.597Z</time>
      </trkpt>
      <trkpt lat="51.54849" lon="7.16225">
        <ele>79.841085</ele>
        <time>2023-04-29T10:25:07.586Z</time>
      </trkpt>
      <trkpt lat="51.54851" lon="7.1624">
        <ele>79.793571</ele>
        <time>2023-04-29T10:25:10.566Z</time>
      </trkpt>
      <trkpt lat="51.54849" lon="7.16254">
        <ele>79.81498</ele>
        <time>2023-04-29T10:25:13.566Z</time>
      </trkpt>
      <trkpt lat="51.54838" lon="7.16265">
        <ele>80.123209</ele>
        <time>2023-04-29T10:25:16.581Z</time>
      </trkpt>
      <trkpt lat="51.54828" lon="7.16271">
        <ele>80.402715</ele>
        <time>2023-04-29T10:25:19.574Z</time>
      </trkpt>
      <trkpt lat="51.54817" lon="7.16275">
        <ele>80.67824</ele>
        <time>2023-04-29T10:25:23.595Z</time>
      </trkpt>
      <trkpt lat="51.54806" lon="7.16277">
        <ele>80.952893</ele>
        <time>2023-04-29T10:25:27.589Z</time>
      </trkpt>
      <trkpt lat="51.54795" lon="7.16282">
        <ele>81.233647</ele>
        <time>2023-04-29T10:25:31.573Z</time>
      </trkpt>
      <trkpt lat="51.54784" lon="7.16279">
        <ele>81.498899</ele>
        <time>2023-04-29T10:25:35.573Z</time>
      </trkpt>
      <trkpt lat="51.54778" lon="7.16265">
        <ele>81.769056</ele>
        <time>2023-04-29T10:25:39.575Z</time>
      </trkpt>
      <trkpt lat="51.54774" lon="7.16251">
        <ele>81.999303</ele>
        <time>2023-04-29T10:25:42.572Z</time>
      </trkpt>
      <trkpt lat="51.54773" lon="7.16235">
        <ele>82.243707</ele>
        <time>2023-04-29T10:25:45.599Z</time>
      </trkpt>
      <trkpt lat="51.54772" lon="7.16219">
        <ele>82.495256</ele>
        <time>2023-04-29T10:25:48.587Z</time>
      </trkpt>
      <trkpt lat="51.54771" lon="7.16202">
        <ele>82.756879</ele>
        <time>2023-04-29T10:25:51.572Z</time>
      </trkpt>
      <trkpt lat="51.54769" lon="7.16183">
        <ele>83.049449</ele>
        <time>2023-04-29T10:25:54.596Z</time>
      </trkpt>
      <trkpt lat="51.54768" lon="7.16163">
        <ele>83.347519</ele>
        <time>2023-04-29T10:25:57.595Z</time>
      </trkpt>
      <trkpt lat="51.54765" lon="7.16145">
        <ele>83.633072</ele>
        <time>2023-04-29T10:26:00.593Z</time>
      </trkpt>
      <trkpt lat="51.54763" lon="7.16125">
        <ele>83.948598</ele>
        <time>2023-04-29T10:26:03.596Z</time>
      </trkpt>
      <trkpt lat="51.54761" lon="7.16105">
        <ele>84.134763</ele>
        <time>2023-04-29T10:26:06.583Z</time>
      </trkpt>
      <trkpt lat="51.54762" lon="7.16089">
        <ele>83.993301</ele>
        <time>2023-04-29T10:26:09.568Z</time>
      </trkpt>
      <trkpt lat="51.54754" lon="7.16064">
        <ele>83.73226</ele>
        <time>2023-04-29T10:26:30.574Z</time>
      </trkpt>
      <trkpt lat="51.54744" lon="7.16065">
        <ele>83.599687</ele>
        <time>2023-04-29T10:26:33.565Z</time>
      </trkpt>
      <trkpt lat="51.54735" lon="7.16067">
        <ele>83.4632</ele>
        <time>2023-04-29T10:26:36.578Z</time>
      </trkpt>
      <trkpt lat="51.54726" lon="7.16071">
        <ele>83.321485</ele>
        <time>2023-04-29T10:26:39.597Z</time>
      </trkpt>
      <trkpt lat="51.54716" lon="7.16074">
        <ele>83.174307</ele>
        <time>2023-04-29T10:26:42.580Z</time>
      </trkpt>
      <trkpt lat="51.54707" lon="7.16078">
        <ele>83.03845</ele>
        <time>2023-04-29T10:26:45.585Z</time>
      </trkpt>
      <trkpt lat="51.54697" lon="7.16075">
        <ele>82.899805</ele>
        <time>2023-04-29T10:26:48.581Z</time>
      </trkpt>
      <trkpt lat="51.54687" lon="7.16067">
        <ele>82.728472</ele>
        <time>2023-04-29T10:26:51.579Z</time>
      </trkpt>
      <trkpt lat="51.54679" lon="7.16049">
        <ele>82.529066</ele>
        <time>2023-04-29T10:26:54.660Z</time>
      </trkpt>
      <trkpt lat="51.54674" lon="7.16034">
        <ele>82.378775</ele>
        <time>2023-04-29T10:26:56.585Z</time>
      </trkpt>
      <trkpt lat="51.54668" lon="7.16021">
        <ele>82.233745</ele>
        <time>2023-04-29T10:26:58.583Z</time>
      </trkpt>
      <trkpt lat="51.54658" lon="7.16014">
        <ele>82.0761</ele>
        <time>2023-04-29T10:27:00.583Z</time>
      </trkpt>
      <trkpt lat="51.54647" lon="7.16009">
        <ele>81.914561</ele>
        <time>2023-04-29T10:27:03.572Z</time>
      </trkpt>
      <trkpt lat="51.54641" lon="7.16021">
        <ele>81.775213</ele>
        <time>2023-04-29T10:27:10.570Z</time>
      </trkpt>
      <trkpt lat="51.54649" lon="7.16028">
        <ele>81.642099</ele>
        <time>2023-04-29T10:27:17.569Z</time>
      </trkpt>
      <trkpt lat="51.54646" lon="7.16012">
        <ele>81.562583</ele>
        <time>2023-04-29T10:27:23.570Z</time>
      </trkpt>
      <trkpt lat="51.54644" lon="7.15996">
        <ele>81.551267</ele>
        <time>2023-04-29T10:27:27.570Z</time>
      </trkpt>
      <trkpt lat="51.5464" lon="7.15982">
        <ele>81.541141</ele>
        <time>2023-04-29T10:27:31.566Z</time>
      </trkpt>
      <trkpt lat="51.54644" lon="7.15966">
        <ele>81.529617</ele>
        <time>2023-04-29T10:27:36.583Z</time>
      </trkpt>
      <trkpt lat="51.54644" lon="7.15952">
        <ele>81.519772</ele>
        <time>2023-04-29T10:29:41.571Z</time>
      </trkpt>
      <trkpt lat="51.54639" lon="7.15939">
        <ele>81.509927</ele>
        <time>2023-04-29T10:30:18.578Z</time>
      </trkpt>
      <trkpt lat="51.54638" lon="7.15922">
        <ele>81.498302</ele>
        <time>2023-04-29T10:30:22.583Z</time>
      </trkpt>
      <trkpt lat="51.5464" lon="7.15905">
        <ele>81.486593</ele>
        <time>2023-04-29T10:30:25.581Z</time>
      </trkpt>
      <trkpt lat="51.54641" lon="7.15889">
        <ele>81.475522</ele>
        <time>2023-04-29T10:30:28.589Z</time>
      </trkpt>
      <trkpt lat="51.54643" lon="7.15875">
        <ele>81.465519</ele>
        <time>2023-04-29T10:30:31.579Z</time>
      </trkpt>
      <trkpt lat="51.54644" lon="7.15859">
        <ele>81.454713</ele>
        <time>2023-04-29T10:30:34.574Z</time>
      </trkpt>
      <trkpt lat="51.54643" lon="7.15842">
        <ele>81.443207</ele>
        <time>2023-04-29T10:30:37.565Z</time>
      </trkpt>
      <trkpt lat="51.54641" lon="7.15827">
        <ele>81.43285</ele>
        <time>2023-04-29T10:30:40.578Z</time>
      </trkpt>
      <trkpt lat="51.54637" lon="7.15812">
        <ele>81.421899</ele>
        <time>2023-04-29T10:30:43.572Z</time>
      </trkpt>
      <trkpt lat="51.54634" lon="7.15797">
        <ele>81.410728</ele>
        <time>2023-04-29T10:30:46.573Z</time>
      </trkpt>
      <trkpt lat="51.54631" lon="7.15781">
        <ele>81.399807</ele>
        <time>2023-04-29T10:30:49.576Z</time>
      </trkpt>
      <trkpt lat="51.54629" lon="7.15763">
        <ele>81.387254</ele>
        <time>2023-04-29T10:30:52.579Z</time>
      </trkpt>
      <trkpt lat="51.54625" lon="7.15745">
        <ele>81.374531</ele>
        <time>2023-04-29T10:30:55.578Z</time>
      </trkpt>
      <trkpt lat="51.54615" lon="7.15735">
        <ele>81.326648</ele>
        <time>2023-04-29T10:30:58.577Z</time>
      </trkpt>
      <trkpt lat="51.54608" lon="7.15727">
        <ele>81.282259</ele>
        <time>2023-04-29T10:31:01.563Z</time>
      </trkpt>
      <trkpt lat="51.546" lon="7.15717">
        <ele>81.234492</ele>
        <time>2023-04-29T10:31:05.587Z</time>
      </trkpt>
      <trkpt lat="51.54602" lon="7.15702">
        <ele>81.185253</ele>
        <time>2023-04-29T10:31:12.590Z</time>
      </trkpt>
      <trkpt lat="51.54613" lon="7.15696">
        <ele>81.131603</ele>
        <time>2023-04-29T10:31:17.574Z</time>
      </trkpt>
      <trkpt lat="51.5462" lon="7.15689">
        <ele>81.087327</ele>
        <time>2023-04-29T10:31:21.587Z</time>
      </trkpt>
      <trkpt lat="51.54621" lon="7.15673">
        <ele>81.039087</ele>
        <time>2023-04-29T10:31:25.571Z</time>
      </trkpt>
      <trkpt lat="51.54621" lon="7.15658">
        <ele>80.993004</ele>
        <time>2023-04-29T10:31:30.566Z</time>
      </trkpt>
      <trkpt lat="51.54616" lon="7.15644">
        <ele>80.944575</ele>
        <time>2023-04-29T10:31:36.587Z</time>
      </trkpt>
      <trkpt lat="51.54617" lon="7.15629">
        <ele>80.899151</ele>
        <time>2023-04-29T10:31:40.576Z</time>
      </trkpt>
      <trkpt lat="51.54616" lon="7.15613">
        <ele>80.850024</ele>
        <time>2023-04-29T10:31:44.584Z</time>
      </trkpt>
      <trkpt lat="51.54616" lon="7.15595">
        <ele>80.796611</ele>
        <time>2023-04-29T10:31:48.572Z</time>
      </trkpt>
      <trkpt lat="51.54616" lon="7.15579">
        <ele>80.746849</ele>
        <time>2023-04-29T10:31:52.567Z</time>
      </trkpt>
      <trkpt lat="51.54619" lon="7.15564">
        <ele>80.697959</ele>
        <time>2023-04-29T10:31:56.592Z</time>
      </trkpt>
      <trkpt lat="51.54623" lon="7.1555">
        <ele>80.651686</ele>
        <time>2023-04-29T10:32:00.559Z</time>
      </trkpt>
      <trkpt lat="51.54627" lon="7.15535">
        <ele>80.603143</ele>
        <time>2023-04-29T10:32:04.567Z</time>
      </trkpt>
      <trkpt lat="51.5463" lon="7.15519">
        <ele>80.551502</ele>
        <time>2023-04-29T10:32:08.576Z</time>
      </trkpt>
      <trkpt lat="51.54631" lon="7.15504">
        <ele>80.506441</ele>
        <time>2023-04-29T10:32:12.571Z</time>
      </trkpt>
      <trkpt lat="51.54636" lon="7.15491">
        <ele>80.488977</ele>
        <time>2023-04-29T10:32:16.577Z</time>
      </trkpt>
      <trkpt lat="51.54642" lon="7.15477">
        <ele>80.485874</ele>
        <time>2023-04-29T10:32:20.595Z</time>
      </trkpt>
      <trkpt lat="51.54644" lon="7.1546">
        <ele>80.482583</ele>
        <time>2023-04-29T10:32:24.566Z</time>
      </trkpt>
      <trkpt lat="51.54644" lon="7.15444">
        <ele>80.479569</ele>
        <time>2023-04-29T10:32:27.560Z</time>
      </trkpt>
      <trkpt lat="51.54642" lon="7.15425">
        <ele>80.475939</ele>
        <time>2023-04-29T10:32:30.579Z</time>
      </trkpt>
      <trkpt lat="51.54639" lon="7.15409">
        <ele>80.472802</ele>
        <time>2023-04-29T10:32:32.581Z</time>
      </trkpt>
      <trkpt lat="51.54637" lon="7.15389">
        <ele>80.468896</ele>
        <time>2023-04-29T10:32:35.560Z</time>
      </trkpt>
      <trkpt lat="51.54633" lon="7.15368">
        <ele>80.464977</ele>
        <time>2023-04-29T10:32:38.583Z</time>
      </trkpt>
      <trkpt lat="51.54631" lon="7.1535">
        <ele>80.461458</ele>
        <time>2023-04-29T10:32:41.579Z</time>
      </trkpt>
      <trkpt lat="51.5463" lon="7.15332">
        <ele>80.457995</ele>
        <time>2023-04-29T10:32:44.573Z</time>
      </trkpt>
      <trkpt lat="51.54629" lon="7.15316">
        <ele>80.45504</ele>
        <time>2023-04-29T10:32:47.575Z</time>
      </trkpt>
      <trkpt lat="51.54627" lon="7.153">
        <ele>80.451852</ele>
        <time>2023-04-29T10:32:50.584Z</time>
      </trkpt>
      <trkpt lat="51.54624" lon="7.1528">
        <ele>80.447991</ele>
        <time>2023-04-29T10:32:53.565Z</time>
      </trkpt>
      <trkpt lat="51.54624" lon="7.15265">
        <ele>80.445161</ele>
        <time>2023-04-29T10:32:55.566Z</time>
      </trkpt>
      <trkpt lat="51.54624" lon="7.15248">
        <ele>80.442012</ele>
        <time>2023-04-29T10:32:57.567Z</time>
      </trkpt>
      <trkpt lat="51.54624" lon="7.15232">
        <ele>80.43896</ele>
        <time>2023-04-29T10:32:59.568Z</time>
      </trkpt>
      <trkpt lat="51.54624" lon="7.15215">
        <ele>80.368474</ele>
        <time>2023-04-29T10:33:01.555Z</time>
      </trkpt>
      <trkpt lat="51.54623" lon="7.152">
        <ele>80.091582</ele>
        <time>2023-04-29T10:33:03.577Z</time>
      </trkpt>
      <trkpt lat="51.54621" lon="7.15185">
        <ele>79.781748</ele>
        <time>2023-04-29T10:33:05.566Z</time>
      </trkpt>
      <trkpt lat="51.54619" lon="7.1517">
        <ele>79.496626</ele>
        <time>2023-04-29T10:33:07.562Z</time>
      </trkpt>
      <trkpt lat="51.54616" lon="7.15151">
        <ele>79.126716</ele>
        <time>2023-04-29T10:33:10.589Z</time>
      </trkpt>
      <trkpt lat="51.54613" lon="7.15135">
        <ele>78.807331</ele>
        <time>2023-04-29T10:33:13.581Z</time>
      </trkpt>
      <trkpt lat="51.54611" lon="7.15115">
        <ele>78.423865</ele>
        <time>2023-04-29T10:33:17.562Z</time>
      </trkpt>
      <trkpt lat="51.54609" lon="7.15096">
        <ele>78.05812</ele>
        <time>2023-04-29T10:33:20.580Z</time>
      </trkpt>
      <trkpt lat="51.54607" lon="7.1508">
        <ele>77.762725</ele>
        <time>2023-04-29T10:33:23.581Z</time>
      </trkpt>
      <trkpt lat="51.54605" lon="7.15062">
        <ele>77.399067</ele>
        <time>2023-04-29T10:33:27.582Z</time>
      </trkpt>
      <trkpt lat="51.54602" lon="7.15046">
        <ele>77.087116</ele>
        <time>2023-04-29T10:33:31.583Z</time>
      </trkpt>
      <trkpt lat="51.54602" lon="7.1503">
        <ele>76.788883</ele>
        <time>2023-04-29T10:33:35.573Z</time>
      </trkpt>
      <trkpt lat="51.54604" lon="7.15014">
        <ele>76.476019</ele>
        <time>2023-04-29T10:33:39.567Z</time>
      </trkpt>
      <trkpt lat="51.54608" lon="7.14996">
        <ele>76.105258</ele>
        <time>2023-04-29T10:33:42.594Z</time>
      </trkpt>
      <trkpt lat="51.54606" lon="7.14979">
        <ele>75.78919</ele>
        <time>2023-04-29T10:33:44.570Z</time>
      </trkpt>
      <trkpt lat="51.54603" lon="7.14964">
        <ele>75.494676</ele>
        <time>2023-04-29T10:33:46.567Z</time>
      </trkpt>
      <trkpt lat="51.54603" lon="7.14947">
        <ele>75.159949</ele>
        <time>2023-04-29T10:33:48.584Z</time>
      </trkpt>
      <trkpt lat="51.54601" lon="7.1493">
        <ele>74.960997</ele>
        <time>2023-04-29T10:33:50.569Z</time>
      </trkpt>
      <trkpt lat="51.54596" lon="7.14916">
        <ele>75.007175</ele>
        <time>2023-04-29T10:33:54.576Z</time>
      </trkpt>
      <trkpt lat="51.54593" lon="7.149">
        <ele>75.052415</ele>
        <time>2023-04-29T10:33:58.568Z</time>
      </trkpt>
      <trkpt lat="51.54589" lon="7.14885">
        <ele>75.095358</ele>
        <time>2023-04-29T10:34:02.584Z</time>
      </trkpt>
      <trkpt lat="51.54586" lon="7.14868">
        <ele>75.142276</ele>
        <time>2023-04-29T10:34:06.566Z</time>
      </trkpt>
      <trkpt lat="51.54584" lon="7.14851">
        <ele>75.189462</ele>
        <time>2023-04-29T10:34:10.567Z</time>
      </trkpt>
      <trkpt lat="51.54582" lon="7.14832">
        <ele>75.240346</ele>
        <time>2023-04-29T10:34:14.578Z</time>
      </trkpt>
      <trkpt lat="51.5458" lon="7.14815">
        <ele>75.287792</ele>
        <time>2023-04-29T10:34:18.579Z</time>
      </trkpt>
      <trkpt lat="51.54578" lon="7.14797">
        <ele>75.337353</ele>
        <time>2023-04-29T10:34:22.577Z</time>
      </trkpt>
      <trkpt lat="51.54577" lon="7.14782">
        <ele>75.378862</ele>
        <time>2023-04-29T10:34:25.586Z</time>
      </trkpt>
      <trkpt lat="51.54574" lon="7.14764">
        <ele>75.426311</ele>
        <time>2023-04-29T10:34:28.587Z</time>
      </trkpt>
      <trkpt lat="51.54571" lon="7.14745">
        <ele>75.478816</ele>
        <time>2023-04-29T10:34:31.567Z</time>
      </trkpt>
      <trkpt lat="51.54569" lon="7.14727">
        <ele>75.528299</ele>
        <time>2023-04-29T10:34:34.591Z</time>
      </trkpt>
      <trkpt lat="51.54568" lon="7.14708">
        <ele>75.581188</ele>
        <time>2023-04-29T10:34:37.568Z</time>
      </trkpt>
      <trkpt lat="51.54566" lon="7.14689">
        <ele>75.632857</ele>
        <time>2023-04-29T10:34:40.575Z</time>
      </trkpt>
      <trkpt lat="51.54564" lon="7.1467">
        <ele>75.683292</ele>
        <time>2023-04-29T10:34:43.589Z</time>
      </trkpt>
      <trkpt lat="51.54562" lon="7.14654">
        <ele>75.728807</ele>
        <time>2023-04-29T10:34:46.565Z</time>
      </trkpt>
      <trkpt lat="51.5456" lon="7.14638">
        <ele>75.776395</ele>
        <time>2023-04-29T10:34:49.575Z</time>
      </trkpt>
      <trkpt lat="51.54559" lon="7.14621">
        <ele>75.82792</ele>
        <time>2023-04-29T10:34:52.577Z</time>
      </trkpt>
      <trkpt lat="51.54557" lon="7.14605">
        <ele>75.87569</ele>
        <time>2023-04-29T10:34:55.565Z</time>
      </trkpt>
      <trkpt lat="51.54557" lon="7.14588">
        <ele>75.92636</ele>
        <time>2023-04-29T10:34:58.579Z</time>
      </trkpt>
      <trkpt lat="51.54561" lon="7.14569">
        <ele>75.986783</ele>
        <time>2023-04-29T10:35:01.566Z</time>
      </trkpt>
      <trkpt lat="51.54561" lon="7.14551">
        <ele>76.039817</ele>
        <time>2023-04-29T10:35:05.569Z</time>
      </trkpt>
      <trkpt lat="51.54557" lon="7.14519">
        <ele>76.136149</ele>
        <time>2023-04-29T10:35:27.584Z</time>
      </trkpt>
      <trkpt lat="51.54552" lon="7.14506">
        <ele>76.182203</ele>
        <time>2023-04-29T10:35:30.568Z</time>
      </trkpt>
      <trkpt lat="51.5455" lon="7.14487">
        <ele>76.237416</ele>
        <time>2023-04-29T10:35:34.565Z</time>
      </trkpt>
      <trkpt lat="51.54549" lon="7.14472">
        <ele>76.283381</ele>
        <time>2023-04-29T10:35:37.572Z</time>
      </trkpt>
      <trkpt lat="51.54545" lon="7.14454">
        <ele>76.338265</ele>
        <time>2023-04-29T10:35:41.563Z</time>
      </trkpt>
      <trkpt lat="51.54543" lon="7.14436">
        <ele>76.392617</ele>
        <time>2023-04-29T10:35:45.574Z</time>
      </trkpt>
      <trkpt lat="51.5454" lon="7.14422">
        <ele>76.43848</ele>
        <time>2023-04-29T10:35:48.573Z</time>
      </trkpt>
      <trkpt lat="51.54535" lon="7.14403">
        <ele>76.496161</ele>
        <time>2023-04-29T10:35:51.577Z</time>
      </trkpt>
      <trkpt lat="51.5453" lon="7.14387">
        <ele>76.551547</ele>
        <time>2023-04-29T10:35:54.567Z</time>
      </trkpt>
      <trkpt lat="51.54525" lon="7.14368">
        <ele>76.644895</ele>
        <time>2023-04-29T10:35:57.578Z</time>
      </trkpt>
      <trkpt lat="51.5452" lon="7.1435">
        <ele>76.769729</ele>
        <time>2023-04-29T10:36:00.571Z</time>
      </trkpt>
      <trkpt lat="51.54515" lon="7.14332">
        <ele>76.893584</ele>
        <time>2023-04-29T10:36:03.568Z</time>
      </trkpt>
      <trkpt lat="51.54513" lon="7.14315">
        <ele>77.010438</ele>
        <time>2023-04-29T10:36:06.571Z</time>
      </trkpt>
      <trkpt lat="51.54511" lon="7.14299">
        <ele>77.113296</ele>
        <time>2023-04-29T10:36:09.576Z</time>
      </trkpt>
      <trkpt lat="51.54509" lon="7.14282">
        <ele>77.22216</ele>
        <time>2023-04-29T10:36:12.578Z</time>
      </trkpt>
      <trkpt lat="51.54507" lon="7.14264">
        <ele>77.336774</ele>
        <time>2023-04-29T10:36:15.572Z</time>
      </trkpt>
      <trkpt lat="51.54504" lon="7.14245">
        <ele>77.462286</ele>
        <time>2023-04-29T10:36:18.579Z</time>
      </trkpt>
      <trkpt lat="51.54502" lon="7.14226">
        <ele>77.584038</ele>
        <time>2023-04-29T10:36:21.576Z</time>
      </trkpt>
      <trkpt lat="51.54501" lon="7.14207">
        <ele>77.704174</ele>
        <time>2023-04-29T10:36:24.584Z</time>
      </trkpt>
      <trkpt lat="51.54499" lon="7.14188">
        <ele>77.828864</ele>
        <time>2023-04-29T10:36:27.569Z</time>
      </trkpt>
      <trkpt lat="51.54497" lon="7.1417">
        <ele>77.945524</ele>
        <time>2023-04-29T10:36:30.577Z</time>
      </trkpt>
      <trkpt lat="51.54496" lon="7.14151">
        <ele>78.066798</ele>
        <time>2023-04-29T10:36:33.563Z</time>
      </trkpt>
      <trkpt lat="51.54495" lon="7.14132">
        <ele>78.188345</ele>
        <time>2023-04-29T10:36:36.577Z</time>
      </trkpt>
      <trkpt lat="51.54493" lon="7.14112">
        <ele>78.313398</ele>
        <time>2023-04-29T10:36:39.572Z</time>
      </trkpt>
      <trkpt lat="51.54492" lon="7.14094">
        <ele>78.415295</ele>
        <time>2023-04-29T10:36:42.590Z</time>
      </trkpt>
      <trkpt lat="51.54492" lon="7.14075">
        <ele>78.27728</ele>
        <time>2023-04-29T10:36:45.581Z</time>
      </trkpt>
      <trkpt lat="51.54491" lon="7.14057">
        <ele>78.141943</ele>
        <time>2023-04-29T10:36:48.575Z</time>
      </trkpt>
      <trkpt lat="51.54489" lon="7.1404">
        <ele>78.014296</ele>
        <time>2023-04-29T10:36:51.569Z</time>
      </trkpt>
      <trkpt lat="51.54488" lon="7.14024">
        <ele>77.896262</ele>
        <time>2023-04-29T10:36:54.583Z</time>
      </trkpt>
      <trkpt lat="51.54488" lon="7.14005">
        <ele>77.761182</ele>
        <time>2023-04-29T10:36:57.573Z</time>
      </trkpt>
      <trkpt lat="51.54488" lon="7.1399">
        <ele>77.648878</ele>
        <time>2023-04-29T10:37:00.576Z</time>
      </trkpt>
      <trkpt lat="51.54488" lon="7.13973">
        <ele>77.519605</ele>
        <time>2023-04-29T10:37:04.571Z</time>
      </trkpt>
      <trkpt lat="51.54487" lon="7.13955">
        <ele>77.387877</ele>
        <time>2023-04-29T10:37:08.583Z</time>
      </trkpt>
      <trkpt lat="51.54487" lon="7.13935">
        <ele>77.244005</ele>
        <time>2023-04-29T10:37:12.589Z</time>
      </trkpt>
      <trkpt lat="51.54488" lon="7.1392">
        <ele>77.1312</ele>
        <time>2023-04-29T10:37:15.563Z</time>
      </trkpt>
      <trkpt lat="51.54489" lon="7.13904">
        <ele>77.015356</ele>
        <time>2023-04-29T10:37:18.580Z</time>
      </trkpt>
      <trkpt lat="51.54496" lon="7.13893">
        <ele>76.89969</ele>
        <time>2023-04-29T10:37:22.556Z</time>
      </trkpt>
      <trkpt lat="51.54492" lon="7.13878">
        <ele>76.78373</ele>
        <time>2023-04-29T10:38:07.573Z</time>
      </trkpt>
      <trkpt lat="51.54493" lon="7.1386">
        <ele>76.653636</ele>
        <time>2023-04-29T10:38:11.578Z</time>
      </trkpt>
      <trkpt lat="51.54495" lon="7.13846">
        <ele>76.547189</ele>
        <time>2023-04-29T10:38:14.583Z</time>
      </trkpt>
      <trkpt lat="51.54495" lon="7.1383">
        <ele>76.429456</ele>
        <time>2023-04-29T10:38:17.583Z</time>
      </trkpt>
      <trkpt lat="51.54495" lon="7.13813">
        <ele>76.302853</ele>
        <time>2023-04-29T10:38:20.574Z</time>
      </trkpt>
      <trkpt lat="51.5449" lon="7.13798">
        <ele>76.536028</ele>
        <time>2023-04-29T10:38:23.569Z</time>
      </trkpt>
      <trkpt lat="51.5448" lon="7.13788">
        <ele>76.82069</ele>
        <time>2023-04-29T10:38:26.567Z</time>
      </trkpt>
      <trkpt lat="51.54472" lon="7.13781">
        <ele>77.046303</ele>
        <time>2023-04-29T10:38:29.556Z</time>
      </trkpt>
      <trkpt lat="51.54462" lon="7.13772">
        <ele>77.326029</ele>
        <time>2023-04-29T10:38:33.602Z</time>
      </trkpt>
      <trkpt lat="51.54453" lon="7.13764">
        <ele>77.574156</ele>
        <time>2023-04-29T10:38:37.602Z</time>
      </trkpt>
      <trkpt lat="51.54463" lon="7.13764">
        <ele>77.821067</ele>
        <time>2023-04-29T10:38:43.566Z</time>
      </trkpt>
      <trkpt lat="51.54472" lon="7.13766">
        <ele>78.044017</ele>
        <time>2023-04-29T10:38:47.587Z</time>
      </trkpt>
      <trkpt lat="51.54482" lon="7.1377">
        <ele>78.278673</ele>
        <time>2023-04-29T10:38:51.620Z</time>
      </trkpt>
      <trkpt lat="51.54491" lon="7.13774">
        <ele>78.512529</ele>
        <time>2023-04-29T10:38:55.580Z</time>
      </trkpt>
      <trkpt lat="51.545" lon="7.13778">
        <ele>78.735199</ele>
        <time>2023-04-29T10:38:59.568Z</time>
      </trkpt>
      <trkpt lat="51.5451" lon="7.13782">
        <ele>78.977927</ele>
        <time>2023-04-29T10:39:04.564Z</time>
      </trkpt>
      <trkpt lat="51.54519" lon="7.13785">
        <ele>79.205245</ele>
        <time>2023-04-29T10:39:08.578Z</time>
      </trkpt>
      <trkpt lat="51.54529" lon="7.1379">
        <ele>79.45067</ele>
        <time>2023-04-29T10:39:12.589Z</time>
      </trkpt>
      <trkpt lat="51.54539" lon="7.13794">
        <ele>79.697682</ele>
        <time>2023-04-29T10:39:16.568Z</time>
      </trkpt>
      <trkpt lat="51.5455" lon="7.13798">
        <ele>79.968685</ele>
        <time>2023-04-29T10:39:20.660Z</time>
      </trkpt>
      <trkpt lat="51.5456" lon="7.13802">
        <ele>80.203341</ele>
        <time>2023-04-29T10:39:23.559Z</time>
      </trkpt>
      <trkpt lat="51.5457" lon="7.1381">
        <ele>80.473756</ele>
        <time>2023-04-29T10:39:26.588Z</time>
      </trkpt>
      <trkpt lat="51.54579" lon="7.13815">
        <ele>80.556183</ele>
        <time>2023-04-29T10:39:29.589Z</time>
      </trkpt>
      <trkpt lat="51.54588" lon="7.13812">
        <ele>80.416221</ele>
        <time>2023-04-29T10:39:32.585Z</time>
      </trkpt>
      <trkpt lat="51.54588" lon="7.13794">
        <ele>80.246459</ele>
        <time>2023-04-29T10:39:35.575Z</time>
      </trkpt>
      <trkpt lat="51.54587" lon="7.13777">
        <ele>80.090877</ele>
        <time>2023-04-29T10:39:38.574Z</time>
      </trkpt>
      <trkpt lat="51.54596" lon="7.13774">
        <ele>79.946535</ele>
        <time>2023-04-29T10:39:41.564Z</time>
      </trkpt>
      <trkpt lat="51.54608" lon="7.1378">
        <ele>79.75933</ele>
        <time>2023-04-29T10:39:44.585Z</time>
      </trkpt>
      <trkpt lat="51.5462" lon="7.13776">
        <ele>79.591065</ele>
        <time>2023-04-29T10:39:47.574Z</time>
      </trkpt>
      <trkpt lat="51.54629" lon="7.1377">
        <ele>79.445894</ele>
        <time>2023-04-29T10:39:50.561Z</time>
      </trkpt>
      <trkpt lat="51.54636" lon="7.13759">
        <ele>79.299276</ele>
        <time>2023-04-29T10:39:54.572Z</time>
      </trkpt>
      <trkpt lat="51.54638" lon="7.13744">
        <ele>79.152522</ele>
        <time>2023-04-29T10:39:59.568Z</time>
      </trkpt>
      <trkpt lat="51.54641" lon="7.13728">
        <ele>79.003697</ele>
        <time>2023-04-29T10:40:03.571Z</time>
      </trkpt>
      <trkpt lat="51.54643" lon="7.13712">
        <ele>78.853507</ele>
        <time>2023-04-29T10:40:08.575Z</time>
      </trkpt>
      <trkpt lat="51.54655" lon="7.13713">
        <ele>78.684442</ele>
        <time>2023-04-29T10:40:14.575Z</time>
      </trkpt>
      <trkpt lat="51.54661" lon="7.13723">
        <ele>78.547645</ele>
        <time>2023-04-29T10:40:17.574Z</time>
      </trkpt>
      <trkpt lat="51.54661" lon="7.13739">
        <ele>78.399932</ele>
        <time>2023-04-29T10:40:20.575Z</time>
      </trkpt>
      <trkpt lat="51.54663" lon="7.13756">
        <ele>78.242448</ele>
        <time>2023-04-29T10:40:23.566Z</time>
      </trkpt>
      <trkpt lat="51.54665" lon="7.13773">
        <ele>78.084333</ele>
        <time>2023-04-29T10:40:26.583Z</time>
      </trkpt>
      <trkpt lat="51.54667" lon="7.1379">
        <ele>77.96422</ele>
        <time>2023-04-29T10:40:29.576Z</time>
      </trkpt>
      <trkpt lat="51.5467" lon="7.13807">
        <ele>78.08326</ele>
        <time>2023-04-29T10:40:32.599Z</time>
      </trkpt>
      <trkpt lat="51.54674" lon="7.13823">
        <ele>78.195431</ele>
        <time>2023-04-29T10:40:35.578Z</time>
      </trkpt>
      <trkpt lat="51.54676" lon="7.13838">
        <ele>78.298417</ele>
        <time>2023-04-29T10:40:38.586Z</time>
      </trkpt>
      <trkpt lat="51.5467" lon="7.1385">
        <ele>78.40179</ele>
        <time>2023-04-29T10:40:45.563Z</time>
      </trkpt>
      <trkpt lat="51.54659" lon="7.13855">
        <ele>78.523026</ele>
        <time>2023-04-29T10:40:49.571Z</time>
      </trkpt>
      <trkpt lat="51.54648" lon="7.13859">
        <ele>78.642581</ele>
        <time>2023-04-29T10:40:53.562Z</time>
      </trkpt>
      <trkpt lat="51.54639" lon="7.13863">
        <ele>78.740082</ele>
        <time>2023-04-29T10:40:56.565Z</time>
      </trkpt>
      <trkpt lat="51.5463" lon="7.13865">
        <ele>78.845722</ele>
        <time>2023-04-29T10:40:59.562Z</time>
      </trkpt>
      <trkpt lat="51.54619" lon="7.1387">
        <ele>78.96811</ele>
        <time>2023-04-29T10:41:03.577Z</time>
      </trkpt>
      <trkpt lat="51.54609" lon="7.13873">
        <ele>79.074121</ele>
        <time>2023-04-29T10:41:06.569Z</time>
      </trkpt>
      <trkpt lat="51.54599" lon="7.13876">
        <ele>79.17698</ele>
        <time>2023-04-29T10:41:09.576Z</time>
      </trkpt>
      <trkpt lat="51.5459" lon="7.13881">
        <ele>79.283525</ele>
        <time>2023-04-29T10:41:12.573Z</time>
      </trkpt>
      <trkpt lat="51.5458" lon="7.13884">
        <ele>79.39591</ele>
        <time>2023-04-29T10:41:15.578Z</time>
      </trkpt>
      <trkpt lat="51.54571" lon="7.13888">
        <ele>79.494573</ele>
        <time>2023-04-29T10:41:18.562Z</time>
      </trkpt>
      <trkpt lat="51.54562" lon="7.13882">
        <ele>79.599555</ele>
        <time>2023-04-29T10:41:22.634Z</time>
      </trkpt>
      <trkpt lat="51.54564" lon="7.13867">
        <ele>79.703839</ele>
        <time>2023-04-29T10:41:27.590Z</time>
      </trkpt>
      <trkpt lat="51.54573" lon="7.13863">
        <ele>79.801403</ele>
        <time>2023-04-29T10:41:37.567Z</time>
      </trkpt>
      <trkpt lat="51.5458" lon="7.13859">
        <ele>79.887442</ele>
        <time>2023-04-29T10:42:40.002Z</time>
      </trkpt>
      <trkpt lat="51.5457" lon="7.13861">
        <ele>80.04496</ele>
        <time>2023-04-29T11:51:20.562Z</time>
      </trkpt>
      <trkpt lat="51.54562" lon="7.13867">
        <ele>80.197654</ele>
        <time>2023-04-29T11:51:37.576Z</time>
      </trkpt>
      <trkpt lat="51.54565" lon="7.13882">
        <ele>80.364721</ele>
        <time>2023-04-29T11:51:45.569Z</time>
      </trkpt>
      <trkpt lat="51.54575" lon="7.13884">
        <ele>80.540174</ele>
        <time>2023-04-29T11:51:51.607Z</time>
      </trkpt>
      <trkpt lat="51.54585" lon="7.1388">
        <ele>80.70749</ele>
        <time>2023-04-29T11:51:56.558Z</time>
      </trkpt>
      <trkpt lat="51.54594" lon="7.13876">
        <ele>80.864987</ele>
        <time>2023-04-29T11:52:01.555Z</time>
      </trkpt>
      <trkpt lat="51.54604" lon="7.13872">
        <ele>81.042103</ele>
        <time>2023-04-29T11:52:06.587Z</time>
      </trkpt>
      <trkpt lat="51.54613" lon="7.13869">
        <ele>81.20341</ele>
        <time>2023-04-29T11:52:10.581Z</time>
      </trkpt>
      <trkpt lat="51.54622" lon="7.13866">
        <ele>81.358336</ele>
        <time>2023-04-29T11:52:14.598Z</time>
      </trkpt>
      <trkpt lat="51.54632" lon="7.13863">
        <ele>81.525738</ele>
        <time>2023-04-29T11:52:19.578Z</time>
      </trkpt>
      <trkpt lat="51.5464" lon="7.13858">
        <ele>81.680303</ele>
        <time>2023-04-29T11:52:25.588Z</time>
      </trkpt>
      <trkpt lat="51.54649" lon="7.13854">
        <ele>81.840676</ele>
        <time>2023-04-29T11:52:31.570Z</time>
      </trkpt>
      <trkpt lat="51.54659" lon="7.1385">
        <ele>82.007992</ele>
        <time>2023-04-29T11:52:37.567Z</time>
      </trkpt>
      <trkpt lat="51.54669" lon="7.13848">
        <ele>82.182137</ele>
        <time>2023-04-29T11:52:44.578Z</time>
      </trkpt>
      <trkpt lat="51.54679" lon="7.13845">
        <ele>82.35266</ele>
        <time>2023-04-29T11:52:51.568Z</time>
      </trkpt>
      <trkpt lat="51.54688" lon="7.13841">
        <ele>82.509312</ele>
        <time>2023-04-29T11:52:56.581Z</time>
      </trkpt>
      <trkpt lat="51.54696" lon="7.1385">
        <ele>82.673565</ele>
        <time>2023-04-29T11:53:02.576Z</time>
      </trkpt>
      <trkpt lat="51.54694" lon="7.13865">
        <ele>82.833545</ele>
        <time>2023-04-29T11:53:08.574Z</time>
      </trkpt>
      <trkpt lat="51.54698" lon="7.13879">
        <ele>82.919661</ele>
        <time>2023-04-29T11:53:31.572Z</time>
      </trkpt>
      <trkpt lat="51.54702" lon="7.13862">
        <ele>82.89735</ele>
        <time>2023-04-29T11:53:37.565Z</time>
      </trkpt>
      <trkpt lat="51.54697" lon="7.13849">
        <ele>82.877566</ele>
        <time>2023-04-29T11:53:41.565Z</time>
      </trkpt>
      <trkpt lat="51.54689" lon="7.1384">
        <ele>82.858472</ele>
        <time>2023-04-29T11:53:46.577Z</time>
      </trkpt>
      <trkpt lat="51.5468" lon="7.13844">
        <ele>82.837925</ele>
        <time>2023-04-29T11:53:51.574Z</time>
      </trkpt>
      <trkpt lat="51.54673" lon="7.13833">
        <ele>82.818451</ele>
        <time>2023-04-29T11:53:56.577Z</time>
      </trkpt>
      <trkpt lat="51.54671" lon="7.13818">
        <ele>82.798093</ele>
        <time>2023-04-29T11:54:00.568Z</time>
      </trkpt>
      <trkpt lat="51.54668" lon="7.13801">
        <ele>82.776652</ele>
        <time>2023-04-29T11:54:05.587Z</time>
      </trkpt>
      <trkpt lat="51.54665" lon="7.13784">
        <ele>82.753794</ele>
        <time>2023-04-29T11:54:09.573Z</time>
      </trkpt>
      <trkpt lat="51.54662" lon="7.13767">
        <ele>82.730434</ele>
        <time>2023-04-29T11:54:13.574Z</time>
      </trkpt>
      <trkpt lat="51.5466" lon="7.13752">
        <ele>82.711127</ele>
        <time>2023-04-29T11:54:16.604Z</time>
      </trkpt>
      <trkpt lat="51.54658" lon="7.13737">
        <ele>82.691015</ele>
        <time>2023-04-29T11:54:19.573Z</time>
      </trkpt>
      <trkpt lat="51.54658" lon="7.1372">
        <ele>82.669358</ele>
        <time>2023-04-29T11:54:22.586Z</time>
      </trkpt>
      <trkpt lat="51.54649" lon="7.1371">
        <ele>82.648196</ele>
        <time>2023-04-29T11:54:25.581Z</time>
      </trkpt>
      <trkpt lat="51.5464" lon="7.13716">
        <ele>82.627809</ele>
        <time>2023-04-29T11:54:28.565Z</time>
      </trkpt>
      <trkpt lat="51.54636" lon="7.13731">
        <ele>82.608061</ele>
        <time>2023-04-29T11:54:31.597Z</time>
      </trkpt>
      <trkpt lat="51.54631" lon="7.13746">
        <ele>82.586178</ele>
        <time>2023-04-29T11:54:34.612Z</time>
      </trkpt>
      <trkpt lat="51.54627" lon="7.13761">
        <ele>82.564381</ele>
        <time>2023-04-29T11:54:37.567Z</time>
      </trkpt>
      <trkpt lat="51.5462" lon="7.13773">
        <ele>82.509387</ele>
        <time>2023-04-29T11:54:40.570Z</time>
      </trkpt>
      <trkpt lat="51.54611" lon="7.1378">
        <ele>82.433311</ele>
        <time>2023-04-29T11:54:43.567Z</time>
      </trkpt>
      <trkpt lat="51.54601" lon="7.13781">
        <ele>82.352914</ele>
        <time>2023-04-29T11:54:47.588Z</time>
      </trkpt>
      <trkpt lat="51.54591" lon="7.13774">
        <ele>82.273112</ele>
        <time>2023-04-29T11:54:51.558Z</time>
      </trkpt>
      <trkpt lat="51.54586" lon="7.13787">
        <ele>82.200536</ele>
        <time>2023-04-29T11:54:55.579Z</time>
      </trkpt>
      <trkpt lat="51.54588" lon="7.13803">
        <ele>82.120448</ele>
        <time>2023-04-29T11:54:59.586Z</time>
      </trkpt>
      <trkpt lat="51.5458" lon="7.13815">
        <ele>82.0387</ele>
        <time>2023-04-29T11:55:03.595Z</time>
      </trkpt>
      <trkpt lat="51.54569" lon="7.13811">
        <ele>81.955013</ele>
        <time>2023-04-29T11:55:07.564Z</time>
      </trkpt>
      <trkpt lat="51.54559" lon="7.13807">
        <ele>81.874281</ele>
        <time>2023-04-29T11:55:11.584Z</time>
      </trkpt>
      <trkpt lat="51.54548" lon="7.138">
        <ele>81.788501</ele>
        <time>2023-04-29T11:55:15.574Z</time>
      </trkpt>
      <trkpt lat="51.54539" lon="7.13796">
        <ele>81.717355</ele>
        <time>2023-04-29T11:55:18.579Z</time>
      </trkpt>
      <trkpt lat="51.5453" lon="7.13791">
        <ele>81.644359</ele>
        <time>2023-04-29T11:55:21.559Z</time>
      </trkpt>
      <trkpt lat="51.54518" lon="7.13786">
        <ele>81.555353</ele>
        <time>2023-04-29T11:55:25.581Z</time>
      </trkpt>
      <trkpt lat="51.54508" lon="7.13782">
        <ele>81.479511</ele>
        <time>2023-04-29T11:55:28.579Z</time>
      </trkpt>
      <trkpt lat="51.54499" lon="7.13778">
        <ele>81.404883</ele>
        <time>2023-04-29T11:55:31.571Z</time>
      </trkpt>
      <trkpt lat="51.54489" lon="7.13772">
        <ele>81.330008</ele>
        <time>2023-04-29T11:55:34.583Z</time>
      </trkpt>
      <trkpt lat="51.54477" lon="7.13766">
        <ele>81.234888</ele>
        <time>2023-04-29T11:55:37.634Z</time>
      </trkpt>
      <trkpt lat="51.54466" lon="7.13761">
        <ele>81.047004</ele>
        <time>2023-04-29T11:55:40.574Z</time>
      </trkpt>
      <trkpt lat="51.54453" lon="7.13755">
        <ele>80.774853</ele>
        <time>2023-04-29T11:55:43.584Z</time>
      </trkpt>
      <trkpt lat="51.54444" lon="7.13747">
        <ele>80.565336</ele>
        <time>2023-04-29T11:55:45.574Z</time>
      </trkpt>
      <trkpt lat="51.54434" lon="7.13738">
        <ele>80.334051</ele>
        <time>2023-04-29T11:55:47.555Z</time>
      </trkpt>
      <trkpt lat="51.54423" lon="7.13731">
        <ele>80.101283</ele>
        <time>2023-04-29T11:55:49.571Z</time>
      </trkpt>
      <trkpt lat="51.54411" lon="7.13726">
        <ele>79.857476</ele>
        <time>2023-04-29T11:55:51.569Z</time>
      </trkpt>
      <trkpt lat="51.544" lon="7.13718">
        <ele>79.617674</ele>
        <time>2023-04-29T11:55:53.572Z</time>
      </trkpt>
      <trkpt lat="51.54391" lon="7.13713">
        <ele>79.418566</ele>
        <time>2023-04-29T11:55:55.569Z</time>
      </trkpt>
      <trkpt lat="51.54387" lon="7.13696">
        <ele>79.189548</ele>
        <time>2023-04-29T11:55:58.569Z</time>
      </trkpt>
      <trkpt lat="51.54389" lon="7.13677">
        <ele>78.95039</ele>
        <time>2023-04-29T11:56:01.570Z</time>
      </trkpt>
      <trkpt lat="51.54393" lon="7.13659">
        <ele>78.704136</ele>
        <time>2023-04-29T11:56:04.571Z</time>
      </trkpt>
      <trkpt lat="51.54397" lon="7.1364">
        <ele>78.450726</ele>
        <time>2023-04-29T11:56:07.576Z</time>
      </trkpt>
      <trkpt lat="51.54403" lon="7.13619">
        <ele>78.17376</ele>
        <time>2023-04-29T11:56:10.588Z</time>
      </trkpt>
      <trkpt lat="51.54408" lon="7.136">
        <ele>77.923263</ele>
        <time>2023-04-29T11:56:13.584Z</time>
      </trkpt>
      <trkpt lat="51.54411" lon="7.13585">
        <ele>77.713406</ele>
        <time>2023-04-29T11:56:16.593Z</time>
      </trkpt>
      <trkpt lat="51.54414" lon="7.1357">
        <ele>77.584962</ele>
        <time>2023-04-29T11:56:20.592Z</time>
      </trkpt>
      <trkpt lat="51.54406" lon="7.13557">
        <ele>77.53201</ele>
        <time>2023-04-29T11:56:25.564Z</time>
      </trkpt>
      <trkpt lat="51.54397" lon="7.13553">
        <ele>77.484696</ele>
        <time>2023-04-29T11:56:28.565Z</time>
      </trkpt>
      <trkpt lat="51.54386" lon="7.13547">
        <ele>77.430391</ele>
        <time>2023-04-29T11:56:31.551Z</time>
      </trkpt>
      <trkpt lat="51.54378" lon="7.13542">
        <ele>77.387502</ele>
        <time>2023-04-29T11:56:33.557Z</time>
      </trkpt>
      <trkpt lat="51.54369" lon="7.13535">
        <ele>77.342911</ele>
        <time>2023-04-29T11:56:35.573Z</time>
      </trkpt>
      <trkpt lat="51.54359" lon="7.1353">
        <ele>77.293122</ele>
        <time>2023-04-29T11:56:37.567Z</time>
      </trkpt>
      <trkpt lat="51.5435" lon="7.13526">
        <ele>77.245354</ele>
        <time>2023-04-29T11:56:39.579Z</time>
      </trkpt>
      <trkpt lat="51.54341" lon="7.13518">
        <ele>77.197349</ele>
        <time>2023-04-29T11:56:41.566Z</time>
      </trkpt>
      <trkpt lat="51.54331" lon="7.1351">
        <ele>77.145133</ele>
        <time>2023-04-29T11:56:43.563Z</time>
      </trkpt>
      <trkpt lat="51.54321" lon="7.13503">
        <ele>77.09138</ele>
        <time>2023-04-29T11:56:45.665Z</time>
      </trkpt>
      <trkpt lat="51.5431" lon="7.13497">
        <ele>77.036629</ele>
        <time>2023-04-29T11:56:47.593Z</time>
      </trkpt>
      <trkpt lat="51.54299" lon="7.13491">
        <ele>76.979868</ele>
        <time>2023-04-29T11:56:49.577Z</time>
      </trkpt>
      <trkpt lat="51.54289" lon="7.13485">
        <ele>76.928557</ele>
        <time>2023-04-29T11:56:51.576Z</time>
      </trkpt>
      <trkpt lat="51.54279" lon="7.13479">
        <ele>76.87935</ele>
        <time>2023-04-29T11:56:53.582Z</time>
      </trkpt>
      <trkpt lat="51.5427" lon="7.13474">
        <ele>76.834859</ele>
        <time>2023-04-29T11:56:55.597Z</time>
      </trkpt>
      <trkpt lat="51.54261" lon="7.13468">
        <ele>76.790412</ele>
        <time>2023-04-29T11:56:57.593Z</time>
      </trkpt>
      <trkpt lat="51.54253" lon="7.13463">
        <ele>76.747985</ele>
        <time>2023-04-29T11:56:59.561Z</time>
      </trkpt>
      <trkpt lat="51.54241" lon="7.13456">
        <ele>76.89878</ele>
        <time>2023-04-29T11:57:02.583Z</time>
      </trkpt>
      <trkpt lat="51.5423" lon="7.13449">
        <ele>77.028819</ele>
        <time>2023-04-29T11:57:05.567Z</time>
      </trkpt>
      <trkpt lat="51.54221" lon="7.13444">
        <ele>77.149684</ele>
        <time>2023-04-29T11:57:08.569Z</time>
      </trkpt>
      <trkpt lat="51.54209" lon="7.13435">
        <ele>77.302747</ele>
        <time>2023-04-29T11:57:11.581Z</time>
      </trkpt>
      <trkpt lat="51.54197" lon="7.13429">
        <ele>77.45391</ele>
        <time>2023-04-29T11:57:14.574Z</time>
      </trkpt>
      <trkpt lat="51.54187" lon="7.13428">
        <ele>77.567204</ele>
        <time>2023-04-29T11:57:17.569Z</time>
      </trkpt>
      <trkpt lat="51.54176" lon="7.13422">
        <ele>77.700844</ele>
        <time>2023-04-29T11:57:21.571Z</time>
      </trkpt>
      <trkpt lat="51.54174" lon="7.13406">
        <ele>77.824473</ele>
        <time>2023-04-29T11:57:24.581Z</time>
      </trkpt>
      <trkpt lat="51.54175" lon="7.13387">
        <ele>77.960227</ele>
        <time>2023-04-29T11:57:27.568Z</time>
      </trkpt>
      <trkpt lat="51.54174" lon="7.13367">
        <ele>78.105424</ele>
        <time>2023-04-29T11:57:30.580Z</time>
      </trkpt>
      <trkpt lat="51.54172" lon="7.13346">
        <ele>78.262851</ele>
        <time>2023-04-29T11:57:33.587Z</time>
      </trkpt>
      <trkpt lat="51.5417" lon="7.13325">
        <ele>78.42046</ele>
        <time>2023-04-29T11:57:36.578Z</time>
      </trkpt>
      <trkpt lat="51.5417" lon="7.1331">
        <ele>78.527501</ele>
        <time>2023-04-29T11:57:38.578Z</time>
      </trkpt>
      <trkpt lat="51.5417" lon="7.13295">
        <ele>78.63899</ele>
        <time>2023-04-29T11:57:40.565Z</time>
      </trkpt>
      <trkpt lat="51.54174" lon="7.13278">
        <ele>78.773297</ele>
        <time>2023-04-29T11:57:43.565Z</time>
      </trkpt>
      <trkpt lat="51.54179" lon="7.1326">
        <ele>78.816603</ele>
        <time>2023-04-29T11:57:46.568Z</time>
      </trkpt>
      <trkpt lat="51.54182" lon="7.13247">
        <ele>78.708821</ele>
        <time>2023-04-29T11:57:48.593Z</time>
      </trkpt>
      <trkpt lat="51.54186" lon="7.13233">
        <ele>78.599892</ele>
        <time>2023-04-29T11:57:50.582Z</time>
      </trkpt>
      <trkpt lat="51.5419" lon="7.13218">
        <ele>78.48409</ele>
        <time>2023-04-29T11:57:52.592Z</time>
      </trkpt>
      <trkpt lat="51.54193" lon="7.13202">
        <ele>78.36555</ele>
        <time>2023-04-29T11:57:54.575Z</time>
      </trkpt>
      <trkpt lat="51.54198" lon="7.13187">
        <ele>78.241104</ele>
        <time>2023-04-29T11:57:56.576Z</time>
      </trkpt>
      <trkpt lat="51.54205" lon="7.13175">
        <ele>78.12078</ele>
        <time>2023-04-29T11:57:58.562Z</time>
      </trkpt>
      <trkpt lat="51.54215" lon="7.13169">
        <ele>78.002617</ele>
        <time>2023-04-29T11:58:00.566Z</time>
      </trkpt>
      <trkpt lat="51.54228" lon="7.13162">
        <ele>77.845545</ele>
        <time>2023-04-29T11:58:03.567Z</time>
      </trkpt>
      <trkpt lat="51.54232" lon="7.13144">
        <ele>77.70216</ele>
        <time>2023-04-29T11:58:06.572Z</time>
      </trkpt>
      <trkpt lat="51.54231" lon="7.13125">
        <ele>77.566897</ele>
        <time>2023-04-29T11:58:09.571Z</time>
      </trkpt>
      <trkpt lat="51.54235" lon="7.13106">
        <ele>77.42167</ele>
        <time>2023-04-29T11:58:12.565Z</time>
      </trkpt>
      <trkpt lat="51.54238" lon="7.13087">
        <ele>77.27936</ele>
        <time>2023-04-29T11:58:15.581Z</time>
      </trkpt>
      <trkpt lat="51.54231" lon="7.13071">
        <ele>77.139631</ele>
        <time>2023-04-29T11:58:18.569Z</time>
      </trkpt>
      <trkpt lat="51.54218" lon="7.13063">
        <ele>76.985135</ele>
        <time>2023-04-29T11:58:21.571Z</time>
      </trkpt>
      <trkpt lat="51.54209" lon="7.13058">
        <ele>76.871985</ele>
        <time>2023-04-29T11:58:23.559Z</time>
      </trkpt>
      <trkpt lat="51.542" lon="7.13053">
        <ele>76.788164</ele>
        <time>2023-04-29T11:58:25.567Z</time>
      </trkpt>
      <trkpt lat="51.54191" lon="7.13046">
        <ele>76.860835</ele>
        <time>2023-04-29T11:58:27.586Z</time>
      </trkpt>
      <trkpt lat="51.54182" lon="7.1304">
        <ele>76.933127</ele>
        <time>2023-04-29T11:58:29.563Z</time>
      </trkpt>
      <trkpt lat="51.54173" lon="7.13033">
        <ele>77.004513</ele>
        <time>2023-04-29T11:58:31.567Z</time>
      </trkpt>
      <trkpt lat="51.54163" lon="7.13027">
        <ele>77.078244</ele>
        <time>2023-04-29T11:58:33.567Z</time>
      </trkpt>
      <trkpt lat="51.54154" lon="7.13022">
        <ele>77.149481</ele>
        <time>2023-04-29T11:58:35.571Z</time>
      </trkpt>
      <trkpt lat="51.54145" lon="7.13017">
        <ele>77.221369</ele>
        <time>2023-04-29T11:58:37.596Z</time>
      </trkpt>
      <trkpt lat="51.54135" lon="7.1301">
        <ele>77.296094</ele>
        <time>2023-04-29T11:58:39.567Z</time>
      </trkpt>
      <trkpt lat="51.54125" lon="7.13005">
        <ele>77.368981</ele>
        <time>2023-04-29T11:58:41.590Z</time>
      </trkpt>
      <trkpt lat="51.54118" lon="7.12995">
        <ele>77.438962</ele>
        <time>2023-04-29T11:58:43.572Z</time>
      </trkpt>
      <trkpt lat="51.54115" lon="7.12981">
        <ele>77.504123</ele>
        <time>2023-04-29T11:58:45.578Z</time>
      </trkpt>
      <trkpt lat="51.54111" lon="7.12961">
        <ele>77.601942</ele>
        <time>2023-04-29T11:58:48.569Z</time>
      </trkpt>
      <trkpt lat="51.54109" lon="7.12941">
        <ele>77.692428</ele>
        <time>2023-04-29T11:58:51.567Z</time>
      </trkpt>
      <trkpt lat="51.54106" lon="7.12921">
        <ele>77.782018</ele>
        <time>2023-04-29T11:58:54.575Z</time>
      </trkpt>
      <trkpt lat="51.54103" lon="7.12902">
        <ele>77.871748</ele>
        <time>2023-04-29T11:58:57.587Z</time>
      </trkpt>
      <trkpt lat="51.54099" lon="7.12882">
        <ele>77.962922</ele>
        <time>2023-04-29T11:59:00.568Z</time>
      </trkpt>
      <trkpt lat="51.54096" lon="7.12863">
        <ele>78.053274</ele>
        <time>2023-04-29T11:59:03.643Z</time>
      </trkpt>
      <trkpt lat="51.54093" lon="7.12845">
        <ele>78.192283</ele>
        <time>2023-04-29T11:59:06.591Z</time>
      </trkpt>
      <trkpt lat="51.5409" lon="7.12827">
        <ele>78.3451</ele>
        <time>2023-04-29T11:59:09.575Z</time>
      </trkpt>
      <trkpt lat="51.54087" lon="7.1281">
        <ele>78.49393</ele>
        <time>2023-04-29T11:59:12.580Z</time>
      </trkpt>
      <trkpt lat="51.54083" lon="7.12794">
        <ele>78.6326</ele>
        <time>2023-04-29T11:59:15.590Z</time>
      </trkpt>
      <trkpt lat="51.5408" lon="7.1278">
        <ele>78.759715</ele>
        <time>2023-04-29T11:59:18.579Z</time>
      </trkpt>
      <trkpt lat="51.54078" lon="7.12766">
        <ele>78.88308</ele>
        <time>2023-04-29T11:59:21.577Z</time>
      </trkpt>
      <trkpt lat="51.54075" lon="7.12751">
        <ele>79.013305</ele>
        <time>2023-04-29T11:59:24.574Z</time>
      </trkpt>
      <trkpt lat="51.54072" lon="7.12735">
        <ele>79.145808</ele>
        <time>2023-04-29T11:59:27.583Z</time>
      </trkpt>
      <trkpt lat="51.5407" lon="7.12721">
        <ele>79.266959</ele>
        <time>2023-04-29T11:59:30.594Z</time>
      </trkpt>
      <trkpt lat="51.54067" lon="7.12703">
        <ele>79.422939</ele>
        <time>2023-04-29T11:59:34.594Z</time>
      </trkpt>
      <trkpt lat="51.54064" lon="7.12685">
        <ele>79.581818</ele>
        <time>2023-04-29T11:59:38.573Z</time>
      </trkpt>
      <trkpt lat="51.54061" lon="7.12669">
        <ele>79.719495</ele>
        <time>2023-04-29T11:59:42.568Z</time>
      </trkpt>
      <trkpt lat="51.54057" lon="7.12655">
        <ele>79.848458</ele>
        <time>2023-04-29T11:59:47.568Z</time>
      </trkpt>
      <trkpt lat="51.5406" lon="7.1264">
        <ele>79.978978</ele>
        <time>2023-04-29T11:59:51.579Z</time>
      </trkpt>
      <trkpt lat="51.54067" lon="7.1263">
        <ele>80.111631</ele>
        <time>2023-04-29T11:59:54.567Z</time>
      </trkpt>
      <trkpt lat="51.54075" lon="7.12621">
        <ele>80.231918</ele>
        <time>2023-04-29T11:59:56.578Z</time>
      </trkpt>
      <trkpt lat="51.54085" lon="7.12608">
        <ele>80.4137</ele>
        <time>2023-04-29T11:59:59.561Z</time>
      </trkpt>
      <trkpt lat="51.54093" lon="7.12599">
        <ele>80.45428</ele>
        <time>2023-04-29T12:00:01.565Z</time>
      </trkpt>
      <trkpt lat="51.54102" lon="7.1259">
        <ele>80.374188</ele>
        <time>2023-04-29T12:00:03.569Z</time>
      </trkpt>
      <trkpt lat="51.54111" lon="7.12578">
        <ele>80.28956</ele>
        <time>2023-04-29T12:00:05.570Z</time>
      </trkpt>
      <trkpt lat="51.5412" lon="7.12565">
        <ele>80.201312</ele>
        <time>2023-04-29T12:00:07.581Z</time>
      </trkpt>
      <trkpt lat="51.54129" lon="7.12552">
        <ele>80.10796</ele>
        <time>2023-04-29T12:00:09.573Z</time>
      </trkpt>
      <trkpt lat="51.54137" lon="7.12535">
        <ele>80.012312</ele>
        <time>2023-04-29T12:00:11.583Z</time>
      </trkpt>
      <trkpt lat="51.54144" lon="7.1252">
        <ele>79.923462</ele>
        <time>2023-04-29T12:00:13.577Z</time>
      </trkpt>
      <trkpt lat="51.54149" lon="7.12503">
        <ele>79.837193</ele>
        <time>2023-04-29T12:00:15.575Z</time>
      </trkpt>
      <trkpt lat="51.54154" lon="7.12487">
        <ele>79.753402</ele>
        <time>2023-04-29T12:00:17.575Z</time>
      </trkpt>
      <trkpt lat="51.54158" lon="7.12471">
        <ele>79.670932</ele>
        <time>2023-04-29T12:00:19.583Z</time>
      </trkpt>
      <trkpt lat="51.54163" lon="7.12454">
        <ele>79.587897</ele>
        <time>2023-04-29T12:00:21.591Z</time>
      </trkpt>
      <trkpt lat="51.54167" lon="7.12438">
        <ele>79.506289</ele>
        <time>2023-04-29T12:00:23.571Z</time>
      </trkpt>
      <trkpt lat="51.5417" lon="7.12422">
        <ele>79.428004</ele>
        <time>2023-04-29T12:00:25.570Z</time>
      </trkpt>
      <trkpt lat="51.54174" lon="7.12407">
        <ele>79.351903</ele>
        <time>2023-04-29T12:00:27.572Z</time>
      </trkpt>
      <trkpt lat="51.54176" lon="7.12391">
        <ele>79.276232</ele>
        <time>2023-04-29T12:00:29.575Z</time>
      </trkpt>
      <trkpt lat="51.54178" lon="7.12376">
        <ele>79.205595</ele>
        <time>2023-04-29T12:00:31.607Z</time>
      </trkpt>
      <trkpt lat="51.54179" lon="7.12361">
        <ele>79.158801</ele>
        <time>2023-04-29T12:00:33.548Z</time>
      </trkpt>
      <trkpt lat="51.5418" lon="7.12346">
        <ele>79.275174</ele>
        <time>2023-04-29T12:00:35.587Z</time>
      </trkpt>
      <trkpt lat="51.54182" lon="7.12326">
        <ele>79.439436</ele>
        <time>2023-04-29T12:00:38.580Z</time>
      </trkpt>
      <trkpt lat="51.54186" lon="7.1231">
        <ele>79.568035</ele>
        <time>2023-04-29T12:00:41.575Z</time>
      </trkpt>
      <trkpt lat="51.54193" lon="7.12299">
        <ele>79.701867</ele>
        <time>2023-04-29T12:00:45.587Z</time>
      </trkpt>
      <trkpt lat="51.54201" lon="7.12285">
        <ele>79.840555</ele>
        <time>2023-04-29T12:00:48.580Z</time>
      </trkpt>
      <trkpt lat="51.54201" lon="7.12266">
        <ele>79.994232</ele>
        <time>2023-04-29T12:00:51.573Z</time>
      </trkpt>
      <trkpt lat="51.54199" lon="7.12246">
        <ele>80.154362</ele>
        <time>2023-04-29T12:00:54.567Z</time>
      </trkpt>
      <trkpt lat="51.542" lon="7.12224">
        <ele>80.321505</ele>
        <time>2023-04-29T12:00:57.562Z</time>
      </trkpt>
      <trkpt lat="51.54201" lon="7.1221">
        <ele>80.438009</ele>
        <time>2023-04-29T12:00:59.565Z</time>
      </trkpt>
      <trkpt lat="51.54203" lon="7.12195">
        <ele>80.557431</ele>
        <time>2023-04-29T12:01:01.565Z</time>
      </trkpt>
      <trkpt lat="51.54206" lon="7.12181">
        <ele>80.67291</ele>
        <time>2023-04-29T12:01:03.574Z</time>
      </trkpt>
      <trkpt lat="51.54209" lon="7.12167">
        <ele>80.791601</ele>
        <time>2023-04-29T12:01:05.578Z</time>
      </trkpt>
      <trkpt lat="51.54213" lon="7.12153">
        <ele>80.91001</ele>
        <time>2023-04-29T12:01:07.556Z</time>
      </trkpt>
      <trkpt lat="51.54216" lon="7.1214">
        <ele>81.024605</ele>
        <time>2023-04-29T12:01:09.567Z</time>
      </trkpt>
      <trkpt lat="51.54221" lon="7.12126">
        <ele>81.150553</ele>
        <time>2023-04-29T12:01:11.564Z</time>
      </trkpt>
      <trkpt lat="51.54228" lon="7.12114">
        <ele>81.276758</ele>
        <time>2023-04-29T12:01:13.570Z</time>
      </trkpt>
      <trkpt lat="51.54235" lon="7.12102">
        <ele>81.401773</ele>
        <time>2023-04-29T12:01:15.559Z</time>
      </trkpt>
      <trkpt lat="51.54242" lon="7.12092">
        <ele>81.501871</ele>
        <time>2023-04-29T12:01:17.560Z</time>
      </trkpt>
      <trkpt lat="51.54249" lon="7.12083">
        <ele>81.598159</ele>
        <time>2023-04-29T12:01:19.568Z</time>
      </trkpt>
      <trkpt lat="51.54256" lon="7.12073">
        <ele>81.68994</ele>
        <time>2023-04-29T12:01:21.576Z</time>
      </trkpt>
      <trkpt lat="51.54261" lon="7.12061">
        <ele>81.784428</ele>
        <time>2023-04-29T12:01:23.591Z</time>
      </trkpt>
      <trkpt lat="51.54265" lon="7.12046">
        <ele>81.880379</ele>
        <time>2023-04-29T12:01:25.557Z</time>
      </trkpt>
      <trkpt lat="51.54269" lon="7.12027">
        <ele>82.010766</ele>
        <time>2023-04-29T12:01:28.575Z</time>
      </trkpt>
      <trkpt lat="51.54271" lon="7.12012">
        <ele>82.105216</ele>
        <time>2023-04-29T12:01:31.575Z</time>
      </trkpt>
      <trkpt lat="51.54273" lon="7.11996">
        <ele>82.205972</ele>
        <time>2023-04-29T12:01:35.581Z</time>
      </trkpt>
      <trkpt lat="51.54269" lon="7.11982">
        <ele>82.302642</ele>
        <time>2023-04-29T12:01:40.568Z</time>
      </trkpt>
      <trkpt lat="51.54262" lon="7.11971">
        <ele>82.402691</ele>
        <time>2023-04-29T12:01:45.570Z</time>
      </trkpt>
      <trkpt lat="51.54256" lon="7.11959">
        <ele>82.49952</ele>
        <time>2023-04-29T12:01:49.565Z</time>
      </trkpt>
      <trkpt lat="51.54248" lon="7.11946">
        <ele>82.613604</ele>
        <time>2023-04-29T12:01:53.603Z</time>
      </trkpt>
      <trkpt lat="51.54241" lon="7.11936">
        <ele>82.709158</ele>
        <time>2023-04-29T12:01:56.574Z</time>
      </trkpt>
      <trkpt lat="51.54234" lon="7.11923">
        <ele>82.817052</ele>
        <time>2023-04-29T12:01:59.551Z</time>
      </trkpt>
      <trkpt lat="51.54227" lon="7.11908">
        <ele>82.933568</ele>
        <time>2023-04-29T12:02:02.576Z</time>
      </trkpt>
      <trkpt lat="51.54222" lon="7.1189">
        <ele>83.0557</ele>
        <time>2023-04-29T12:02:05.557Z</time>
      </trkpt>
      <trkpt lat="51.54218" lon="7.11872">
        <ele>83.17723</ele>
        <time>2023-04-29T12:02:08.570Z</time>
      </trkpt>
      <trkpt lat="51.54214" lon="7.11854">
        <ele>83.224443</ele>
        <time>2023-04-29T12:02:11.572Z</time>
      </trkpt>
      <trkpt lat="51.54212" lon="7.11835">
        <ele>83.188997</ele>
        <time>2023-04-29T12:02:14.556Z</time>
      </trkpt>
      <trkpt lat="51.54211" lon="7.11818">
        <ele>83.156664</ele>
        <time>2023-04-29T12:02:17.578Z</time>
      </trkpt>
      <trkpt lat="51.54212" lon="7.11802">
        <ele>83.126028</ele>
        <time>2023-04-29T12:02:20.577Z</time>
      </trkpt>
      <trkpt lat="51.54218" lon="7.11786">
        <ele>83.091884</ele>
        <time>2023-04-29T12:02:24.576Z</time>
      </trkpt>
      <trkpt lat="51.54221" lon="7.11773">
        <ele>83.064274</ele>
        <time>2023-04-29T12:02:27.566Z</time>
      </trkpt>
      <trkpt lat="51.54225" lon="7.11755">
        <ele>83.028666</ele>
        <time>2023-04-29T12:02:31.576Z</time>
      </trkpt>
      <trkpt lat="51.54229" lon="7.11739">
        <ele>82.996401</ele>
        <time>2023-04-29T12:02:35.582Z</time>
      </trkpt>
      <trkpt lat="51.54234" lon="7.11725">
        <ele>82.965456</ele>
        <time>2023-04-29T12:02:39.571Z</time>
      </trkpt>
      <trkpt lat="51.54246" lon="7.11725">
        <ele>82.929332</ele>
        <time>2023-04-29T12:02:43.578Z</time>
      </trkpt>
      <trkpt lat="51.54255" lon="7.1173">
        <ele>82.899975</ele>
        <time>2023-04-29T12:02:46.568Z</time>
      </trkpt>
      <trkpt lat="51.54262" lon="7.11742">
        <ele>82.868158</ele>
        <time>2023-04-29T12:02:49.563Z</time>
      </trkpt>
      <trkpt lat="51.54269" lon="7.11755">
        <ele>82.836523</ele>
        <time>2023-04-29T12:02:52.569Z</time>
      </trkpt>
      <trkpt lat="51.54276" lon="7.11768">
        <ele>82.804427</ele>
        <time>2023-04-29T12:02:55.574Z</time>
      </trkpt>
      <trkpt lat="51.54284" lon="7.11781">
        <ele>82.769365</ele>
        <time>2023-04-29T12:02:58.571Z</time>
      </trkpt>
      <trkpt lat="51.54291" lon="7.11796">
        <ele>82.735118</ele>
        <time>2023-04-29T12:03:01.556Z</time>
      </trkpt>
      <trkpt lat="51.54299" lon="7.1181">
        <ele>82.700039</ele>
        <time>2023-04-29T12:03:04.574Z</time>
      </trkpt>
      <trkpt lat="51.54309" lon="7.11818">
        <ele>82.60391</ele>
        <time>2023-04-29T12:03:07.567Z</time>
      </trkpt>
      <trkpt lat="51.54321" lon="7.11816">
        <ele>82.494087</ele>
        <time>2023-04-29T12:03:10.566Z</time>
      </trkpt>
      <trkpt lat="51.5433" lon="7.11807">
        <ele>82.395247</ele>
        <time>2023-04-29T12:03:13.563Z</time>
      </trkpt>
      <trkpt lat="51.54339" lon="7.11796">
        <ele>82.29474</ele>
        <time>2023-04-29T12:03:16.574Z</time>
      </trkpt>
      <trkpt lat="51.54348" lon="7.11783">
        <ele>82.186096</ele>
        <time>2023-04-29T12:03:19.560Z</time>
      </trkpt>
      <trkpt lat="51.54357" lon="7.1177">
        <ele>82.077752</ele>
        <time>2023-04-29T12:03:22.580Z</time>
      </trkpt>
      <trkpt lat="51.54367" lon="7.11757">
        <ele>81.966755</ele>
        <time>2023-04-29T12:03:25.566Z</time>
      </trkpt>
      <trkpt lat="51.54377" lon="7.11743">
        <ele>81.849103</ele>
        <time>2023-04-29T12:03:28.573Z</time>
      </trkpt>
      <trkpt lat="51.54387" lon="7.11729">
        <ele>81.731251</ele>
        <time>2023-04-29T12:03:31.565Z</time>
      </trkpt>
      <trkpt lat="51.54397" lon="7.11715">
        <ele>81.608063</ele>
        <time>2023-04-29T12:03:34.583Z</time>
      </trkpt>
      <trkpt lat="51.54405" lon="7.11705">
        <ele>81.519416</ele>
        <time>2023-04-29T12:03:36.577Z</time>
      </trkpt>
      <trkpt lat="51.54412" lon="7.11695">
        <ele>81.432129</ele>
        <time>2023-04-29T12:03:38.571Z</time>
      </trkpt>
      <trkpt lat="51.54423" lon="7.11682">
        <ele>81.312635</ele>
        <time>2023-04-29T12:03:41.575Z</time>
      </trkpt>
      <trkpt lat="51.54431" lon="7.11674">
        <ele>81.227673</ele>
        <time>2023-04-29T12:03:43.570Z</time>
      </trkpt>
      <trkpt lat="51.54442" lon="7.11661">
        <ele>81.105509</ele>
        <time>2023-04-29T12:03:46.571Z</time>
      </trkpt>
      <trkpt lat="51.54452" lon="7.11647">
        <ele>81.060201</ele>
        <time>2023-04-29T12:03:49.568Z</time>
      </trkpt>
      <trkpt lat="51.54463" lon="7.11634">
        <ele>81.029501</ele>
        <time>2023-04-29T12:03:52.576Z</time>
      </trkpt>
      <trkpt lat="51.54472" lon="7.11621">
        <ele>81.000743</ele>
        <time>2023-04-29T12:03:55.574Z</time>
      </trkpt>
      <trkpt lat="51.54482" lon="7.11607">
        <ele>80.971051</ele>
        <time>2023-04-29T12:03:58.588Z</time>
      </trkpt>
      <trkpt lat="51.5449" lon="7.11591">
        <ele>80.941417</ele>
        <time>2023-04-29T12:04:01.558Z</time>
      </trkpt>
      <trkpt lat="51.545" lon="7.11579">
        <ele>80.913495</ele>
        <time>2023-04-29T12:04:04.579Z</time>
      </trkpt>
      <trkpt lat="51.54511" lon="7.11569">
        <ele>80.884238</ele>
        <time>2023-04-29T12:04:07.559Z</time>
      </trkpt>
      <trkpt lat="51.54524" lon="7.11563">
        <ele>80.854115</ele>
        <time>2023-04-29T12:04:10.580Z</time>
      </trkpt>
      <trkpt lat="51.54536" lon="7.11558">
        <ele>80.825269</ele>
        <time>2023-04-29T12:04:13.583Z</time>
      </trkpt>
      <trkpt lat="51.54548" lon="7.11549">
        <ele>80.795018</ele>
        <time>2023-04-29T12:04:16.573Z</time>
      </trkpt>
      <trkpt lat="51.54556" lon="7.11542">
        <ele>80.774236</ele>
        <time>2023-04-29T12:04:18.569Z</time>
      </trkpt>
      <trkpt lat="51.54563" lon="7.11534">
        <ele>80.753582</ele>
        <time>2023-04-29T12:04:20.566Z</time>
      </trkpt>
      <trkpt lat="51.54571" lon="7.11526">
        <ele>80.732825</ele>
        <time>2023-04-29T12:04:22.655Z</time>
      </trkpt>
      <trkpt lat="51.54578" lon="7.11517">
        <ele>80.712218</ele>
        <time>2023-04-29T12:04:24.571Z</time>
      </trkpt>
      <trkpt lat="51.54588" lon="7.11503">
        <ele>80.681706</ele>
        <time>2023-04-29T12:04:27.564Z</time>
      </trkpt>
      <trkpt lat="51.54594" lon="7.11492">
        <ele>80.672956</ele>
        <time>2023-04-29T12:04:29.572Z</time>
      </trkpt>
      <trkpt lat="51.54601" lon="7.11483">
        <ele>80.672002</ele>
        <time>2023-04-29T12:04:31.569Z</time>
      </trkpt>
      <trkpt lat="51.54608" lon="7.11474">
        <ele>80.671064</ele>
        <time>2023-04-29T12:04:33.578Z</time>
      </trkpt>
      <trkpt lat="51.54618" lon="7.11459">
        <ele>80.669695</ele>
        <time>2023-04-29T12:04:36.585Z</time>
      </trkpt>
      <trkpt lat="51.54625" lon="7.11449">
        <ele>80.668741</ele>
        <time>2023-04-29T12:04:38.574Z</time>
      </trkpt>
      <trkpt lat="51.54632" lon="7.11438">
        <ele>80.667685</ele>
        <time>2023-04-29T12:04:40.573Z</time>
      </trkpt>
      <trkpt lat="51.5464" lon="7.11425">
        <ele>80.666581</ele>
        <time>2023-04-29T12:04:42.570Z</time>
      </trkpt>
      <trkpt lat="51.54647" lon="7.11413">
        <ele>80.66551</ele>
        <time>2023-04-29T12:04:44.581Z</time>
      </trkpt>
      <trkpt lat="51.54653" lon="7.11399">
        <ele>80.664428</ele>
        <time>2023-04-29T12:04:46.577Z</time>
      </trkpt>
      <trkpt lat="51.54659" lon="7.11385">
        <ele>80.66334</ele>
        <time>2023-04-29T12:04:48.566Z</time>
      </trkpt>
      <trkpt lat="51.54665" lon="7.11368">
        <ele>80.662042</ele>
        <time>2023-04-29T12:04:51.572Z</time>
      </trkpt>
      <trkpt lat="51.5467" lon="7.11356">
        <ele>80.661103</ele>
        <time>2023-04-29T12:04:54.572Z</time>
      </trkpt>
      <trkpt lat="51.54674" lon="7.11342">
        <ele>80.66012</ele>
        <time>2023-04-29T12:04:57.567Z</time>
      </trkpt>
      <trkpt lat="51.5468" lon="7.11327">
        <ele>80.65899</ele>
        <time>2023-04-29T12:05:00.576Z</time>
      </trkpt>
      <trkpt lat="51.54687" lon="7.11309">
        <ele>80.657621</ele>
        <time>2023-04-29T12:05:03.574Z</time>
      </trkpt>
      <trkpt lat="51.54694" lon="7.11295">
        <ele>80.656444</ele>
        <time>2023-04-29T12:05:05.556Z</time>
      </trkpt>
      <trkpt lat="51.547" lon="7.11279">
        <ele>80.655243</ele>
        <time>2023-04-29T12:05:07.571Z</time>
      </trkpt>
      <trkpt lat="51.54705" lon="7.11264">
        <ele>80.627778</ele>
        <time>2023-04-29T12:05:09.565Z</time>
      </trkpt>
      <trkpt lat="51.54709" lon="7.11249">
        <ele>80.59467</ele>
        <time>2023-04-29T12:05:11.562Z</time>
      </trkpt>
      <trkpt lat="51.5471" lon="7.1123">
        <ele>80.552506</ele>
        <time>2023-04-29T12:05:14.583Z</time>
      </trkpt>
      <trkpt lat="51.54709" lon="7.11213">
        <ele>80.516058</ele>
        <time>2023-04-29T12:05:17.564Z</time>
      </trkpt>
      <trkpt lat="51.54708" lon="7.11197">
        <ele>80.482083</ele>
        <time>2023-04-29T12:05:20.589Z</time>
      </trkpt>
      <trkpt lat="51.54707" lon="7.11178">
        <ele>80.441251</ele>
        <time>2023-04-29T12:05:24.583Z</time>
      </trkpt>
      <trkpt lat="51.54708" lon="7.11163">
        <ele>80.40816</ele>
        <time>2023-04-29T12:05:27.555Z</time>
      </trkpt>
      <trkpt lat="51.54709" lon="7.11142">
        <ele>80.364342</ele>
        <time>2023-04-29T12:05:30.580Z</time>
      </trkpt>
      <trkpt lat="51.54709" lon="7.11122">
        <ele>80.320004</ele>
        <time>2023-04-29T12:05:33.572Z</time>
      </trkpt>
      <trkpt lat="51.5471" lon="7.11102">
        <ele>80.277379</ele>
        <time>2023-04-29T12:05:36.578Z</time>
      </trkpt>
      <trkpt lat="51.5471" lon="7.11086">
        <ele>80.243089</ele>
        <time>2023-04-29T12:05:39.555Z</time>
      </trkpt>
      <trkpt lat="51.54711" lon="7.11069">
        <ele>80.20624</ele>
        <time>2023-04-29T12:05:42.571Z</time>
      </trkpt>
      <trkpt lat="51.54712" lon="7.11049">
        <ele>80.163538</ele>
        <time>2023-04-29T12:05:45.572Z</time>
      </trkpt>
      <trkpt lat="51.54711" lon="7.1103">
        <ele>80.123849</ele>
        <time>2023-04-29T12:05:47.563Z</time>
      </trkpt>
      <trkpt lat="51.54711" lon="7.11014">
        <ele>80.088029</ele>
        <time>2023-04-29T12:05:49.566Z</time>
      </trkpt>
      <trkpt lat="51.5471" lon="7.10998">
        <ele>80.054582</ele>
        <time>2023-04-29T12:05:51.577Z</time>
      </trkpt>
      <trkpt lat="51.5471" lon="7.10983">
        <ele>80.037736</ele>
        <time>2023-04-29T12:05:53.571Z</time>
      </trkpt>
      <trkpt lat="51.5471" lon="7.10961">
        <ele>80.045403</ele>
        <time>2023-04-29T12:05:56.560Z</time>
      </trkpt>
      <trkpt lat="51.54711" lon="7.10941">
        <ele>80.052531</ele>
        <time>2023-04-29T12:05:59.560Z</time>
      </trkpt>
      <trkpt lat="51.54711" lon="7.1092">
        <ele>80.060086</ele>
        <time>2023-04-29T12:06:02.571Z</time>
      </trkpt>
      <trkpt lat="51.54711" lon="7.10899">
        <ele>80.067533</ele>
        <time>2023-04-29T12:06:05.586Z</time>
      </trkpt>
      <trkpt lat="51.54711" lon="7.1088">
        <ele>80.074242</ele>
        <time>2023-04-29T12:06:08.579Z</time>
      </trkpt>
      <trkpt lat="51.54712" lon="7.10862">
        <ele>80.080426</ele>
        <time>2023-04-29T12:06:11.568Z</time>
      </trkpt>
      <trkpt lat="51.54712" lon="7.10842">
        <ele>80.087731</ele>
        <time>2023-04-29T12:06:14.573Z</time>
      </trkpt>
      <trkpt lat="51.54711" lon="7.10827">
        <ele>80.093024</ele>
        <time>2023-04-29T12:06:16.579Z</time>
      </trkpt>
      <trkpt lat="51.54711" lon="7.1081">
        <ele>80.098916</ele>
        <time>2023-04-29T12:06:18.564Z</time>
      </trkpt>
      <trkpt lat="51.54711" lon="7.10794">
        <ele>80.104607</ele>
        <time>2023-04-29T12:06:20.563Z</time>
      </trkpt>
      <trkpt lat="51.54711" lon="7.10779">
        <ele>80.109758</ele>
        <time>2023-04-29T12:06:22.579Z</time>
      </trkpt>
      <trkpt lat="51.54711" lon="7.10759">
        <ele>80.116889</ele>
        <time>2023-04-29T12:06:25.569Z</time>
      </trkpt>
      <trkpt lat="51.54711" lon="7.10737">
        <ele>80.124623</ele>
        <time>2023-04-29T12:06:28.572Z</time>
      </trkpt>
      <trkpt lat="51.5471" lon="7.10722">
        <ele>80.12997</ele>
        <time>2023-04-29T12:06:30.573Z</time>
      </trkpt>
      <trkpt lat="51.5471" lon="7.10701">
        <ele>80.137524</ele>
        <time>2023-04-29T12:06:33.567Z</time>
      </trkpt>
      <trkpt lat="51.54711" lon="7.10679">
        <ele>80.024309</ele>
        <time>2023-04-29T12:06:36.574Z</time>
      </trkpt>
      <trkpt lat="51.5471" lon="7.10664">
        <ele>79.942105</ele>
        <time>2023-04-29T12:06:38.552Z</time>
      </trkpt>
      <trkpt lat="51.54711" lon="7.10649">
        <ele>79.859025</ele>
        <time>2023-04-29T12:06:40.575Z</time>
      </trkpt>
      <trkpt lat="51.54711" lon="7.10632">
        <ele>79.768902</ele>
        <time>2023-04-29T12:06:42.575Z</time>
      </trkpt>
      <trkpt lat="51.54711" lon="7.10615">
        <ele>79.672795</ele>
        <time>2023-04-29T12:06:44.579Z</time>
      </trkpt>
      <trkpt lat="51.5471" lon="7.10598">
        <ele>79.58144</ele>
        <time>2023-04-29T12:06:46.574Z</time>
      </trkpt>
      <trkpt lat="51.5471" lon="7.10582">
        <ele>79.497794</ele>
        <time>2023-04-29T12:06:48.573Z</time>
      </trkpt>
      <trkpt lat="51.54712" lon="7.10566">
        <ele>79.408663</ele>
        <time>2023-04-29T12:06:50.576Z</time>
      </trkpt>
      <trkpt lat="51.54712" lon="7.10551">
        <ele>79.327754</ele>
        <time>2023-04-29T12:06:52.569Z</time>
      </trkpt>
      <trkpt lat="51.54711" lon="7.10535">
        <ele>79.239698</ele>
        <time>2023-04-29T12:06:54.569Z</time>
      </trkpt>
      <trkpt lat="51.54711" lon="7.10521">
        <ele>79.159722</ele>
        <time>2023-04-29T12:06:56.575Z</time>
      </trkpt>
      <trkpt lat="51.54712" lon="7.10497">
        <ele>79.031921</ele>
        <time>2023-04-29T12:06:58.568Z</time>
      </trkpt>
      <trkpt lat="51.54709" lon="7.10482">
        <ele>78.945863</ele>
        <time>2023-04-29T12:07:00.587Z</time>
      </trkpt>
      <trkpt lat="51.54709" lon="7.10467">
        <ele>78.862797</ele>
        <time>2023-04-29T12:07:03.575Z</time>
      </trkpt>
      <trkpt lat="51.54705" lon="7.10446">
        <ele>78.747452</ele>
        <time>2023-04-29T12:07:06.580Z</time>
      </trkpt>
      <trkpt lat="51.54703" lon="7.10432">
        <ele>78.664313</ele>
        <time>2023-04-29T12:07:08.575Z</time>
      </trkpt>
      <trkpt lat="51.54702" lon="7.10411">
        <ele>78.583302</ele>
        <time>2023-04-29T12:07:11.564Z</time>
      </trkpt>
      <trkpt lat="51.54701" lon="7.10389">
        <ele>78.685019</ele>
        <time>2023-04-29T12:07:14.578Z</time>
      </trkpt>
      <trkpt lat="51.547" lon="7.10369">
        <ele>78.782965</ele>
        <time>2023-04-29T12:07:17.583Z</time>
      </trkpt>
      <trkpt lat="51.54699" lon="7.10351">
        <ele>78.872011</ele>
        <time>2023-04-29T12:07:20.570Z</time>
      </trkpt>
      <trkpt lat="51.54698" lon="7.1033">
        <ele>78.973142</ele>
        <time>2023-04-29T12:07:23.555Z</time>
      </trkpt>
      <trkpt lat="51.54697" lon="7.10315">
        <ele>79.043114</ele>
        <time>2023-04-29T12:07:25.570Z</time>
      </trkpt>
      <trkpt lat="51.54695" lon="7.10297">
        <ele>79.133344</ele>
        <time>2023-04-29T12:07:28.576Z</time>
      </trkpt>
      <trkpt lat="51.54692" lon="7.10277">
        <ele>79.229988</ele>
        <time>2023-04-29T12:07:31.555Z</time>
      </trkpt>
      <trkpt lat="51.54691" lon="7.10258">
        <ele>79.321955</ele>
        <time>2023-04-29T12:07:34.573Z</time>
      </trkpt>
      <trkpt lat="51.54689" lon="7.10239">
        <ele>79.416609</ele>
        <time>2023-04-29T12:07:37.576Z</time>
      </trkpt>
      <trkpt lat="51.54687" lon="7.10224">
        <ele>79.487704</ele>
        <time>2023-04-29T12:07:39.559Z</time>
      </trkpt>
      <trkpt lat="51.54685" lon="7.1021">
        <ele>79.558157</ele>
        <time>2023-04-29T12:07:41.558Z</time>
      </trkpt>
      <trkpt lat="51.54682" lon="7.10189">
        <ele>79.663308</ele>
        <time>2023-04-29T12:07:44.588Z</time>
      </trkpt>
      <trkpt lat="51.5468" lon="7.10173">
        <ele>79.738792</ele>
        <time>2023-04-29T12:07:46.584Z</time>
      </trkpt>
      <trkpt lat="51.54679" lon="7.10159">
        <ele>79.809395</ele>
        <time>2023-04-29T12:07:48.576Z</time>
      </trkpt>
      <trkpt lat="51.54677" lon="7.10144">
        <ele>79.881353</ele>
        <time>2023-04-29T12:07:50.585Z</time>
      </trkpt>
      <trkpt lat="51.54675" lon="7.10123">
        <ele>80.034618</ele>
        <time>2023-04-29T12:07:53.550Z</time>
      </trkpt>
      <trkpt lat="51.54672" lon="7.10102">
        <ele>80.3606</ele>
        <time>2023-04-29T12:07:56.573Z</time>
      </trkpt>
      <trkpt lat="51.54669" lon="7.10082">
        <ele>80.69127</ele>
        <time>2023-04-29T12:07:59.554Z</time>
      </trkpt>
      <trkpt lat="51.54666" lon="7.10068">
        <ele>80.911896</ele>
        <time>2023-04-29T12:08:01.573Z</time>
      </trkpt>
      <trkpt lat="51.54662" lon="7.10048">
        <ele>81.229326</ele>
        <time>2023-04-29T12:08:04.572Z</time>
      </trkpt>
      <trkpt lat="51.54659" lon="7.10027">
        <ele>81.555835</ele>
        <time>2023-04-29T12:08:07.572Z</time>
      </trkpt>
      <trkpt lat="51.54656" lon="7.10007">
        <ele>81.873445</ele>
        <time>2023-04-29T12:08:10.576Z</time>
      </trkpt>
      <trkpt lat="51.54651" lon="7.09989">
        <ele>82.172271</ele>
        <time>2023-04-29T12:08:13.572Z</time>
      </trkpt>
      <trkpt lat="51.54647" lon="7.09969">
        <ele>82.483885</ele>
        <time>2023-04-29T12:08:16.577Z</time>
      </trkpt>
      <trkpt lat="51.54644" lon="7.09952">
        <ele>82.762714</ele>
        <time>2023-04-29T12:08:19.556Z</time>
      </trkpt>
      <trkpt lat="51.5464" lon="7.09938">
        <ele>82.99005</ele>
        <time>2023-04-29T12:08:21.564Z</time>
      </trkpt>
      <trkpt lat="51.54635" lon="7.09919">
        <ele>83.311774</ele>
        <time>2023-04-29T12:08:24.577Z</time>
      </trkpt>
      <trkpt lat="51.54631" lon="7.099">
        <ele>83.619864</ele>
        <time>2023-04-29T12:08:27.571Z</time>
      </trkpt>
      <trkpt lat="51.54626" lon="7.0988">
        <ele>83.939176</ele>
        <time>2023-04-29T12:08:30.577Z</time>
      </trkpt>
      <trkpt lat="51.54621" lon="7.09862">
        <ele>84.246744</ele>
        <time>2023-04-29T12:08:33.565Z</time>
      </trkpt>
      <trkpt lat="51.54615" lon="7.09845">
        <ele>84.3347</ele>
        <time>2023-04-29T12:08:36.589Z</time>
      </trkpt>
      <trkpt lat="51.54609" lon="7.09829">
        <ele>84.280608</ele>
        <time>2023-04-29T12:08:39.563Z</time>
      </trkpt>
      <trkpt lat="51.54602" lon="7.09815">
        <ele>84.230925</ele>
        <time>2023-04-29T12:08:42.566Z</time>
      </trkpt>
      <trkpt lat="51.54596" lon="7.09798">
        <ele>84.175861</ele>
        <time>2023-04-29T12:08:46.566Z</time>
      </trkpt>
      <trkpt lat="51.54591" lon="7.09785">
        <ele>84.131666</ele>
        <time>2023-04-29T12:08:49.571Z</time>
      </trkpt>
      <trkpt lat="51.54586" lon="7.09772">
        <ele>84.088389</ele>
        <time>2023-04-29T12:08:52.577Z</time>
      </trkpt>
      <trkpt lat="51.54582" lon="7.09758">
        <ele>84.045543</ele>
        <time>2023-04-29T12:08:56.559Z</time>
      </trkpt>
      <trkpt lat="51.54578" lon="7.09744">
        <ele>84.002885</ele>
        <time>2023-04-29T12:09:01.571Z</time>
      </trkpt>
      <trkpt lat="51.54575" lon="7.0973">
        <ele>83.958486</ele>
        <time>2023-04-29T12:09:06.575Z</time>
      </trkpt>
      <trkpt lat="51.54571" lon="7.09716">
        <ele>83.916368</ele>
        <time>2023-04-29T12:09:34.576Z</time>
      </trkpt>
      <trkpt lat="51.54567" lon="7.09699">
        <ele>83.864517</ele>
        <time>2023-04-29T12:09:39.549Z</time>
      </trkpt>
      <trkpt lat="51.54565" lon="7.09685">
        <ele>83.822378</ele>
        <time>2023-04-29T12:09:42.570Z</time>
      </trkpt>
      <trkpt lat="51.54563" lon="7.09664">
        <ele>83.762692</ele>
        <time>2023-04-29T12:09:45.558Z</time>
      </trkpt>
      <trkpt lat="51.54558" lon="7.09645">
        <ele>83.703545</ele>
        <time>2023-04-29T12:09:48.559Z</time>
      </trkpt>
      <trkpt lat="51.54557" lon="7.09627">
        <ele>83.654375</ele>
        <time>2023-04-29T12:09:50.574Z</time>
      </trkpt>
      <trkpt lat="51.54557" lon="7.09608">
        <ele>83.600313</ele>
        <time>2023-04-29T12:09:52.561Z</time>
      </trkpt>
      <trkpt lat="51.54555" lon="7.0959">
        <ele>83.548324</ele>
        <time>2023-04-29T12:09:54.618Z</time>
      </trkpt>
      <trkpt lat="51.54552" lon="7.09572">
        <ele>83.443154</ele>
        <time>2023-04-29T12:09:56.565Z</time>
      </trkpt>
      <trkpt lat="51.54547" lon="7.09554">
        <ele>83.329717</ele>
        <time>2023-04-29T12:09:58.562Z</time>
      </trkpt>
      <trkpt lat="51.54543" lon="7.09535">
        <ele>83.214984</ele>
        <time>2023-04-29T12:10:00.579Z</time>
      </trkpt>
      <trkpt lat="51.54539" lon="7.09517">
        <ele>83.10497</ele>
        <time>2023-04-29T12:10:02.587Z</time>
      </trkpt>
      <trkpt lat="51.54535" lon="7.09501">
        <ele>83.000954</ele>
        <time>2023-04-29T12:10:04.591Z</time>
      </trkpt>
      <trkpt lat="51.54532" lon="7.09483">
        <ele>82.896741</ele>
        <time>2023-04-29T12:10:06.575Z</time>
      </trkpt>
      <trkpt lat="51.54528" lon="7.09466">
        <ele>82.790379</ele>
        <time>2023-04-29T12:10:08.570Z</time>
      </trkpt>
      <trkpt lat="51.54523" lon="7.09448">
        <ele>82.677823</ele>
        <time>2023-04-29T12:10:10.577Z</time>
      </trkpt>
      <trkpt lat="51.54519" lon="7.09431">
        <ele>82.571025</ele>
        <time>2023-04-29T12:10:12.573Z</time>
      </trkpt>
      <trkpt lat="51.54516" lon="7.09414">
        <ele>82.46648</ele>
        <time>2023-04-29T12:10:14.594Z</time>
      </trkpt>
      <trkpt lat="51.54512" lon="7.09396">
        <ele>82.359783</ele>
        <time>2023-04-29T12:10:16.582Z</time>
      </trkpt>
      <trkpt lat="51.54509" lon="7.09379">
        <ele>82.259118</ele>
        <time>2023-04-29T12:10:18.571Z</time>
      </trkpt>
      <trkpt lat="51.54505" lon="7.09364">
        <ele>82.161838</ele>
        <time>2023-04-29T12:10:20.580Z</time>
      </trkpt>
      <trkpt lat="51.54502" lon="7.09348">
        <ele>82.065598</ele>
        <time>2023-04-29T12:10:22.572Z</time>
      </trkpt>
      <trkpt lat="51.54498" lon="7.09333">
        <ele>81.972324</ele>
        <time>2023-04-29T12:10:24.568Z</time>
      </trkpt>
      <trkpt lat="51.54494" lon="7.09317">
        <ele>81.878631</ele>
        <time>2023-04-29T12:10:26.567Z</time>
      </trkpt>
      <trkpt lat="51.54491" lon="7.09302">
        <ele>81.973255</ele>
        <time>2023-04-29T12:10:28.589Z</time>
      </trkpt>
      <trkpt lat="51.54488" lon="7.09287">
        <ele>82.067873</ele>
        <time>2023-04-29T12:10:30.588Z</time>
      </trkpt>
      <trkpt lat="51.54485" lon="7.09268">
        <ele>82.194616</ele>
        <time>2023-04-29T12:10:33.614Z</time>
      </trkpt>
      <trkpt lat="51.5448" lon="7.09255">
        <ele>82.288481</ele>
        <time>2023-04-29T12:10:36.577Z</time>
      </trkpt>
      <trkpt lat="51.54471" lon="7.09261">
        <ele>82.387077</ele>
        <time>2023-04-29T12:10:40.675Z</time>
      </trkpt>
      <trkpt lat="51.54461" lon="7.0927">
        <ele>82.500836</ele>
        <time>2023-04-29T12:10:44.585Z</time>
      </trkpt>
      <trkpt lat="51.54451" lon="7.09275">
        <ele>82.599157</ele>
        <time>2023-04-29T12:10:47.581Z</time>
      </trkpt>
      <trkpt lat="51.54441" lon="7.09275">
        <ele>82.706367</ele>
        <time>2023-04-29T12:10:50.571Z</time>
      </trkpt>
      <trkpt lat="51.54429" lon="7.09274">
        <ele>82.816996</ele>
        <time>2023-04-29T12:10:53.566Z</time>
      </trkpt>
      <trkpt lat="51.54418" lon="7.0927">
        <ele>82.930052</ele>
        <time>2023-04-29T12:10:56.575Z</time>
      </trkpt>
      <trkpt lat="51.54405" lon="7.0927">
        <ele>83.060128</ele>
        <time>2023-04-29T12:10:59.566Z</time>
      </trkpt>
      <trkpt lat="51.54392" lon="7.09269">
        <ele>83.187443</ele>
        <time>2023-04-29T12:11:02.572Z</time>
      </trkpt>
      <trkpt lat="51.5438" lon="7.09268">
        <ele>83.314758</ele>
        <time>2023-04-29T12:11:05.585Z</time>
      </trkpt>
      <trkpt lat="51.54367" lon="7.09266">
        <ele>83.437307</ele>
        <time>2023-04-29T12:11:08.570Z</time>
      </trkpt>
      <trkpt lat="51.54355" lon="7.09263">
        <ele>83.55964</ele>
        <time>2023-04-29T12:11:11.569Z</time>
      </trkpt>
      <trkpt lat="51.54344" lon="7.09265">
        <ele>83.701678</ele>
        <time>2023-04-29T12:11:14.591Z</time>
      </trkpt>
      <trkpt lat="51.54335" lon="7.09269">
        <ele>83.976666</ele>
        <time>2023-04-29T12:11:17.574Z</time>
      </trkpt>
      <trkpt lat="51.54325" lon="7.09275">
        <ele>84.274025</ele>
        <time>2023-04-29T12:11:21.566Z</time>
      </trkpt>
      <trkpt lat="51.54315" lon="7.09265">
        <ele>84.623133</ele>
        <time>2023-04-29T12:11:25.567Z</time>
      </trkpt>
      <trkpt lat="51.54307" lon="7.09256">
        <ele>84.916481</ele>
        <time>2023-04-29T12:11:28.575Z</time>
      </trkpt>
      <trkpt lat="51.54297" lon="7.09249">
        <ele>85.246206</ele>
        <time>2023-04-29T12:11:31.554Z</time>
      </trkpt>
      <trkpt lat="51.54286" lon="7.09242">
        <ele>85.607198</ele>
        <time>2023-04-29T12:11:34.585Z</time>
      </trkpt>
      <trkpt lat="51.54274" lon="7.09234">
        <ele>85.982017</ele>
        <time>2023-04-29T12:11:37.581Z</time>
      </trkpt>
      <trkpt lat="51.54263" lon="7.09229">
        <ele>86.328031</ele>
        <time>2023-04-29T12:11:40.568Z</time>
      </trkpt>
      <trkpt lat="51.54251" lon="7.09221">
        <ele>86.727736</ele>
        <time>2023-04-29T12:11:43.575Z</time>
      </trkpt>
      <trkpt lat="51.54239" lon="7.09213">
        <ele>87.105479</ele>
        <time>2023-04-29T12:11:46.573Z</time>
      </trkpt>
      <trkpt lat="51.54227" lon="7.09204">
        <ele>87.495942</ele>
        <time>2023-04-29T12:11:49.571Z</time>
      </trkpt>
      <trkpt lat="51.54219" lon="7.09197">
        <ele>87.78147</ele>
        <time>2023-04-29T12:11:51.574Z</time>
      </trkpt>
      <trkpt lat="51.54211" lon="7.09191">
        <ele>88.048106</ele>
        <time>2023-04-29T12:11:53.570Z</time>
      </trkpt>
      <trkpt lat="51.54198" lon="7.09183">
        <ele>88.438808</ele>
        <time>2023-04-29T12:11:56.579Z</time>
      </trkpt>
      <trkpt lat="51.54188" lon="7.09174">
        <ele>88.794461</ele>
        <time>2023-04-29T12:11:59.567Z</time>
      </trkpt>
      <trkpt lat="51.54179" lon="7.09169">
        <ele>88.988345</ele>
        <time>2023-04-29T12:12:01.562Z</time>
      </trkpt>
      <trkpt lat="51.54168" lon="7.09162">
        <ele>88.739619</ele>
        <time>2023-04-29T12:12:04.570Z</time>
      </trkpt>
      <trkpt lat="51.54157" lon="7.09154">
        <ele>88.495552</ele>
        <time>2023-04-29T12:12:07.563Z</time>
      </trkpt>
      <trkpt lat="51.54146" lon="7.09146">
        <ele>88.232425</ele>
        <time>2023-04-29T12:12:10.577Z</time>
      </trkpt>
      <trkpt lat="51.54133" lon="7.09138">
        <ele>87.960629</ele>
        <time>2023-04-29T12:12:13.572Z</time>
      </trkpt>
      <trkpt lat="51.54122" lon="7.0913">
        <ele>87.708195</ele>
        <time>2023-04-29T12:12:16.554Z</time>
      </trkpt>
      <trkpt lat="51.54111" lon="7.09122">
        <ele>87.452532</ele>
        <time>2023-04-29T12:12:19.566Z</time>
      </trkpt>
      <trkpt lat="51.541" lon="7.09114">
        <ele>87.205501</ele>
        <time>2023-04-29T12:12:22.569Z</time>
      </trkpt>
      <trkpt lat="51.54089" lon="7.09106">
        <ele>86.954154</ele>
        <time>2023-04-29T12:12:25.572Z</time>
      </trkpt>
      <trkpt lat="51.54078" lon="7.09099">
        <ele>86.702437</ele>
        <time>2023-04-29T12:12:28.574Z</time>
      </trkpt>
      <trkpt lat="51.54067" lon="7.09093">
        <ele>86.462411</ele>
        <time>2023-04-29T12:12:31.582Z</time>
      </trkpt>
      <trkpt lat="51.54056" lon="7.09087">
        <ele>86.210797</ele>
        <time>2023-04-29T12:12:34.573Z</time>
      </trkpt>
      <trkpt lat="51.54046" lon="7.09079">
        <ele>85.982888</ele>
        <time>2023-04-29T12:12:37.577Z</time>
      </trkpt>
      <trkpt lat="51.54036" lon="7.0907">
        <ele>85.752916</ele>
        <time>2023-04-29T12:12:40.585Z</time>
      </trkpt>
      <trkpt lat="51.54027" lon="7.09062">
        <ele>85.5356</ele>
        <time>2023-04-29T12:12:43.566Z</time>
      </trkpt>
      <trkpt lat="51.54018" lon="7.09053">
        <ele>85.320681</ele>
        <time>2023-04-29T12:12:46.561Z</time>
      </trkpt>
      <trkpt lat="51.54014" lon="7.09038">
        <ele>85.142854</ele>
        <time>2023-04-29T12:12:49.561Z</time>
      </trkpt>
      <trkpt lat="51.54016" lon="7.0902">
        <ele>84.945271</ele>
        <time>2023-04-29T12:12:52.569Z</time>
      </trkpt>
      <trkpt lat="51.54019" lon="7.09005">
        <ele>84.788768</ele>
        <time>2023-04-29T12:12:54.572Z</time>
      </trkpt>
      <trkpt lat="51.54022" lon="7.08984">
        <ele>84.568079</ele>
        <time>2023-04-29T12:12:57.568Z</time>
      </trkpt>
      <trkpt lat="51.54022" lon="7.08969">
        <ele>84.418873</ele>
        <time>2023-04-29T12:12:59.560Z</time>
      </trkpt>
      <trkpt lat="51.54022" lon="7.08955">
        <ele>84.267029</ele>
        <time>2023-04-29T12:13:01.564Z</time>
      </trkpt>
      <trkpt lat="51.54022" lon="7.0894">
        <ele>84.115157</ele>
        <time>2023-04-29T12:13:03.589Z</time>
      </trkpt>
      <trkpt lat="51.54021" lon="7.08924">
        <ele>83.955989</ele>
        <time>2023-04-29T12:13:05.586Z</time>
      </trkpt>
      <trkpt lat="51.54019" lon="7.08909">
        <ele>83.797334</ele>
        <time>2023-04-29T12:13:07.566Z</time>
      </trkpt>
      <trkpt lat="51.54018" lon="7.08894">
        <ele>83.637417</ele>
        <time>2023-04-29T12:13:09.595Z</time>
      </trkpt>
      <trkpt lat="51.54016" lon="7.08878">
        <ele>83.474701</ele>
        <time>2023-04-29T12:13:11.579Z</time>
      </trkpt>
      <trkpt lat="51.54015" lon="7.08862">
        <ele>83.30642</ele>
        <time>2023-04-29T12:13:13.596Z</time>
      </trkpt>
      <trkpt lat="51.54013" lon="7.08846">
        <ele>83.141084</ele>
        <time>2023-04-29T12:13:15.553Z</time>
      </trkpt>
      <trkpt lat="51.54012" lon="7.0883">
        <ele>82.97888</ele>
        <time>2023-04-29T12:13:17.584Z</time>
      </trkpt>
      <trkpt lat="51.5401" lon="7.08815">
        <ele>82.823269</ele>
        <time>2023-04-29T12:13:19.584Z</time>
      </trkpt>
      <trkpt lat="51.54008" lon="7.088">
        <ele>82.657792</ele>
        <time>2023-04-29T12:13:21.580Z</time>
      </trkpt>
      <trkpt lat="51.54007" lon="7.08785">
        <ele>82.501657</ele>
        <time>2023-04-29T12:13:23.574Z</time>
      </trkpt>
      <trkpt lat="51.54004" lon="7.08769">
        <ele>82.33679</ele>
        <time>2023-04-29T12:13:25.575Z</time>
      </trkpt>
      <trkpt lat="51.54002" lon="7.08754">
        <ele>82.222446</ele>
        <time>2023-04-29T12:13:27.568Z</time>
      </trkpt>
      <trkpt lat="51.54" lon="7.08738">
        <ele>82.108896</ele>
        <time>2023-04-29T12:13:29.572Z</time>
      </trkpt>
      <trkpt lat="51.53997" lon="7.08722">
        <ele>81.99886</ele>
        <time>2023-04-29T12:13:31.565Z</time>
      </trkpt>
      <trkpt lat="51.53994" lon="7.08707">
        <ele>81.887069</ele>
        <time>2023-04-29T12:13:33.586Z</time>
      </trkpt>
      <trkpt lat="51.53991" lon="7.08693">
        <ele>81.782217</ele>
        <time>2023-04-29T12:13:35.568Z</time>
      </trkpt>
      <trkpt lat="51.5399" lon="7.08678">
        <ele>81.675398</ele>
        <time>2023-04-29T12:13:37.579Z</time>
      </trkpt>
      <trkpt lat="51.53987" lon="7.08662">
        <ele>81.559293</ele>
        <time>2023-04-29T12:13:40.572Z</time>
      </trkpt>
      <trkpt lat="51.5397" lon="7.08662">
        <ele>81.378283</ele>
        <time>2023-04-29T12:14:10.579Z</time>
      </trkpt>
      <trkpt lat="51.5396" lon="7.08668">
        <ele>81.260818</ele>
        <time>2023-04-29T12:14:14.560Z</time>
      </trkpt>
      <trkpt lat="51.53954" lon="7.08644">
        <ele>81.075956</ele>
        <time>2023-04-29T12:14:48.575Z</time>
      </trkpt>
      <trkpt lat="51.53955" lon="7.08628">
        <ele>80.970044</ele>
        <time>2023-04-29T12:14:53.572Z</time>
      </trkpt>
      <trkpt lat="51.53964" lon="7.08611">
        <ele>80.815229</ele>
        <time>2023-04-29T12:15:19.570Z</time>
      </trkpt>
      <trkpt lat="51.53965" lon="7.08595">
        <ele>80.706961</ele>
        <time>2023-04-29T12:15:22.578Z</time>
      </trkpt>
      <trkpt lat="51.53963" lon="7.08578">
        <ele>80.586755</ele>
        <time>2023-04-29T12:15:25.598Z</time>
      </trkpt>
      <trkpt lat="51.53959" lon="7.08559">
        <ele>80.444622</ele>
        <time>2023-04-29T12:15:28.588Z</time>
      </trkpt>
      <trkpt lat="51.53957" lon="7.08544">
        <ele>80.340127</ele>
        <time>2023-04-29T12:15:30.574Z</time>
      </trkpt>
      <trkpt lat="51.53954" lon="7.0853">
        <ele>80.282014</ele>
        <time>2023-04-29T12:15:32.574Z</time>
      </trkpt>
      <trkpt lat="51.5395" lon="7.08515">
        <ele>80.242912</ele>
        <time>2023-04-29T12:15:34.568Z</time>
      </trkpt>
      <trkpt lat="51.53946" lon="7.085">
        <ele>80.200386</ele>
        <time>2023-04-29T12:15:36.559Z</time>
      </trkpt>
      <trkpt lat="51.53943" lon="7.08484">
        <ele>80.15941</ele>
        <time>2023-04-29T12:15:38.578Z</time>
      </trkpt>
      <trkpt lat="51.5394" lon="7.08469">
        <ele>80.118357</ele>
        <time>2023-04-29T12:15:40.593Z</time>
      </trkpt>
      <trkpt lat="51.53936" lon="7.08454">
        <ele>80.076827</ele>
        <time>2023-04-29T12:15:42.582Z</time>
      </trkpt>
      <trkpt lat="51.53932" lon="7.08439">
        <ele>80.034768</ele>
        <time>2023-04-29T12:15:44.577Z</time>
      </trkpt>
      <trkpt lat="51.53928" lon="7.08424">
        <ele>79.993007</ele>
        <time>2023-04-29T12:15:46.582Z</time>
      </trkpt>
      <trkpt lat="51.53923" lon="7.08409">
        <ele>79.951005</ele>
        <time>2023-04-29T12:15:48.583Z</time>
      </trkpt>
      <trkpt lat="51.53918" lon="7.08393">
        <ele>79.904499</ele>
        <time>2023-04-29T12:15:50.570Z</time>
      </trkpt>
      <trkpt lat="51.53913" lon="7.08377">
        <ele>79.85975</ele>
        <time>2023-04-29T12:15:52.568Z</time>
      </trkpt>
      <trkpt lat="51.53908" lon="7.08362">
        <ele>79.815933</ele>
        <time>2023-04-29T12:15:54.577Z</time>
      </trkpt>
      <trkpt lat="51.53904" lon="7.08347">
        <ele>79.77406</ele>
        <time>2023-04-29T12:15:56.577Z</time>
      </trkpt>
      <trkpt lat="51.539" lon="7.08333">
        <ele>79.735668</ele>
        <time>2023-04-29T12:15:58.575Z</time>
      </trkpt>
      <trkpt lat="51.53895" lon="7.0832">
        <ele>79.696434</ele>
        <time>2023-04-29T12:16:00.572Z</time>
      </trkpt>
      <trkpt lat="51.53891" lon="7.08304">
        <ele>79.652949</ele>
        <time>2023-04-29T12:16:02.583Z</time>
      </trkpt>
      <trkpt lat="51.53887" lon="7.08289">
        <ele>79.612066</ele>
        <time>2023-04-29T12:16:04.585Z</time>
      </trkpt>
      <trkpt lat="51.53883" lon="7.08275">
        <ele>79.584834</ele>
        <time>2023-04-29T12:16:06.567Z</time>
      </trkpt>
      <trkpt lat="51.53878" lon="7.08259">
        <ele>79.680482</ele>
        <time>2023-04-29T12:16:08.571Z</time>
      </trkpt>
      <trkpt lat="51.53873" lon="7.08244">
        <ele>79.771327</ele>
        <time>2023-04-29T12:16:10.572Z</time>
      </trkpt>
      <trkpt lat="51.53868" lon="7.0823">
        <ele>79.862741</ele>
        <time>2023-04-29T12:16:12.589Z</time>
      </trkpt>
      <trkpt lat="51.53864" lon="7.08214">
        <ele>79.957601</ele>
        <time>2023-04-29T12:16:14.573Z</time>
      </trkpt>
      <trkpt lat="51.53859" lon="7.08199">
        <ele>80.050318</ele>
        <time>2023-04-29T12:16:16.583Z</time>
      </trkpt>
      <trkpt lat="51.53854" lon="7.08184">
        <ele>80.144498</ele>
        <time>2023-04-29T12:16:18.580Z</time>
      </trkpt>
      <trkpt lat="51.5385" lon="7.08169">
        <ele>80.235829</ele>
        <time>2023-04-29T12:16:20.590Z</time>
      </trkpt>
      <trkpt lat="51.53847" lon="7.08152">
        <ele>80.328286</ele>
        <time>2023-04-29T12:16:22.596Z</time>
      </trkpt>
      <trkpt lat="51.53844" lon="7.08136">
        <ele>80.423632</ele>
        <time>2023-04-29T12:16:24.577Z</time>
      </trkpt>
      <trkpt lat="51.53841" lon="7.0812">
        <ele>80.515067</ele>
        <time>2023-04-29T12:16:26.573Z</time>
      </trkpt>
      <trkpt lat="51.53838" lon="7.08104">
        <ele>80.605162</ele>
        <time>2023-04-29T12:16:28.582Z</time>
      </trkpt>
      <trkpt lat="51.53836" lon="7.08088">
        <ele>80.695831</ele>
        <time>2023-04-29T12:16:30.571Z</time>
      </trkpt>
      <trkpt lat="51.53833" lon="7.08072">
        <ele>80.786803</ele>
        <time>2023-04-29T12:16:32.583Z</time>
      </trkpt>
      <trkpt lat="51.53831" lon="7.08057">
        <ele>80.87425</ele>
        <time>2023-04-29T12:16:34.574Z</time>
      </trkpt>
      <trkpt lat="51.53829" lon="7.08041">
        <ele>80.963318</ele>
        <time>2023-04-29T12:16:36.575Z</time>
      </trkpt>
      <trkpt lat="51.53828" lon="7.08025">
        <ele>81.051974</ele>
        <time>2023-04-29T12:16:38.579Z</time>
      </trkpt>
      <trkpt lat="51.53828" lon="7.08009">
        <ele>81.141131</ele>
        <time>2023-04-29T12:16:40.579Z</time>
      </trkpt>
      <trkpt lat="51.53828" lon="7.07993">
        <ele>81.168883</ele>
        <time>2023-04-29T12:16:42.592Z</time>
      </trkpt>
      <trkpt lat="51.53828" lon="7.07977">
        <ele>81.172094</ele>
        <time>2023-04-29T12:16:44.581Z</time>
      </trkpt>
      <trkpt lat="51.53828" lon="7.07962">
        <ele>81.17524</ele>
        <time>2023-04-29T12:16:46.572Z</time>
      </trkpt>
      <trkpt lat="51.53828" lon="7.07947">
        <ele>81.17829</ele>
        <time>2023-04-29T12:16:48.569Z</time>
      </trkpt>
      <trkpt lat="51.53828" lon="7.07925">
        <ele>81.182795</ele>
        <time>2023-04-29T12:16:51.573Z</time>
      </trkpt>
      <trkpt lat="51.53826" lon="7.07903">
        <ele>81.187342</ele>
        <time>2023-04-29T12:16:54.567Z</time>
      </trkpt>
      <trkpt lat="51.53824" lon="7.07888">
        <ele>81.190416</ele>
        <time>2023-04-29T12:16:56.563Z</time>
      </trkpt>
      <trkpt lat="51.53824" lon="7.07873">
        <ele>81.193608</ele>
        <time>2023-04-29T12:16:58.572Z</time>
      </trkpt>
      <trkpt lat="51.53823" lon="7.07858">
        <ele>81.196679</ele>
        <time>2023-04-29T12:17:00.561Z</time>
      </trkpt>
      <trkpt lat="51.53822" lon="7.07842">
        <ele>81.199887</ele>
        <time>2023-04-29T12:17:02.577Z</time>
      </trkpt>
      <trkpt lat="51.53822" lon="7.07828">
        <ele>81.202919</ele>
        <time>2023-04-29T12:17:04.583Z</time>
      </trkpt>
      <trkpt lat="51.5382" lon="7.07807">
        <ele>81.207209</ele>
        <time>2023-04-29T12:17:07.575Z</time>
      </trkpt>
      <trkpt lat="51.53818" lon="7.07785">
        <ele>81.211662</ele>
        <time>2023-04-29T12:17:10.579Z</time>
      </trkpt>
      <trkpt lat="51.53817" lon="7.07764">
        <ele>81.216084</ele>
        <time>2023-04-29T12:17:13.575Z</time>
      </trkpt>
      <trkpt lat="51.53814" lon="7.07743">
        <ele>81.220506</ele>
        <time>2023-04-29T12:17:16.579Z</time>
      </trkpt>
      <trkpt lat="51.53811" lon="7.07728">
        <ele>81.223756</ele>
        <time>2023-04-29T12:17:18.588Z</time>
      </trkpt>
      <trkpt lat="51.53809" lon="7.07711">
        <ele>81.239775</ele>
        <time>2023-04-29T12:17:20.582Z</time>
      </trkpt>
      <trkpt lat="51.53806" lon="7.07695">
        <ele>81.277951</ele>
        <time>2023-04-29T12:17:22.579Z</time>
      </trkpt>
      <trkpt lat="51.53803" lon="7.0768">
        <ele>81.315662</ele>
        <time>2023-04-29T12:17:24.589Z</time>
      </trkpt>
      <trkpt lat="51.53799" lon="7.07664">
        <ele>81.355389</ele>
        <time>2023-04-29T12:17:26.577Z</time>
      </trkpt>
      <trkpt lat="51.53794" lon="7.07647">
        <ele>81.399477</ele>
        <time>2023-04-29T12:17:28.549Z</time>
      </trkpt>
      <trkpt lat="51.53788" lon="7.07627">
        <ele>81.449802</ele>
        <time>2023-04-29T12:17:30.564Z</time>
      </trkpt>
      <trkpt lat="51.53782" lon="7.07607">
        <ele>81.503099</ele>
        <time>2023-04-29T12:17:32.565Z</time>
      </trkpt>
      <trkpt lat="51.53775" lon="7.07589">
        <ele>81.551488</ele>
        <time>2023-04-29T12:17:34.574Z</time>
      </trkpt>
      <trkpt lat="51.5377" lon="7.07572">
        <ele>81.594848</ele>
        <time>2023-04-29T12:17:36.578Z</time>
      </trkpt>
      <trkpt lat="51.53764" lon="7.07555">
        <ele>81.640096</ele>
        <time>2023-04-29T12:17:38.574Z</time>
      </trkpt>
      <trkpt lat="51.53761" lon="7.07537">
        <ele>81.684443</ele>
        <time>2023-04-29T12:17:40.575Z</time>
      </trkpt>
      <trkpt lat="51.53757" lon="7.07522">
        <ele>81.722032</ele>
        <time>2023-04-29T12:17:42.579Z</time>
      </trkpt>
      <trkpt lat="51.53752" lon="7.07508">
        <ele>81.758158</ele>
        <time>2023-04-29T12:17:44.577Z</time>
      </trkpt>
      <trkpt lat="51.53748" lon="7.07495">
        <ele>81.793187</ele>
        <time>2023-04-29T12:17:46.577Z</time>
      </trkpt>
      <trkpt lat="51.53743" lon="7.07475">
        <ele>81.841544</ele>
        <time>2023-04-29T12:17:49.572Z</time>
      </trkpt>
      <trkpt lat="51.53737" lon="7.07456">
        <ele>81.89094</ele>
        <time>2023-04-29T12:17:52.572Z</time>
      </trkpt>
      <trkpt lat="51.53731" lon="7.07441">
        <ele>81.93022</ele>
        <time>2023-04-29T12:17:55.557Z</time>
      </trkpt>
      <trkpt lat="51.53728" lon="7.07424">
        <ele>81.970425</ele>
        <time>2023-04-29T12:17:58.582Z</time>
      </trkpt>
      <trkpt lat="51.53723" lon="7.07408">
        <ele>82.010045</ele>
        <time>2023-04-29T12:18:01.560Z</time>
      </trkpt>
      <trkpt lat="51.53717" lon="7.07392">
        <ele>82.050604</ele>
        <time>2023-04-29T12:18:04.578Z</time>
      </trkpt>
      <trkpt lat="51.53712" lon="7.07376">
        <ele>82.091224</ele>
        <time>2023-04-29T12:18:07.580Z</time>
      </trkpt>
      <trkpt lat="51.53706" lon="7.07361">
        <ele>82.129331</ele>
        <time>2023-04-29T12:18:10.578Z</time>
      </trkpt>
      <trkpt lat="51.53701" lon="7.07346">
        <ele>82.168355</ele>
        <time>2023-04-29T12:18:13.560Z</time>
      </trkpt>
      <trkpt lat="51.53697" lon="7.07331">
        <ele>82.205436</ele>
        <time>2023-04-29T12:18:16.590Z</time>
      </trkpt>
      <trkpt lat="51.53693" lon="7.07315">
        <ele>82.244086</ele>
        <time>2023-04-29T12:18:19.562Z</time>
      </trkpt>
      <trkpt lat="51.53689" lon="7.07299">
        <ele>82.281424</ele>
        <time>2023-04-29T12:18:22.571Z</time>
      </trkpt>
      <trkpt lat="51.53686" lon="7.07285">
        <ele>82.314328</ele>
        <time>2023-04-29T12:18:25.557Z</time>
      </trkpt>
      <trkpt lat="51.53682" lon="7.07271">
        <ele>82.348394</ele>
        <time>2023-04-29T12:18:28.575Z</time>
      </trkpt>
      <trkpt lat="51.53678" lon="7.07257">
        <ele>82.381867</ele>
        <time>2023-04-29T12:18:31.568Z</time>
      </trkpt>
      <trkpt lat="51.53678" lon="7.07238">
        <ele>82.423466</ele>
        <time>2023-04-29T12:18:35.564Z</time>
      </trkpt>
      <trkpt lat="51.53677" lon="7.07224">
        <ele>82.456061</ele>
        <time>2023-04-29T12:18:38.592Z</time>
      </trkpt>
      <trkpt lat="51.53674" lon="7.0721">
        <ele>82.489738</ele>
        <time>2023-04-29T12:18:41.570Z</time>
      </trkpt>
      <trkpt lat="51.53668" lon="7.07193">
        <ele>82.531327</ele>
        <time>2023-04-29T12:18:45.594Z</time>
      </trkpt>
      <trkpt lat="51.53663" lon="7.07178">
        <ele>82.699795</ele>
        <time>2023-04-29T12:18:49.573Z</time>
      </trkpt>
      <trkpt lat="51.53658" lon="7.07149">
        <ele>83.039089</ele>
        <time>2023-04-29T12:19:09.559Z</time>
      </trkpt>
      <trkpt lat="51.53651" lon="7.07138">
        <ele>83.211227</ele>
        <time>2023-04-29T12:19:12.562Z</time>
      </trkpt>
      <trkpt lat="51.53642" lon="7.07128">
        <ele>83.416632</ele>
        <time>2023-04-29T12:19:15.565Z</time>
      </trkpt>
      <trkpt lat="51.53636" lon="7.07111">
        <ele>83.648423</ele>
        <time>2023-04-29T12:19:18.570Z</time>
      </trkpt>
      <trkpt lat="51.53631" lon="7.07092">
        <ele>83.874946</ele>
        <time>2023-04-29T12:19:21.564Z</time>
      </trkpt>
      <trkpt lat="51.53624" lon="7.07075">
        <ele>84.106651</ele>
        <time>2023-04-29T12:19:24.559Z</time>
      </trkpt>
      <trkpt lat="51.53617" lon="7.07058">
        <ele>84.340289</ele>
        <time>2023-04-29T12:19:27.576Z</time>
      </trkpt>
      <trkpt lat="51.5361" lon="7.07042">
        <ele>84.570085</ele>
        <time>2023-04-29T12:19:30.574Z</time>
      </trkpt>
      <trkpt lat="51.53602" lon="7.07025">
        <ele>84.802044</ele>
        <time>2023-04-29T12:19:33.573Z</time>
      </trkpt>
      <trkpt lat="51.53595" lon="7.07008">
        <ele>85.039488</ele>
        <time>2023-04-29T12:19:36.577Z</time>
      </trkpt>
      <trkpt lat="51.53588" lon="7.0699">
        <ele>85.277994</ele>
        <time>2023-04-29T12:19:39.570Z</time>
      </trkpt>
      <trkpt lat="51.53582" lon="7.06979">
        <ele>85.44383</ele>
        <time>2023-04-29T12:19:41.588Z</time>
      </trkpt>
      <trkpt lat="51.53573" lon="7.06963">
        <ele>85.682049</ele>
        <time>2023-04-29T12:19:44.563Z</time>
      </trkpt>
      <trkpt lat="51.53565" lon="7.06949">
        <ele>85.800678</ele>
        <time>2023-04-29T12:19:47.583Z</time>
      </trkpt>
      <trkpt lat="51.53556" lon="7.06934">
        <ele>85.729949</ele>
        <time>2023-04-29T12:19:50.596Z</time>
      </trkpt>
      <trkpt lat="51.53549" lon="7.06923">
        <ele>85.679258</ele>
        <time>2023-04-29T12:19:52.577Z</time>
      </trkpt>
      <trkpt lat="51.53541" lon="7.06909">
        <ele>85.612696</ele>
        <time>2023-04-29T12:19:55.557Z</time>
      </trkpt>
      <trkpt lat="51.53532" lon="7.06895">
        <ele>85.545033</ele>
        <time>2023-04-29T12:19:58.597Z</time>
      </trkpt>
      <trkpt lat="51.53525" lon="7.0688">
        <ele>85.47827</ele>
        <time>2023-04-29T12:20:01.584Z</time>
      </trkpt>
      <trkpt lat="51.53517" lon="7.06865">
        <ele>85.412963</ele>
        <time>2023-04-29T12:20:04.590Z</time>
      </trkpt>
      <trkpt lat="51.5351" lon="7.06851">
        <ele>85.35129</ele>
        <time>2023-04-29T12:20:07.586Z</time>
      </trkpt>
      <trkpt lat="51.53503" lon="7.06838">
        <ele>85.29256</ele>
        <time>2023-04-29T12:20:10.574Z</time>
      </trkpt>
      <trkpt lat="51.53496" lon="7.06825">
        <ele>85.234125</ele>
        <time>2023-04-29T12:20:13.565Z</time>
      </trkpt>
      <trkpt lat="51.5349" lon="7.0681">
        <ele>85.172602</ele>
        <time>2023-04-29T12:20:16.577Z</time>
      </trkpt>
      <trkpt lat="51.53483" lon="7.06796">
        <ele>85.110997</ele>
        <time>2023-04-29T12:20:19.573Z</time>
      </trkpt>
      <trkpt lat="51.53476" lon="7.06781">
        <ele>85.046566</ele>
        <time>2023-04-29T12:20:22.591Z</time>
      </trkpt>
      <trkpt lat="51.53469" lon="7.06767">
        <ele>84.987635</ele>
        <time>2023-04-29T12:20:25.555Z</time>
      </trkpt>
      <trkpt lat="51.53462" lon="7.06749">
        <ele>84.915112</ele>
        <time>2023-04-29T12:20:28.566Z</time>
      </trkpt>
      <trkpt lat="51.53457" lon="7.06737">
        <ele>84.865234</ele>
        <time>2023-04-29T12:20:30.577Z</time>
      </trkpt>
      <trkpt lat="51.53449" lon="7.0672">
        <ele>84.680335</ele>
        <time>2023-04-29T12:20:33.559Z</time>
      </trkpt>
      <trkpt lat="51.53444" lon="7.06708">
        <ele>84.506172</ele>
        <time>2023-04-29T12:20:35.613Z</time>
      </trkpt>
      <trkpt lat="51.53438" lon="7.06695">
        <ele>84.324074</ele>
        <time>2023-04-29T12:20:37.594Z</time>
      </trkpt>
      <trkpt lat="51.53433" lon="7.06682">
        <ele>84.139347</ele>
        <time>2023-04-29T12:20:39.578Z</time>
      </trkpt>
      <trkpt lat="51.53426" lon="7.06665">
        <ele>83.896531</ele>
        <time>2023-04-29T12:20:42.590Z</time>
      </trkpt>
      <trkpt lat="51.53421" lon="7.06651">
        <ele>83.714699</ele>
        <time>2023-04-29T12:20:44.560Z</time>
      </trkpt>
      <trkpt lat="51.53417" lon="7.06638">
        <ele>83.534901</ele>
        <time>2023-04-29T12:20:46.575Z</time>
      </trkpt>
      <trkpt lat="51.53412" lon="7.06625">
        <ele>83.359102</ele>
        <time>2023-04-29T12:20:48.571Z</time>
      </trkpt>
      <trkpt lat="51.53407" lon="7.06612">
        <ele>83.178343</ele>
        <time>2023-04-29T12:20:50.578Z</time>
      </trkpt>
      <trkpt lat="51.53401" lon="7.06599">
        <ele>82.993362</ele>
        <time>2023-04-29T12:20:52.567Z</time>
      </trkpt>
      <trkpt lat="51.53396" lon="7.06586">
        <ele>82.81062</ele>
        <time>2023-04-29T12:20:54.565Z</time>
      </trkpt>
      <trkpt lat="51.53392" lon="7.06573">
        <ele>82.634821</ele>
        <time>2023-04-29T12:20:56.562Z</time>
      </trkpt>
      <trkpt lat="51.53387" lon="7.06561">
        <ele>82.463063</ele>
        <time>2023-04-29T12:20:58.577Z</time>
      </trkpt>
      <trkpt lat="51.53383" lon="7.06542">
        <ele>82.227057</ele>
        <time>2023-04-29T12:21:01.577Z</time>
      </trkpt>
      <trkpt lat="51.53381" lon="7.06523">
        <ele>81.996975</ele>
        <time>2023-04-29T12:21:04.579Z</time>
      </trkpt>
      <trkpt lat="51.53375" lon="7.0651">
        <ele>81.812097</ele>
        <time>2023-04-29T12:21:06.580Z</time>
      </trkpt>
      <trkpt lat="51.5337" lon="7.06497">
        <ele>81.633965</ele>
        <time>2023-04-29T12:21:08.562Z</time>
      </trkpt>
      <trkpt lat="51.53362" lon="7.06479">
        <ele>81.426593</ele>
        <time>2023-04-29T12:21:11.587Z</time>
      </trkpt>
      <trkpt lat="51.53356" lon="7.06467">
        <ele>81.392687</ele>
        <time>2023-04-29T12:21:13.570Z</time>
      </trkpt>
      <trkpt lat="51.53351" lon="7.06453">
        <ele>81.356907</ele>
        <time>2023-04-29T12:21:15.593Z</time>
      </trkpt>
      <trkpt lat="51.53346" lon="7.06441">
        <ele>81.322642</ele>
        <time>2023-04-29T12:21:17.583Z</time>
      </trkpt>
      <trkpt lat="51.53341" lon="7.06428">
        <ele>81.287812</ele>
        <time>2023-04-29T12:21:19.574Z</time>
      </trkpt>
      <trkpt lat="51.53334" lon="7.0641">
        <ele>81.240991</ele>
        <time>2023-04-29T12:21:22.596Z</time>
      </trkpt>
      <trkpt lat="51.53329" lon="7.06398">
        <ele>81.208256</ele>
        <time>2023-04-29T12:21:24.584Z</time>
      </trkpt>
      <trkpt lat="51.53324" lon="7.06385">
        <ele>81.175897</ele>
        <time>2023-04-29T12:21:26.579Z</time>
      </trkpt>
      <trkpt lat="51.53318" lon="7.06371">
        <ele>81.137977</ele>
        <time>2023-04-29T12:21:28.571Z</time>
      </trkpt>
      <trkpt lat="51.53313" lon="7.06358">
        <ele>81.102192</ele>
        <time>2023-04-29T12:21:30.582Z</time>
      </trkpt>
      <trkpt lat="51.53307" lon="7.06345">
        <ele>81.066665</ele>
        <time>2023-04-29T12:21:32.558Z</time>
      </trkpt>
      <trkpt lat="51.53301" lon="7.06332">
        <ele>81.031674</ele>
        <time>2023-04-29T12:21:34.574Z</time>
      </trkpt>
      <trkpt lat="51.53295" lon="7.06314">
        <ele>80.984149</ele>
        <time>2023-04-29T12:21:37.575Z</time>
      </trkpt>
      <trkpt lat="51.5329" lon="7.063">
        <ele>80.947037</ele>
        <time>2023-04-29T12:21:39.578Z</time>
      </trkpt>
      <trkpt lat="51.53284" lon="7.06286">
        <ele>80.908932</ele>
        <time>2023-04-29T12:21:41.583Z</time>
      </trkpt>
      <trkpt lat="51.53277" lon="7.06272">
        <ele>80.869368</ele>
        <time>2023-04-29T12:21:43.574Z</time>
      </trkpt>
      <trkpt lat="51.53271" lon="7.06259">
        <ele>80.832544</ele>
        <time>2023-04-29T12:21:45.583Z</time>
      </trkpt>
      <trkpt lat="51.53265" lon="7.06245">
        <ele>80.794933</ele>
        <time>2023-04-29T12:21:47.575Z</time>
      </trkpt>
      <trkpt lat="51.53259" lon="7.06232">
        <ele>80.787472</ele>
        <time>2023-04-29T12:21:49.563Z</time>
      </trkpt>
      <trkpt lat="51.53253" lon="7.06218">
        <ele>80.784369</ele>
        <time>2023-04-29T12:21:51.570Z</time>
      </trkpt>
      <trkpt lat="51.53247" lon="7.06206">
        <ele>80.781282</ele>
        <time>2023-04-29T12:21:53.570Z</time>
      </trkpt>
      <trkpt lat="51.53242" lon="7.06193">
        <ele>80.778277</ele>
        <time>2023-04-29T12:21:55.578Z</time>
      </trkpt>
      <trkpt lat="51.53235" lon="7.0618">
        <ele>80.775125</ele>
        <time>2023-04-29T12:21:57.572Z</time>
      </trkpt>
      <trkpt lat="51.53227" lon="7.06164">
        <ele>80.771058</ele>
        <time>2023-04-29T12:22:00.578Z</time>
      </trkpt>
      <trkpt lat="51.53222" lon="7.06152">
        <ele>80.768195</ele>
        <time>2023-04-29T12:22:02.581Z</time>
      </trkpt>
      <trkpt lat="51.53216" lon="7.06139">
        <ele>80.765203</ele>
        <time>2023-04-29T12:22:04.577Z</time>
      </trkpt>
      <trkpt lat="51.5321" lon="7.06126">
        <ele>80.762126</ele>
        <time>2023-04-29T12:22:06.593Z</time>
      </trkpt>
      <trkpt lat="51.53204" lon="7.06114">
        <ele>80.759047</ele>
        <time>2023-04-29T12:22:08.562Z</time>
      </trkpt>
      <trkpt lat="51.532" lon="7.061">
        <ele>80.756074</ele>
        <time>2023-04-29T12:22:10.583Z</time>
      </trkpt>
      <trkpt lat="51.53193" lon="7.06088">
        <ele>80.753004</ele>
        <time>2023-04-29T12:22:12.573Z</time>
      </trkpt>
      <trkpt lat="51.53187" lon="7.06076">
        <ele>80.750028</ele>
        <time>2023-04-29T12:22:14.580Z</time>
      </trkpt>
      <trkpt lat="51.5318" lon="7.06065">
        <ele>80.746905</ele>
        <time>2023-04-29T12:22:16.588Z</time>
      </trkpt>
      <trkpt lat="51.53171" lon="7.06057">
        <ele>80.743682</ele>
        <time>2023-04-29T12:22:18.577Z</time>
      </trkpt>
      <trkpt lat="51.53161" lon="7.06049">
        <ele>80.740321</ele>
        <time>2023-04-29T12:22:20.564Z</time>
      </trkpt>
      <trkpt lat="51.53152" lon="7.0604">
        <ele>80.737045</ele>
        <time>2023-04-29T12:22:22.580Z</time>
      </trkpt>
      <trkpt lat="51.53144" lon="7.06028">
        <ele>80.740841</ele>
        <time>2023-04-29T12:22:24.564Z</time>
      </trkpt>
      <trkpt lat="51.53136" lon="7.06016">
        <ele>80.768668</ele>
        <time>2023-04-29T12:22:26.575Z</time>
      </trkpt>
      <trkpt lat="51.53128" lon="7.06003">
        <ele>80.796757</ele>
        <time>2023-04-29T12:22:28.560Z</time>
      </trkpt>
      <trkpt lat="51.53121" lon="7.05991">
        <ele>80.82474</ele>
        <time>2023-04-29T12:22:30.588Z</time>
      </trkpt>
      <trkpt lat="51.53113" lon="7.05977">
        <ele>80.852891</ele>
        <time>2023-04-29T12:22:32.556Z</time>
      </trkpt>
      <trkpt lat="51.53107" lon="7.05964">
        <ele>80.880375</ele>
        <time>2023-04-29T12:22:34.575Z</time>
      </trkpt>
      <trkpt lat="51.531" lon="7.0595">
        <ele>80.908302</ele>
        <time>2023-04-29T12:22:36.579Z</time>
      </trkpt>
      <trkpt lat="51.53094" lon="7.05935">
        <ele>80.935745</ele>
        <time>2023-04-29T12:22:38.565Z</time>
      </trkpt>
      <trkpt lat="51.53088" lon="7.05921">
        <ele>80.962658</ele>
        <time>2023-04-29T12:22:40.570Z</time>
      </trkpt>
      <trkpt lat="51.53082" lon="7.05907">
        <ele>80.989166</ele>
        <time>2023-04-29T12:22:42.573Z</time>
      </trkpt>
      <trkpt lat="51.53077" lon="7.05893">
        <ele>81.016206</ele>
        <time>2023-04-29T12:22:44.577Z</time>
      </trkpt>
      <trkpt lat="51.53072" lon="7.05879">
        <ele>81.042047</ele>
        <time>2023-04-29T12:22:46.592Z</time>
      </trkpt>
      <trkpt lat="51.53066" lon="7.05865">
        <ele>81.068146</ele>
        <time>2023-04-29T12:22:48.571Z</time>
      </trkpt>
      <trkpt lat="51.5306" lon="7.05852">
        <ele>81.093691</ele>
        <time>2023-04-29T12:22:50.587Z</time>
      </trkpt>
      <trkpt lat="51.53054" lon="7.0584">
        <ele>81.11827</ele>
        <time>2023-04-29T12:22:52.579Z</time>
      </trkpt>
      <trkpt lat="51.53049" lon="7.05825">
        <ele>81.145092</ele>
        <time>2023-04-29T12:22:54.575Z</time>
      </trkpt>
      <trkpt lat="51.53043" lon="7.0581">
        <ele>81.17241</ele>
        <time>2023-04-29T12:22:56.597Z</time>
      </trkpt>
      <trkpt lat="51.53038" lon="7.05797">
        <ele>81.182458</ele>
        <time>2023-04-29T12:22:58.576Z</time>
      </trkpt>
      <trkpt lat="51.53032" lon="7.05782">
        <ele>81.13895</ele>
        <time>2023-04-29T12:23:00.578Z</time>
      </trkpt>
      <trkpt lat="51.53026" lon="7.05768">
        <ele>81.096939</ele>
        <time>2023-04-29T12:23:02.583Z</time>
      </trkpt>
      <trkpt lat="51.53021" lon="7.05755">
        <ele>81.056851</ele>
        <time>2023-04-29T12:23:04.566Z</time>
      </trkpt>
      <trkpt lat="51.53016" lon="7.05742">
        <ele>81.019975</ele>
        <time>2023-04-29T12:23:06.567Z</time>
      </trkpt>
      <trkpt lat="51.53011" lon="7.0573">
        <ele>80.983324</ele>
        <time>2023-04-29T12:23:08.588Z</time>
      </trkpt>
      <trkpt lat="51.53005" lon="7.05713">
        <ele>80.93253</ele>
        <time>2023-04-29T12:23:11.575Z</time>
      </trkpt>
      <trkpt lat="51.52996" lon="7.05698">
        <ele>80.881962</ele>
        <time>2023-04-29T12:23:14.575Z</time>
      </trkpt>
      <trkpt lat="51.52984" lon="7.05695">
        <ele>80.831095</ele>
        <time>2023-04-29T12:23:17.582Z</time>
      </trkpt>
      <trkpt lat="51.52972" lon="7.05685">
        <ele>80.778273</ele>
        <time>2023-04-29T12:23:20.581Z</time>
      </trkpt>
      <trkpt lat="51.52963" lon="7.05675">
        <ele>80.735354</ele>
        <time>2023-04-29T12:23:22.566Z</time>
      </trkpt>
      <trkpt lat="51.52955" lon="7.05663">
        <ele>80.689891</ele>
        <time>2023-04-29T12:23:24.564Z</time>
      </trkpt>
      <trkpt lat="51.52947" lon="7.05652">
        <ele>80.645738</ele>
        <time>2023-04-29T12:23:26.579Z</time>
      </trkpt>
      <trkpt lat="51.5294" lon="7.0564">
        <ele>80.605552</ele>
        <time>2023-04-29T12:23:28.577Z</time>
      </trkpt>
      <trkpt lat="51.52935" lon="7.05622">
        <ele>80.556586</ele>
        <time>2023-04-29T12:23:31.574Z</time>
      </trkpt>
      <trkpt lat="51.52944" lon="7.05612">
        <ele>80.51227</ele>
        <time>2023-04-29T12:23:42.566Z</time>
      </trkpt>
      <trkpt lat="51.52953" lon="7.05601">
        <ele>80.468299</ele>
        <time>2023-04-29T12:23:46.588Z</time>
      </trkpt>
      <trkpt lat="51.52963" lon="7.05592">
        <ele>80.247076</ele>
        <time>2023-04-29T12:23:50.576Z</time>
      </trkpt>
      <trkpt lat="51.5297" lon="7.05578">
        <ele>80.014292</ele>
        <time>2023-04-29T12:23:54.569Z</time>
      </trkpt>
      <trkpt lat="51.52966" lon="7.05564">
        <ele>79.814635</ele>
        <time>2023-04-29T12:23:57.562Z</time>
      </trkpt>
      <trkpt lat="51.52964" lon="7.05544">
        <ele>79.552726</ele>
        <time>2023-04-29T12:24:01.576Z</time>
      </trkpt>
      <trkpt lat="51.52959" lon="7.05528">
        <ele>79.319508</ele>
        <time>2023-04-29T12:24:03.575Z</time>
      </trkpt>
      <trkpt lat="51.52954" lon="7.05509">
        <ele>79.03898</ele>
        <time>2023-04-29T12:24:05.585Z</time>
      </trkpt>
      <trkpt lat="51.52949" lon="7.0549">
        <ele>78.772042</ele>
        <time>2023-04-29T12:24:07.555Z</time>
      </trkpt>
      <trkpt lat="51.52943" lon="7.05473">
        <ele>78.519593</ele>
        <time>2023-04-29T12:24:09.583Z</time>
      </trkpt>
      <trkpt lat="51.52936" lon="7.05457">
        <ele>78.263666</ele>
        <time>2023-04-29T12:24:11.587Z</time>
      </trkpt>
      <trkpt lat="51.52929" lon="7.05442">
        <ele>78.017883</ele>
        <time>2023-04-29T12:24:13.574Z</time>
      </trkpt>
      <trkpt lat="51.52923" lon="7.05426">
        <ele>77.773187</ele>
        <time>2023-04-29T12:24:15.587Z</time>
      </trkpt>
      <trkpt lat="51.52916" lon="7.05411">
        <ele>77.539514</ele>
        <time>2023-04-29T12:24:17.575Z</time>
      </trkpt>
      <trkpt lat="51.5291" lon="7.05395">
        <ele>77.287114</ele>
        <time>2023-04-29T12:24:19.566Z</time>
      </trkpt>
      <trkpt lat="51.52903" lon="7.0538">
        <ele>77.044676</ele>
        <time>2023-04-29T12:24:21.593Z</time>
      </trkpt>
      <trkpt lat="51.52897" lon="7.05364">
        <ele>76.794584</ele>
        <time>2023-04-29T12:24:23.571Z</time>
      </trkpt>
      <trkpt lat="51.52892" lon="7.05347">
        <ele>76.605006</ele>
        <time>2023-04-29T12:24:25.570Z</time>
      </trkpt>
      <trkpt lat="51.52886" lon="7.05331">
        <ele>76.470279</ele>
        <time>2023-04-29T12:24:27.576Z</time>
      </trkpt>
      <trkpt lat="51.52881" lon="7.05315">
        <ele>76.341092</ele>
        <time>2023-04-29T12:24:29.570Z</time>
      </trkpt>
      <trkpt lat="51.52875" lon="7.05301">
        <ele>76.216426</ele>
        <time>2023-04-29T12:24:31.576Z</time>
      </trkpt>
      <trkpt lat="51.52869" lon="7.05287">
        <ele>76.090906</ele>
        <time>2023-04-29T12:24:33.574Z</time>
      </trkpt>
      <trkpt lat="51.52862" lon="7.05273">
        <ele>75.957272</ele>
        <time>2023-04-29T12:24:35.567Z</time>
      </trkpt>
      <trkpt lat="51.52855" lon="7.05258">
        <ele>75.821028</ele>
        <time>2023-04-29T12:24:37.582Z</time>
      </trkpt>
      <trkpt lat="51.52849" lon="7.05244">
        <ele>75.696185</ele>
        <time>2023-04-29T12:24:39.571Z</time>
      </trkpt>
      <trkpt lat="51.52843" lon="7.05231">
        <ele>75.583298</ele>
        <time>2023-04-29T12:24:41.567Z</time>
      </trkpt>
      <trkpt lat="51.52838" lon="7.05216">
        <ele>75.457801</ele>
        <time>2023-04-29T12:24:43.588Z</time>
      </trkpt>
      <trkpt lat="51.52834" lon="7.05201">
        <ele>75.335348</ele>
        <time>2023-04-29T12:24:45.552Z</time>
      </trkpt>
      <trkpt lat="51.52829" lon="7.05185">
        <ele>75.210571</ele>
        <time>2023-04-29T12:24:47.573Z</time>
      </trkpt>
      <trkpt lat="51.52824" lon="7.0517">
        <ele>75.082497</ele>
        <time>2023-04-29T12:24:49.580Z</time>
      </trkpt>
      <trkpt lat="51.5282" lon="7.05155">
        <ele>74.962309</ele>
        <time>2023-04-29T12:24:51.586Z</time>
      </trkpt>
      <trkpt lat="51.52816" lon="7.0514">
        <ele>74.840621</ele>
        <time>2023-04-29T12:24:53.582Z</time>
      </trkpt>
      <trkpt lat="51.52812" lon="7.05124">
        <ele>74.720526</ele>
        <time>2023-04-29T12:24:55.577Z</time>
      </trkpt>
      <trkpt lat="51.52807" lon="7.05109">
        <ele>74.597572</ele>
        <time>2023-04-29T12:24:57.572Z</time>
      </trkpt>
      <trkpt lat="51.52803" lon="7.05094">
        <ele>74.594559</ele>
        <time>2023-04-29T12:24:59.567Z</time>
      </trkpt>
      <trkpt lat="51.528" lon="7.05079">
        <ele>74.632098</ele>
        <time>2023-04-29T12:25:01.603Z</time>
      </trkpt>
      <trkpt lat="51.52795" lon="7.05065">
        <ele>74.67062</ele>
        <time>2023-04-29T12:25:03.571Z</time>
      </trkpt>
      <trkpt lat="51.52791" lon="7.05049">
        <ele>74.710029</ele>
        <time>2023-04-29T12:25:05.569Z</time>
      </trkpt>
      <trkpt lat="51.52787" lon="7.05034">
        <ele>74.749138</ele>
        <time>2023-04-29T12:25:07.557Z</time>
      </trkpt>
      <trkpt lat="51.52782" lon="7.05018">
        <ele>74.790221</ele>
        <time>2023-04-29T12:25:09.562Z</time>
      </trkpt>
      <trkpt lat="51.52778" lon="7.05003">
        <ele>74.830643</ele>
        <time>2023-04-29T12:25:11.576Z</time>
      </trkpt>
      <trkpt lat="51.52773" lon="7.04987">
        <ele>74.872037</ele>
        <time>2023-04-29T12:25:13.573Z</time>
      </trkpt>
      <trkpt lat="51.52768" lon="7.0497">
        <ele>74.915562</ele>
        <time>2023-04-29T12:25:15.565Z</time>
      </trkpt>
      <trkpt lat="51.52764" lon="7.04954">
        <ele>74.955983</ele>
        <time>2023-04-29T12:25:17.588Z</time>
      </trkpt>
      <trkpt lat="51.52761" lon="7.04938">
        <ele>74.99624</ele>
        <time>2023-04-29T12:25:19.588Z</time>
      </trkpt>
      <trkpt lat="51.52757" lon="7.04921">
        <ele>75.038979</ele>
        <time>2023-04-29T12:25:21.574Z</time>
      </trkpt>
      <trkpt lat="51.52751" lon="7.04904">
        <ele>75.081828</ele>
        <time>2023-04-29T12:25:23.600Z</time>
      </trkpt>
      <trkpt lat="51.52747" lon="7.04891">
        <ele>75.118119</ele>
        <time>2023-04-29T12:25:25.581Z</time>
      </trkpt>
      <trkpt lat="51.52744" lon="7.04874">
        <ele>75.158039</ele>
        <time>2023-04-29T12:25:28.576Z</time>
      </trkpt>
      <trkpt lat="51.52737" lon="7.04859">
        <ele>75.202869</ele>
        <time>2023-04-29T12:25:32.575Z</time>
      </trkpt>
      <trkpt lat="51.5273" lon="7.04845">
        <ele>75.244813</ele>
        <time>2023-04-29T12:25:36.566Z</time>
      </trkpt>
      <trkpt lat="51.52723" lon="7.04835">
        <ele>75.134296</ele>
        <time>2023-04-29T12:25:40.563Z</time>
      </trkpt>
      <trkpt lat="51.52718" lon="7.04822">
        <ele>75.025759</ele>
        <time>2023-04-29T12:25:44.565Z</time>
      </trkpt>
      <trkpt lat="51.52712" lon="7.04808">
        <ele>74.899545</ele>
        <time>2023-04-29T12:25:47.573Z</time>
      </trkpt>
      <trkpt lat="51.52705" lon="7.04793">
        <ele>74.76407</ele>
        <time>2023-04-29T12:25:50.559Z</time>
      </trkpt>
      <trkpt lat="51.52698" lon="7.0478">
        <ele>74.637368</ele>
        <time>2023-04-29T12:25:52.573Z</time>
      </trkpt>
      <trkpt lat="51.52692" lon="7.04767">
        <ele>74.525608</ele>
        <time>2023-04-29T12:25:54.586Z</time>
      </trkpt>
      <trkpt lat="51.52685" lon="7.0475">
        <ele>74.373078</ele>
        <time>2023-04-29T12:25:57.566Z</time>
      </trkpt>
      <trkpt lat="51.52679" lon="7.04731">
        <ele>74.220487</ele>
        <time>2023-04-29T12:26:00.565Z</time>
      </trkpt>
      <trkpt lat="51.52671" lon="7.04714">
        <ele>74.067957</ele>
        <time>2023-04-29T12:26:03.572Z</time>
      </trkpt>
      <trkpt lat="51.52666" lon="7.04701">
        <ele>73.959107</ele>
        <time>2023-04-29T12:26:05.560Z</time>
      </trkpt>
      <trkpt lat="51.52661" lon="7.04689">
        <ele>73.847056</ele>
        <time>2023-04-29T12:26:07.590Z</time>
      </trkpt>
      <trkpt lat="51.52655" lon="7.04676">
        <ele>73.734245</ele>
        <time>2023-04-29T12:26:09.571Z</time>
      </trkpt>
      <trkpt lat="51.52649" lon="7.04663">
        <ele>73.621524</ele>
        <time>2023-04-29T12:26:11.587Z</time>
      </trkpt>
      <trkpt lat="51.52644" lon="7.04651">
        <ele>73.51034</ele>
        <time>2023-04-29T12:26:13.588Z</time>
      </trkpt>
      <trkpt lat="51.52638" lon="7.04638">
        <ele>73.396577</ele>
        <time>2023-04-29T12:26:15.564Z</time>
      </trkpt>
      <trkpt lat="51.52633" lon="7.04624">
        <ele>73.278524</ele>
        <time>2023-04-29T12:26:17.570Z</time>
      </trkpt>
      <trkpt lat="51.52627" lon="7.04611">
        <ele>73.163049</ele>
        <time>2023-04-29T12:26:19.566Z</time>
      </trkpt>
      <trkpt lat="51.52621" lon="7.04598">
        <ele>73.09124</ele>
        <time>2023-04-29T12:26:21.576Z</time>
      </trkpt>
      <trkpt lat="51.52616" lon="7.04585">
        <ele>73.027433</ele>
        <time>2023-04-29T12:26:23.577Z</time>
      </trkpt>
      <trkpt lat="51.5261" lon="7.04573">
        <ele>72.963332</ele>
        <time>2023-04-29T12:26:25.580Z</time>
      </trkpt>
      <trkpt lat="51.52604" lon="7.0456">
        <ele>72.899006</ele>
        <time>2023-04-29T12:26:27.599Z</time>
      </trkpt>
      <trkpt lat="51.52599" lon="7.04546">
        <ele>72.832524</ele>
        <time>2023-04-29T12:26:29.574Z</time>
      </trkpt>
      <trkpt lat="51.52594" lon="7.04534">
        <ele>72.770192</ele>
        <time>2023-04-29T12:26:31.572Z</time>
      </trkpt>
      <trkpt lat="51.52588" lon="7.04521">
        <ele>72.706123</ele>
        <time>2023-04-29T12:26:33.566Z</time>
      </trkpt>
      <trkpt lat="51.52583" lon="7.04508">
        <ele>72.641712</ele>
        <time>2023-04-29T12:26:35.580Z</time>
      </trkpt>
      <trkpt lat="51.52578" lon="7.04495">
        <ele>72.578383</ele>
        <time>2023-04-29T12:26:37.574Z</time>
      </trkpt>
      <trkpt lat="51.52573" lon="7.04483">
        <ele>72.518199</ele>
        <time>2023-04-29T12:26:39.565Z</time>
      </trkpt>
      <trkpt lat="51.52566" lon="7.04464">
        <ele>72.43068</ele>
        <time>2023-04-29T12:26:42.584Z</time>
      </trkpt>
      <trkpt lat="51.52561" lon="7.04452">
        <ele>72.368006</ele>
        <time>2023-04-29T12:26:44.575Z</time>
      </trkpt>
      <trkpt lat="51.52556" lon="7.04439">
        <ele>72.307126</ele>
        <time>2023-04-29T12:26:46.578Z</time>
      </trkpt>
      <trkpt lat="51.52551" lon="7.04426">
        <ele>72.245541</ele>
        <time>2023-04-29T12:26:48.580Z</time>
      </trkpt>
      <trkpt lat="51.52546" lon="7.04414">
        <ele>72.185656</ele>
        <time>2023-04-29T12:26:50.581Z</time>
      </trkpt>
      <trkpt lat="51.52541" lon="7.04402">
        <ele>72.124629</ele>
        <time>2023-04-29T12:26:52.568Z</time>
      </trkpt>
      <trkpt lat="51.52534" lon="7.04385">
        <ele>72.037501</ele>
        <time>2023-04-29T12:26:55.587Z</time>
      </trkpt>
      <trkpt lat="51.52526" lon="7.04367">
        <ele>71.966578</ele>
        <time>2023-04-29T12:26:58.580Z</time>
      </trkpt>
      <trkpt lat="51.52519" lon="7.0435">
        <ele>72.016842</ele>
        <time>2023-04-29T12:27:01.577Z</time>
      </trkpt>
      <trkpt lat="51.52512" lon="7.04334">
        <ele>72.063511</ele>
        <time>2023-04-29T12:27:04.576Z</time>
      </trkpt>
      <trkpt lat="51.52506" lon="7.04317">
        <ele>72.11079</ele>
        <time>2023-04-29T12:27:07.572Z</time>
      </trkpt>
      <trkpt lat="51.52499" lon="7.043">
        <ele>72.160524</ele>
        <time>2023-04-29T12:27:10.601Z</time>
      </trkpt>
      <trkpt lat="51.52492" lon="7.04282">
        <ele>72.210668</ele>
        <time>2023-04-29T12:27:13.567Z</time>
      </trkpt>
      <trkpt lat="51.52485" lon="7.04263">
        <ele>72.262702</ele>
        <time>2023-04-29T12:27:16.594Z</time>
      </trkpt>
      <trkpt lat="51.52479" lon="7.04245">
        <ele>72.31387</ele>
        <time>2023-04-29T12:27:19.560Z</time>
      </trkpt>
      <trkpt lat="51.52472" lon="7.04228">
        <ele>72.36279</ele>
        <time>2023-04-29T12:27:22.581Z</time>
      </trkpt>
      <trkpt lat="51.52464" lon="7.04212">
        <ele>72.410653</ele>
        <time>2023-04-29T12:27:25.574Z</time>
      </trkpt>
      <trkpt lat="51.52459" lon="7.04196">
        <ele>72.454808</ele>
        <time>2023-04-29T12:27:28.573Z</time>
      </trkpt>
      <trkpt lat="51.52456" lon="7.04177">
        <ele>72.502111</ele>
        <time>2023-04-29T12:27:31.581Z</time>
      </trkpt>
      <trkpt lat="51.52453" lon="7.04163">
        <ele>72.537099</ele>
        <time>2023-04-29T12:27:33.563Z</time>
      </trkpt>
      <trkpt lat="51.52449" lon="7.0415">
        <ele>72.572879</ele>
        <time>2023-04-29T12:27:35.566Z</time>
      </trkpt>
      <trkpt lat="51.52443" lon="7.04135">
        <ele>72.615271</ele>
        <time>2023-04-29T12:27:37.572Z</time>
      </trkpt>
      <trkpt lat="51.52437" lon="7.04121">
        <ele>72.656423</ele>
        <time>2023-04-29T12:27:39.563Z</time>
      </trkpt>
      <trkpt lat="51.5243" lon="7.04105">
        <ele>72.591764</ele>
        <time>2023-04-29T12:27:41.554Z</time>
      </trkpt>
      <trkpt lat="51.52419" lon="7.04092">
        <ele>72.520419</ele>
        <time>2023-04-29T12:27:44.564Z</time>
      </trkpt>
      <trkpt lat="51.52413" lon="7.04081">
        <ele>72.469627</ele>
        <time>2023-04-29T12:27:46.580Z</time>
      </trkpt>
      <trkpt lat="51.52407" lon="7.0407">
        <ele>72.420188</ele>
        <time>2023-04-29T12:27:48.587Z</time>
      </trkpt>
      <trkpt lat="51.52401" lon="7.04058">
        <ele>72.370684</ele>
        <time>2023-04-29T12:27:50.579Z</time>
      </trkpt>
      <trkpt lat="51.52396" lon="7.04045">
        <ele>72.320201</ele>
        <time>2023-04-29T12:27:52.564Z</time>
      </trkpt>
      <trkpt lat="51.52391" lon="7.04031">
        <ele>72.26631</ele>
        <time>2023-04-29T12:27:54.577Z</time>
      </trkpt>
      <trkpt lat="51.52385" lon="7.04018">
        <ele>72.212057</ele>
        <time>2023-04-29T12:27:56.596Z</time>
      </trkpt>
      <trkpt lat="51.52379" lon="7.04004">
        <ele>72.158182</ele>
        <time>2023-04-29T12:27:58.574Z</time>
      </trkpt>
      <trkpt lat="51.52374" lon="7.03991">
        <ele>72.107129</ele>
        <time>2023-04-29T12:28:00.587Z</time>
      </trkpt>
      <trkpt lat="51.52369" lon="7.03978">
        <ele>72.054885</ele>
        <time>2023-04-29T12:28:02.551Z</time>
      </trkpt>
      <trkpt lat="51.52363" lon="7.03965">
        <ele>72.00094</ele>
        <time>2023-04-29T12:28:04.587Z</time>
      </trkpt>
      <trkpt lat="51.52358" lon="7.03952">
        <ele>71.95214</ele>
        <time>2023-04-29T12:28:06.584Z</time>
      </trkpt>
      <trkpt lat="51.52351" lon="7.03938">
        <ele>71.890656</ele>
        <time>2023-04-29T12:28:09.565Z</time>
      </trkpt>
      <trkpt lat="51.52343" lon="7.03922">
        <ele>71.8257</ele>
        <time>2023-04-29T12:28:12.585Z</time>
      </trkpt>
      <trkpt lat="51.52337" lon="7.03905">
        <ele>71.758561</ele>
        <time>2023-04-29T12:28:15.580Z</time>
      </trkpt>
      <trkpt lat="51.52329" lon="7.03889">
        <ele>71.70132</ele>
        <time>2023-04-29T12:28:18.583Z</time>
      </trkpt>
      <trkpt lat="51.52322" lon="7.03871">
        <ele>71.758642</ele>
        <time>2023-04-29T12:28:21.568Z</time>
      </trkpt>
      <trkpt lat="51.52315" lon="7.03854">
        <ele>71.813784</ele>
        <time>2023-04-29T12:28:24.575Z</time>
      </trkpt>
      <trkpt lat="51.52307" lon="7.03837">
        <ele>71.870567</ele>
        <time>2023-04-29T12:28:27.575Z</time>
      </trkpt>
      <trkpt lat="51.523" lon="7.03819">
        <ele>71.925927</ele>
        <time>2023-04-29T12:28:30.580Z</time>
      </trkpt>
      <trkpt lat="51.52291" lon="7.03803">
        <ele>71.981787</ele>
        <time>2023-04-29T12:28:33.593Z</time>
      </trkpt>
      <trkpt lat="51.52283" lon="7.03787">
        <ele>72.038517</ele>
        <time>2023-04-29T12:28:36.578Z</time>
      </trkpt>
      <trkpt lat="51.52278" lon="7.03774">
        <ele>72.077574</ele>
        <time>2023-04-29T12:28:38.595Z</time>
      </trkpt>
      <trkpt lat="51.52273" lon="7.03761">
        <ele>72.11707</ele>
        <time>2023-04-29T12:28:40.576Z</time>
      </trkpt>
      <trkpt lat="51.52266" lon="7.03743">
        <ele>72.175068</ele>
        <time>2023-04-29T12:28:43.580Z</time>
      </trkpt>
      <trkpt lat="51.52259" lon="7.03726">
        <ele>72.229163</ele>
        <time>2023-04-29T12:28:46.588Z</time>
      </trkpt>
      <trkpt lat="51.52253" lon="7.03714">
        <ele>72.269174</ele>
        <time>2023-04-29T12:28:48.561Z</time>
      </trkpt>
      <trkpt lat="51.52248" lon="7.03703">
        <ele>72.308251</ele>
        <time>2023-04-29T12:28:50.576Z</time>
      </trkpt>
      <trkpt lat="51.52243" lon="7.0369">
        <ele>72.347301</ele>
        <time>2023-04-29T12:28:52.572Z</time>
      </trkpt>
      <trkpt lat="51.52238" lon="7.03678">
        <ele>72.385665</ele>
        <time>2023-04-29T12:28:54.573Z</time>
      </trkpt>
      <trkpt lat="51.52229" lon="7.03661">
        <ele>72.443282</ele>
        <time>2023-04-29T12:28:57.590Z</time>
      </trkpt>
      <trkpt lat="51.52221" lon="7.03647">
        <ele>72.482907</ele>
        <time>2023-04-29T12:29:00.567Z</time>
      </trkpt>
      <trkpt lat="51.52215" lon="7.03629">
        <ele>72.514435</ele>
        <time>2023-04-29T12:29:03.564Z</time>
      </trkpt>
      <trkpt lat="51.5221" lon="7.0361">
        <ele>72.546018</ele>
        <time>2023-04-29T12:29:06.579Z</time>
      </trkpt>
      <trkpt lat="51.52204" lon="7.03592">
        <ele>72.577881</ele>
        <time>2023-04-29T12:29:09.559Z</time>
      </trkpt>
      <trkpt lat="51.52196" lon="7.03574">
        <ele>72.61091</ele>
        <time>2023-04-29T12:29:12.572Z</time>
      </trkpt>
      <trkpt lat="51.52191" lon="7.03561">
        <ele>72.635117</ele>
        <time>2023-04-29T12:29:14.566Z</time>
      </trkpt>
      <trkpt lat="51.52183" lon="7.03542">
        <ele>72.668548</ele>
        <time>2023-04-29T12:29:17.558Z</time>
      </trkpt>
      <trkpt lat="51.52178" lon="7.0353">
        <ele>72.691077</ele>
        <time>2023-04-29T12:29:19.568Z</time>
      </trkpt>
      <trkpt lat="51.52171" lon="7.03513">
        <ele>72.723315</ele>
        <time>2023-04-29T12:29:22.582Z</time>
      </trkpt>
      <trkpt lat="51.52166" lon="7.03501">
        <ele>72.745578</ele>
        <time>2023-04-29T12:29:24.573Z</time>
      </trkpt>
      <trkpt lat="51.5216" lon="7.03488">
        <ele>72.768736</ele>
        <time>2023-04-29T12:29:26.570Z</time>
      </trkpt>
      <trkpt lat="51.52155" lon="7.03475">
        <ele>72.792134</ele>
        <time>2023-04-29T12:29:28.560Z</time>
      </trkpt>
      <trkpt lat="51.5215" lon="7.03462">
        <ele>72.816065</ele>
        <time>2023-04-29T12:29:30.580Z</time>
      </trkpt>
      <trkpt lat="51.52143" lon="7.03444">
        <ele>72.848563</ele>
        <time>2023-04-29T12:29:33.576Z</time>
      </trkpt>
      <trkpt lat="51.52138" lon="7.03431">
        <ele>72.871575</ele>
        <time>2023-04-29T12:29:35.574Z</time>
      </trkpt>
      <trkpt lat="51.52133" lon="7.03418">
        <ele>72.894453</ele>
        <time>2023-04-29T12:29:37.576Z</time>
      </trkpt>
      <trkpt lat="51.52126" lon="7.03401">
        <ele>72.987443</ele>
        <time>2023-04-29T12:29:40.576Z</time>
      </trkpt>
      <trkpt lat="51.5212" lon="7.03383">
        <ele>73.113395</ele>
        <time>2023-04-29T12:29:43.576Z</time>
      </trkpt>
      <trkpt lat="51.52113" lon="7.03366">
        <ele>73.237252</ele>
        <time>2023-04-29T12:29:46.582Z</time>
      </trkpt>
      <trkpt lat="51.52107" lon="7.03349">
        <ele>73.364801</ele>
        <time>2023-04-29T12:29:49.565Z</time>
      </trkpt>
      <trkpt lat="51.521" lon="7.03333">
        <ele>73.488644</ele>
        <time>2023-04-29T12:29:52.579Z</time>
      </trkpt>
      <trkpt lat="51.52094" lon="7.03316">
        <ele>73.611391</ele>
        <time>2023-04-29T12:29:55.581Z</time>
      </trkpt>
      <trkpt lat="51.52087" lon="7.03298">
        <ele>73.74535</ele>
        <time>2023-04-29T12:29:58.571Z</time>
      </trkpt>
      <trkpt lat="51.5208" lon="7.0328">
        <ele>73.875575</ele>
        <time>2023-04-29T12:30:01.573Z</time>
      </trkpt>
      <trkpt lat="51.52073" lon="7.03262">
        <ele>74.006899</ele>
        <time>2023-04-29T12:30:04.588Z</time>
      </trkpt>
      <trkpt lat="51.52066" lon="7.03244">
        <ele>74.140323</ele>
        <time>2023-04-29T12:30:07.564Z</time>
      </trkpt>
      <trkpt lat="51.5206" lon="7.03227">
        <ele>74.266279</ele>
        <time>2023-04-29T12:30:10.575Z</time>
      </trkpt>
      <trkpt lat="51.52053" lon="7.03211">
        <ele>74.38797</ele>
        <time>2023-04-29T12:30:13.567Z</time>
      </trkpt>
      <trkpt lat="51.52047" lon="7.03193">
        <ele>74.513078</ele>
        <time>2023-04-29T12:30:16.593Z</time>
      </trkpt>
      <trkpt lat="51.52042" lon="7.03179">
        <ele>74.621949</ele>
        <time>2023-04-29T12:30:19.562Z</time>
      </trkpt>
      <trkpt lat="51.52036" lon="7.03164">
        <ele>74.726968</ele>
        <time>2023-04-29T12:30:22.583Z</time>
      </trkpt>
      <trkpt lat="51.5203" lon="7.03149">
        <ele>74.788606</ele>
        <time>2023-04-29T12:30:25.568Z</time>
      </trkpt>
      <trkpt lat="51.52024" lon="7.03133">
        <ele>74.851934</ele>
        <time>2023-04-29T12:30:28.588Z</time>
      </trkpt>
      <trkpt lat="51.52018" lon="7.03118">
        <ele>74.9124</ele>
        <time>2023-04-29T12:30:31.576Z</time>
      </trkpt>
      <trkpt lat="51.52012" lon="7.03101">
        <ele>74.977174</ele>
        <time>2023-04-29T12:30:34.594Z</time>
      </trkpt>
      <trkpt lat="51.52006" lon="7.03086">
        <ele>75.038276</ele>
        <time>2023-04-29T12:30:37.572Z</time>
      </trkpt>
      <trkpt lat="51.52" lon="7.03069">
        <ele>75.103747</ele>
        <time>2023-04-29T12:30:40.573Z</time>
      </trkpt>
      <trkpt lat="51.51994" lon="7.03052">
        <ele>75.170004</ele>
        <time>2023-04-29T12:30:43.591Z</time>
      </trkpt>
      <trkpt lat="51.51986" lon="7.03036">
        <ele>75.237016</ele>
        <time>2023-04-29T12:30:46.593Z</time>
      </trkpt>
      <trkpt lat="51.5198" lon="7.03019">
        <ele>75.303539</ele>
        <time>2023-04-29T12:30:49.568Z</time>
      </trkpt>
      <trkpt lat="51.51974" lon="7.03003">
        <ele>75.367154</ele>
        <time>2023-04-29T12:30:52.590Z</time>
      </trkpt>
      <trkpt lat="51.51968" lon="7.02989">
        <ele>75.425331</ele>
        <time>2023-04-29T12:30:55.561Z</time>
      </trkpt>
      <trkpt lat="51.51962" lon="7.02973">
        <ele>75.489242</ele>
        <time>2023-04-29T12:30:58.581Z</time>
      </trkpt>
      <trkpt lat="51.51955" lon="7.02958">
        <ele>75.551444</ele>
        <time>2023-04-29T12:31:01.577Z</time>
      </trkpt>
      <trkpt lat="51.51949" lon="7.02942">
        <ele>75.613917</ele>
        <time>2023-04-29T12:31:04.574Z</time>
      </trkpt>
      <trkpt lat="51.51942" lon="7.02926">
        <ele>75.679032</ele>
        <time>2023-04-29T12:31:07.561Z</time>
      </trkpt>
      <trkpt lat="51.51936" lon="7.02909">
        <ele>75.742365</ele>
        <time>2023-04-29T12:31:10.569Z</time>
      </trkpt>
      <trkpt lat="51.51929" lon="7.02892">
        <ele>75.805138</ele>
        <time>2023-04-29T12:31:13.574Z</time>
      </trkpt>
      <trkpt lat="51.51922" lon="7.02875">
        <ele>75.865582</ele>
        <time>2023-04-29T12:31:16.568Z</time>
      </trkpt>
      <trkpt lat="51.51915" lon="7.02858">
        <ele>75.928883</ele>
        <time>2023-04-29T12:31:19.564Z</time>
      </trkpt>
      <trkpt lat="51.51908" lon="7.02841">
        <ele>75.993607</ele>
        <time>2023-04-29T12:31:22.574Z</time>
      </trkpt>
      <trkpt lat="51.51903" lon="7.02829">
        <ele>76.038647</ele>
        <time>2023-04-29T12:31:24.573Z</time>
      </trkpt>
      <trkpt lat="51.51896" lon="7.02812">
        <ele>76.099871</ele>
        <time>2023-04-29T12:31:27.569Z</time>
      </trkpt>
      <trkpt lat="51.51889" lon="7.02795">
        <ele>76.161635</ele>
        <time>2023-04-29T12:31:30.574Z</time>
      </trkpt>
      <trkpt lat="51.51882" lon="7.02778">
        <ele>76.224974</ele>
        <time>2023-04-29T12:31:33.566Z</time>
      </trkpt>
      <trkpt lat="51.51875" lon="7.02761">
        <ele>76.289889</ele>
        <time>2023-04-29T12:31:36.573Z</time>
      </trkpt>
      <trkpt lat="51.51867" lon="7.02745">
        <ele>76.352329</ele>
        <time>2023-04-29T12:31:39.588Z</time>
      </trkpt>
      <trkpt lat="51.51861" lon="7.02729">
        <ele>76.410655</ele>
        <time>2023-04-29T12:31:42.573Z</time>
      </trkpt>
      <trkpt lat="51.51855" lon="7.02714">
        <ele>76.46459</ele>
        <time>2023-04-29T12:31:45.590Z</time>
      </trkpt>
      <trkpt lat="51.51849" lon="7.027">
        <ele>76.517679</ele>
        <time>2023-04-29T12:31:48.558Z</time>
      </trkpt>
      <trkpt lat="51.51842" lon="7.02686">
        <ele>76.572122</ele>
        <time>2023-04-29T12:31:51.577Z</time>
      </trkpt>
      <trkpt lat="51.51834" lon="7.02674">
        <ele>76.852371</ele>
        <time>2023-04-29T12:31:54.574Z</time>
      </trkpt>
      <trkpt lat="51.51826" lon="7.02662">
        <ele>77.304419</ele>
        <time>2023-04-29T12:31:58.582Z</time>
      </trkpt>
      <trkpt lat="51.51819" lon="7.02651">
        <ele>77.674709</ele>
        <time>2023-04-29T12:32:02.574Z</time>
      </trkpt>
      <trkpt lat="51.51813" lon="7.02639">
        <ele>78.051544</ele>
        <time>2023-04-29T12:32:06.560Z</time>
      </trkpt>
      <trkpt lat="51.51806" lon="7.02627">
        <ele>78.432066</ele>
        <time>2023-04-29T12:32:10.587Z</time>
      </trkpt>
      <trkpt lat="51.51799" lon="7.02615">
        <ele>78.847277</ele>
        <time>2023-04-29T12:32:15.573Z</time>
      </trkpt>
      <trkpt lat="51.51792" lon="7.02605">
        <ele>79.20219</ele>
        <time>2023-04-29T12:32:20.585Z</time>
      </trkpt>
      <trkpt lat="51.51784" lon="7.02606">
        <ele>79.529056</ele>
        <time>2023-04-29T12:32:32.898Z</time>
      </trkpt>
      <trkpt lat="51.51782" lon="7.02592">
        <ele>79.878824</ele>
        <time>2023-04-29T12:38:21.565Z</time>
      </trkpt>
      <trkpt lat="51.51776" lon="7.02577">
        <ele>80.305147</ele>
        <time>2023-04-29T12:38:26.568Z</time>
      </trkpt>
      <trkpt lat="51.51767" lon="7.02566">
        <ele>80.764518</ele>
        <time>2023-04-29T12:38:30.574Z</time>
      </trkpt>
      <trkpt lat="51.51758" lon="7.0256">
        <ele>81.13604</ele>
        <time>2023-04-29T12:38:33.568Z</time>
      </trkpt>
      <trkpt lat="51.51748" lon="7.02553">
        <ele>81.533543</ele>
        <time>2023-04-29T12:38:36.589Z</time>
      </trkpt>
      <trkpt lat="51.51739" lon="7.02545">
        <ele>81.952211</ele>
        <time>2023-04-29T12:38:39.572Z</time>
      </trkpt>
      <trkpt lat="51.5173" lon="7.02539">
        <ele>82.304968</ele>
        <time>2023-04-29T12:38:41.579Z</time>
      </trkpt>
      <trkpt lat="51.51719" lon="7.02532">
        <ele>82.780701</ele>
        <time>2023-04-29T12:38:44.569Z</time>
      </trkpt>
      <trkpt lat="51.51709" lon="7.02524">
        <ele>83.213672</ele>
        <time>2023-04-29T12:38:47.565Z</time>
      </trkpt>
      <trkpt lat="51.517" lon="7.02513">
        <ele>83.502985</ele>
        <time>2023-04-29T12:38:50.573Z</time>
      </trkpt>
      <trkpt lat="51.51692" lon="7.02504">
        <ele>83.166866</ele>
        <time>2023-04-29T12:38:53.559Z</time>
      </trkpt>
      <trkpt lat="51.51683" lon="7.02495">
        <ele>82.827371</ele>
        <time>2023-04-29T12:38:56.583Z</time>
      </trkpt>
      <trkpt lat="51.51674" lon="7.02487">
        <ele>82.479811</ele>
        <time>2023-04-29T12:38:59.573Z</time>
      </trkpt>
      <trkpt lat="51.51665" lon="7.02477">
        <ele>82.119346</ele>
        <time>2023-04-29T12:39:02.567Z</time>
      </trkpt>
      <trkpt lat="51.51656" lon="7.02468">
        <ele>81.767799</ele>
        <time>2023-04-29T12:39:06.588Z</time>
      </trkpt>
      <trkpt lat="51.5165" lon="7.0248">
        <ele>81.454067</ele>
        <time>2023-04-29T12:39:10.577Z</time>
      </trkpt>
      <trkpt lat="51.51652" lon="7.02463">
        <ele>81.102834</ele>
        <time>2023-04-29T12:39:27.570Z</time>
      </trkpt>
      <trkpt lat="51.51643" lon="7.02449">
        <ele>80.707943</ele>
        <time>2023-04-29T12:39:31.568Z</time>
      </trkpt>
      <trkpt lat="51.51634" lon="7.02449">
        <ele>80.396807</ele>
        <time>2023-04-29T12:39:33.605Z</time>
      </trkpt>
      <trkpt lat="51.51625" lon="7.02456">
        <ele>80.082583</ele>
        <time>2023-04-29T12:39:35.559Z</time>
      </trkpt>
      <trkpt lat="51.51617" lon="7.02466">
        <ele>79.75064</ele>
        <time>2023-04-29T12:39:37.553Z</time>
      </trkpt>
      <trkpt lat="51.51609" lon="7.02476">
        <ele>79.412106</ele>
        <time>2023-04-29T12:39:39.552Z</time>
      </trkpt>
      <trkpt lat="51.51601" lon="7.02486">
        <ele>79.07718</ele>
        <time>2023-04-29T12:39:41.571Z</time>
      </trkpt>
      <trkpt lat="51.51592" lon="7.02495">
        <ele>78.729973</ele>
        <time>2023-04-29T12:39:43.570Z</time>
      </trkpt>
      <trkpt lat="51.51583" lon="7.02505">
        <ele>78.370061</ele>
        <time>2023-04-29T12:39:45.584Z</time>
      </trkpt>
      <trkpt lat="51.51573" lon="7.02516">
        <ele>77.980057</ele>
        <time>2023-04-29T12:39:47.567Z</time>
      </trkpt>
      <trkpt lat="51.51563" lon="7.02529">
        <ele>77.73824</ele>
        <time>2023-04-29T12:39:49.571Z</time>
      </trkpt>
      <trkpt lat="51.51554" lon="7.02543">
        <ele>77.997314</ele>
        <time>2023-04-29T12:39:51.570Z</time>
      </trkpt>
      <trkpt lat="51.51545" lon="7.02557">
        <ele>78.238159</ele>
        <time>2023-04-29T12:39:53.557Z</time>
      </trkpt>
      <trkpt lat="51.51537" lon="7.0257">
        <ele>78.475818</ele>
        <time>2023-04-29T12:39:55.584Z</time>
      </trkpt>
      <trkpt lat="51.51528" lon="7.02585">
        <ele>78.725732</ele>
        <time>2023-04-29T12:39:57.630Z</time>
      </trkpt>
      <trkpt lat="51.5152" lon="7.02599">
        <ele>78.969267</ele>
        <time>2023-04-29T12:39:59.548Z</time>
      </trkpt>
      <trkpt lat="51.51512" lon="7.02613">
        <ele>79.206927</ele>
        <time>2023-04-29T12:40:01.575Z</time>
      </trkpt>
      <trkpt lat="51.51503" lon="7.02626">
        <ele>79.452914</ele>
        <time>2023-04-29T12:40:03.566Z</time>
      </trkpt>
      <trkpt lat="51.51494" lon="7.02641">
        <ele>79.70804</ele>
        <time>2023-04-29T12:40:05.570Z</time>
      </trkpt>
      <trkpt lat="51.51487" lon="7.02656">
        <ele>79.942005</ele>
        <time>2023-04-29T12:40:07.573Z</time>
      </trkpt>
      <trkpt lat="51.51479" lon="7.02668">
        <ele>80.162862</ele>
        <time>2023-04-29T12:40:09.559Z</time>
      </trkpt>
      <trkpt lat="51.51472" lon="7.02681">
        <ele>80.369902</ele>
        <time>2023-04-29T12:40:11.584Z</time>
      </trkpt>
      <trkpt lat="51.51465" lon="7.02691">
        <ele>80.557534</ele>
        <time>2023-04-29T12:40:13.575Z</time>
      </trkpt>
      <trkpt lat="51.51458" lon="7.02702">
        <ele>80.755267</ele>
        <time>2023-04-29T12:40:15.581Z</time>
      </trkpt>
      <trkpt lat="51.51451" lon="7.02713">
        <ele>80.944936</ele>
        <time>2023-04-29T12:40:17.572Z</time>
      </trkpt>
      <trkpt lat="51.51444" lon="7.02722">
        <ele>81.127798</ele>
        <time>2023-04-29T12:40:19.569Z</time>
      </trkpt>
      <trkpt lat="51.51434" lon="7.02735">
        <ele>81.405218</ele>
        <time>2023-04-29T12:40:22.625Z</time>
      </trkpt>
      <trkpt lat="51.51423" lon="7.02748">
        <ele>81.707515</ele>
        <time>2023-04-29T12:40:25.577Z</time>
      </trkpt>
      <trkpt lat="51.51413" lon="7.02761">
        <ele>82.001847</ele>
        <time>2023-04-29T12:40:28.578Z</time>
      </trkpt>
      <trkpt lat="51.51403" lon="7.02773">
        <ele>82.285608</ele>
        <time>2023-04-29T12:40:31.567Z</time>
      </trkpt>
      <trkpt lat="51.51394" lon="7.02782">
        <ele>82.530883</ele>
        <time>2023-04-29T12:40:34.568Z</time>
      </trkpt>
      <trkpt lat="51.51386" lon="7.02792">
        <ele>82.766964</ele>
        <time>2023-04-29T12:40:37.575Z</time>
      </trkpt>
      <trkpt lat="51.51377" lon="7.02802">
        <ele>82.999537</ele>
        <time>2023-04-29T12:40:40.578Z</time>
      </trkpt>
      <trkpt lat="51.51369" lon="7.0281">
        <ele>83.229685</ele>
        <time>2023-04-29T12:40:43.560Z</time>
      </trkpt>
      <trkpt lat="51.51359" lon="7.02818">
        <ele>83.477669</ele>
        <time>2023-04-29T12:40:46.573Z</time>
      </trkpt>
      <trkpt lat="51.5135" lon="7.02827">
        <ele>83.713256</ele>
        <time>2023-04-29T12:40:49.561Z</time>
      </trkpt>
      <trkpt lat="51.51342" lon="7.02837">
        <ele>83.946434</ele>
        <time>2023-04-29T12:40:52.567Z</time>
      </trkpt>
      <trkpt lat="51.51333" lon="7.02842">
        <ele>84.16054</ele>
        <time>2023-04-29T12:40:55.557Z</time>
      </trkpt>
      <trkpt lat="51.51324" lon="7.02852">
        <ele>84.40015</ele>
        <time>2023-04-29T12:41:00.566Z</time>
      </trkpt>
      <trkpt lat="51.51313" lon="7.02855">
        <ele>84.653061</ele>
        <time>2023-04-29T12:41:04.556Z</time>
      </trkpt>
      <trkpt lat="51.51304" lon="7.02858">
        <ele>84.870373</ele>
        <time>2023-04-29T12:41:07.605Z</time>
      </trkpt>
      <trkpt lat="51.51298" lon="7.02871">
        <ele>85.085652</ele>
        <time>2023-04-29T12:41:10.579Z</time>
      </trkpt>
      <trkpt lat="51.51288" lon="7.02881">
        <ele>85.356172</ele>
        <time>2023-04-29T12:41:14.552Z</time>
      </trkpt>
      <trkpt lat="51.51281" lon="7.0289">
        <ele>85.515424</ele>
        <time>2023-04-29T12:41:17.571Z</time>
      </trkpt>
      <trkpt lat="51.51271" lon="7.02898">
        <ele>85.69446</ele>
        <time>2023-04-29T12:41:21.573Z</time>
      </trkpt>
      <trkpt lat="51.51261" lon="7.02907">
        <ele>85.898625</ele>
        <time>2023-04-29T12:41:25.553Z</time>
      </trkpt>
      <trkpt lat="51.51253" lon="7.02915">
        <ele>86.058877</ele>
        <time>2023-04-29T12:41:28.577Z</time>
      </trkpt>
      <trkpt lat="51.51243" lon="7.02923">
        <ele>86.241518</ele>
        <time>2023-04-29T12:41:32.553Z</time>
      </trkpt>
      <trkpt lat="51.51233" lon="7.02931">
        <ele>86.441224</ele>
        <time>2023-04-29T12:41:36.573Z</time>
      </trkpt>
      <trkpt lat="51.51223" lon="7.02941">
        <ele>86.63677</ele>
        <time>2023-04-29T12:41:40.571Z</time>
      </trkpt>
      <trkpt lat="51.51214" lon="7.02949">
        <ele>86.81401</ele>
        <time>2023-04-29T12:41:44.570Z</time>
      </trkpt>
      <trkpt lat="51.51204" lon="7.02958">
        <ele>87.003608</ele>
        <time>2023-04-29T12:41:48.570Z</time>
      </trkpt>
      <trkpt lat="51.51195" lon="7.02969">
        <ele>87.196589</ele>
        <time>2023-04-29T12:41:52.571Z</time>
      </trkpt>
      <trkpt lat="51.51187" lon="7.02976">
        <ele>87.361116</ele>
        <time>2023-04-29T12:41:56.568Z</time>
      </trkpt>
      <trkpt lat="51.51177" lon="7.02984">
        <ele>87.547729</ele>
        <time>2023-04-29T12:42:00.580Z</time>
      </trkpt>
      <trkpt lat="51.51169" lon="7.02994">
        <ele>87.72807</ele>
        <time>2023-04-29T12:42:04.566Z</time>
      </trkpt>
      <trkpt lat="51.5116" lon="7.03001">
        <ele>87.891051</ele>
        <time>2023-04-29T12:42:07.547Z</time>
      </trkpt>
      <trkpt lat="51.5115" lon="7.03009">
        <ele>88.078603</ele>
        <time>2023-04-29T12:42:11.570Z</time>
      </trkpt>
      <trkpt lat="51.51142" lon="7.03017">
        <ele>88.252645</ele>
        <time>2023-04-29T12:42:15.559Z</time>
      </trkpt>
      <trkpt lat="51.51133" lon="7.03025">
        <ele>88.425724</ele>
        <time>2023-04-29T12:42:19.558Z</time>
      </trkpt>
      <trkpt lat="51.51123" lon="7.03031">
        <ele>88.592495</ele>
        <time>2023-04-29T12:42:24.567Z</time>
      </trkpt>
      <trkpt lat="51.51114" lon="7.03039">
        <ele>88.766245</ele>
        <time>2023-04-29T12:42:30.576Z</time>
      </trkpt>
      <trkpt lat="51.51102" lon="7.0305">
        <ele>89.002768</ele>
        <time>2023-04-29T12:42:54.586Z</time>
      </trkpt>
      <trkpt lat="51.51093" lon="7.03058">
        <ele>89.175152</ele>
        <time>2023-04-29T12:42:58.556Z</time>
      </trkpt>
      <trkpt lat="51.51084" lon="7.03069">
        <ele>89.352729</ele>
        <time>2023-04-29T12:43:01.572Z</time>
      </trkpt>
      <trkpt lat="51.51075" lon="7.03078">
        <ele>89.528005</ele>
        <time>2023-04-29T12:43:04.561Z</time>
      </trkpt>
      <trkpt lat="51.51064" lon="7.03086">
        <ele>89.722608</ele>
        <time>2023-04-29T12:43:07.551Z</time>
      </trkpt>
      <trkpt lat="51.51053" lon="7.03093">
        <ele>89.923573</ele>
        <time>2023-04-29T12:43:10.574Z</time>
      </trkpt>
      <trkpt lat="51.51043" lon="7.03103">
        <ele>90.119707</ele>
        <time>2023-04-29T12:43:13.556Z</time>
      </trkpt>
      <trkpt lat="51.51033" lon="7.03111">
        <ele>90.308609</ele>
        <time>2023-04-29T12:43:16.561Z</time>
      </trkpt>
      <trkpt lat="51.51021" lon="7.03122">
        <ele>90.531176</ele>
        <time>2023-04-29T12:43:19.567Z</time>
      </trkpt>
      <trkpt lat="51.51011" lon="7.03135">
        <ele>90.746168</ele>
        <time>2023-04-29T12:43:22.558Z</time>
      </trkpt>
      <trkpt lat="51.51002" lon="7.03143">
        <ele>90.910036</ele>
        <time>2023-04-29T12:43:24.565Z</time>
      </trkpt>
      <trkpt lat="51.50994" lon="7.0315">
        <ele>91.07454</ele>
        <time>2023-04-29T12:43:26.561Z</time>
      </trkpt>
      <trkpt lat="51.50985" lon="7.03157">
        <ele>91.231949</ele>
        <time>2023-04-29T12:43:28.553Z</time>
      </trkpt>
      <trkpt lat="51.50976" lon="7.03164">
        <ele>91.39711</ele>
        <time>2023-04-29T12:43:30.569Z</time>
      </trkpt>
      <trkpt lat="51.50967" lon="7.03169">
        <ele>91.432617</ele>
        <time>2023-04-29T12:43:32.571Z</time>
      </trkpt>
      <trkpt lat="51.50959" lon="7.03177">
        <ele>91.461114</ele>
        <time>2023-04-29T12:43:34.559Z</time>
      </trkpt>
      <trkpt lat="51.50951" lon="7.03186">
        <ele>91.489403</ele>
        <time>2023-04-29T12:43:36.564Z</time>
      </trkpt>
      <trkpt lat="51.50943" lon="7.03193">
        <ele>91.517085</ele>
        <time>2023-04-29T12:43:38.598Z</time>
      </trkpt>
      <trkpt lat="51.50935" lon="7.03201">
        <ele>91.54501</ele>
        <time>2023-04-29T12:43:40.568Z</time>
      </trkpt>
      <trkpt lat="51.50927" lon="7.03208">
        <ele>91.571989</ele>
        <time>2023-04-29T12:43:42.582Z</time>
      </trkpt>
      <trkpt lat="51.50919" lon="7.03215">
        <ele>91.59882</ele>
        <time>2023-04-29T12:43:44.574Z</time>
      </trkpt>
      <trkpt lat="51.50908" lon="7.03227">
        <ele>91.638407</ele>
        <time>2023-04-29T12:43:47.590Z</time>
      </trkpt>
      <trkpt lat="51.50896" lon="7.03236">
        <ele>91.678399</ele>
        <time>2023-04-29T12:43:50.562Z</time>
      </trkpt>
      <trkpt lat="51.50888" lon="7.03243">
        <ele>91.70582</ele>
        <time>2023-04-29T12:43:52.567Z</time>
      </trkpt>
      <trkpt lat="51.5088" lon="7.03249">
        <ele>91.733161</ele>
        <time>2023-04-29T12:43:54.571Z</time>
      </trkpt>
      <trkpt lat="51.50868" lon="7.03259">
        <ele>91.772196</ele>
        <time>2023-04-29T12:43:57.567Z</time>
      </trkpt>
      <trkpt lat="51.50856" lon="7.03266">
        <ele>91.810491</ele>
        <time>2023-04-29T12:44:00.575Z</time>
      </trkpt>
      <trkpt lat="51.50844" lon="7.03275">
        <ele>91.850985</ele>
        <time>2023-04-29T12:44:03.567Z</time>
      </trkpt>
      <trkpt lat="51.50836" lon="7.03283">
        <ele>91.878611</ele>
        <time>2023-04-29T12:44:05.566Z</time>
      </trkpt>
      <trkpt lat="51.50826" lon="7.03294">
        <ele>91.916346</ele>
        <time>2023-04-29T12:44:08.588Z</time>
      </trkpt>
      <trkpt lat="51.50815" lon="7.03305">
        <ele>91.994911</ele>
        <time>2023-04-29T12:44:11.565Z</time>
      </trkpt>
      <trkpt lat="51.50807" lon="7.03312">
        <ele>92.124075</ele>
        <time>2023-04-29T12:44:13.564Z</time>
      </trkpt>
      <trkpt lat="51.50797" lon="7.03316">
        <ele>92.261249</ele>
        <time>2023-04-29T12:44:15.571Z</time>
      </trkpt>
      <trkpt lat="51.50789" lon="7.03322">
        <ele>92.396509</ele>
        <time>2023-04-29T12:44:17.569Z</time>
      </trkpt>
      <trkpt lat="51.5078" lon="7.03329">
        <ele>92.539294</ele>
        <time>2023-04-29T12:44:19.560Z</time>
      </trkpt>
      <trkpt lat="51.50771" lon="7.03336">
        <ele>92.669718</ele>
        <time>2023-04-29T12:44:21.567Z</time>
      </trkpt>
      <trkpt lat="51.50762" lon="7.03341">
        <ele>92.802501</ele>
        <time>2023-04-29T12:44:23.549Z</time>
      </trkpt>
      <trkpt lat="51.50753" lon="7.03344">
        <ele>92.934487</ele>
        <time>2023-04-29T12:44:25.564Z</time>
      </trkpt>
      <trkpt lat="51.50745" lon="7.03348">
        <ele>93.06193</ele>
        <time>2023-04-29T12:44:27.584Z</time>
      </trkpt>
      <trkpt lat="51.50732" lon="7.03356">
        <ele>93.255737</ele>
        <time>2023-04-29T12:44:30.561Z</time>
      </trkpt>
      <trkpt lat="51.50723" lon="7.03362">
        <ele>93.382859</ele>
        <time>2023-04-29T12:44:32.572Z</time>
      </trkpt>
      <trkpt lat="51.50714" lon="7.03366">
        <ele>93.513496</ele>
        <time>2023-04-29T12:44:34.579Z</time>
      </trkpt>
      <trkpt lat="51.50702" lon="7.03372">
        <ele>93.702818</ele>
        <time>2023-04-29T12:44:37.568Z</time>
      </trkpt>
      <trkpt lat="51.50689" lon="7.03381">
        <ele>93.896564</ele>
        <time>2023-04-29T12:44:40.567Z</time>
      </trkpt>
      <trkpt lat="51.50676" lon="7.03388">
        <ele>94.081955</ele>
        <time>2023-04-29T12:44:43.564Z</time>
      </trkpt>
      <trkpt lat="51.50664" lon="7.03395">
        <ele>94.265244</ele>
        <time>2023-04-29T12:44:46.572Z</time>
      </trkpt>
      <trkpt lat="51.50656" lon="7.034">
        <ele>94.395303</ele>
        <time>2023-04-29T12:44:48.577Z</time>
      </trkpt>
      <trkpt lat="51.50644" lon="7.03407">
        <ele>94.547354</ele>
        <time>2023-04-29T12:44:51.570Z</time>
      </trkpt>
      <trkpt lat="51.50633" lon="7.03413">
        <ele>94.673559</ele>
        <time>2023-04-29T12:44:54.567Z</time>
      </trkpt>
      <trkpt lat="51.50622" lon="7.03418">
        <ele>94.789292</ele>
        <time>2023-04-29T12:44:57.567Z</time>
      </trkpt>
      <trkpt lat="51.50613" lon="7.03422">
        <ele>94.894849</ele>
        <time>2023-04-29T12:45:00.575Z</time>
      </trkpt>
      <trkpt lat="51.50604" lon="7.03429">
        <ele>95.000053</ele>
        <time>2023-04-29T12:45:03.556Z</time>
      </trkpt>
      <trkpt lat="51.50595" lon="7.03437">
        <ele>95.107175</ele>
        <time>2023-04-29T12:45:07.559Z</time>
      </trkpt>
      <trkpt lat="51.50584" lon="7.0344">
        <ele>95.227716</ele>
        <time>2023-04-29T12:45:11.563Z</time>
      </trkpt>
      <trkpt lat="51.50574" lon="7.03437">
        <ele>95.329351</ele>
        <time>2023-04-29T12:45:16.639Z</time>
      </trkpt>
      <trkpt lat="51.50566" lon="7.03432">
        <ele>95.425246</ele>
        <time>2023-04-29T12:45:25.557Z</time>
      </trkpt>
      <trkpt lat="51.50575" lon="7.03436">
        <ele>95.529133</ele>
        <time>2023-04-29T12:45:36.563Z</time>
      </trkpt>
      <trkpt lat="51.50585" lon="7.03438">
        <ele>95.634745</ele>
        <time>2023-04-29T12:45:41.569Z</time>
      </trkpt>
      <trkpt lat="51.50595" lon="7.03435">
        <ele>95.739098</ele>
        <time>2023-04-29T12:45:47.552Z</time>
      </trkpt>
      <trkpt lat="51.50604" lon="7.03431">
        <ele>95.840437</ele>
        <time>2023-04-29T12:45:51.562Z</time>
      </trkpt>
      <trkpt lat="51.50608" lon="7.03417">
        <ele>95.939829</ele>
        <time>2023-04-29T12:45:55.568Z</time>
      </trkpt>
      <trkpt lat="51.50602" lon="7.03406">
        <ele>96.040097</ele>
        <time>2023-04-29T12:45:58.563Z</time>
      </trkpt>
      <trkpt lat="51.50596" lon="7.03394">
        <ele>96.145724</ele>
        <time>2023-04-29T12:46:01.556Z</time>
      </trkpt>
      <trkpt lat="51.50589" lon="7.03382">
        <ele>96.250561</ele>
        <time>2023-04-29T12:46:04.546Z</time>
      </trkpt>
      <trkpt lat="51.50582" lon="7.0337">
        <ele>96.358072</ele>
        <time>2023-04-29T12:46:07.568Z</time>
      </trkpt>
      <trkpt lat="51.50575" lon="7.03359">
        <ele>96.419004</ele>
        <time>2023-04-29T12:46:10.583Z</time>
      </trkpt>
      <trkpt lat="51.50569" lon="7.03347">
        <ele>96.461291</ele>
        <time>2023-04-29T12:46:13.567Z</time>
      </trkpt>
      <trkpt lat="51.50562" lon="7.03334">
        <ele>96.506814</ele>
        <time>2023-04-29T12:46:16.575Z</time>
      </trkpt>
      <trkpt lat="51.50555" lon="7.0332">
        <ele>96.555182</ele>
        <time>2023-04-29T12:46:19.556Z</time>
      </trkpt>
      <trkpt lat="51.50549" lon="7.03305">
        <ele>96.602908</ele>
        <time>2023-04-29T12:46:22.563Z</time>
      </trkpt>
      <trkpt lat="51.50542" lon="7.03293">
        <ele>96.648295</ele>
        <time>2023-04-29T12:46:25.567Z</time>
      </trkpt>
      <trkpt lat="51.50535" lon="7.03278">
        <ele>96.695923</ele>
        <time>2023-04-29T12:46:28.567Z</time>
      </trkpt>
      <trkpt lat="51.50528" lon="7.03265">
        <ele>96.741928</ele>
        <time>2023-04-29T12:46:31.585Z</time>
      </trkpt>
      <trkpt lat="51.50522" lon="7.03252">
        <ele>96.788003</ele>
        <time>2023-04-29T12:46:34.567Z</time>
      </trkpt>
      <trkpt lat="51.50514" lon="7.03238">
        <ele>96.836698</ele>
        <time>2023-04-29T12:46:37.566Z</time>
      </trkpt>
      <trkpt lat="51.50507" lon="7.0322">
        <ele>96.894596</ele>
        <time>2023-04-29T12:46:40.553Z</time>
      </trkpt>
      <trkpt lat="51.50502" lon="7.03207">
        <ele>96.934277</ele>
        <time>2023-04-29T12:46:42.572Z</time>
      </trkpt>
      <trkpt lat="51.50497" lon="7.03195">
        <ele>96.974644</ele>
        <time>2023-04-29T12:46:44.566Z</time>
      </trkpt>
      <trkpt lat="51.50492" lon="7.03182">
        <ele>97.016161</ele>
        <time>2023-04-29T12:46:46.571Z</time>
      </trkpt>
      <trkpt lat="51.50486" lon="7.03169">
        <ele>97.057922</ele>
        <time>2023-04-29T12:46:48.574Z</time>
      </trkpt>
      <trkpt lat="51.5048" lon="7.03158">
        <ele>97.098006</ele>
        <time>2023-04-29T12:46:50.561Z</time>
      </trkpt>
      <trkpt lat="51.50474" lon="7.03146">
        <ele>97.138295</ele>
        <time>2023-04-29T12:46:52.577Z</time>
      </trkpt>
      <trkpt lat="51.50468" lon="7.03135">
        <ele>97.174596</ele>
        <time>2023-04-29T12:46:54.580Z</time>
      </trkpt>
      <trkpt lat="51.50463" lon="7.03123">
        <ele>97.20493</ele>
        <time>2023-04-29T12:46:56.591Z</time>
      </trkpt>
      <trkpt lat="51.50457" lon="7.03103">
        <ele>97.248899</ele>
        <time>2023-04-29T12:46:59.554Z</time>
      </trkpt>
      <trkpt lat="51.50452" lon="7.0309">
        <ele>97.279683</ele>
        <time>2023-04-29T12:47:01.566Z</time>
      </trkpt>
      <trkpt lat="51.50445" lon="7.0308">
        <ele>97.309262</ele>
        <time>2023-04-29T12:47:03.555Z</time>
      </trkpt>
      <trkpt lat="51.50439" lon="7.0307">
        <ele>97.33869</ele>
        <time>2023-04-29T12:47:05.573Z</time>
      </trkpt>
      <trkpt lat="51.50434" lon="7.03057">
        <ele>97.367775</ele>
        <time>2023-04-29T12:47:07.551Z</time>
      </trkpt>
      <trkpt lat="51.50431" lon="7.03043">
        <ele>97.396847</ele>
        <time>2023-04-29T12:47:09.565Z</time>
      </trkpt>
      <trkpt lat="51.50423" lon="7.03029">
        <ele>97.437698</ele>
        <time>2023-04-29T12:47:12.568Z</time>
      </trkpt>
      <trkpt lat="51.50412" lon="7.03015">
        <ele>97.480493</ele>
        <time>2023-04-29T12:47:15.562Z</time>
      </trkpt>
      <trkpt lat="51.50404" lon="7.03001">
        <ele>97.520715</ele>
        <time>2023-04-29T12:47:18.569Z</time>
      </trkpt>
      <trkpt lat="51.50398" lon="7.02989">
        <ele>97.549764</ele>
        <time>2023-04-29T12:47:20.561Z</time>
      </trkpt>
      <trkpt lat="51.50391" lon="7.02973">
        <ele>97.589264</ele>
        <time>2023-04-29T12:47:23.570Z</time>
      </trkpt>
      <trkpt lat="51.50383" lon="7.02957">
        <ele>97.63017</ele>
        <time>2023-04-29T12:47:26.580Z</time>
      </trkpt>
      <trkpt lat="51.50377" lon="7.02945">
        <ele>97.66002</ele>
        <time>2023-04-29T12:47:28.582Z</time>
      </trkpt>
      <trkpt lat="51.50368" lon="7.02929">
        <ele>97.703579</ele>
        <time>2023-04-29T12:47:31.572Z</time>
      </trkpt>
      <trkpt lat="51.50362" lon="7.02917">
        <ele>97.735161</ele>
        <time>2023-04-29T12:47:33.586Z</time>
      </trkpt>
      <trkpt lat="51.50357" lon="7.02904">
        <ele>97.7525</ele>
        <time>2023-04-29T12:47:35.567Z</time>
      </trkpt>
      <trkpt lat="51.50351" lon="7.02891">
        <ele>97.764371</ele>
        <time>2023-04-29T12:47:37.568Z</time>
      </trkpt>
      <trkpt lat="51.50345" lon="7.02879">
        <ele>97.775599</ele>
        <time>2023-04-29T12:47:39.562Z</time>
      </trkpt>
      <trkpt lat="51.50339" lon="7.02867">
        <ele>97.787521</ele>
        <time>2023-04-29T12:47:41.580Z</time>
      </trkpt>
      <trkpt lat="51.50333" lon="7.02855">
        <ele>97.799342</ele>
        <time>2023-04-29T12:47:43.571Z</time>
      </trkpt>
      <trkpt lat="51.50326" lon="7.02842">
        <ele>97.811277</ele>
        <time>2023-04-29T12:47:45.570Z</time>
      </trkpt>
      <trkpt lat="51.5032" lon="7.02829">
        <ele>97.823554</ele>
        <time>2023-04-29T12:47:47.581Z</time>
      </trkpt>
      <trkpt lat="51.50313" lon="7.02815">
        <ele>97.836796</ele>
        <time>2023-04-29T12:47:49.557Z</time>
      </trkpt>
      <trkpt lat="51.50306" lon="7.02801">
        <ele>97.849911</ele>
        <time>2023-04-29T12:47:51.569Z</time>
      </trkpt>
      <trkpt lat="51.503" lon="7.02787">
        <ele>97.86274</ele>
        <time>2023-04-29T12:47:53.565Z</time>
      </trkpt>
      <trkpt lat="51.50293" lon="7.02775">
        <ele>97.875268</ele>
        <time>2023-04-29T12:47:55.576Z</time>
      </trkpt>
      <trkpt lat="51.50287" lon="7.02761">
        <ele>97.888142</ele>
        <time>2023-04-29T12:47:57.578Z</time>
      </trkpt>
      <trkpt lat="51.50279" lon="7.02748">
        <ele>97.900744</ele>
        <time>2023-04-29T12:47:59.580Z</time>
      </trkpt>
      <trkpt lat="51.50273" lon="7.02736">
        <ele>97.912521</ele>
        <time>2023-04-29T12:48:01.563Z</time>
      </trkpt>
      <trkpt lat="51.50267" lon="7.02722">
        <ele>97.925264</ele>
        <time>2023-04-29T12:48:03.565Z</time>
      </trkpt>
      <trkpt lat="51.50263" lon="7.02706">
        <ele>97.938172</ele>
        <time>2023-04-29T12:48:05.569Z</time>
      </trkpt>
      <trkpt lat="51.50261" lon="7.02689">
        <ele>97.951125</ele>
        <time>2023-04-29T12:48:07.564Z</time>
      </trkpt>
      <trkpt lat="51.50257" lon="7.02674">
        <ele>97.994799</ele>
        <time>2023-04-29T12:48:09.555Z</time>
      </trkpt>
      <trkpt lat="51.50251" lon="7.02661">
        <ele>98.111531</ele>
        <time>2023-04-29T12:48:11.571Z</time>
      </trkpt>
      <trkpt lat="51.50246" lon="7.02649">
        <ele>98.218797</ele>
        <time>2023-04-29T12:48:13.589Z</time>
      </trkpt>
      <trkpt lat="51.50241" lon="7.02637">
        <ele>98.323454</ele>
        <time>2023-04-29T12:48:15.564Z</time>
      </trkpt>
      <trkpt lat="51.50233" lon="7.02619">
        <ele>98.477896</ele>
        <time>2023-04-29T12:48:18.570Z</time>
      </trkpt>
      <trkpt lat="51.50225" lon="7.02602">
        <ele>98.630724</ele>
        <time>2023-04-29T12:48:21.573Z</time>
      </trkpt>
      <trkpt lat="51.50216" lon="7.02587">
        <ele>98.781588</ele>
        <time>2023-04-29T12:48:24.572Z</time>
      </trkpt>
      <trkpt lat="51.50209" lon="7.02576">
        <ele>98.892827</ele>
        <time>2023-04-29T12:48:26.575Z</time>
      </trkpt>
      <trkpt lat="51.50202" lon="7.02566">
        <ele>98.999918</ele>
        <time>2023-04-29T12:48:28.583Z</time>
      </trkpt>
      <trkpt lat="51.50192" lon="7.02552">
        <ele>99.153709</ele>
        <time>2023-04-29T12:48:31.576Z</time>
      </trkpt>
      <trkpt lat="51.50183" lon="7.02535">
        <ele>99.316078</ele>
        <time>2023-04-29T12:48:34.549Z</time>
      </trkpt>
      <trkpt lat="51.50176" lon="7.02524">
        <ele>99.425325</ele>
        <time>2023-04-29T12:48:36.565Z</time>
      </trkpt>
      <trkpt lat="51.50169" lon="7.02513">
        <ele>99.541619</ele>
        <time>2023-04-29T12:48:38.571Z</time>
      </trkpt>
      <trkpt lat="51.50162" lon="7.02501">
        <ele>99.659236</ele>
        <time>2023-04-29T12:48:40.568Z</time>
      </trkpt>
      <trkpt lat="51.50156" lon="7.02489">
        <ele>99.775926</ele>
        <time>2023-04-29T12:48:42.571Z</time>
      </trkpt>
      <trkpt lat="51.50149" lon="7.02475">
        <ele>99.897378</ele>
        <time>2023-04-29T12:48:44.571Z</time>
      </trkpt>
      <trkpt lat="51.50143" lon="7.02462">
        <ele>100.017681</ele>
        <time>2023-04-29T12:48:46.567Z</time>
      </trkpt>
      <trkpt lat="51.50137" lon="7.02449">
        <ele>99.928539</ele>
        <time>2023-04-29T12:48:48.567Z</time>
      </trkpt>
      <trkpt lat="51.5013" lon="7.02435">
        <ele>99.783228</ele>
        <time>2023-04-29T12:48:50.572Z</time>
      </trkpt>
      <trkpt lat="51.50126" lon="7.02419">
        <ele>99.635841</ele>
        <time>2023-04-29T12:48:52.558Z</time>
      </trkpt>
      <trkpt lat="51.50121" lon="7.02403">
        <ele>99.494073</ele>
        <time>2023-04-29T12:48:54.570Z</time>
      </trkpt>
      <trkpt lat="51.50118" lon="7.02388">
        <ele>99.358668</ele>
        <time>2023-04-29T12:48:56.569Z</time>
      </trkpt>
      <trkpt lat="51.50113" lon="7.02373">
        <ele>99.223844</ele>
        <time>2023-04-29T12:48:58.571Z</time>
      </trkpt>
      <trkpt lat="51.50107" lon="7.0236">
        <ele>99.086662</ele>
        <time>2023-04-29T12:49:00.581Z</time>
      </trkpt>
      <trkpt lat="51.50099" lon="7.02346">
        <ele>98.935481</ele>
        <time>2023-04-29T12:49:02.561Z</time>
      </trkpt>
      <trkpt lat="51.50091" lon="7.02332">
        <ele>98.774957</ele>
        <time>2023-04-29T12:49:04.588Z</time>
      </trkpt>
      <trkpt lat="51.50084" lon="7.02319">
        <ele>98.628297</ele>
        <time>2023-04-29T12:49:06.589Z</time>
      </trkpt>
      <trkpt lat="51.50075" lon="7.02306">
        <ele>98.472045</ele>
        <time>2023-04-29T12:49:08.587Z</time>
      </trkpt>
      <trkpt lat="51.50067" lon="7.02293">
        <ele>98.322902</ele>
        <time>2023-04-29T12:49:10.591Z</time>
      </trkpt>
      <trkpt lat="51.50059" lon="7.02281">
        <ele>98.179099</ele>
        <time>2023-04-29T12:49:12.571Z</time>
      </trkpt>
      <trkpt lat="51.50053" lon="7.02268">
        <ele>98.039762</ele>
        <time>2023-04-29T12:49:14.572Z</time>
      </trkpt>
      <trkpt lat="51.50049" lon="7.02253">
        <ele>97.906817</ele>
        <time>2023-04-29T12:49:16.551Z</time>
      </trkpt>
      <trkpt lat="51.50046" lon="7.02238">
        <ele>97.776955</ele>
        <time>2023-04-29T12:49:18.568Z</time>
      </trkpt>
      <trkpt lat="51.50045" lon="7.02222">
        <ele>97.649519</ele>
        <time>2023-04-29T12:49:20.574Z</time>
      </trkpt>
      <trkpt lat="51.50044" lon="7.02208">
        <ele>97.613875</ele>
        <time>2023-04-29T12:49:22.571Z</time>
      </trkpt>
      <trkpt lat="51.50043" lon="7.02191">
        <ele>97.573882</ele>
        <time>2023-04-29T12:49:24.583Z</time>
      </trkpt>
      <trkpt lat="51.5004" lon="7.02176">
        <ele>97.535572</ele>
        <time>2023-04-29T12:49:26.568Z</time>
      </trkpt>
      <trkpt lat="51.50036" lon="7.02162">
        <ele>97.498841</ele>
        <time>2023-04-29T12:49:28.567Z</time>
      </trkpt>
      <trkpt lat="51.50033" lon="7.02149">
        <ele>97.463433</ele>
        <time>2023-04-29T12:49:30.563Z</time>
      </trkpt>
      <trkpt lat="51.50027" lon="7.02131">
        <ele>97.415052</ele>
        <time>2023-04-29T12:49:33.561Z</time>
      </trkpt>
      <trkpt lat="51.5002" lon="7.02116">
        <ele>97.36802</ele>
        <time>2023-04-29T12:49:36.570Z</time>
      </trkpt>
      <trkpt lat="51.50013" lon="7.021">
        <ele>97.322285</ele>
        <time>2023-04-29T12:49:39.567Z</time>
      </trkpt>
      <trkpt lat="51.50008" lon="7.02085">
        <ele>97.280308</ele>
        <time>2023-04-29T12:49:42.550Z</time>
      </trkpt>
      <trkpt lat="51.50001" lon="7.02071">
        <ele>97.23703</ele>
        <time>2023-04-29T12:49:45.571Z</time>
      </trkpt>
      <trkpt lat="51.49995" lon="7.02059">
        <ele>97.199347</ele>
        <time>2023-04-29T12:49:48.578Z</time>
      </trkpt>
      <trkpt lat="51.49988" lon="7.02049">
        <ele>97.163969</ele>
        <time>2023-04-29T12:49:51.567Z</time>
      </trkpt>
      <trkpt lat="51.49979" lon="7.02042">
        <ele>97.123277</ele>
        <time>2023-04-29T12:49:55.557Z</time>
      </trkpt>
      <trkpt lat="51.49969" lon="7.02041">
        <ele>97.084269</ele>
        <time>2023-04-29T12:49:58.572Z</time>
      </trkpt>
      <trkpt lat="51.49959" lon="7.02045">
        <ele>97.044802</ele>
        <time>2023-04-29T12:50:01.576Z</time>
      </trkpt>
      <trkpt lat="51.49948" lon="7.02052">
        <ele>96.999509</ele>
        <time>2023-04-29T12:50:05.577Z</time>
      </trkpt>
      <trkpt lat="51.49937" lon="7.02058">
        <ele>96.955305</ele>
        <time>2023-04-29T12:50:09.565Z</time>
      </trkpt>
      <trkpt lat="51.49928" lon="7.02059">
        <ele>96.993723</ele>
        <time>2023-04-29T12:50:13.553Z</time>
      </trkpt>
      <trkpt lat="51.4992" lon="7.02043">
        <ele>97.055568</ele>
        <time>2023-04-29T12:50:17.566Z</time>
      </trkpt>
      <trkpt lat="51.49914" lon="7.02028">
        <ele>97.110557</ele>
        <time>2023-04-29T12:50:20.571Z</time>
      </trkpt>
      <trkpt lat="51.49908" lon="7.02014">
        <ele>97.167822</ele>
        <time>2023-04-29T12:50:23.565Z</time>
      </trkpt>
      <trkpt lat="51.49901" lon="7.01998">
        <ele>97.227504</ele>
        <time>2023-04-29T12:50:26.569Z</time>
      </trkpt>
      <trkpt lat="51.49894" lon="7.01983">
        <ele>97.286769</ele>
        <time>2023-04-29T12:50:29.565Z</time>
      </trkpt>
      <trkpt lat="51.49887" lon="7.01966">
        <ele>97.349493</ele>
        <time>2023-04-29T12:50:32.582Z</time>
      </trkpt>
      <trkpt lat="51.49879" lon="7.01951">
        <ele>97.412538</ele>
        <time>2023-04-29T12:50:35.571Z</time>
      </trkpt>
      <trkpt lat="51.49872" lon="7.01934">
        <ele>97.475696</ele>
        <time>2023-04-29T12:50:38.583Z</time>
      </trkpt>
      <trkpt lat="51.49866" lon="7.01918">
        <ele>97.537069</ele>
        <time>2023-04-29T12:50:41.567Z</time>
      </trkpt>
      <trkpt lat="51.49858" lon="7.01902">
        <ele>97.599024</ele>
        <time>2023-04-29T12:50:44.583Z</time>
      </trkpt>
      <trkpt lat="51.49853" lon="7.0189">
        <ele>97.64561</ele>
        <time>2023-04-29T12:50:46.569Z</time>
      </trkpt>
      <trkpt lat="51.49847" lon="7.01879">
        <ele>97.693015</ele>
        <time>2023-04-29T12:50:48.578Z</time>
      </trkpt>
      <trkpt lat="51.4984" lon="7.01868">
        <ele>97.738504</ele>
        <time>2023-04-29T12:50:50.575Z</time>
      </trkpt>
      <trkpt lat="51.49831" lon="7.01853">
        <ele>97.804114</ele>
        <time>2023-04-29T12:50:53.566Z</time>
      </trkpt>
      <trkpt lat="51.49823" lon="7.01839">
        <ele>97.847318</ele>
        <time>2023-04-29T12:50:56.572Z</time>
      </trkpt>
      <trkpt lat="51.49817" lon="7.01828">
        <ele>97.788357</ele>
        <time>2023-04-29T12:50:58.572Z</time>
      </trkpt>
      <trkpt lat="51.49807" lon="7.01813">
        <ele>97.69937</ele>
        <time>2023-04-29T12:51:01.570Z</time>
      </trkpt>
      <trkpt lat="51.498" lon="7.01803">
        <ele>97.64041</ele>
        <time>2023-04-29T12:51:03.584Z</time>
      </trkpt>
      <trkpt lat="51.49794" lon="7.01792">
        <ele>97.579781</ele>
        <time>2023-04-29T12:51:05.569Z</time>
      </trkpt>
      <trkpt lat="51.49787" lon="7.01781">
        <ele>97.51793</ele>
        <time>2023-04-29T12:51:07.557Z</time>
      </trkpt>
      <trkpt lat="51.4978" lon="7.01772">
        <ele>97.457429</ele>
        <time>2023-04-29T12:51:09.566Z</time>
      </trkpt>
      <trkpt lat="51.49773" lon="7.0176">
        <ele>97.391768</ele>
        <time>2023-04-29T12:51:11.576Z</time>
      </trkpt>
      <trkpt lat="51.49767" lon="7.0175">
        <ele>97.33088</ele>
        <time>2023-04-29T12:51:13.574Z</time>
      </trkpt>
      <trkpt lat="51.49759" lon="7.0174">
        <ele>97.26733</ele>
        <time>2023-04-29T12:51:15.587Z</time>
      </trkpt>
      <trkpt lat="51.49752" lon="7.0173">
        <ele>97.206783</ele>
        <time>2023-04-29T12:51:17.575Z</time>
      </trkpt>
      <trkpt lat="51.49745" lon="7.0172">
        <ele>97.143463</ele>
        <time>2023-04-29T12:51:19.566Z</time>
      </trkpt>
      <trkpt lat="51.49738" lon="7.01709">
        <ele>97.078513</ele>
        <time>2023-04-29T12:51:21.570Z</time>
      </trkpt>
      <trkpt lat="51.4973" lon="7.017">
        <ele>97.015288</ele>
        <time>2023-04-29T12:51:23.562Z</time>
      </trkpt>
      <trkpt lat="51.49722" lon="7.01691">
        <ele>96.953975</ele>
        <time>2023-04-29T12:51:25.553Z</time>
      </trkpt>
      <trkpt lat="51.49715" lon="7.01681">
        <ele>96.889358</ele>
        <time>2023-04-29T12:51:27.568Z</time>
      </trkpt>
      <trkpt lat="51.49707" lon="7.01671">
        <ele>96.825568</ele>
        <time>2023-04-29T12:51:29.565Z</time>
      </trkpt>
      <trkpt lat="51.49699" lon="7.01662">
        <ele>96.760484</ele>
        <time>2023-04-29T12:51:31.568Z</time>
      </trkpt>
      <trkpt lat="51.49691" lon="7.01654">
        <ele>96.697165</ele>
        <time>2023-04-29T12:51:33.548Z</time>
      </trkpt>
      <trkpt lat="51.49682" lon="7.01645">
        <ele>96.639589</ele>
        <time>2023-04-29T12:51:35.571Z</time>
      </trkpt>
      <trkpt lat="51.49672" lon="7.01637">
        <ele>96.586049</ele>
        <time>2023-04-29T12:51:37.568Z</time>
      </trkpt>
      <trkpt lat="51.49663" lon="7.01631">
        <ele>96.53328</ele>
        <time>2023-04-29T12:51:39.587Z</time>
      </trkpt>
      <trkpt lat="51.49654" lon="7.01622">
        <ele>96.480901</ele>
        <time>2023-04-29T12:51:41.570Z</time>
      </trkpt>
      <trkpt lat="51.49646" lon="7.01615">
        <ele>96.430376</ele>
        <time>2023-04-29T12:51:43.574Z</time>
      </trkpt>
      <trkpt lat="51.49637" lon="7.01607">
        <ele>96.379876</ele>
        <time>2023-04-29T12:51:45.588Z</time>
      </trkpt>
      <trkpt lat="51.49628" lon="7.01601">
        <ele>96.330691</ele>
        <time>2023-04-29T12:51:47.579Z</time>
      </trkpt>
      <trkpt lat="51.49619" lon="7.01595">
        <ele>96.281155</ele>
        <time>2023-04-29T12:51:49.579Z</time>
      </trkpt>
      <trkpt lat="51.4961" lon="7.01591">
        <ele>96.231485</ele>
        <time>2023-04-29T12:51:51.589Z</time>
      </trkpt>
      <trkpt lat="51.49601" lon="7.01586">
        <ele>96.18348</ele>
        <time>2023-04-29T12:51:53.566Z</time>
      </trkpt>
      <trkpt lat="51.49592" lon="7.01582">
        <ele>96.135932</ele>
        <time>2023-04-29T12:51:55.570Z</time>
      </trkpt>
      <trkpt lat="51.49583" lon="7.01577">
        <ele>96.084398</ele>
        <time>2023-04-29T12:51:57.573Z</time>
      </trkpt>
      <trkpt lat="51.49573" lon="7.01573">
        <ele>96.030557</ele>
        <time>2023-04-29T12:51:59.599Z</time>
      </trkpt>
      <trkpt lat="51.49563" lon="7.0157">
        <ele>95.979673</ele>
        <time>2023-04-29T12:52:01.594Z</time>
      </trkpt>
      <trkpt lat="51.49554" lon="7.01565">
        <ele>95.93087</ele>
        <time>2023-04-29T12:52:03.592Z</time>
      </trkpt>
      <trkpt lat="51.49541" lon="7.01559">
        <ele>95.862584</ele>
        <time>2023-04-29T12:52:06.573Z</time>
      </trkpt>
      <trkpt lat="51.4953" lon="7.01557">
        <ele>95.804704</ele>
        <time>2023-04-29T12:52:09.552Z</time>
      </trkpt>
      <trkpt lat="51.49521" lon="7.01549">
        <ele>95.755963</ele>
        <time>2023-04-29T12:52:13.582Z</time>
      </trkpt>
      <trkpt lat="51.49516" lon="7.01536">
        <ele>95.752567</ele>
        <time>2023-04-29T12:52:17.578Z</time>
      </trkpt>
      <trkpt lat="51.4951" lon="7.01523">
        <ele>95.749346</ele>
        <time>2023-04-29T12:52:22.585Z</time>
      </trkpt>
      <trkpt lat="51.49503" lon="7.01534">
        <ele>95.746096</ele>
        <time>2023-04-29T12:52:36.574Z</time>
      </trkpt>
      <trkpt lat="51.49495" lon="7.01541">
        <ele>95.742696</ele>
        <time>2023-04-29T12:52:40.589Z</time>
      </trkpt>
      <trkpt lat="51.49484" lon="7.01544">
        <ele>95.739126</ele>
        <time>2023-04-29T12:52:43.583Z</time>
      </trkpt>
      <trkpt lat="51.49471" lon="7.01544">
        <ele>95.734637</ele>
        <time>2023-04-29T12:52:46.581Z</time>
      </trkpt>
      <trkpt lat="51.49462" lon="7.01545">
        <ele>95.731313</ele>
        <time>2023-04-29T12:52:48.582Z</time>
      </trkpt>
      <trkpt lat="51.49448" lon="7.01545">
        <ele>95.72672</ele>
        <time>2023-04-29T12:52:51.570Z</time>
      </trkpt>
      <trkpt lat="51.49439" lon="7.01544">
        <ele>95.723505</ele>
        <time>2023-04-29T12:52:53.588Z</time>
      </trkpt>
      <trkpt lat="51.4943" lon="7.01543">
        <ele>95.720216</ele>
        <time>2023-04-29T12:52:55.581Z</time>
      </trkpt>
      <trkpt lat="51.4942" lon="7.01542">
        <ele>95.716825</ele>
        <time>2023-04-29T12:52:57.563Z</time>
      </trkpt>
      <trkpt lat="51.4941" lon="7.01542">
        <ele>95.713578</ele>
        <time>2023-04-29T12:52:59.574Z</time>
      </trkpt>
      <trkpt lat="51.49401" lon="7.01542">
        <ele>95.710366</ele>
        <time>2023-04-29T12:53:01.595Z</time>
      </trkpt>
      <trkpt lat="51.49392" lon="7.0154">
        <ele>95.707033</ele>
        <time>2023-04-29T12:53:03.567Z</time>
      </trkpt>
      <trkpt lat="51.49381" lon="7.01539">
        <ele>95.703334</ele>
        <time>2023-04-29T12:53:05.567Z</time>
      </trkpt>
      <trkpt lat="51.4937" lon="7.01538">
        <ele>95.699702</ele>
        <time>2023-04-29T12:53:07.579Z</time>
      </trkpt>
      <trkpt lat="51.4936" lon="7.01538">
        <ele>95.696283</ele>
        <time>2023-04-29T12:53:09.586Z</time>
      </trkpt>
      <trkpt lat="51.4935" lon="7.01539">
        <ele>95.741721</ele>
        <time>2023-04-29T12:53:11.565Z</time>
      </trkpt>
      <trkpt lat="51.4934" lon="7.01539">
        <ele>95.847264</ele>
        <time>2023-04-29T12:53:13.570Z</time>
      </trkpt>
      <trkpt lat="51.4933" lon="7.01539">
        <ele>95.949628</ele>
        <time>2023-04-29T12:53:15.597Z</time>
      </trkpt>
      <trkpt lat="51.49321" lon="7.0154">
        <ele>96.051993</ele>
        <time>2023-04-29T12:53:17.559Z</time>
      </trkpt>
      <trkpt lat="51.49311" lon="7.01539">
        <ele>96.158591</ele>
        <time>2023-04-29T12:53:19.565Z</time>
      </trkpt>
      <trkpt lat="51.49301" lon="7.01538">
        <ele>96.261147</ele>
        <time>2023-04-29T12:53:21.567Z</time>
      </trkpt>
      <trkpt lat="51.49291" lon="7.01537">
        <ele>96.365016</ele>
        <time>2023-04-29T12:53:23.570Z</time>
      </trkpt>
      <trkpt lat="51.49281" lon="7.01534">
        <ele>96.467426</ele>
        <time>2023-04-29T12:53:25.570Z</time>
      </trkpt>
      <trkpt lat="51.49272" lon="7.01534">
        <ele>96.566606</ele>
        <time>2023-04-29T12:53:27.559Z</time>
      </trkpt>
      <trkpt lat="51.49262" lon="7.01535">
        <ele>96.670059</ele>
        <time>2023-04-29T12:53:29.579Z</time>
      </trkpt>
      <trkpt lat="51.49253" lon="7.01536">
        <ele>96.767238</ele>
        <time>2023-04-29T12:53:31.562Z</time>
      </trkpt>
      <trkpt lat="51.49244" lon="7.01536">
        <ele>96.863308</ele>
        <time>2023-04-29T12:53:33.572Z</time>
      </trkpt>
      <trkpt lat="51.49235" lon="7.01536">
        <ele>96.961488</ele>
        <time>2023-04-29T12:53:35.584Z</time>
      </trkpt>
      <trkpt lat="51.49226" lon="7.01535">
        <ele>97.056593</ele>
        <time>2023-04-29T12:53:37.571Z</time>
      </trkpt>
      <trkpt lat="51.49213" lon="7.01532">
        <ele>97.189583</ele>
        <time>2023-04-29T12:53:40.571Z</time>
      </trkpt>
      <trkpt lat="51.492" lon="7.01531">
        <ele>97.326824</ele>
        <time>2023-04-29T12:53:43.568Z</time>
      </trkpt>
      <trkpt lat="51.49188" lon="7.01531">
        <ele>97.457657</ele>
        <time>2023-04-29T12:53:46.570Z</time>
      </trkpt>
      <trkpt lat="51.49175" lon="7.01532">
        <ele>97.5918</ele>
        <time>2023-04-29T12:53:49.571Z</time>
      </trkpt>
      <trkpt lat="51.49163" lon="7.01531">
        <ele>97.577252</ele>
        <time>2023-04-29T12:53:52.596Z</time>
      </trkpt>
      <trkpt lat="51.49154" lon="7.01531">
        <ele>97.566342</ele>
        <time>2023-04-29T12:53:54.575Z</time>
      </trkpt>
      <trkpt lat="51.49142" lon="7.01531">
        <ele>97.551666</ele>
        <time>2023-04-29T12:53:57.564Z</time>
      </trkpt>
      <trkpt lat="51.49129" lon="7.01529">
        <ele>97.535857</ele>
        <time>2023-04-29T12:54:00.574Z</time>
      </trkpt>
      <trkpt lat="51.49116" lon="7.01529">
        <ele>97.520336</ele>
        <time>2023-04-29T12:54:03.581Z</time>
      </trkpt>
      <trkpt lat="51.49104" lon="7.01529">
        <ele>97.505791</ele>
        <time>2023-04-29T12:54:06.579Z</time>
      </trkpt>
      <trkpt lat="51.49091" lon="7.01529">
        <ele>97.49014</ele>
        <time>2023-04-29T12:54:09.552Z</time>
      </trkpt>
      <trkpt lat="51.49078" lon="7.01529">
        <ele>97.474013</ele>
        <time>2023-04-29T12:54:12.577Z</time>
      </trkpt>
      <trkpt lat="51.49065" lon="7.01529">
        <ele>97.458012</ele>
        <time>2023-04-29T12:54:15.572Z</time>
      </trkpt>
      <trkpt lat="51.49053" lon="7.01529">
        <ele>97.444437</ele>
        <time>2023-04-29T12:54:18.597Z</time>
      </trkpt>
      <trkpt lat="51.49044" lon="7.01526">
        <ele>97.43328</ele>
        <time>2023-04-29T12:54:21.563Z</time>
      </trkpt>
      <trkpt lat="51.49033" lon="7.0152">
        <ele>97.418617</ele>
        <time>2023-04-29T12:54:25.583Z</time>
      </trkpt>
      <trkpt lat="51.49024" lon="7.01518">
        <ele>97.407263</ele>
        <time>2023-04-29T12:54:27.576Z</time>
      </trkpt>
      <trkpt lat="51.49015" lon="7.01516">
        <ele>97.39612</ele>
        <time>2023-04-29T12:54:29.566Z</time>
      </trkpt>
      <trkpt lat="51.49004" lon="7.01513">
        <ele>97.383134</ele>
        <time>2023-04-29T12:54:31.565Z</time>
      </trkpt>
      <trkpt lat="51.48994" lon="7.01511">
        <ele>97.304244</ele>
        <time>2023-04-29T12:54:33.585Z</time>
      </trkpt>
      <trkpt lat="51.48984" lon="7.01508">
        <ele>97.045206</ele>
        <time>2023-04-29T12:54:35.601Z</time>
      </trkpt>
      <trkpt lat="51.48973" lon="7.01505">
        <ele>96.761793</ele>
        <time>2023-04-29T12:54:37.550Z</time>
      </trkpt>
      <trkpt lat="51.48962" lon="7.01504">
        <ele>96.488186</ele>
        <time>2023-04-29T12:54:39.572Z</time>
      </trkpt>
      <trkpt lat="51.48952" lon="7.015">
        <ele>96.234454</ele>
        <time>2023-04-29T12:54:41.567Z</time>
      </trkpt>
      <trkpt lat="51.48945" lon="7.01489">
        <ele>95.981121</ele>
        <time>2023-04-29T12:54:43.562Z</time>
      </trkpt>
      <trkpt lat="51.48941" lon="7.01475">
        <ele>95.735459</ele>
        <time>2023-04-29T12:54:45.571Z</time>
      </trkpt>
      <trkpt lat="51.48936" lon="7.01459">
        <ele>95.470441</ele>
        <time>2023-04-29T12:54:47.563Z</time>
      </trkpt>
      <trkpt lat="51.48928" lon="7.01452">
        <ele>95.219382</ele>
        <time>2023-04-29T12:54:49.569Z</time>
      </trkpt>
      <trkpt lat="51.48918" lon="7.01451">
        <ele>94.981623</ele>
        <time>2023-04-29T12:54:51.576Z</time>
      </trkpt>
      <trkpt lat="51.48909" lon="7.01451">
        <ele>94.73895</ele>
        <time>2023-04-29T12:54:53.566Z</time>
      </trkpt>
      <trkpt lat="51.48895" lon="7.01455">
        <ele>94.392302</ele>
        <time>2023-04-29T12:54:56.605Z</time>
      </trkpt>
      <trkpt lat="51.48886" lon="7.0146">
        <ele>94.137716</ele>
        <time>2023-04-29T12:54:58.560Z</time>
      </trkpt>
      <trkpt lat="51.48876" lon="7.01463">
        <ele>93.899402</ele>
        <time>2023-04-29T12:55:00.571Z</time>
      </trkpt>
      <trkpt lat="51.48867" lon="7.01468">
        <ele>93.647701</ele>
        <time>2023-04-29T12:55:02.580Z</time>
      </trkpt>
      <trkpt lat="51.48854" lon="7.01473">
        <ele>93.304571</ele>
        <time>2023-04-29T12:55:05.567Z</time>
      </trkpt>
      <trkpt lat="51.48845" lon="7.01479">
        <ele>93.057681</ele>
        <time>2023-04-29T12:55:07.570Z</time>
      </trkpt>
      <trkpt lat="51.48836" lon="7.01482">
        <ele>92.829524</ele>
        <time>2023-04-29T12:55:09.574Z</time>
      </trkpt>
      <trkpt lat="51.48826" lon="7.01481">
        <ele>92.901667</ele>
        <time>2023-04-29T12:55:11.570Z</time>
      </trkpt>
      <trkpt lat="51.48818" lon="7.01472">
        <ele>92.971679</ele>
        <time>2023-04-29T12:55:13.565Z</time>
      </trkpt>
      <trkpt lat="51.48813" lon="7.01459">
        <ele>93.03877</ele>
        <time>2023-04-29T12:55:15.553Z</time>
      </trkpt>
      <trkpt lat="51.48801" lon="7.01451">
        <ele>93.134646</ele>
        <time>2023-04-29T12:55:18.558Z</time>
      </trkpt>
      <trkpt lat="51.48792" lon="7.01451">
        <ele>93.20024</ele>
        <time>2023-04-29T12:55:20.579Z</time>
      </trkpt>
      <trkpt lat="51.4878" lon="7.01458">
        <ele>93.298417</ele>
        <time>2023-04-29T12:55:23.571Z</time>
      </trkpt>
      <trkpt lat="51.48771" lon="7.01464">
        <ele>93.36667</ele>
        <time>2023-04-29T12:55:25.574Z</time>
      </trkpt>
      <trkpt lat="51.48759" lon="7.0147">
        <ele>93.457221</ele>
        <time>2023-04-29T12:55:28.588Z</time>
      </trkpt>
      <trkpt lat="51.48748" lon="7.01474">
        <ele>93.540265</ele>
        <time>2023-04-29T12:55:31.564Z</time>
      </trkpt>
      <trkpt lat="51.48739" lon="7.01476">
        <ele>93.607032</ele>
        <time>2023-04-29T12:55:34.577Z</time>
      </trkpt>
      <trkpt lat="51.48732" lon="7.01487">
        <ele>93.680238</ele>
        <time>2023-04-29T12:55:41.579Z</time>
      </trkpt>
      <trkpt lat="51.48725" lon="7.015">
        <ele>93.756061</ele>
        <time>2023-04-29T12:56:45.569Z</time>
      </trkpt>
      <trkpt lat="51.4872" lon="7.01513">
        <ele>93.825762</ele>
        <time>2023-04-29T12:56:52.581Z</time>
      </trkpt>
      <trkpt lat="51.48724" lon="7.01532">
        <ele>93.9178</ele>
        <time>2023-04-29T12:57:28.593Z</time>
      </trkpt>
      <trkpt lat="51.48715" lon="7.01535">
        <ele>93.983928</ele>
        <time>2023-04-29T12:57:33.555Z</time>
      </trkpt>
      <trkpt lat="51.48705" lon="7.01532">
        <ele>94.054431</ele>
        <time>2023-04-29T12:57:38.569Z</time>
      </trkpt>
      <trkpt lat="51.48696" lon="7.01529">
        <ele>94.122884</ele>
        <time>2023-04-29T12:57:43.566Z</time>
      </trkpt>
      <trkpt lat="51.48687" lon="7.01527">
        <ele>94.311139</ele>
        <time>2023-04-29T12:57:48.576Z</time>
      </trkpt>
      <trkpt lat="51.48677" lon="7.01526">
        <ele>94.532366</ele>
        <time>2023-04-29T12:57:53.562Z</time>
      </trkpt>
      <trkpt lat="51.48668" lon="7.01525">
        <ele>94.761577</ele>
        <time>2023-04-29T12:57:58.565Z</time>
      </trkpt>
      <trkpt lat="51.48657" lon="7.01525">
        <ele>95.002819</ele>
        <time>2023-04-29T12:58:03.585Z</time>
      </trkpt>
      <trkpt lat="51.48647" lon="7.01524">
        <ele>95.234643</ele>
        <time>2023-04-29T12:58:08.575Z</time>
      </trkpt>
      <trkpt lat="51.48638" lon="7.01525">
        <ele>95.461795</ele>
        <time>2023-04-29T12:58:13.596Z</time>
      </trkpt>
      <trkpt lat="51.48627" lon="7.01523">
        <ele>95.703213</ele>
        <time>2023-04-29T12:58:18.586Z</time>
      </trkpt>
      <trkpt lat="51.48618" lon="7.01524">
        <ele>95.932521</ele>
        <time>2023-04-29T12:58:23.572Z</time>
      </trkpt>
      <trkpt lat="51.48608" lon="7.01525">
        <ele>96.147858</ele>
        <time>2023-04-29T12:58:27.570Z</time>
      </trkpt>
      <trkpt lat="51.48597" lon="7.01523">
        <ele>96.427019</ele>
        <time>2023-04-29T12:58:31.570Z</time>
      </trkpt>
      <trkpt lat="51.48584" lon="7.01523">
        <ele>96.710061</ele>
        <time>2023-04-29T12:58:34.572Z</time>
      </trkpt>
      <trkpt lat="51.48571" lon="7.01524">
        <ele>97.030731</ele>
        <time>2023-04-29T12:58:37.572Z</time>
      </trkpt>
      <trkpt lat="51.48561" lon="7.01523">
        <ele>97.257883</ele>
        <time>2023-04-29T12:58:39.576Z</time>
      </trkpt>
      <trkpt lat="51.48551" lon="7.01522">
        <ele>97.489639</ele>
        <time>2023-04-29T12:58:41.580Z</time>
      </trkpt>
      <trkpt lat="51.4854" lon="7.01522">
        <ele>97.744561</ele>
        <time>2023-04-29T12:58:43.574Z</time>
      </trkpt>
      <trkpt lat="51.4853" lon="7.01522">
        <ele>97.980841</ele>
        <time>2023-04-29T12:58:45.568Z</time>
      </trkpt>
      <trkpt lat="51.48521" lon="7.01522">
        <ele>98.205375</ele>
        <time>2023-04-29T12:58:47.565Z</time>
      </trkpt>
      <trkpt lat="51.48511" lon="7.01523">
        <ele>98.285824</ele>
        <time>2023-04-29T12:58:49.556Z</time>
      </trkpt>
      <trkpt lat="51.48501" lon="7.01524">
        <ele>98.145587</ele>
        <time>2023-04-29T12:58:51.559Z</time>
      </trkpt>
      <trkpt lat="51.48492" lon="7.01525">
        <ele>98.004013</ele>
        <time>2023-04-29T12:58:53.569Z</time>
      </trkpt>
      <trkpt lat="51.48481" lon="7.01526">
        <ele>97.851968</ele>
        <time>2023-04-29T12:58:55.576Z</time>
      </trkpt>
      <trkpt lat="51.48472" lon="7.01527">
        <ele>97.713558</ele>
        <time>2023-04-29T12:58:57.575Z</time>
      </trkpt>
      <trkpt lat="51.4846" lon="7.01528">
        <ele>97.53662</ele>
        <time>2023-04-29T12:59:00.592Z</time>
      </trkpt>
      <trkpt lat="51.48451" lon="7.01514">
        <ele>97.351582</ele>
        <time>2023-04-29T12:59:27.558Z</time>
      </trkpt>
      <trkpt lat="51.48445" lon="7.01503">
        <ele>97.213269</ele>
        <time>2023-04-29T12:59:31.567Z</time>
      </trkpt>
      <trkpt lat="51.48435" lon="7.0149">
        <ele>97.032188</ele>
        <time>2023-04-29T12:59:35.563Z</time>
      </trkpt>
      <trkpt lat="51.48429" lon="7.01476">
        <ele>96.876116</ele>
        <time>2023-04-29T12:59:38.588Z</time>
      </trkpt>
      <trkpt lat="51.48422" lon="7.0146">
        <ele>96.698414</ele>
        <time>2023-04-29T12:59:41.559Z</time>
      </trkpt>
      <trkpt lat="51.48413" lon="7.01445">
        <ele>96.506543</ele>
        <time>2023-04-29T12:59:44.575Z</time>
      </trkpt>
      <trkpt lat="51.48404" lon="7.0143">
        <ele>96.32022</ele>
        <time>2023-04-29T12:59:47.560Z</time>
      </trkpt>
      <trkpt lat="51.48398" lon="7.0142">
        <ele>96.186225</ele>
        <time>2023-04-29T12:59:49.562Z</time>
      </trkpt>
      <trkpt lat="51.48391" lon="7.0141">
        <ele>96.048453</ele>
        <time>2023-04-29T12:59:51.563Z</time>
      </trkpt>
      <trkpt lat="51.48384" lon="7.014">
        <ele>95.905577</ele>
        <time>2023-04-29T12:59:53.568Z</time>
      </trkpt>
      <trkpt lat="51.48373" lon="7.01386">
        <ele>95.707618</ele>
        <time>2023-04-29T12:59:56.579Z</time>
      </trkpt>
      <trkpt lat="51.48364" lon="7.01371">
        <ele>95.706599</ele>
        <time>2023-04-29T12:59:59.560Z</time>
      </trkpt>
      <trkpt lat="51.48357" lon="7.01359">
        <ele>95.71357</ele>
        <time>2023-04-29T13:00:01.572Z</time>
      </trkpt>
      <trkpt lat="51.4835" lon="7.01351">
        <ele>95.720108</ele>
        <time>2023-04-29T13:00:03.559Z</time>
      </trkpt>
      <trkpt lat="51.48338" lon="7.0134">
        <ele>95.730305</ele>
        <time>2023-04-29T13:00:06.563Z</time>
      </trkpt>
      <trkpt lat="51.4833" lon="7.01331">
        <ele>95.737021</ele>
        <time>2023-04-29T13:00:08.577Z</time>
      </trkpt>
      <trkpt lat="51.48323" lon="7.01317">
        <ele>95.745513</ele>
        <time>2023-04-29T13:00:11.555Z</time>
      </trkpt>
      <trkpt lat="51.48315" lon="7.01305">
        <ele>95.753115</ele>
        <time>2023-04-29T13:00:14.574Z</time>
      </trkpt>
      <trkpt lat="51.48308" lon="7.01295">
        <ele>95.759994</ele>
        <time>2023-04-29T13:00:17.577Z</time>
      </trkpt>
      <trkpt lat="51.48301" lon="7.01285">
        <ele>95.766676</ele>
        <time>2023-04-29T13:00:20.571Z</time>
      </trkpt>
      <trkpt lat="51.48293" lon="7.01273">
        <ele>95.774779</ele>
        <time>2023-04-29T13:00:24.568Z</time>
      </trkpt>
      <trkpt lat="51.48285" lon="7.01264">
        <ele>95.781718</ele>
        <time>2023-04-29T13:00:28.570Z</time>
      </trkpt>
      <trkpt lat="51.4828" lon="7.01252">
        <ele>95.788605</ele>
        <time>2023-04-29T13:00:32.565Z</time>
      </trkpt>
      <trkpt lat="51.48272" lon="7.01242">
        <ele>95.79605</ele>
        <time>2023-04-29T13:00:36.568Z</time>
      </trkpt>
      <trkpt lat="51.48262" lon="7.0123">
        <ele>95.804543</ele>
        <time>2023-04-29T13:00:40.571Z</time>
      </trkpt>
      <trkpt lat="51.48255" lon="7.01218">
        <ele>95.812108</ele>
        <time>2023-04-29T13:00:44.574Z</time>
      </trkpt>
      <trkpt lat="51.48244" lon="7.01214">
        <ele>95.820397</ele>
        <time>2023-04-29T13:00:49.563Z</time>
      </trkpt>
      <trkpt lat="51.48235" lon="7.01209">
        <ele>95.827543</ele>
        <time>2023-04-29T13:00:52.566Z</time>
      </trkpt>
      <trkpt lat="51.48224" lon="7.0121">
        <ele>95.756187</ele>
        <time>2023-04-29T13:00:56.579Z</time>
      </trkpt>
      <trkpt lat="51.48213" lon="7.01207">
        <ele>95.669688</ele>
        <time>2023-04-29T13:01:00.574Z</time>
      </trkpt>
      <trkpt lat="51.48203" lon="7.01205">
        <ele>95.596563</ele>
        <time>2023-04-29T13:01:03.570Z</time>
      </trkpt>
      <trkpt lat="51.48192" lon="7.01203">
        <ele>95.516838</ele>
        <time>2023-04-29T13:01:06.570Z</time>
      </trkpt>
      <trkpt lat="51.4818" lon="7.01201">
        <ele>95.430091</ele>
        <time>2023-04-29T13:01:09.558Z</time>
      </trkpt>
      <trkpt lat="51.48171" lon="7.01201">
        <ele>95.36193</ele>
        <time>2023-04-29T13:01:11.583Z</time>
      </trkpt>
      <trkpt lat="51.48161" lon="7.01199">
        <ele>95.292247</ele>
        <time>2023-04-29T13:01:13.566Z</time>
      </trkpt>
      <trkpt lat="51.48152" lon="7.01195">
        <ele>95.222245</ele>
        <time>2023-04-29T13:01:15.567Z</time>
      </trkpt>
      <trkpt lat="51.48143" lon="7.01194">
        <ele>95.152921</ele>
        <time>2023-04-29T13:01:17.549Z</time>
      </trkpt>
      <trkpt lat="51.48133" lon="7.01192">
        <ele>95.084884</ele>
        <time>2023-04-29T13:01:19.554Z</time>
      </trkpt>
      <trkpt lat="51.48124" lon="7.01191">
        <ele>95.018701</ele>
        <time>2023-04-29T13:01:21.553Z</time>
      </trkpt>
      <trkpt lat="51.48112" lon="7.01187">
        <ele>94.92449</ele>
        <time>2023-04-29T13:01:24.589Z</time>
      </trkpt>
      <trkpt lat="51.48102" lon="7.01184">
        <ele>94.853536</ele>
        <time>2023-04-29T13:01:26.578Z</time>
      </trkpt>
      <trkpt lat="51.48089" lon="7.01182">
        <ele>94.757738</ele>
        <time>2023-04-29T13:01:29.556Z</time>
      </trkpt>
      <trkpt lat="51.4808" lon="7.0118">
        <ele>94.691152</ele>
        <time>2023-04-29T13:01:31.583Z</time>
      </trkpt>
      <trkpt lat="51.48071" lon="7.01177">
        <ele>94.624599</ele>
        <time>2023-04-29T13:01:33.576Z</time>
      </trkpt>
      <trkpt lat="51.48059" lon="7.01173">
        <ele>94.532629</ele>
        <time>2023-04-29T13:01:36.584Z</time>
      </trkpt>
      <trkpt lat="51.48047" lon="7.01169">
        <ele>94.506479</ele>
        <time>2023-04-29T13:01:39.589Z</time>
      </trkpt>
      <trkpt lat="51.48039" lon="7.01163">
        <ele>94.50286</ele>
        <time>2023-04-29T13:01:41.574Z</time>
      </trkpt>
      <trkpt lat="51.48028" lon="7.01153">
        <ele>94.498136</ele>
        <time>2023-04-29T13:01:44.582Z</time>
      </trkpt>
      <trkpt lat="51.48022" lon="7.01142">
        <ele>94.494697</ele>
        <time>2023-04-29T13:01:49.569Z</time>
      </trkpt>
      <trkpt lat="51.48015" lon="7.01129">
        <ele>94.490853</ele>
        <time>2023-04-29T13:02:06.574Z</time>
      </trkpt>
      <trkpt lat="51.48021" lon="7.01117">
        <ele>94.487098</ele>
        <time>2023-04-29T13:02:10.553Z</time>
      </trkpt>
      <trkpt lat="51.4803" lon="7.01107">
        <ele>94.482943</ele>
        <time>2023-04-29T13:02:14.557Z</time>
      </trkpt>
      <trkpt lat="51.48024" lon="7.01095">
        <ele>94.479211</ele>
        <time>2023-04-29T13:02:19.558Z</time>
      </trkpt>
      <trkpt lat="51.48014" lon="7.01087">
        <ele>94.474981</ele>
        <time>2023-04-29T13:02:24.565Z</time>
      </trkpt>
      <trkpt lat="51.48003" lon="7.01081">
        <ele>94.470687</ele>
        <time>2023-04-29T13:02:28.548Z</time>
      </trkpt>
      <trkpt lat="51.4799" lon="7.0108">
        <ele>94.465896</ele>
        <time>2023-04-29T13:02:32.573Z</time>
      </trkpt>
      <trkpt lat="51.47979" lon="7.01079">
        <ele>94.461677</ele>
        <time>2023-04-29T13:02:35.567Z</time>
      </trkpt>
      <trkpt lat="51.47967" lon="7.01078">
        <ele>94.457153</ele>
        <time>2023-04-29T13:02:38.574Z</time>
      </trkpt>
      <trkpt lat="51.47956" lon="7.01077">
        <ele>94.452782</ele>
        <time>2023-04-29T13:02:41.575Z</time>
      </trkpt>
      <trkpt lat="51.47944" lon="7.01077">
        <ele>94.448302</ele>
        <time>2023-04-29T13:02:44.572Z</time>
      </trkpt>
      <trkpt lat="51.47931" lon="7.01075">
        <ele>94.443336</ele>
        <time>2023-04-29T13:02:47.570Z</time>
      </trkpt>
      <trkpt lat="51.47922" lon="7.01074">
        <ele>94.427026</ele>
        <time>2023-04-29T13:02:49.560Z</time>
      </trkpt>
      <trkpt lat="51.47913" lon="7.01074">
        <ele>94.397621</ele>
        <time>2023-04-29T13:02:51.573Z</time>
      </trkpt>
      <trkpt lat="51.47903" lon="7.01072">
        <ele>94.367796</ele>
        <time>2023-04-29T13:02:53.580Z</time>
      </trkpt>
      <trkpt lat="51.47894" lon="7.01071">
        <ele>94.337579</ele>
        <time>2023-04-29T13:02:55.563Z</time>
      </trkpt>
      <trkpt lat="51.47884" lon="7.0107">
        <ele>94.307531</ele>
        <time>2023-04-29T13:02:57.571Z</time>
      </trkpt>
      <trkpt lat="51.47874" lon="7.01069">
        <ele>94.276114</ele>
        <time>2023-04-29T13:02:59.553Z</time>
      </trkpt>
      <trkpt lat="51.47864" lon="7.01067">
        <ele>94.242207</ele>
        <time>2023-04-29T13:03:01.571Z</time>
      </trkpt>
      <trkpt lat="51.47853" lon="7.01067">
        <ele>94.208698</ele>
        <time>2023-04-29T13:03:03.568Z</time>
      </trkpt>
      <trkpt lat="51.47844" lon="7.01066">
        <ele>94.179549</ele>
        <time>2023-04-29T13:03:05.581Z</time>
      </trkpt>
      <trkpt lat="51.47835" lon="7.01064">
        <ele>94.14986</ele>
        <time>2023-04-29T13:03:08.576Z</time>
      </trkpt>
      <trkpt lat="51.47823" lon="7.01064">
        <ele>94.111608</ele>
        <time>2023-04-29T13:03:11.556Z</time>
      </trkpt>
      <trkpt lat="51.47813" lon="7.01063">
        <ele>94.082429</ele>
        <time>2023-04-29T13:03:13.576Z</time>
      </trkpt>
      <trkpt lat="51.47804" lon="7.0106">
        <ele>94.050815</ele>
        <time>2023-04-29T13:03:15.567Z</time>
      </trkpt>
      <trkpt lat="51.47793" lon="7.01057">
        <ele>94.016634</ele>
        <time>2023-04-29T13:03:17.575Z</time>
      </trkpt>
      <trkpt lat="51.47783" lon="7.01057">
        <ele>93.984368</ele>
        <time>2023-04-29T13:03:19.568Z</time>
      </trkpt>
      <trkpt lat="51.47773" lon="7.01055">
        <ele>93.952668</ele>
        <time>2023-04-29T13:03:21.559Z</time>
      </trkpt>
      <trkpt lat="51.47763" lon="7.01054">
        <ele>93.921638</ele>
        <time>2023-04-29T13:03:23.583Z</time>
      </trkpt>
      <trkpt lat="51.47754" lon="7.01054">
        <ele>93.892197</ele>
        <time>2023-04-29T13:03:25.571Z</time>
      </trkpt>
      <trkpt lat="51.47744" lon="7.01052">
        <ele>93.912578</ele>
        <time>2023-04-29T13:03:27.564Z</time>
      </trkpt>
      <trkpt lat="51.47735" lon="7.01049">
        <ele>94.013027</ele>
        <time>2023-04-29T13:03:29.556Z</time>
      </trkpt>
      <trkpt lat="51.47726" lon="7.01046">
        <ele>94.117896</ele>
        <time>2023-04-29T13:03:31.582Z</time>
      </trkpt>
      <trkpt lat="51.47713" lon="7.01041">
        <ele>94.264665</ele>
        <time>2023-04-29T13:03:34.580Z</time>
      </trkpt>
      <trkpt lat="51.47704" lon="7.01037">
        <ele>94.36846</ele>
        <time>2023-04-29T13:03:36.573Z</time>
      </trkpt>
      <trkpt lat="51.47693" lon="7.01031">
        <ele>94.50571</ele>
        <time>2023-04-29T13:03:39.571Z</time>
      </trkpt>
      <trkpt lat="51.47684" lon="7.01026">
        <ele>94.608086</ele>
        <time>2023-04-29T13:03:42.574Z</time>
      </trkpt>
      <trkpt lat="51.47677" lon="7.01017">
        <ele>94.711428</ele>
        <time>2023-04-29T13:03:47.567Z</time>
      </trkpt>
      <trkpt lat="51.47668" lon="7.01014">
        <ele>94.81355</ele>
        <time>2023-04-29T13:03:53.560Z</time>
      </trkpt>
      <trkpt lat="51.47659" lon="7.01009">
        <ele>94.920652</ele>
        <time>2023-04-29T13:03:58.570Z</time>
      </trkpt>
      <trkpt lat="51.47648" lon="7.01002">
        <ele>95.05378</ele>
        <time>2023-04-29T13:04:02.557Z</time>
      </trkpt>
      <trkpt lat="51.47638" lon="7.00996">
        <ele>95.176549</ele>
        <time>2023-04-29T13:04:05.570Z</time>
      </trkpt>
      <trkpt lat="51.47626" lon="7.00991">
        <ele>95.313553</ele>
        <time>2023-04-29T13:04:08.583Z</time>
      </trkpt>
      <trkpt lat="51.47617" lon="7.00987">
        <ele>95.417307</ele>
        <time>2023-04-29T13:04:11.568Z</time>
      </trkpt>
      <trkpt lat="51.47607" lon="7.00984">
        <ele>95.535466</ele>
        <time>2023-04-29T13:04:14.576Z</time>
      </trkpt>
      <trkpt lat="51.47595" lon="7.00984">
        <ele>95.662322</ele>
        <time>2023-04-29T13:04:17.563Z</time>
      </trkpt>
      <trkpt lat="51.47586" lon="7.00986">
        <ele>95.76844</ele>
        <time>2023-04-29T13:04:19.556Z</time>
      </trkpt>
      <trkpt lat="51.47573" lon="7.00988">
        <ele>95.876285</ele>
        <time>2023-04-29T13:04:22.570Z</time>
      </trkpt>
      <trkpt lat="51.47562" lon="7.0099">
        <ele>95.756247</ele>
        <time>2023-04-29T13:04:25.569Z</time>
      </trkpt>
      <trkpt lat="51.47553" lon="7.00992">
        <ele>95.65839</ele>
        <time>2023-04-29T13:04:27.575Z</time>
      </trkpt>
      <trkpt lat="51.47543" lon="7.00994">
        <ele>95.562181</ele>
        <time>2023-04-29T13:04:29.569Z</time>
      </trkpt>
      <trkpt lat="51.47531" lon="7.00994">
        <ele>95.429188</ele>
        <time>2023-04-29T13:04:32.576Z</time>
      </trkpt>
      <trkpt lat="51.47517" lon="7.00997">
        <ele>95.289376</ele>
        <time>2023-04-29T13:04:35.571Z</time>
      </trkpt>
      <trkpt lat="51.47505" lon="7.01">
        <ele>95.160403</ele>
        <time>2023-04-29T13:04:38.583Z</time>
      </trkpt>
      <trkpt lat="51.47493" lon="7.01001">
        <ele>95.037568</ele>
        <time>2023-04-29T13:04:41.568Z</time>
      </trkpt>
      <trkpt lat="51.4748" lon="7.01002">
        <ele>94.902387</ele>
        <time>2023-04-29T13:04:44.577Z</time>
      </trkpt>
      <trkpt lat="51.47471" lon="7.01002">
        <ele>94.805768</ele>
        <time>2023-04-29T13:04:46.564Z</time>
      </trkpt>
      <trkpt lat="51.47461" lon="7.01001">
        <ele>94.707565</ele>
        <time>2023-04-29T13:04:48.723Z</time>
      </trkpt>
      <trkpt lat="51.47452" lon="7.00997">
        <ele>94.610198</ele>
        <time>2023-04-29T13:04:50.588Z</time>
      </trkpt>
      <trkpt lat="51.47443" lon="7.00993">
        <ele>94.512349</ele>
        <time>2023-04-29T13:04:52.568Z</time>
      </trkpt>
      <trkpt lat="51.47434" lon="7.0099">
        <ele>94.415705</ele>
        <time>2023-04-29T13:04:54.557Z</time>
      </trkpt>
      <trkpt lat="51.47425" lon="7.00986">
        <ele>94.318338</ele>
        <time>2023-04-29T13:04:56.567Z</time>
      </trkpt>
      <trkpt lat="51.47411" lon="7.00983">
        <ele>94.174511</ele>
        <time>2023-04-29T13:04:59.551Z</time>
      </trkpt>
      <trkpt lat="51.47401" lon="7.0098">
        <ele>94.069054</ele>
        <time>2023-04-29T13:05:01.567Z</time>
      </trkpt>
      <trkpt lat="51.47392" lon="7.00978">
        <ele>94.017591</ele>
        <time>2023-04-29T13:05:03.569Z</time>
      </trkpt>
      <trkpt lat="51.47382" lon="7.00975">
        <ele>94.005868</ele>
        <time>2023-04-29T13:05:05.580Z</time>
      </trkpt>
      <trkpt lat="51.47372" lon="7.00972">
        <ele>93.993949</ele>
        <time>2023-04-29T13:05:07.547Z</time>
      </trkpt>
      <trkpt lat="51.47362" lon="7.00968">
        <ele>93.982339</ele>
        <time>2023-04-29T13:05:09.561Z</time>
      </trkpt>
      <trkpt lat="51.47352" lon="7.00964">
        <ele>93.970428</ele>
        <time>2023-04-29T13:05:11.557Z</time>
      </trkpt>
      <trkpt lat="51.47341" lon="7.00962">
        <ele>93.958094</ele>
        <time>2023-04-29T13:05:13.565Z</time>
      </trkpt>
      <trkpt lat="51.47331" lon="7.0096">
        <ele>93.947033</ele>
        <time>2023-04-29T13:05:15.565Z</time>
      </trkpt>
      <trkpt lat="51.47322" lon="7.00959">
        <ele>93.935601</ele>
        <time>2023-04-29T13:05:17.552Z</time>
      </trkpt>
      <trkpt lat="51.47312" lon="7.00957">
        <ele>93.924153</ele>
        <time>2023-04-29T13:05:19.561Z</time>
      </trkpt>
      <trkpt lat="51.47302" lon="7.00955">
        <ele>93.912977</ele>
        <time>2023-04-29T13:05:21.570Z</time>
      </trkpt>
      <trkpt lat="51.47291" lon="7.00955">
        <ele>93.90092</ele>
        <time>2023-04-29T13:05:23.568Z</time>
      </trkpt>
      <trkpt lat="51.47281" lon="7.00956">
        <ele>93.888856</ele>
        <time>2023-04-29T13:05:25.572Z</time>
      </trkpt>
      <trkpt lat="51.47271" lon="7.00955">
        <ele>93.877711</ele>
        <time>2023-04-29T13:05:27.563Z</time>
      </trkpt>
      <trkpt lat="51.47262" lon="7.00955">
        <ele>93.866683</ele>
        <time>2023-04-29T13:05:29.565Z</time>
      </trkpt>
      <trkpt lat="51.47252" lon="7.00955">
        <ele>93.855771</ele>
        <time>2023-04-29T13:05:31.562Z</time>
      </trkpt>
      <trkpt lat="51.47243" lon="7.00954">
        <ele>93.8452</ele>
        <time>2023-04-29T13:05:33.572Z</time>
      </trkpt>
      <trkpt lat="51.47233" lon="7.00953">
        <ele>93.834035</ele>
        <time>2023-04-29T13:05:35.567Z</time>
      </trkpt>
      <trkpt lat="51.47224" lon="7.00953">
        <ele>93.823112</ele>
        <time>2023-04-29T13:05:37.564Z</time>
      </trkpt>
      <trkpt lat="51.47214" lon="7.00953">
        <ele>93.834463</ele>
        <time>2023-04-29T13:05:39.544Z</time>
      </trkpt>
      <trkpt lat="51.47204" lon="7.00952">
        <ele>93.873242</ele>
        <time>2023-04-29T13:05:41.567Z</time>
      </trkpt>
      <trkpt lat="51.47195" lon="7.00951">
        <ele>93.910171</ele>
        <time>2023-04-29T13:05:43.566Z</time>
      </trkpt>
      <trkpt lat="51.47186" lon="7.00948">
        <ele>93.947075</ele>
        <time>2023-04-29T13:05:45.566Z</time>
      </trkpt>
      <trkpt lat="51.47173" lon="7.00941">
        <ele>94.000863</ele>
        <time>2023-04-29T13:05:48.566Z</time>
      </trkpt>
      <trkpt lat="51.47161" lon="7.00933">
        <ele>94.052653</ele>
        <time>2023-04-29T13:05:51.567Z</time>
      </trkpt>
      <trkpt lat="51.47152" lon="7.00927">
        <ele>94.089585</ele>
        <time>2023-04-29T13:05:53.557Z</time>
      </trkpt>
      <trkpt lat="51.4714" lon="7.00919">
        <ele>94.141991</ele>
        <time>2023-04-29T13:05:56.586Z</time>
      </trkpt>
      <trkpt lat="51.47132" lon="7.00913">
        <ele>94.178522</ele>
        <time>2023-04-29T13:05:58.567Z</time>
      </trkpt>
      <trkpt lat="51.47124" lon="7.00905">
        <ele>94.215082</ele>
        <time>2023-04-29T13:06:00.579Z</time>
      </trkpt>
      <trkpt lat="51.47113" lon="7.00895">
        <ele>94.265676</ele>
        <time>2023-04-29T13:06:03.572Z</time>
      </trkpt>
      <trkpt lat="51.47103" lon="7.00886">
        <ele>94.30975</ele>
        <time>2023-04-29T13:06:06.579Z</time>
      </trkpt>
      <trkpt lat="51.47093" lon="7.00879">
        <ele>94.351203</ele>
        <time>2023-04-29T13:06:09.555Z</time>
      </trkpt>
      <trkpt lat="51.47083" lon="7.00872">
        <ele>94.398115</ele>
        <time>2023-04-29T13:06:12.573Z</time>
      </trkpt>
      <trkpt lat="51.47071" lon="7.00863">
        <ele>94.449331</ele>
        <time>2023-04-29T13:06:15.565Z</time>
      </trkpt>
      <trkpt lat="51.47059" lon="7.00855">
        <ele>94.500361</ele>
        <time>2023-04-29T13:06:18.571Z</time>
      </trkpt>
      <trkpt lat="51.4705" lon="7.00853">
        <ele>94.547501</ele>
        <time>2023-04-29T13:06:20.564Z</time>
      </trkpt>
      <trkpt lat="51.47037" lon="7.00849">
        <ele>94.675923</ele>
        <time>2023-04-29T13:06:23.569Z</time>
      </trkpt>
      <trkpt lat="51.47028" lon="7.00847">
        <ele>94.766687</ele>
        <time>2023-04-29T13:06:25.583Z</time>
      </trkpt>
      <trkpt lat="51.47016" lon="7.00845">
        <ele>94.89039</ele>
        <time>2023-04-29T13:06:28.565Z</time>
      </trkpt>
      <trkpt lat="51.47004" lon="7.00843">
        <ele>95.014885</ele>
        <time>2023-04-29T13:06:31.564Z</time>
      </trkpt>
      <trkpt lat="51.46991" lon="7.00839">
        <ele>95.138801</ele>
        <time>2023-04-29T13:06:34.581Z</time>
      </trkpt>
      <trkpt lat="51.4698" lon="7.00836">
        <ele>95.257692</ele>
        <time>2023-04-29T13:06:37.573Z</time>
      </trkpt>
      <trkpt lat="51.46968" lon="7.00833">
        <ele>95.378124</ele>
        <time>2023-04-29T13:06:40.571Z</time>
      </trkpt>
      <trkpt lat="51.46955" lon="7.00832">
        <ele>95.502152</ele>
        <time>2023-04-29T13:06:43.559Z</time>
      </trkpt>
      <trkpt lat="51.46943" lon="7.0083">
        <ele>95.628575</ele>
        <time>2023-04-29T13:06:46.572Z</time>
      </trkpt>
      <trkpt lat="51.4693" lon="7.00827">
        <ele>95.755822</ele>
        <time>2023-04-29T13:06:49.560Z</time>
      </trkpt>
      <trkpt lat="51.46917" lon="7.00825">
        <ele>95.890053</ele>
        <time>2023-04-29T13:06:52.582Z</time>
      </trkpt>
      <trkpt lat="51.46904" lon="7.00823">
        <ele>96.013493</ele>
        <time>2023-04-29T13:06:55.555Z</time>
      </trkpt>
      <trkpt lat="51.46892" lon="7.0082">
        <ele>96.137871</ele>
        <time>2023-04-29T13:06:58.584Z</time>
      </trkpt>
      <trkpt lat="51.46882" lon="7.00816">
        <ele>96.24258</ele>
        <time>2023-04-29T13:07:01.564Z</time>
      </trkpt>
      <trkpt lat="51.46872" lon="7.00813">
        <ele>96.33199</ele>
        <time>2023-04-29T13:07:04.570Z</time>
      </trkpt>
      <trkpt lat="51.46861" lon="7.0081">
        <ele>96.364582</ele>
        <time>2023-04-29T13:07:07.558Z</time>
      </trkpt>
      <trkpt lat="51.46855" lon="7.00798">
        <ele>96.393942</ele>
        <time>2023-04-29T13:07:10.561Z</time>
      </trkpt>
      <trkpt lat="51.46849" lon="7.00787">
        <ele>96.422986</ele>
        <time>2023-04-29T13:07:14.592Z</time>
      </trkpt>
      <trkpt lat="51.46835" lon="7.00785">
        <ele>96.466294</ele>
        <time>2023-04-29T13:07:52.570Z</time>
      </trkpt>
      <trkpt lat="51.46827" lon="7.00798">
        <ele>96.499381</ele>
        <time>2023-04-29T13:07:56.637Z</time>
      </trkpt>
      <trkpt lat="51.46817" lon="7.00796">
        <ele>96.530315</ele>
        <time>2023-04-29T13:08:01.585Z</time>
      </trkpt>
      <trkpt lat="51.46806" lon="7.00794">
        <ele>96.566689</ele>
        <time>2023-04-29T13:08:05.584Z</time>
      </trkpt>
      <trkpt lat="51.46794" lon="7.008">
        <ele>96.603662</ele>
        <time>2023-04-29T13:08:08.555Z</time>
      </trkpt>
      <trkpt lat="51.46783" lon="7.00804">
        <ele>96.637637</ele>
        <time>2023-04-29T13:08:11.565Z</time>
      </trkpt>
      <trkpt lat="51.46773" lon="7.0081">
        <ele>96.67204</ele>
        <time>2023-04-29T13:08:14.575Z</time>
      </trkpt>
      <trkpt lat="51.46762" lon="7.00814">
        <ele>96.705528</ele>
        <time>2023-04-29T13:08:17.585Z</time>
      </trkpt>
      <trkpt lat="51.4675" lon="7.00819">
        <ele>96.743652</ele>
        <time>2023-04-29T13:08:20.553Z</time>
      </trkpt>
      <trkpt lat="51.46738" lon="7.00826">
        <ele>96.782086</ele>
        <time>2023-04-29T13:08:23.592Z</time>
      </trkpt>
      <trkpt lat="51.46726" lon="7.00832">
        <ele>96.821573</ele>
        <time>2023-04-29T13:08:26.592Z</time>
      </trkpt>
      <trkpt lat="51.46717" lon="7.00838">
        <ele>96.850323</ele>
        <time>2023-04-29T13:08:28.578Z</time>
      </trkpt>
      <trkpt lat="51.46705" lon="7.00841">
        <ele>96.948154</ele>
        <time>2023-04-29T13:08:31.567Z</time>
      </trkpt>
      <trkpt lat="51.46692" lon="7.00847">
        <ele>97.176652</ele>
        <time>2023-04-29T13:08:34.569Z</time>
      </trkpt>
      <trkpt lat="51.4668" lon="7.00852">
        <ele>97.400661</ele>
        <time>2023-04-29T13:08:37.565Z</time>
      </trkpt>
      <trkpt lat="51.46667" lon="7.00859">
        <ele>97.628784</ele>
        <time>2023-04-29T13:08:40.592Z</time>
      </trkpt>
      <trkpt lat="51.46658" lon="7.00863">
        <ele>97.788008</ele>
        <time>2023-04-29T13:08:42.570Z</time>
      </trkpt>
      <trkpt lat="51.46649" lon="7.00868">
        <ele>97.953809</ele>
        <time>2023-04-29T13:08:44.567Z</time>
      </trkpt>
      <trkpt lat="51.46637" lon="7.00874">
        <ele>98.179277</ele>
        <time>2023-04-29T13:08:47.566Z</time>
      </trkpt>
      <trkpt lat="51.46625" lon="7.00878">
        <ele>98.394796</ele>
        <time>2023-04-29T13:08:50.591Z</time>
      </trkpt>
      <trkpt lat="51.46613" lon="7.00885">
        <ele>98.60634</ele>
        <time>2023-04-29T13:08:53.569Z</time>
      </trkpt>
      <trkpt lat="51.46602" lon="7.00891">
        <ele>98.810592</ele>
        <time>2023-04-29T13:08:56.558Z</time>
      </trkpt>
      <trkpt lat="51.46591" lon="7.00896">
        <ele>99.009506</ele>
        <time>2023-04-29T13:08:59.565Z</time>
      </trkpt>
      <trkpt lat="51.46581" lon="7.00902">
        <ele>99.199003</ele>
        <time>2023-04-29T13:09:02.570Z</time>
      </trkpt>
      <trkpt lat="51.46571" lon="7.00907">
        <ele>99.388203</ele>
        <time>2023-04-29T13:09:05.560Z</time>
      </trkpt>
      <trkpt lat="51.4656" lon="7.00912">
        <ele>99.574191</ele>
        <time>2023-04-29T13:09:08.570Z</time>
      </trkpt>
      <trkpt lat="51.4655" lon="7.00918">
        <ele>99.773767</ele>
        <time>2023-04-29T13:09:11.569Z</time>
      </trkpt>
      <trkpt lat="51.46538" lon="7.00923">
        <ele>99.976328</ele>
        <time>2023-04-29T13:09:14.585Z</time>
      </trkpt>
      <trkpt lat="51.46527" lon="7.00929">
        <ele>100.131116</ele>
        <time>2023-04-29T13:09:17.564Z</time>
      </trkpt>
      <trkpt lat="51.46516" lon="7.00933">
        <ele>100.270075</ele>
        <time>2023-04-29T13:09:20.564Z</time>
      </trkpt>
      <trkpt lat="51.46507" lon="7.00939">
        <ele>100.398431</ele>
        <time>2023-04-29T13:09:23.570Z</time>
      </trkpt>
      <trkpt lat="51.46497" lon="7.00943">
        <ele>100.526036</ele>
        <time>2023-04-29T13:09:26.571Z</time>
      </trkpt>
      <trkpt lat="51.46486" lon="7.00948">
        <ele>100.659827</ele>
        <time>2023-04-29T13:09:29.575Z</time>
      </trkpt>
      <trkpt lat="51.46476" lon="7.00952">
        <ele>100.7932</ele>
        <time>2023-04-29T13:09:32.552Z</time>
      </trkpt>
      <trkpt lat="51.46466" lon="7.00955">
        <ele>100.917762</ele>
        <time>2023-04-29T13:09:35.571Z</time>
      </trkpt>
      <trkpt lat="51.46456" lon="7.0096">
        <ele>101.048345</ele>
        <time>2023-04-29T13:09:38.570Z</time>
      </trkpt>
      <trkpt lat="51.46445" lon="7.00962">
        <ele>101.178597</ele>
        <time>2023-04-29T13:09:41.578Z</time>
      </trkpt>
      <trkpt lat="51.46435" lon="7.00968">
        <ele>101.315638</ele>
        <time>2023-04-29T13:09:44.584Z</time>
      </trkpt>
      <trkpt lat="51.46424" lon="7.00975">
        <ele>101.461075</ele>
        <time>2023-04-29T13:09:47.569Z</time>
      </trkpt>
      <trkpt lat="51.46414" lon="7.00984">
        <ele>101.600617</ele>
        <time>2023-04-29T13:09:50.568Z</time>
      </trkpt>
      <trkpt lat="51.46405" lon="7.00992">
        <ele>101.731178</ele>
        <time>2023-04-29T13:09:53.587Z</time>
      </trkpt>
      <trkpt lat="51.46395" lon="7.01">
        <ele>101.871115</ele>
        <time>2023-04-29T13:09:56.567Z</time>
      </trkpt>
      <trkpt lat="51.46384" lon="7.01009">
        <ele>102.015147</ele>
        <time>2023-04-29T13:09:59.563Z</time>
      </trkpt>
      <trkpt lat="51.46375" lon="7.01016">
        <ele>102.144524</ele>
        <time>2023-04-29T13:10:02.580Z</time>
      </trkpt>
      <trkpt lat="51.46367" lon="7.01027">
        <ele>102.240839</ele>
        <time>2023-04-29T13:10:05.557Z</time>
      </trkpt>
      <trkpt lat="51.46359" lon="7.01037">
        <ele>102.268502</ele>
        <time>2023-04-29T13:10:08.570Z</time>
      </trkpt>
      <trkpt lat="51.46351" lon="7.01049">
        <ele>102.297003</ele>
        <time>2023-04-29T13:10:11.553Z</time>
      </trkpt>
      <trkpt lat="51.46343" lon="7.01061">
        <ele>102.32532</ele>
        <time>2023-04-29T13:10:14.573Z</time>
      </trkpt>
      <trkpt lat="51.46335" lon="7.01069">
        <ele>102.350445</ele>
        <time>2023-04-29T13:10:17.562Z</time>
      </trkpt>
      <trkpt lat="51.46328" lon="7.01079">
        <ele>102.375002</ele>
        <time>2023-04-29T13:10:20.586Z</time>
      </trkpt>
      <trkpt lat="51.46322" lon="7.01091">
        <ele>102.399833</ele>
        <time>2023-04-29T13:10:23.576Z</time>
      </trkpt>
      <trkpt lat="51.46315" lon="7.01099">
        <ele>102.424165</ele>
        <time>2023-04-29T13:10:26.570Z</time>
      </trkpt>
      <trkpt lat="51.46308" lon="7.01114">
        <ele>102.45385</ele>
        <time>2023-04-29T13:10:30.577Z</time>
      </trkpt>
      <trkpt lat="51.4631" lon="7.01129">
        <ele>102.478506</ele>
        <time>2023-04-29T13:10:33.557Z</time>
      </trkpt>
      <trkpt lat="51.46315" lon="7.01145">
        <ele>102.507757</ele>
        <time>2023-04-29T13:10:36.563Z</time>
      </trkpt>
      <trkpt lat="51.46318" lon="7.01162">
        <ele>102.537213</ele>
        <time>2023-04-29T13:10:39.569Z</time>
      </trkpt>
      <trkpt lat="51.4632" lon="7.01178">
        <ele>102.565168</ele>
        <time>2023-04-29T13:10:42.576Z</time>
      </trkpt>
      <trkpt lat="51.46324" lon="7.01194">
        <ele>102.592139</ele>
        <time>2023-04-29T13:10:45.558Z</time>
      </trkpt>
      <trkpt lat="51.46328" lon="7.0121">
        <ele>102.62128</ele>
        <time>2023-04-29T13:10:48.576Z</time>
      </trkpt>
      <trkpt lat="51.46332" lon="7.01226">
        <ele>102.650044</ele>
        <time>2023-04-29T13:10:51.564Z</time>
      </trkpt>
      <trkpt lat="51.46334" lon="7.01243">
        <ele>102.677493</ele>
        <time>2023-04-29T13:10:54.578Z</time>
      </trkpt>
      <trkpt lat="51.46334" lon="7.01259">
        <ele>102.703726</ele>
        <time>2023-04-29T13:10:57.570Z</time>
      </trkpt>
      <trkpt lat="51.46335" lon="7.01278">
        <ele>102.841117</ele>
        <time>2023-04-29T13:11:00.586Z</time>
      </trkpt>
      <trkpt lat="51.46336" lon="7.01296">
        <ele>102.987631</ele>
        <time>2023-04-29T13:11:03.557Z</time>
      </trkpt>
      <trkpt lat="51.46337" lon="7.01314">
        <ele>103.138965</ele>
        <time>2023-04-29T13:11:06.561Z</time>
      </trkpt>
      <trkpt lat="51.46338" lon="7.0133">
        <ele>103.265177</ele>
        <time>2023-04-29T13:11:09.551Z</time>
      </trkpt>
      <trkpt lat="51.46338" lon="7.01346">
        <ele>103.395355</ele>
        <time>2023-04-29T13:11:12.567Z</time>
      </trkpt>
      <trkpt lat="51.46328" lon="7.01354">
        <ele>103.543629</ele>
        <time>2023-04-29T13:11:15.555Z</time>
      </trkpt>
      <trkpt lat="51.46316" lon="7.01355">
        <ele>103.698857</ele>
        <time>2023-04-29T13:11:18.569Z</time>
      </trkpt>
      <trkpt lat="51.46304" lon="7.01355">
        <ele>103.850073</ele>
        <time>2023-04-29T13:11:21.542Z</time>
      </trkpt>
      <trkpt lat="51.46292" lon="7.01355">
        <ele>104.005197</ele>
        <time>2023-04-29T13:11:24.580Z</time>
      </trkpt>
      <trkpt lat="51.46283" lon="7.01356">
        <ele>104.129166</ele>
        <time>2023-04-29T13:11:27.582Z</time>
      </trkpt>
      <trkpt lat="51.46272" lon="7.01351">
        <ele>104.279671</ele>
        <time>2023-04-29T13:11:31.567Z</time>
      </trkpt>
      <trkpt lat="51.46262" lon="7.01352">
        <ele>104.410118</ele>
        <time>2023-04-29T13:11:34.580Z</time>
      </trkpt>
      <trkpt lat="51.46251" lon="7.01353">
        <ele>104.552487</ele>
        <time>2023-04-29T13:11:37.565Z</time>
      </trkpt>
      <trkpt lat="51.46241" lon="7.01355">
        <ele>104.685704</ele>
        <time>2023-04-29T13:11:40.573Z</time>
      </trkpt>
      <trkpt lat="51.46231" lon="7.01354">
        <ele>104.811109</ele>
        <time>2023-04-29T13:11:43.577Z</time>
      </trkpt>
      <trkpt lat="51.46222" lon="7.01358">
        <ele>104.935817</ele>
        <time>2023-04-29T13:11:46.565Z</time>
      </trkpt>
      <trkpt lat="51.46212" lon="7.01359">
        <ele>105.081007</ele>
        <time>2023-04-29T13:11:49.576Z</time>
      </trkpt>
      <trkpt lat="51.46203" lon="7.0136">
        <ele>105.638235</ele>
        <time>2023-04-29T13:11:52.595Z</time>
      </trkpt>
      <trkpt lat="51.46192" lon="7.01362">
        <ele>106.340291</ele>
        <time>2023-04-29T13:11:56.568Z</time>
      </trkpt>
      <trkpt lat="51.4618" lon="7.01366">
        <ele>107.061036</ele>
        <time>2023-04-29T13:12:00.569Z</time>
      </trkpt>
      <trkpt lat="51.46168" lon="7.01366">
        <ele>107.783147</ele>
        <time>2023-04-29T13:12:04.584Z</time>
      </trkpt>
      <trkpt lat="51.46157" lon="7.01367">
        <ele>108.469913</ele>
        <time>2023-04-29T13:12:08.553Z</time>
      </trkpt>
      <trkpt lat="51.46146" lon="7.01368">
        <ele>109.180128</ele>
        <time>2023-04-29T13:12:12.579Z</time>
      </trkpt>
      <trkpt lat="51.46136" lon="7.01371">
        <ele>109.768838</ele>
        <time>2023-04-29T13:12:16.571Z</time>
      </trkpt>
      <trkpt lat="51.46127" lon="7.01372">
        <ele>110.35108</ele>
        <time>2023-04-29T13:12:20.568Z</time>
      </trkpt>
      <trkpt lat="51.46118" lon="7.01371">
        <ele>110.915246</ele>
        <time>2023-04-29T13:12:24.571Z</time>
      </trkpt>
      <trkpt lat="51.46108" lon="7.01368">
        <ele>111.534446</ele>
        <time>2023-04-29T13:12:29.564Z</time>
      </trkpt>
      <trkpt lat="51.46098" lon="7.01371">
        <ele>112.116369</ele>
        <time>2023-04-29T13:12:33.561Z</time>
      </trkpt>
      <trkpt lat="51.46089" lon="7.01372">
        <ele>112.667339</ele>
        <time>2023-04-29T13:12:37.573Z</time>
      </trkpt>
      <trkpt lat="51.4608" lon="7.01373">
        <ele>113.250679</ele>
        <time>2023-04-29T13:12:41.582Z</time>
      </trkpt>
      <trkpt lat="51.4607" lon="7.01371">
        <ele>113.823796</ele>
        <time>2023-04-29T13:12:45.575Z</time>
      </trkpt>
      <trkpt lat="51.4606" lon="7.01376">
        <ele>114.504591</ele>
        <time>2023-04-29T13:12:50.570Z</time>
      </trkpt>
      <trkpt lat="51.46049" lon="7.0138">
        <ele>115.152953</ele>
        <time>2023-04-29T13:12:54.555Z</time>
      </trkpt>
      <trkpt lat="51.46037" lon="7.01381">
        <ele>115.882228</ele>
        <time>2023-04-29T13:12:58.582Z</time>
      </trkpt>
      <trkpt lat="51.46026" lon="7.01378">
        <ele>116.32591</ele>
        <time>2023-04-29T13:13:02.576Z</time>
      </trkpt>
      <trkpt lat="51.46016" lon="7.0137">
        <ele>116.692204</ele>
        <time>2023-04-29T13:13:06.575Z</time>
      </trkpt>
      <trkpt lat="51.46005" lon="7.01368">
        <ele>117.051001</ele>
        <time>2023-04-29T13:13:10.572Z</time>
      </trkpt>
      <trkpt lat="51.45994" lon="7.01366">
        <ele>117.395528</ele>
        <time>2023-04-29T13:13:15.569Z</time>
      </trkpt>
      <trkpt lat="51.45982" lon="7.01361">
        <ele>117.77212</ele>
        <time>2023-04-29T13:13:19.564Z</time>
      </trkpt>
      <trkpt lat="51.45972" lon="7.01359">
        <ele>118.088485</ele>
        <time>2023-04-29T13:13:22.574Z</time>
      </trkpt>
      <trkpt lat="51.45962" lon="7.01362">
        <ele>118.428728</ele>
        <time>2023-04-29T13:13:25.555Z</time>
      </trkpt>
      <trkpt lat="51.45951" lon="7.01359">
        <ele>118.772108</ele>
        <time>2023-04-29T13:13:29.563Z</time>
      </trkpt>
      <trkpt lat="51.45942" lon="7.01354">
        <ele>119.08824</ele>
        <time>2023-04-29T13:13:32.572Z</time>
      </trkpt>
      <trkpt lat="51.45932" lon="7.01348">
        <ele>119.413368</ele>
        <time>2023-04-29T13:13:36.576Z</time>
      </trkpt>
      <trkpt lat="51.45923" lon="7.01345">
        <ele>119.703203</ele>
        <time>2023-04-29T13:13:40.571Z</time>
      </trkpt>
      <trkpt lat="51.45914" lon="7.01337">
        <ele>120.037076</ele>
        <time>2023-04-29T13:13:45.563Z</time>
      </trkpt>
      <trkpt lat="51.45903" lon="7.01332">
        <ele>120.382128</ele>
        <time>2023-04-29T13:13:49.563Z</time>
      </trkpt>
      <trkpt lat="51.45894" lon="7.01329">
        <ele>120.688604</ele>
        <time>2023-04-29T13:13:52.587Z</time>
      </trkpt>
      <trkpt lat="51.45883" lon="7.01326">
        <ele>121.037818</ele>
        <time>2023-04-29T13:13:56.554Z</time>
      </trkpt>
      <trkpt lat="51.45872" lon="7.01324">
        <ele>121.395846</ele>
        <time>2023-04-29T13:14:00.565Z</time>
      </trkpt>
      <trkpt lat="51.45861" lon="7.01319">
        <ele>121.749399</ele>
        <time>2023-04-29T13:14:04.576Z</time>
      </trkpt>
      <trkpt lat="51.45852" lon="7.01319">
        <ele>121.764484</ele>
        <time>2023-04-29T13:14:07.567Z</time>
      </trkpt>
      <trkpt lat="51.45843" lon="7.0132">
        <ele>121.764484</ele>
        <time>2023-04-29T13:14:10.546Z</time>
      </trkpt>
      <trkpt lat="51.45833" lon="7.01318">
        <ele>121.764484</ele>
        <time>2023-04-29T13:14:13.590Z</time>
      </trkpt>
      <trkpt lat="51.45824" lon="7.01311">
        <ele>121.764484</ele>
        <time>2023-04-29T13:14:17.580Z</time>
      </trkpt>
      <trkpt lat="51.45816" lon="7.01301">
        <ele>121.764484</ele>
        <time>2023-04-29T13:14:21.582Z</time>
      </trkpt>
      <trkpt lat="51.4581" lon="7.01313">
        <ele>121.764484</ele>
        <time>2023-04-29T13:14:32.568Z</time>
      </trkpt>
      <trkpt lat="51.45806" lon="7.01328">
        <ele>121.764484</ele>
        <time>2023-04-29T13:14:36.401Z</time>
      </trkpt>
      <trkpt lat="51.45802" lon="7.01344">
        <ele>121.764484</ele>
        <time>2023-04-29T13:14:38.565Z</time>
      </trkpt>
      <trkpt lat="51.45799" lon="7.0136">
        <ele>121.764484</ele>
        <time>2023-04-29T13:14:41.564Z</time>
      </trkpt>
      <trkpt lat="51.458" lon="7.01377">
        <ele>121.764484</ele>
        <time>2023-04-29T13:14:45.568Z</time>
      </trkpt>
      <trkpt lat="51.45799" lon="7.01386">
        <ele>121.764484</ele>
        <time>2023-04-29T13:14:55.182Z</time>
      </trkpt>
    </trkseg>
  </trk>
</gpx>